<?xml version="1.0" encoding="UTF-8" standalone="no" ?>
<gpx xmlns="http://www.topografix.com/GPX/1/1" xmlns:xsi="http://www.w3.org/2001/XMLSchema-instance" xsi:schemaLocation="http://www.topografix.com/GPX/1/1 http://www.topografix.com/GPX/1/1/gpx.xsd" version="1.1" creator="VisuGPX - https://www.visugpx.com">
  <metadata>
    <name>Transvolcanique Aller 2013</name>
    <desc><![CDATA[Blanzat - Mont d\'Ore]]></desc>
  </metadata>
  <trk>
    <name><![CDATA[2013-09-21 TRANSVOL ALLER 2013]]></name>
    <trkseg>
      <trkpt lat="45.8212" lon="3.07775">
        <ele>386.11</ele>
        <time>2013-09-21T06:33:00Z</time>
      </trkpt>
      <trkpt lat="45.82122" lon="3.07772">
        <ele>385.15</ele>
        <time>2013-09-21T06:33:13Z</time>
      </trkpt>
      <trkpt lat="45.82127" lon="3.07772">
        <ele>386.11</ele>
        <time>2013-09-21T06:33:17Z</time>
      </trkpt>
      <trkpt lat="45.82147" lon="3.07762">
        <ele>386.11</ele>
        <time>2013-09-21T06:33:29Z</time>
      </trkpt>
      <trkpt lat="45.82155" lon="3.07759">
        <ele>386.11</ele>
        <time>2013-09-21T06:33:33Z</time>
      </trkpt>
      <trkpt lat="45.8216" lon="3.07767">
        <ele>386.59</ele>
        <time>2013-09-21T06:33:40Z</time>
      </trkpt>
      <trkpt lat="45.82164" lon="3.07777">
        <ele>386.11</ele>
        <time>2013-09-21T06:33:52Z</time>
      </trkpt>
      <trkpt lat="45.82165" lon="3.07785">
        <ele>385.63</ele>
        <time>2013-09-21T06:34:06Z</time>
      </trkpt>
      <trkpt lat="45.82167" lon="3.0779">
        <ele>385.63</ele>
        <time>2013-09-21T06:34:22Z</time>
      </trkpt>
      <trkpt lat="45.82169" lon="3.07792">
        <ele>385.63</ele>
        <time>2013-09-21T06:34:38Z</time>
      </trkpt>
      <trkpt lat="45.82172" lon="3.07799">
        <ele>385.15</ele>
        <time>2013-09-21T06:35:02Z</time>
      </trkpt>
      <trkpt lat="45.82195" lon="3.07817">
        <ele>383.7</ele>
        <time>2013-09-21T06:35:17Z</time>
      </trkpt>
      <trkpt lat="45.82216" lon="3.07816">
        <ele>383.22</ele>
        <time>2013-09-21T06:35:38Z</time>
      </trkpt>
      <trkpt lat="45.82221" lon="3.07818">
        <ele>383.22</ele>
        <time>2013-09-21T06:35:44Z</time>
      </trkpt>
      <trkpt lat="45.82223" lon="3.07828">
        <ele>382.26</ele>
        <time>2013-09-21T06:35:48Z</time>
      </trkpt>
      <trkpt lat="45.82233" lon="3.07852">
        <ele>382.26</ele>
        <time>2013-09-21T06:36:10Z</time>
      </trkpt>
      <trkpt lat="45.82233" lon="3.07852">
        <ele>382.74</ele>
        <time>2013-09-21T06:36:33Z</time>
      </trkpt>
      <trkpt lat="45.82224" lon="3.07844">
        <ele>382.26</ele>
        <time>2013-09-21T06:36:43Z</time>
      </trkpt>
      <trkpt lat="45.82253" lon="3.07812">
        <ele>378.42</ele>
        <time>2013-09-21T06:36:58Z</time>
      </trkpt>
      <trkpt lat="45.8234" lon="3.07777">
        <ele>376.49</ele>
        <time>2013-09-21T06:37:10Z</time>
      </trkpt>
      <trkpt lat="45.82406" lon="3.07741">
        <ele>376.97</ele>
        <time>2013-09-21T06:37:24Z</time>
      </trkpt>
      <trkpt lat="45.82466" lon="3.07766">
        <ele>378.9</ele>
        <time>2013-09-21T06:37:39Z</time>
      </trkpt>
      <trkpt lat="45.82523" lon="3.07776">
        <ele>379.86</ele>
        <time>2013-09-21T06:37:56Z</time>
      </trkpt>
      <trkpt lat="45.8255" lon="3.07763">
        <ele>383.22</ele>
        <time>2013-09-21T06:38:07Z</time>
      </trkpt>
      <trkpt lat="45.82601" lon="3.07753">
        <ele>385.15</ele>
        <time>2013-09-21T06:38:26Z</time>
      </trkpt>
      <trkpt lat="45.82685" lon="3.07722">
        <ele>386.59</ele>
        <time>2013-09-21T06:38:51Z</time>
      </trkpt>
      <trkpt lat="45.82759" lon="3.07686">
        <ele>389.95</ele>
        <time>2013-09-21T06:39:15Z</time>
      </trkpt>
      <trkpt lat="45.82796" lon="3.07674">
        <ele>393.32</ele>
        <time>2013-09-21T06:39:29Z</time>
      </trkpt>
      <trkpt lat="45.82798" lon="3.07672">
        <ele>393.8</ele>
        <time>2013-09-21T06:39:30Z</time>
      </trkpt>
      <trkpt lat="45.82818" lon="3.07656">
        <ele>396.68</ele>
        <time>2013-09-21T06:39:39Z</time>
      </trkpt>
      <trkpt lat="45.82822" lon="3.07658">
        <ele>396.68</ele>
        <time>2013-09-21T06:39:40Z</time>
      </trkpt>
      <trkpt lat="45.82854" lon="3.0769">
        <ele>398.6</ele>
        <time>2013-09-21T06:39:58Z</time>
      </trkpt>
      <trkpt lat="45.82857" lon="3.07687">
        <ele>398.6</ele>
        <time>2013-09-21T06:40:00Z</time>
      </trkpt>
      <trkpt lat="45.82858" lon="3.07686">
        <ele>399.08</ele>
        <time>2013-09-21T06:40:01Z</time>
      </trkpt>
      <trkpt lat="45.82859" lon="3.07683">
        <ele>399.08</ele>
        <time>2013-09-21T06:40:02Z</time>
      </trkpt>
      <trkpt lat="45.82859" lon="3.07681">
        <ele>400.05</ele>
        <time>2013-09-21T06:40:03Z</time>
      </trkpt>
      <trkpt lat="45.82859" lon="3.07677">
        <ele>399.57</ele>
        <time>2013-09-21T06:40:04Z</time>
      </trkpt>
      <trkpt lat="45.82859" lon="3.07673">
        <ele>399.08</ele>
        <time>2013-09-21T06:40:05Z</time>
      </trkpt>
      <trkpt lat="45.82857" lon="3.07669">
        <ele>399.57</ele>
        <time>2013-09-21T06:40:06Z</time>
      </trkpt>
      <trkpt lat="45.82856" lon="3.07664">
        <ele>399.57</ele>
        <time>2013-09-21T06:40:07Z</time>
      </trkpt>
      <trkpt lat="45.82859" lon="3.07598">
        <ele>401.97</ele>
        <time>2013-09-21T06:40:26Z</time>
      </trkpt>
      <trkpt lat="45.82873" lon="3.07537">
        <ele>402.93</ele>
        <time>2013-09-21T06:40:42Z</time>
      </trkpt>
      <trkpt lat="45.82877" lon="3.07426">
        <ele>405.33</ele>
        <time>2013-09-21T06:41:06Z</time>
      </trkpt>
      <trkpt lat="45.82868" lon="3.07313">
        <ele>408.7</ele>
        <time>2013-09-21T06:41:32Z</time>
      </trkpt>
      <trkpt lat="45.82868" lon="3.07185">
        <ele>412.06</ele>
        <time>2013-09-21T06:42:00Z</time>
      </trkpt>
      <trkpt lat="45.82867" lon="3.07087">
        <ele>414.95</ele>
        <time>2013-09-21T06:42:22Z</time>
      </trkpt>
      <trkpt lat="45.82882" lon="3.07001">
        <ele>418.31</ele>
        <time>2013-09-21T06:42:41Z</time>
      </trkpt>
      <trkpt lat="45.82886" lon="3.06904">
        <ele>421.68</ele>
        <time>2013-09-21T06:43:02Z</time>
      </trkpt>
      <trkpt lat="45.82883" lon="3.06822">
        <ele>425.04</ele>
        <time>2013-09-21T06:43:21Z</time>
      </trkpt>
      <trkpt lat="45.82898" lon="3.06732">
        <ele>427.92</ele>
        <time>2013-09-21T06:43:42Z</time>
      </trkpt>
      <trkpt lat="45.82895" lon="3.06702">
        <ele>429.37</ele>
        <time>2013-09-21T06:43:50Z</time>
      </trkpt>
      <trkpt lat="45.82853" lon="3.06667">
        <ele>428.89</ele>
        <time>2013-09-21T06:44:05Z</time>
      </trkpt>
      <trkpt lat="45.82837" lon="3.0666">
        <ele>427.92</ele>
        <time>2013-09-21T06:44:13Z</time>
      </trkpt>
      <trkpt lat="45.82833" lon="3.06681">
        <ele>427.44</ele>
        <time>2013-09-21T06:44:15Z</time>
      </trkpt>
      <trkpt lat="45.82803" lon="3.06762">
        <ele>424.08</ele>
        <time>2013-09-21T06:44:26Z</time>
      </trkpt>
      <trkpt lat="45.82749" lon="3.06874">
        <ele>422.64</ele>
        <time>2013-09-21T06:44:45Z</time>
      </trkpt>
      <trkpt lat="45.82749" lon="3.06876">
        <ele>422.64</ele>
        <time>2013-09-21T06:44:51Z</time>
      </trkpt>
      <trkpt lat="45.82779" lon="3.06824">
        <ele>424.56</ele>
        <time>2013-09-21T06:45:04Z</time>
      </trkpt>
      <trkpt lat="45.82832" lon="3.06713">
        <ele>427.44</ele>
        <time>2013-09-21T06:45:33Z</time>
      </trkpt>
      <trkpt lat="45.82857" lon="3.06649">
        <ele>430.33</ele>
        <time>2013-09-21T06:45:51Z</time>
      </trkpt>
      <trkpt lat="45.82871" lon="3.06614">
        <ele>433.21</ele>
        <time>2013-09-21T06:46:04Z</time>
      </trkpt>
      <trkpt lat="45.8288" lon="3.06583">
        <ele>437.06</ele>
        <time>2013-09-21T06:46:16Z</time>
      </trkpt>
      <trkpt lat="45.82902" lon="3.06558">
        <ele>439.94</ele>
        <time>2013-09-21T06:46:31Z</time>
      </trkpt>
      <trkpt lat="45.82906" lon="3.06557">
        <ele>440.9</ele>
        <time>2013-09-21T06:46:33Z</time>
      </trkpt>
      <trkpt lat="45.82925" lon="3.0655">
        <ele>444.27</ele>
        <time>2013-09-21T06:46:43Z</time>
      </trkpt>
      <trkpt lat="45.82976" lon="3.06539">
        <ele>446.19</ele>
        <time>2013-09-21T06:47:07Z</time>
      </trkpt>
      <trkpt lat="45.83027" lon="3.06566">
        <ele>448.59</ele>
        <time>2013-09-21T06:47:30Z</time>
      </trkpt>
      <trkpt lat="45.83069" lon="3.06561">
        <ele>451.48</ele>
        <time>2013-09-21T06:47:47Z</time>
      </trkpt>
      <trkpt lat="45.83101" lon="3.06547">
        <ele>454.36</ele>
        <time>2013-09-21T06:48:02Z</time>
      </trkpt>
      <trkpt lat="45.83144" lon="3.06538">
        <ele>456.76</ele>
        <time>2013-09-21T06:48:21Z</time>
      </trkpt>
      <trkpt lat="45.83177" lon="3.06549">
        <ele>457.24</ele>
        <time>2013-09-21T06:48:33Z</time>
      </trkpt>
      <trkpt lat="45.8322" lon="3.06564">
        <ele>460.13</ele>
        <time>2013-09-21T06:48:50Z</time>
      </trkpt>
      <trkpt lat="45.83237" lon="3.0655">
        <ele>463.01</ele>
        <time>2013-09-21T06:48:58Z</time>
      </trkpt>
      <trkpt lat="45.83271" lon="3.06537">
        <ele>466.38</ele>
        <time>2013-09-21T06:49:13Z</time>
      </trkpt>
      <trkpt lat="45.83312" lon="3.06537">
        <ele>468.78</ele>
        <time>2013-09-21T06:49:29Z</time>
      </trkpt>
      <trkpt lat="45.83355" lon="3.06541">
        <ele>471.66</ele>
        <time>2013-09-21T06:49:47Z</time>
      </trkpt>
      <trkpt lat="45.83386" lon="3.06527">
        <ele>474.07</ele>
        <time>2013-09-21T06:50:00Z</time>
      </trkpt>
      <trkpt lat="45.83416" lon="3.06512">
        <ele>476.47</ele>
        <time>2013-09-21T06:50:14Z</time>
      </trkpt>
      <trkpt lat="45.83433" lon="3.06501">
        <ele>479.84</ele>
        <time>2013-09-21T06:50:23Z</time>
      </trkpt>
      <trkpt lat="45.83453" lon="3.06484">
        <ele>482.72</ele>
        <time>2013-09-21T06:50:35Z</time>
      </trkpt>
      <trkpt lat="45.83473" lon="3.06465">
        <ele>484.64</ele>
        <time>2013-09-21T06:50:47Z</time>
      </trkpt>
      <trkpt lat="45.83503" lon="3.06429">
        <ele>487.53</ele>
        <time>2013-09-21T06:51:05Z</time>
      </trkpt>
      <trkpt lat="45.83525" lon="3.06392">
        <ele>488.97</ele>
        <time>2013-09-21T06:51:20Z</time>
      </trkpt>
      <trkpt lat="45.83546" lon="3.0636">
        <ele>489.93</ele>
        <time>2013-09-21T06:51:34Z</time>
      </trkpt>
      <trkpt lat="45.83569" lon="3.06324">
        <ele>491.85</ele>
        <time>2013-09-21T06:51:48Z</time>
      </trkpt>
      <trkpt lat="45.83585" lon="3.06284">
        <ele>493.77</ele>
        <time>2013-09-21T06:52:02Z</time>
      </trkpt>
      <trkpt lat="45.83588" lon="3.06231">
        <ele>496.18</ele>
        <time>2013-09-21T06:52:17Z</time>
      </trkpt>
      <trkpt lat="45.83594" lon="3.06169">
        <ele>497.62</ele>
        <time>2013-09-21T06:52:31Z</time>
      </trkpt>
      <trkpt lat="45.83596" lon="3.06167">
        <ele>498.1</ele>
        <time>2013-09-21T06:52:32Z</time>
      </trkpt>
      <trkpt lat="45.83598" lon="3.06165">
        <ele>498.1</ele>
        <time>2013-09-21T06:52:33Z</time>
      </trkpt>
      <trkpt lat="45.83619" lon="3.06156">
        <ele>500.98</ele>
        <time>2013-09-21T06:52:41Z</time>
      </trkpt>
      <trkpt lat="45.83621" lon="3.06156">
        <ele>501.46</ele>
        <time>2013-09-21T06:52:42Z</time>
      </trkpt>
      <trkpt lat="45.83653" lon="3.06148">
        <ele>502.91</ele>
        <time>2013-09-21T06:52:54Z</time>
      </trkpt>
      <trkpt lat="45.83685" lon="3.06137">
        <ele>504.35</ele>
        <time>2013-09-21T06:53:06Z</time>
      </trkpt>
      <trkpt lat="45.83721" lon="3.06104">
        <ele>504.83</ele>
        <time>2013-09-21T06:53:21Z</time>
      </trkpt>
      <trkpt lat="45.83745" lon="3.06068">
        <ele>506.75</ele>
        <time>2013-09-21T06:53:34Z</time>
      </trkpt>
      <trkpt lat="45.83781" lon="3.06029">
        <ele>507.71</ele>
        <time>2013-09-21T06:53:50Z</time>
      </trkpt>
      <trkpt lat="45.83813" lon="3.05979">
        <ele>508.67</ele>
        <time>2013-09-21T06:54:05Z</time>
      </trkpt>
      <trkpt lat="45.83831" lon="3.0593">
        <ele>509.16</ele>
        <time>2013-09-21T06:54:19Z</time>
      </trkpt>
      <trkpt lat="45.8383" lon="3.05929">
        <ele>509.16</ele>
        <time>2013-09-21T06:54:31Z</time>
      </trkpt>
      <trkpt lat="45.83832" lon="3.05929">
        <ele>509.16</ele>
        <time>2013-09-21T06:54:55Z</time>
      </trkpt>
      <trkpt lat="45.83832" lon="3.05927">
        <ele>509.16</ele>
        <time>2013-09-21T06:55:06Z</time>
      </trkpt>
      <trkpt lat="45.83833" lon="3.05926">
        <ele>509.16</ele>
        <time>2013-09-21T06:55:07Z</time>
      </trkpt>
      <trkpt lat="45.83869" lon="3.05905">
        <ele>509.16</ele>
        <time>2013-09-21T06:55:18Z</time>
      </trkpt>
      <trkpt lat="45.8389" lon="3.05898">
        <ele>509.64</ele>
        <time>2013-09-21T06:55:23Z</time>
      </trkpt>
      <trkpt lat="45.83904" lon="3.05898">
        <ele>509.64</ele>
        <time>2013-09-21T06:55:26Z</time>
      </trkpt>
      <trkpt lat="45.83961" lon="3.05905">
        <ele>510.12</ele>
        <time>2013-09-21T06:55:38Z</time>
      </trkpt>
      <trkpt lat="45.84017" lon="3.05918">
        <ele>512.52</ele>
        <time>2013-09-21T06:55:50Z</time>
      </trkpt>
      <trkpt lat="45.84021" lon="3.05917">
        <ele>512.04</ele>
        <time>2013-09-21T06:55:51Z</time>
      </trkpt>
      <trkpt lat="45.84025" lon="3.05916">
        <ele>512.04</ele>
        <time>2013-09-21T06:55:52Z</time>
      </trkpt>
      <trkpt lat="45.84074" lon="3.05897">
        <ele>513.96</ele>
        <time>2013-09-21T06:56:05Z</time>
      </trkpt>
      <trkpt lat="45.84075" lon="3.05893">
        <ele>514.92</ele>
        <time>2013-09-21T06:56:06Z</time>
      </trkpt>
      <trkpt lat="45.84075" lon="3.05889">
        <ele>514.92</ele>
        <time>2013-09-21T06:56:07Z</time>
      </trkpt>
      <trkpt lat="45.84064" lon="3.05835">
        <ele>516.85</ele>
        <time>2013-09-21T06:56:21Z</time>
      </trkpt>
      <trkpt lat="45.84072" lon="3.05782">
        <ele>519.25</ele>
        <time>2013-09-21T06:56:34Z</time>
      </trkpt>
      <trkpt lat="45.84083" lon="3.0572">
        <ele>521.65</ele>
        <time>2013-09-21T06:56:48Z</time>
      </trkpt>
      <trkpt lat="45.84084" lon="3.05644">
        <ele>522.61</ele>
        <time>2013-09-21T06:57:04Z</time>
      </trkpt>
      <trkpt lat="45.84089" lon="3.05577">
        <ele>523.09</ele>
        <time>2013-09-21T06:57:18Z</time>
      </trkpt>
      <trkpt lat="45.84092" lon="3.05518">
        <ele>524.06</ele>
        <time>2013-09-21T06:57:30Z</time>
      </trkpt>
      <trkpt lat="45.84093" lon="3.05458">
        <ele>525.02</ele>
        <time>2013-09-21T06:57:43Z</time>
      </trkpt>
      <trkpt lat="45.84092" lon="3.05426">
        <ele>525.02</ele>
        <time>2013-09-21T06:57:49Z</time>
      </trkpt>
      <trkpt lat="45.84092" lon="3.0542">
        <ele>525.02</ele>
        <time>2013-09-21T06:57:50Z</time>
      </trkpt>
      <trkpt lat="45.84093" lon="3.05414">
        <ele>525.5</ele>
        <time>2013-09-21T06:57:51Z</time>
      </trkpt>
      <trkpt lat="45.84098" lon="3.05319">
        <ele>526.46</ele>
        <time>2013-09-21T06:58:05Z</time>
      </trkpt>
      <trkpt lat="45.8409" lon="3.05261">
        <ele>527.9</ele>
        <time>2013-09-21T06:58:14Z</time>
      </trkpt>
      <trkpt lat="45.8409" lon="3.05255">
        <ele>527.42</ele>
        <time>2013-09-21T06:58:15Z</time>
      </trkpt>
      <trkpt lat="45.8409" lon="3.0521">
        <ele>528.38</ele>
        <time>2013-09-21T06:58:22Z</time>
      </trkpt>
      <trkpt lat="45.84089" lon="3.05204">
        <ele>528.86</ele>
        <time>2013-09-21T06:58:23Z</time>
      </trkpt>
      <trkpt lat="45.84086" lon="3.05178">
        <ele>529.34</ele>
        <time>2013-09-21T06:58:27Z</time>
      </trkpt>
      <trkpt lat="45.84086" lon="3.05172">
        <ele>529.82</ele>
        <time>2013-09-21T06:58:28Z</time>
      </trkpt>
      <trkpt lat="45.84086" lon="3.05166">
        <ele>529.82</ele>
        <time>2013-09-21T06:58:29Z</time>
      </trkpt>
      <trkpt lat="45.84087" lon="3.0516">
        <ele>530.3</ele>
        <time>2013-09-21T06:58:30Z</time>
      </trkpt>
      <trkpt lat="45.84087" lon="3.05154">
        <ele>529.82</ele>
        <time>2013-09-21T06:58:31Z</time>
      </trkpt>
      <trkpt lat="45.84094" lon="3.05091">
        <ele>530.79</ele>
        <time>2013-09-21T06:58:41Z</time>
      </trkpt>
      <trkpt lat="45.84095" lon="3.05084">
        <ele>531.27</ele>
        <time>2013-09-21T06:58:42Z</time>
      </trkpt>
      <trkpt lat="45.84096" lon="3.05072">
        <ele>531.75</ele>
        <time>2013-09-21T06:58:44Z</time>
      </trkpt>
      <trkpt lat="45.84097" lon="3.05065">
        <ele>531.27</ele>
        <time>2013-09-21T06:58:45Z</time>
      </trkpt>
      <trkpt lat="45.84105" lon="3.05009">
        <ele>532.71</ele>
        <time>2013-09-21T06:58:54Z</time>
      </trkpt>
      <trkpt lat="45.84106" lon="3.05003">
        <ele>532.71</ele>
        <time>2013-09-21T06:58:55Z</time>
      </trkpt>
      <trkpt lat="45.84106" lon="3.04997">
        <ele>532.71</ele>
        <time>2013-09-21T06:58:56Z</time>
      </trkpt>
      <trkpt lat="45.84106" lon="3.04991">
        <ele>532.71</ele>
        <time>2013-09-21T06:58:57Z</time>
      </trkpt>
      <trkpt lat="45.84105" lon="3.04985">
        <ele>533.19</ele>
        <time>2013-09-21T06:58:58Z</time>
      </trkpt>
      <trkpt lat="45.84101" lon="3.0491">
        <ele>534.15</ele>
        <time>2013-09-21T06:59:10Z</time>
      </trkpt>
      <trkpt lat="45.84101" lon="3.04904">
        <ele>534.15</ele>
        <time>2013-09-21T06:59:11Z</time>
      </trkpt>
      <trkpt lat="45.841" lon="3.04898">
        <ele>534.63</ele>
        <time>2013-09-21T06:59:12Z</time>
      </trkpt>
      <trkpt lat="45.84098" lon="3.04887">
        <ele>534.63</ele>
        <time>2013-09-21T06:59:14Z</time>
      </trkpt>
      <trkpt lat="45.8409" lon="3.0484">
        <ele>535.59</ele>
        <time>2013-09-21T06:59:22Z</time>
      </trkpt>
      <trkpt lat="45.84083" lon="3.04754">
        <ele>537.51</ele>
        <time>2013-09-21T06:59:38Z</time>
      </trkpt>
      <trkpt lat="45.84081" lon="3.04737">
        <ele>537.51</ele>
        <time>2013-09-21T06:59:42Z</time>
      </trkpt>
      <trkpt lat="45.84079" lon="3.04734">
        <ele>537.51</ele>
        <time>2013-09-21T06:59:43Z</time>
      </trkpt>
      <trkpt lat="45.84075" lon="3.04731">
        <ele>537.51</ele>
        <time>2013-09-21T06:59:44Z</time>
      </trkpt>
      <trkpt lat="45.84072" lon="3.04731">
        <ele>537.51</ele>
        <time>2013-09-21T06:59:45Z</time>
      </trkpt>
      <trkpt lat="45.84068" lon="3.04732">
        <ele>537.99</ele>
        <time>2013-09-21T06:59:46Z</time>
      </trkpt>
      <trkpt lat="45.84063" lon="3.04734">
        <ele>537.51</ele>
        <time>2013-09-21T06:59:47Z</time>
      </trkpt>
      <trkpt lat="45.84054" lon="3.04738">
        <ele>537.03</ele>
        <time>2013-09-21T06:59:49Z</time>
      </trkpt>
      <trkpt lat="45.83995" lon="3.04774">
        <ele>536.07</ele>
        <time>2013-09-21T07:00:00Z</time>
      </trkpt>
      <trkpt lat="45.83965" lon="3.04792">
        <ele>534.63</ele>
        <time>2013-09-21T07:00:05Z</time>
      </trkpt>
      <trkpt lat="45.8396" lon="3.0479">
        <ele>534.63</ele>
        <time>2013-09-21T07:00:06Z</time>
      </trkpt>
      <trkpt lat="45.83957" lon="3.04786">
        <ele>535.11</ele>
        <time>2013-09-21T07:00:07Z</time>
      </trkpt>
      <trkpt lat="45.83956" lon="3.04782">
        <ele>535.59</ele>
        <time>2013-09-21T07:00:08Z</time>
      </trkpt>
      <trkpt lat="45.83956" lon="3.04778">
        <ele>536.07</ele>
        <time>2013-09-21T07:00:09Z</time>
      </trkpt>
      <trkpt lat="45.83957" lon="3.04775">
        <ele>537.03</ele>
        <time>2013-09-21T07:00:10Z</time>
      </trkpt>
      <trkpt lat="45.83958" lon="3.04772">
        <ele>537.03</ele>
        <time>2013-09-21T07:00:11Z</time>
      </trkpt>
      <trkpt lat="45.83958" lon="3.04768">
        <ele>536.55</ele>
        <time>2013-09-21T07:00:12Z</time>
      </trkpt>
      <trkpt lat="45.83958" lon="3.04764">
        <ele>537.03</ele>
        <time>2013-09-21T07:00:13Z</time>
      </trkpt>
      <trkpt lat="45.83958" lon="3.0476">
        <ele>537.03</ele>
        <time>2013-09-21T07:00:14Z</time>
      </trkpt>
      <trkpt lat="45.83958" lon="3.04756">
        <ele>537.51</ele>
        <time>2013-09-21T07:00:15Z</time>
      </trkpt>
      <trkpt lat="45.83958" lon="3.04751">
        <ele>537.51</ele>
        <time>2013-09-21T07:00:16Z</time>
      </trkpt>
      <trkpt lat="45.83956" lon="3.04736">
        <ele>537.03</ele>
        <time>2013-09-21T07:00:19Z</time>
      </trkpt>
      <trkpt lat="45.83956" lon="3.0473">
        <ele>537.03</ele>
        <time>2013-09-21T07:00:20Z</time>
      </trkpt>
      <trkpt lat="45.83955" lon="3.04658">
        <ele>539.44</ele>
        <time>2013-09-21T07:00:34Z</time>
      </trkpt>
      <trkpt lat="45.83962" lon="3.04621">
        <ele>540.88</ele>
        <time>2013-09-21T07:00:46Z</time>
      </trkpt>
      <trkpt lat="45.83966" lon="3.04577">
        <ele>542.8</ele>
        <time>2013-09-21T07:01:00Z</time>
      </trkpt>
      <trkpt lat="45.83965" lon="3.04539">
        <ele>546.17</ele>
        <time>2013-09-21T07:01:12Z</time>
      </trkpt>
      <trkpt lat="45.83971" lon="3.04498">
        <ele>546.65</ele>
        <time>2013-09-21T07:01:25Z</time>
      </trkpt>
      <trkpt lat="45.83967" lon="3.0444">
        <ele>549.53</ele>
        <time>2013-09-21T07:01:42Z</time>
      </trkpt>
      <trkpt lat="45.83961" lon="3.04399">
        <ele>551.93</ele>
        <time>2013-09-21T07:01:55Z</time>
      </trkpt>
      <trkpt lat="45.83958" lon="3.04397">
        <ele>552.41</ele>
        <time>2013-09-21T07:01:56Z</time>
      </trkpt>
      <trkpt lat="45.83956" lon="3.04395">
        <ele>552.41</ele>
        <time>2013-09-21T07:01:57Z</time>
      </trkpt>
      <trkpt lat="45.83954" lon="3.04394">
        <ele>552.41</ele>
        <time>2013-09-21T07:01:58Z</time>
      </trkpt>
      <trkpt lat="45.83952" lon="3.04393">
        <ele>552.9</ele>
        <time>2013-09-21T07:01:59Z</time>
      </trkpt>
      <trkpt lat="45.83949" lon="3.04393">
        <ele>553.38</ele>
        <time>2013-09-21T07:02:00Z</time>
      </trkpt>
      <trkpt lat="45.83947" lon="3.04393">
        <ele>553.38</ele>
        <time>2013-09-21T07:02:01Z</time>
      </trkpt>
      <trkpt lat="45.83945" lon="3.04392">
        <ele>553.38</ele>
        <time>2013-09-21T07:02:02Z</time>
      </trkpt>
      <trkpt lat="45.83945" lon="3.0439">
        <ele>553.38</ele>
        <time>2013-09-21T07:02:03Z</time>
      </trkpt>
      <trkpt lat="45.83945" lon="3.04388">
        <ele>553.86</ele>
        <time>2013-09-21T07:02:04Z</time>
      </trkpt>
      <trkpt lat="45.83945" lon="3.04385">
        <ele>553.86</ele>
        <time>2013-09-21T07:02:05Z</time>
      </trkpt>
      <trkpt lat="45.83952" lon="3.04346">
        <ele>555.78</ele>
        <time>2013-09-21T07:02:17Z</time>
      </trkpt>
      <trkpt lat="45.83973" lon="3.04312">
        <ele>557.22</ele>
        <time>2013-09-21T07:02:31Z</time>
      </trkpt>
      <trkpt lat="45.8399" lon="3.04288">
        <ele>558.18</ele>
        <time>2013-09-21T07:02:42Z</time>
      </trkpt>
      <trkpt lat="45.83994" lon="3.04285">
        <ele>559.14</ele>
        <time>2013-09-21T07:02:46Z</time>
      </trkpt>
      <trkpt lat="45.83996" lon="3.04284">
        <ele>559.62</ele>
        <time>2013-09-21T07:02:47Z</time>
      </trkpt>
      <trkpt lat="45.83997" lon="3.04282">
        <ele>559.14</ele>
        <time>2013-09-21T07:02:48Z</time>
      </trkpt>
      <trkpt lat="45.83998" lon="3.04282">
        <ele>559.14</ele>
        <time>2013-09-21T07:02:49Z</time>
      </trkpt>
      <trkpt lat="45.84001" lon="3.04283">
        <ele>559.14</ele>
        <time>2013-09-21T07:02:51Z</time>
      </trkpt>
      <trkpt lat="45.84002" lon="3.04285">
        <ele>559.14</ele>
        <time>2013-09-21T07:02:52Z</time>
      </trkpt>
      <trkpt lat="45.84004" lon="3.04287">
        <ele>559.14</ele>
        <time>2013-09-21T07:02:53Z</time>
      </trkpt>
      <trkpt lat="45.84007" lon="3.04288">
        <ele>559.62</ele>
        <time>2013-09-21T07:02:54Z</time>
      </trkpt>
      <trkpt lat="45.84009" lon="3.04288">
        <ele>560.11</ele>
        <time>2013-09-21T07:02:55Z</time>
      </trkpt>
      <trkpt lat="45.8403" lon="3.04286">
        <ele>561.55</ele>
        <time>2013-09-21T07:03:04Z</time>
      </trkpt>
      <trkpt lat="45.84057" lon="3.0426">
        <ele>563.47</ele>
        <time>2013-09-21T07:03:18Z</time>
      </trkpt>
      <trkpt lat="45.84077" lon="3.04219">
        <ele>566.35</ele>
        <time>2013-09-21T07:03:32Z</time>
      </trkpt>
      <trkpt lat="45.8407" lon="3.04173">
        <ele>568.76</ele>
        <time>2013-09-21T07:03:46Z</time>
      </trkpt>
      <trkpt lat="45.84052" lon="3.04146">
        <ele>570.2</ele>
        <time>2013-09-21T07:03:57Z</time>
      </trkpt>
      <trkpt lat="45.8405" lon="3.04146">
        <ele>570.2</ele>
        <time>2013-09-21T07:03:58Z</time>
      </trkpt>
      <trkpt lat="45.84049" lon="3.04148">
        <ele>569.72</ele>
        <time>2013-09-21T07:03:59Z</time>
      </trkpt>
      <trkpt lat="45.84049" lon="3.04151">
        <ele>570.2</ele>
        <time>2013-09-21T07:04:00Z</time>
      </trkpt>
      <trkpt lat="45.8405" lon="3.04152">
        <ele>570.2</ele>
        <time>2013-09-21T07:04:01Z</time>
      </trkpt>
      <trkpt lat="45.84052" lon="3.04153">
        <ele>569.72</ele>
        <time>2013-09-21T07:04:02Z</time>
      </trkpt>
      <trkpt lat="45.84053" lon="3.0415">
        <ele>569.72</ele>
        <time>2013-09-21T07:04:03Z</time>
      </trkpt>
      <trkpt lat="45.84053" lon="3.04147">
        <ele>569.72</ele>
        <time>2013-09-21T07:04:04Z</time>
      </trkpt>
      <trkpt lat="45.84052" lon="3.04144">
        <ele>569.72</ele>
        <time>2013-09-21T07:04:05Z</time>
      </trkpt>
      <trkpt lat="45.84051" lon="3.04141">
        <ele>569.72</ele>
        <time>2013-09-21T07:04:06Z</time>
      </trkpt>
      <trkpt lat="45.84049" lon="3.04138">
        <ele>569.72</ele>
        <time>2013-09-21T07:04:07Z</time>
      </trkpt>
      <trkpt lat="45.84033" lon="3.04095">
        <ele>571.16</ele>
        <time>2013-09-21T07:04:21Z</time>
      </trkpt>
      <trkpt lat="45.84023" lon="3.04053">
        <ele>572.12</ele>
        <time>2013-09-21T07:04:34Z</time>
      </trkpt>
      <trkpt lat="45.84014" lon="3.04001">
        <ele>573.08</ele>
        <time>2013-09-21T07:04:50Z</time>
      </trkpt>
      <trkpt lat="45.84007" lon="3.0394">
        <ele>575.49</ele>
        <time>2013-09-21T07:05:07Z</time>
      </trkpt>
      <trkpt lat="45.83992" lon="3.03918">
        <ele>578.85</ele>
        <time>2013-09-21T07:05:18Z</time>
      </trkpt>
      <trkpt lat="45.83983" lon="3.03907">
        <ele>580.29</ele>
        <time>2013-09-21T07:05:25Z</time>
      </trkpt>
      <trkpt lat="45.83982" lon="3.03905">
        <ele>580.29</ele>
        <time>2013-09-21T07:05:26Z</time>
      </trkpt>
      <trkpt lat="45.83978" lon="3.0386">
        <ele>583.18</ele>
        <time>2013-09-21T07:05:40Z</time>
      </trkpt>
      <trkpt lat="45.83982" lon="3.03807">
        <ele>585.58</ele>
        <time>2013-09-21T07:05:55Z</time>
      </trkpt>
      <trkpt lat="45.83991" lon="3.0377">
        <ele>587.98</ele>
        <time>2013-09-21T07:06:07Z</time>
      </trkpt>
      <trkpt lat="45.84007" lon="3.03729">
        <ele>588.46</ele>
        <time>2013-09-21T07:06:21Z</time>
      </trkpt>
      <trkpt lat="45.84024" lon="3.03691">
        <ele>591.35</ele>
        <time>2013-09-21T07:06:35Z</time>
      </trkpt>
      <trkpt lat="45.84037" lon="3.03657">
        <ele>593.75</ele>
        <time>2013-09-21T07:06:48Z</time>
      </trkpt>
      <trkpt lat="45.84052" lon="3.03623">
        <ele>596.15</ele>
        <time>2013-09-21T07:07:02Z</time>
      </trkpt>
      <trkpt lat="45.84068" lon="3.03582">
        <ele>599.04</ele>
        <time>2013-09-21T07:07:18Z</time>
      </trkpt>
      <trkpt lat="45.84076" lon="3.03551">
        <ele>601.92</ele>
        <time>2013-09-21T07:07:30Z</time>
      </trkpt>
      <trkpt lat="45.84089" lon="3.03523">
        <ele>603.85</ele>
        <time>2013-09-21T07:07:43Z</time>
      </trkpt>
      <trkpt lat="45.84104" lon="3.03487">
        <ele>604.81</ele>
        <time>2013-09-21T07:07:56Z</time>
      </trkpt>
      <trkpt lat="45.84109" lon="3.03458">
        <ele>605.77</ele>
        <time>2013-09-21T07:08:05Z</time>
      </trkpt>
      <trkpt lat="45.84109" lon="3.03455">
        <ele>605.77</ele>
        <time>2013-09-21T07:08:06Z</time>
      </trkpt>
      <trkpt lat="45.84109" lon="3.03452">
        <ele>605.77</ele>
        <time>2013-09-21T07:08:07Z</time>
      </trkpt>
      <trkpt lat="45.84109" lon="3.03419">
        <ele>608.65</ele>
        <time>2013-09-21T07:08:19Z</time>
      </trkpt>
      <trkpt lat="45.8411" lon="3.03383">
        <ele>610.09</ele>
        <time>2013-09-21T07:08:31Z</time>
      </trkpt>
      <trkpt lat="45.84116" lon="3.03338">
        <ele>612.02</ele>
        <time>2013-09-21T07:08:46Z</time>
      </trkpt>
      <trkpt lat="45.84133" lon="3.03302">
        <ele>614.42</ele>
        <time>2013-09-21T07:09:01Z</time>
      </trkpt>
      <trkpt lat="45.84141" lon="3.03282">
        <ele>616.34</ele>
        <time>2013-09-21T07:09:09Z</time>
      </trkpt>
      <trkpt lat="45.84141" lon="3.03279">
        <ele>615.86</ele>
        <time>2013-09-21T07:09:10Z</time>
      </trkpt>
      <trkpt lat="45.84142" lon="3.03276">
        <ele>616.34</ele>
        <time>2013-09-21T07:09:11Z</time>
      </trkpt>
      <trkpt lat="45.84142" lon="3.03273">
        <ele>615.86</ele>
        <time>2013-09-21T07:09:12Z</time>
      </trkpt>
      <trkpt lat="45.84143" lon="3.03271">
        <ele>616.34</ele>
        <time>2013-09-21T07:09:13Z</time>
      </trkpt>
      <trkpt lat="45.84145" lon="3.03269">
        <ele>616.82</ele>
        <time>2013-09-21T07:09:14Z</time>
      </trkpt>
      <trkpt lat="45.84146" lon="3.03267">
        <ele>616.34</ele>
        <time>2013-09-21T07:09:15Z</time>
      </trkpt>
      <trkpt lat="45.84147" lon="3.03265">
        <ele>616.82</ele>
        <time>2013-09-21T07:09:16Z</time>
      </trkpt>
      <trkpt lat="45.84159" lon="3.03236">
        <ele>618.75</ele>
        <time>2013-09-21T07:09:28Z</time>
      </trkpt>
      <trkpt lat="45.84164" lon="3.03215">
        <ele>621.15</ele>
        <time>2013-09-21T07:09:36Z</time>
      </trkpt>
      <trkpt lat="45.84161" lon="3.03177">
        <ele>623.07</ele>
        <time>2013-09-21T07:09:49Z</time>
      </trkpt>
      <trkpt lat="45.84161" lon="3.03128">
        <ele>622.59</ele>
        <time>2013-09-21T07:10:02Z</time>
      </trkpt>
      <trkpt lat="45.84166" lon="3.03073">
        <ele>624.03</ele>
        <time>2013-09-21T07:10:14Z</time>
      </trkpt>
      <trkpt lat="45.84172" lon="3.03">
        <ele>624.99</ele>
        <time>2013-09-21T07:10:29Z</time>
      </trkpt>
      <trkpt lat="45.84175" lon="3.02945">
        <ele>625.96</ele>
        <time>2013-09-21T07:10:41Z</time>
      </trkpt>
      <trkpt lat="45.84179" lon="3.02885">
        <ele>626.44</ele>
        <time>2013-09-21T07:10:55Z</time>
      </trkpt>
      <trkpt lat="45.84193" lon="3.02831">
        <ele>627.4</ele>
        <time>2013-09-21T07:11:08Z</time>
      </trkpt>
      <trkpt lat="45.84204" lon="3.02767">
        <ele>628.84</ele>
        <time>2013-09-21T07:11:22Z</time>
      </trkpt>
      <trkpt lat="45.84214" lon="3.02698">
        <ele>630.76</ele>
        <time>2013-09-21T07:11:37Z</time>
      </trkpt>
      <trkpt lat="45.84231" lon="3.02638">
        <ele>632.68</ele>
        <time>2013-09-21T07:11:51Z</time>
      </trkpt>
      <trkpt lat="45.84248" lon="3.02592">
        <ele>633.65</ele>
        <time>2013-09-21T07:12:02Z</time>
      </trkpt>
      <trkpt lat="45.8427" lon="3.02528">
        <ele>635.57</ele>
        <time>2013-09-21T07:12:17Z</time>
      </trkpt>
      <trkpt lat="45.84278" lon="3.02519">
        <ele>637.01</ele>
        <time>2013-09-21T07:12:21Z</time>
      </trkpt>
      <trkpt lat="45.8428" lon="3.0252">
        <ele>636.53</ele>
        <time>2013-09-21T07:12:22Z</time>
      </trkpt>
      <trkpt lat="45.84282" lon="3.02522">
        <ele>636.05</ele>
        <time>2013-09-21T07:12:23Z</time>
      </trkpt>
      <trkpt lat="45.84285" lon="3.02525">
        <ele>636.05</ele>
        <time>2013-09-21T07:12:24Z</time>
      </trkpt>
      <trkpt lat="45.84287" lon="3.02527">
        <ele>636.53</ele>
        <time>2013-09-21T07:12:25Z</time>
      </trkpt>
      <trkpt lat="45.8429" lon="3.02529">
        <ele>637.01</ele>
        <time>2013-09-21T07:12:26Z</time>
      </trkpt>
      <trkpt lat="45.84292" lon="3.02531">
        <ele>637.01</ele>
        <time>2013-09-21T07:12:27Z</time>
      </trkpt>
      <trkpt lat="45.84294" lon="3.02534">
        <ele>637.01</ele>
        <time>2013-09-21T07:12:28Z</time>
      </trkpt>
      <trkpt lat="45.84332" lon="3.02565">
        <ele>638.93</ele>
        <time>2013-09-21T07:12:43Z</time>
      </trkpt>
      <trkpt lat="45.84338" lon="3.02566">
        <ele>638.93</ele>
        <time>2013-09-21T07:12:45Z</time>
      </trkpt>
      <trkpt lat="45.8434" lon="3.02565">
        <ele>638.93</ele>
        <time>2013-09-21T07:12:46Z</time>
      </trkpt>
      <trkpt lat="45.8436" lon="3.0255">
        <ele>642.78</ele>
        <time>2013-09-21T07:12:55Z</time>
      </trkpt>
      <trkpt lat="45.84361" lon="3.02547">
        <ele>642.3</ele>
        <time>2013-09-21T07:12:56Z</time>
      </trkpt>
      <trkpt lat="45.84362" lon="3.02544">
        <ele>642.78</ele>
        <time>2013-09-21T07:12:57Z</time>
      </trkpt>
      <trkpt lat="45.84364" lon="3.02542">
        <ele>642.78</ele>
        <time>2013-09-21T07:12:58Z</time>
      </trkpt>
      <trkpt lat="45.84366" lon="3.0254">
        <ele>643.74</ele>
        <time>2013-09-21T07:12:59Z</time>
      </trkpt>
      <trkpt lat="45.84379" lon="3.02518">
        <ele>646.14</ele>
        <time>2013-09-21T07:13:09Z</time>
      </trkpt>
      <trkpt lat="45.84382" lon="3.02515">
        <ele>646.62</ele>
        <time>2013-09-21T07:13:11Z</time>
      </trkpt>
      <trkpt lat="45.84386" lon="3.02514">
        <ele>647.1</ele>
        <time>2013-09-21T07:13:13Z</time>
      </trkpt>
      <trkpt lat="45.84389" lon="3.02516">
        <ele>647.1</ele>
        <time>2013-09-21T07:13:14Z</time>
      </trkpt>
      <trkpt lat="45.84391" lon="3.02517">
        <ele>647.59</ele>
        <time>2013-09-21T07:13:15Z</time>
      </trkpt>
      <trkpt lat="45.84393" lon="3.02519">
        <ele>647.59</ele>
        <time>2013-09-21T07:13:16Z</time>
      </trkpt>
      <trkpt lat="45.84395" lon="3.02521">
        <ele>647.59</ele>
        <time>2013-09-21T07:13:17Z</time>
      </trkpt>
      <trkpt lat="45.84397" lon="3.02523">
        <ele>647.59</ele>
        <time>2013-09-21T07:13:18Z</time>
      </trkpt>
      <trkpt lat="45.84417" lon="3.02506">
        <ele>649.51</ele>
        <time>2013-09-21T07:13:30Z</time>
      </trkpt>
      <trkpt lat="45.84423" lon="3.02489">
        <ele>650.95</ele>
        <time>2013-09-21T07:13:36Z</time>
      </trkpt>
      <trkpt lat="45.84434" lon="3.0244">
        <ele>652.39</ele>
        <time>2013-09-21T07:13:52Z</time>
      </trkpt>
      <trkpt lat="45.84431" lon="3.02391">
        <ele>654.8</ele>
        <time>2013-09-21T07:14:07Z</time>
      </trkpt>
      <trkpt lat="45.8443" lon="3.02376">
        <ele>655.76</ele>
        <time>2013-09-21T07:14:12Z</time>
      </trkpt>
      <trkpt lat="45.84423" lon="3.0232">
        <ele>658.16</ele>
        <time>2013-09-21T07:14:29Z</time>
      </trkpt>
      <trkpt lat="45.84419" lon="3.02272">
        <ele>659.6</ele>
        <time>2013-09-21T07:14:45Z</time>
      </trkpt>
      <trkpt lat="45.84422" lon="3.02228">
        <ele>662.49</ele>
        <time>2013-09-21T07:15:01Z</time>
      </trkpt>
      <trkpt lat="45.84426" lon="3.02206">
        <ele>662.49</ele>
        <time>2013-09-21T07:15:09Z</time>
      </trkpt>
      <trkpt lat="45.84428" lon="3.02206">
        <ele>662.49</ele>
        <time>2013-09-21T07:15:10Z</time>
      </trkpt>
      <trkpt lat="45.8443" lon="3.02206">
        <ele>662.97</ele>
        <time>2013-09-21T07:15:11Z</time>
      </trkpt>
      <trkpt lat="45.84432" lon="3.02206">
        <ele>663.45</ele>
        <time>2013-09-21T07:15:12Z</time>
      </trkpt>
      <trkpt lat="45.84433" lon="3.02206">
        <ele>663.45</ele>
        <time>2013-09-21T07:15:13Z</time>
      </trkpt>
      <trkpt lat="45.84435" lon="3.02206">
        <ele>663.93</ele>
        <time>2013-09-21T07:15:14Z</time>
      </trkpt>
      <trkpt lat="45.84436" lon="3.02206">
        <ele>663.93</ele>
        <time>2013-09-21T07:15:15Z</time>
      </trkpt>
      <trkpt lat="45.84438" lon="3.02205">
        <ele>664.41</ele>
        <time>2013-09-21T07:15:16Z</time>
      </trkpt>
      <trkpt lat="45.84456" lon="3.02196">
        <ele>667.29</ele>
        <time>2013-09-21T07:15:26Z</time>
      </trkpt>
      <trkpt lat="45.8448" lon="3.02189">
        <ele>668.73</ele>
        <time>2013-09-21T07:15:40Z</time>
      </trkpt>
      <trkpt lat="45.84485" lon="3.02191">
        <ele>668.25</ele>
        <time>2013-09-21T07:16:07Z</time>
      </trkpt>
      <trkpt lat="45.84478" lon="3.02187">
        <ele>667.77</ele>
        <time>2013-09-21T07:16:41Z</time>
      </trkpt>
      <trkpt lat="45.8448" lon="3.02188">
        <ele>668.73</ele>
        <time>2013-09-21T07:16:55Z</time>
      </trkpt>
      <trkpt lat="45.84478" lon="3.02192">
        <ele>668.73</ele>
        <time>2013-09-21T07:17:24Z</time>
      </trkpt>
      <trkpt lat="45.84475" lon="3.02194">
        <ele>668.73</ele>
        <time>2013-09-21T07:17:53Z</time>
      </trkpt>
      <trkpt lat="45.84479" lon="3.02193">
        <ele>668.25</ele>
        <time>2013-09-21T07:18:21Z</time>
      </trkpt>
      <trkpt lat="45.84482" lon="3.02189">
        <ele>668.73</ele>
        <time>2013-09-21T07:18:48Z</time>
      </trkpt>
      <trkpt lat="45.84479" lon="3.02191">
        <ele>669.22</ele>
        <time>2013-09-21T07:19:15Z</time>
      </trkpt>
      <trkpt lat="45.8448" lon="3.02186">
        <ele>669.22</ele>
        <time>2013-09-21T07:19:44Z</time>
      </trkpt>
      <trkpt lat="45.84477" lon="3.02201">
        <ele>668.73</ele>
        <time>2013-09-21T07:20:07Z</time>
      </trkpt>
      <trkpt lat="45.84479" lon="3.02199">
        <ele>668.73</ele>
        <time>2013-09-21T07:20:31Z</time>
      </trkpt>
      <trkpt lat="45.8448" lon="3.02185">
        <ele>668.73</ele>
        <time>2013-09-21T07:20:56Z</time>
      </trkpt>
      <trkpt lat="45.84483" lon="3.02182">
        <ele>669.22</ele>
        <time>2013-09-21T07:20:58Z</time>
      </trkpt>
      <trkpt lat="45.84508" lon="3.02149">
        <ele>672.58</ele>
        <time>2013-09-21T07:21:11Z</time>
      </trkpt>
      <trkpt lat="45.84525" lon="3.02126">
        <ele>675.46</ele>
        <time>2013-09-21T07:21:23Z</time>
      </trkpt>
      <trkpt lat="45.84538" lon="3.02099">
        <ele>678.83</ele>
        <time>2013-09-21T07:21:37Z</time>
      </trkpt>
      <trkpt lat="45.84546" lon="3.0206">
        <ele>682.19</ele>
        <time>2013-09-21T07:21:53Z</time>
      </trkpt>
      <trkpt lat="45.8455" lon="3.02027">
        <ele>685.56</ele>
        <time>2013-09-21T07:22:08Z</time>
      </trkpt>
      <trkpt lat="45.84564" lon="3.01994">
        <ele>688.92</ele>
        <time>2013-09-21T07:22:24Z</time>
      </trkpt>
      <trkpt lat="45.84577" lon="3.01957">
        <ele>692.29</ele>
        <time>2013-09-21T07:22:44Z</time>
      </trkpt>
      <trkpt lat="45.84583" lon="3.0191">
        <ele>695.17</ele>
        <time>2013-09-21T07:23:03Z</time>
      </trkpt>
      <trkpt lat="45.84585" lon="3.01883">
        <ele>698.05</ele>
        <time>2013-09-21T07:23:15Z</time>
      </trkpt>
      <trkpt lat="45.84581" lon="3.01844">
        <ele>701.42</ele>
        <time>2013-09-21T07:23:31Z</time>
      </trkpt>
      <trkpt lat="45.84576" lon="3.01801">
        <ele>704.78</ele>
        <time>2013-09-21T07:23:48Z</time>
      </trkpt>
      <trkpt lat="45.84567" lon="3.01755">
        <ele>708.15</ele>
        <time>2013-09-21T07:24:06Z</time>
      </trkpt>
      <trkpt lat="45.84569" lon="3.01713">
        <ele>711.03</ele>
        <time>2013-09-21T07:24:22Z</time>
      </trkpt>
      <trkpt lat="45.84552" lon="3.01665">
        <ele>712.47</ele>
        <time>2013-09-21T07:24:41Z</time>
      </trkpt>
      <trkpt lat="45.84541" lon="3.01594">
        <ele>715.84</ele>
        <time>2013-09-21T07:25:08Z</time>
      </trkpt>
      <trkpt lat="45.84505" lon="3.01568">
        <ele>716.8</ele>
        <time>2013-09-21T07:25:27Z</time>
      </trkpt>
      <trkpt lat="45.84492" lon="3.0156">
        <ele>716.8</ele>
        <time>2013-09-21T07:25:33Z</time>
      </trkpt>
      <trkpt lat="45.84488" lon="3.01507">
        <ele>718.24</ele>
        <time>2013-09-21T07:25:49Z</time>
      </trkpt>
      <trkpt lat="45.8453" lon="3.01501">
        <ele>721.61</ele>
        <time>2013-09-21T07:26:06Z</time>
      </trkpt>
      <trkpt lat="45.84555" lon="3.01491">
        <ele>724.97</ele>
        <time>2013-09-21T07:26:19Z</time>
      </trkpt>
      <trkpt lat="45.84568" lon="3.01451">
        <ele>728.34</ele>
        <time>2013-09-21T07:26:35Z</time>
      </trkpt>
      <trkpt lat="45.84573" lon="3.01412">
        <ele>731.22</ele>
        <time>2013-09-21T07:26:51Z</time>
      </trkpt>
      <trkpt lat="45.84572" lon="3.01382">
        <ele>734.1</ele>
        <time>2013-09-21T07:27:04Z</time>
      </trkpt>
      <trkpt lat="45.8457" lon="3.01354">
        <ele>735.55</ele>
        <time>2013-09-21T07:27:22Z</time>
      </trkpt>
      <trkpt lat="45.84576" lon="3.01325">
        <ele>738.91</ele>
        <time>2013-09-21T07:27:38Z</time>
      </trkpt>
      <trkpt lat="45.84583" lon="3.01285">
        <ele>741.79</ele>
        <time>2013-09-21T07:27:56Z</time>
      </trkpt>
      <trkpt lat="45.84569" lon="3.01228">
        <ele>743.72</ele>
        <time>2013-09-21T07:28:20Z</time>
      </trkpt>
      <trkpt lat="45.84575" lon="3.01166">
        <ele>746.12</ele>
        <time>2013-09-21T07:28:42Z</time>
      </trkpt>
      <trkpt lat="45.84584" lon="3.01085">
        <ele>748.52</ele>
        <time>2013-09-21T07:29:07Z</time>
      </trkpt>
      <trkpt lat="45.84599" lon="3.01016">
        <ele>751.41</ele>
        <time>2013-09-21T07:29:29Z</time>
      </trkpt>
      <trkpt lat="45.846" lon="3.00944">
        <ele>753.33</ele>
        <time>2013-09-21T07:29:51Z</time>
      </trkpt>
      <trkpt lat="45.84593" lon="3.00883">
        <ele>756.69</ele>
        <time>2013-09-21T07:30:09Z</time>
      </trkpt>
      <trkpt lat="45.84598" lon="3.00808">
        <ele>757.66</ele>
        <time>2013-09-21T07:30:27Z</time>
      </trkpt>
      <trkpt lat="45.84611" lon="3.00731">
        <ele>761.02</ele>
        <time>2013-09-21T07:30:49Z</time>
      </trkpt>
      <trkpt lat="45.84626" lon="3.00653">
        <ele>764.39</ele>
        <time>2013-09-21T07:31:10Z</time>
      </trkpt>
      <trkpt lat="45.8463" lon="3.00594">
        <ele>767.75</ele>
        <time>2013-09-21T07:31:33Z</time>
      </trkpt>
      <trkpt lat="45.84635" lon="3.00533">
        <ele>769.19</ele>
        <time>2013-09-21T07:31:52Z</time>
      </trkpt>
      <trkpt lat="45.84638" lon="3.00483">
        <ele>773.04</ele>
        <time>2013-09-21T07:32:09Z</time>
      </trkpt>
      <trkpt lat="45.84643" lon="3.00422">
        <ele>774.96</ele>
        <time>2013-09-21T07:32:30Z</time>
      </trkpt>
      <trkpt lat="45.84653" lon="3.00355">
        <ele>776.88</ele>
        <time>2013-09-21T07:32:52Z</time>
      </trkpt>
      <trkpt lat="45.84667" lon="3.00296">
        <ele>779.77</ele>
        <time>2013-09-21T07:33:14Z</time>
      </trkpt>
      <trkpt lat="45.84689" lon="3.0025">
        <ele>782.65</ele>
        <time>2013-09-21T07:33:34Z</time>
      </trkpt>
      <trkpt lat="45.84707" lon="3.00192">
        <ele>786.02</ele>
        <time>2013-09-21T07:33:53Z</time>
      </trkpt>
      <trkpt lat="45.84721" lon="3.0014">
        <ele>787.94</ele>
        <time>2013-09-21T07:34:16Z</time>
      </trkpt>
      <trkpt lat="45.84722" lon="3.00125">
        <ele>787.94</ele>
        <time>2013-09-21T07:34:22Z</time>
      </trkpt>
      <trkpt lat="45.84723" lon="3.00122">
        <ele>788.42</ele>
        <time>2013-09-21T07:34:23Z</time>
      </trkpt>
      <trkpt lat="45.84736" lon="3.00059">
        <ele>791.3</ele>
        <time>2013-09-21T07:34:40Z</time>
      </trkpt>
      <trkpt lat="45.84744" lon="2.99989">
        <ele>794.67</ele>
        <time>2013-09-21T07:35:03Z</time>
      </trkpt>
      <trkpt lat="45.84744" lon="2.99921">
        <ele>796.59</ele>
        <time>2013-09-21T07:35:26Z</time>
      </trkpt>
      <trkpt lat="45.84734" lon="2.99864">
        <ele>798.99</ele>
        <time>2013-09-21T07:35:45Z</time>
      </trkpt>
      <trkpt lat="45.84739" lon="2.99794">
        <ele>802.36</ele>
        <time>2013-09-21T07:36:07Z</time>
      </trkpt>
      <trkpt lat="45.84758" lon="2.9971">
        <ele>803.32</ele>
        <time>2013-09-21T07:36:27Z</time>
      </trkpt>
      <trkpt lat="45.84777" lon="2.99614">
        <ele>804.76</ele>
        <time>2013-09-21T07:36:48Z</time>
      </trkpt>
      <trkpt lat="45.84807" lon="2.99539">
        <ele>807.16</ele>
        <time>2013-09-21T07:37:08Z</time>
      </trkpt>
      <trkpt lat="45.84791" lon="2.9949">
        <ele>809.09</ele>
        <time>2013-09-21T07:37:23Z</time>
      </trkpt>
      <trkpt lat="45.84751" lon="2.99454">
        <ele>812.45</ele>
        <time>2013-09-21T07:37:38Z</time>
      </trkpt>
      <trkpt lat="45.84707" lon="2.99409">
        <ele>815.34</ele>
        <time>2013-09-21T07:37:55Z</time>
      </trkpt>
      <trkpt lat="45.84661" lon="2.99356">
        <ele>818.22</ele>
        <time>2013-09-21T07:38:18Z</time>
      </trkpt>
      <trkpt lat="45.8461" lon="2.99292">
        <ele>819.66</ele>
        <time>2013-09-21T07:38:40Z</time>
      </trkpt>
      <trkpt lat="45.84612" lon="2.9924">
        <ele>822.55</ele>
        <time>2013-09-21T07:38:56Z</time>
      </trkpt>
      <trkpt lat="45.84616" lon="2.99182">
        <ele>825.91</ele>
        <time>2013-09-21T07:39:14Z</time>
      </trkpt>
      <trkpt lat="45.84623" lon="2.99117">
        <ele>829.27</ele>
        <time>2013-09-21T07:39:33Z</time>
      </trkpt>
      <trkpt lat="45.84629" lon="2.99047">
        <ele>831.2</ele>
        <time>2013-09-21T07:39:54Z</time>
      </trkpt>
      <trkpt lat="45.84637" lon="2.98939">
        <ele>832.64</ele>
        <time>2013-09-21T07:40:21Z</time>
      </trkpt>
      <trkpt lat="45.84642" lon="2.9884">
        <ele>834.56</ele>
        <time>2013-09-21T07:40:45Z</time>
      </trkpt>
      <trkpt lat="45.84648" lon="2.98757">
        <ele>836</ele>
        <time>2013-09-21T07:41:07Z</time>
      </trkpt>
      <trkpt lat="45.8465" lon="2.98689">
        <ele>837.45</ele>
        <time>2013-09-21T07:41:27Z</time>
      </trkpt>
      <trkpt lat="45.84654" lon="2.98655">
        <ele>838.41</ele>
        <time>2013-09-21T07:41:43Z</time>
      </trkpt>
      <trkpt lat="45.84661" lon="2.98568">
        <ele>840.33</ele>
        <time>2013-09-21T07:42:05Z</time>
      </trkpt>
      <trkpt lat="45.84666" lon="2.98481">
        <ele>842.73</ele>
        <time>2013-09-21T07:42:28Z</time>
      </trkpt>
      <trkpt lat="45.84677" lon="2.98371">
        <ele>844.66</ele>
        <time>2013-09-21T07:42:56Z</time>
      </trkpt>
      <trkpt lat="45.84677" lon="2.98293">
        <ele>848.02</ele>
        <time>2013-09-21T07:43:17Z</time>
      </trkpt>
      <trkpt lat="45.84679" lon="2.98227">
        <ele>850.9</ele>
        <time>2013-09-21T07:43:36Z</time>
      </trkpt>
      <trkpt lat="45.84683" lon="2.98153">
        <ele>853.79</ele>
        <time>2013-09-21T07:43:59Z</time>
      </trkpt>
      <trkpt lat="45.84688" lon="2.98095">
        <ele>857.63</ele>
        <time>2013-09-21T07:44:20Z</time>
      </trkpt>
      <trkpt lat="45.84691" lon="2.98068">
        <ele>858.59</ele>
        <time>2013-09-21T07:44:32Z</time>
      </trkpt>
      <trkpt lat="45.84693" lon="2.98068">
        <ele>859.08</ele>
        <time>2013-09-21T07:44:33Z</time>
      </trkpt>
      <trkpt lat="45.84695" lon="2.98068">
        <ele>858.11</ele>
        <time>2013-09-21T07:44:34Z</time>
      </trkpt>
      <trkpt lat="45.84746" lon="2.98097">
        <ele>856.19</ele>
        <time>2013-09-21T07:44:49Z</time>
      </trkpt>
      <trkpt lat="45.84831" lon="2.9815">
        <ele>854.75</ele>
        <time>2013-09-21T07:45:12Z</time>
      </trkpt>
      <trkpt lat="45.84881" lon="2.98183">
        <ele>851.87</ele>
        <time>2013-09-21T07:45:23Z</time>
      </trkpt>
      <trkpt lat="45.84886" lon="2.98183">
        <ele>852.83</ele>
        <time>2013-09-21T07:45:24Z</time>
      </trkpt>
      <trkpt lat="45.8489" lon="2.98182">
        <ele>852.35</ele>
        <time>2013-09-21T07:45:25Z</time>
      </trkpt>
      <trkpt lat="45.84893" lon="2.9818">
        <ele>852.83</ele>
        <time>2013-09-21T07:45:26Z</time>
      </trkpt>
      <trkpt lat="45.84895" lon="2.98178">
        <ele>853.31</ele>
        <time>2013-09-21T07:45:27Z</time>
      </trkpt>
      <trkpt lat="45.84906" lon="2.98125">
        <ele>853.79</ele>
        <time>2013-09-21T07:45:41Z</time>
      </trkpt>
      <trkpt lat="45.84916" lon="2.98084">
        <ele>857.15</ele>
        <time>2013-09-21T07:45:55Z</time>
      </trkpt>
      <trkpt lat="45.84924" lon="2.98043">
        <ele>860.52</ele>
        <time>2013-09-21T07:46:13Z</time>
      </trkpt>
      <trkpt lat="45.84929" lon="2.98011">
        <ele>863.4</ele>
        <time>2013-09-21T07:46:27Z</time>
      </trkpt>
      <trkpt lat="45.84967" lon="2.97952">
        <ele>863.88</ele>
        <time>2013-09-21T07:46:47Z</time>
      </trkpt>
      <trkpt lat="45.85019" lon="2.9789">
        <ele>863.88</ele>
        <time>2013-09-21T07:47:09Z</time>
      </trkpt>
      <trkpt lat="45.85066" lon="2.97879">
        <ele>864.36</ele>
        <time>2013-09-21T07:47:26Z</time>
      </trkpt>
      <trkpt lat="45.85102" lon="2.97875">
        <ele>867.25</ele>
        <time>2013-09-21T07:47:43Z</time>
      </trkpt>
      <trkpt lat="45.85114" lon="2.9787">
        <ele>868.69</ele>
        <time>2013-09-21T07:47:50Z</time>
      </trkpt>
      <trkpt lat="45.85115" lon="2.97867">
        <ele>868.21</ele>
        <time>2013-09-21T07:47:51Z</time>
      </trkpt>
      <trkpt lat="45.85116" lon="2.97865">
        <ele>868.69</ele>
        <time>2013-09-21T07:47:52Z</time>
      </trkpt>
      <trkpt lat="45.85116" lon="2.97862">
        <ele>868.69</ele>
        <time>2013-09-21T07:47:53Z</time>
      </trkpt>
      <trkpt lat="45.85117" lon="2.97859">
        <ele>869.17</ele>
        <time>2013-09-21T07:47:54Z</time>
      </trkpt>
      <trkpt lat="45.85117" lon="2.97855">
        <ele>869.17</ele>
        <time>2013-09-21T07:47:55Z</time>
      </trkpt>
      <trkpt lat="45.85117" lon="2.97852">
        <ele>868.69</ele>
        <time>2013-09-21T07:47:56Z</time>
      </trkpt>
      <trkpt lat="45.85117" lon="2.97849">
        <ele>869.17</ele>
        <time>2013-09-21T07:47:57Z</time>
      </trkpt>
      <trkpt lat="45.85116" lon="2.97846">
        <ele>868.69</ele>
        <time>2013-09-21T07:47:58Z</time>
      </trkpt>
      <trkpt lat="45.85115" lon="2.97844">
        <ele>869.17</ele>
        <time>2013-09-21T07:47:59Z</time>
      </trkpt>
      <trkpt lat="45.85113" lon="2.97842">
        <ele>869.17</ele>
        <time>2013-09-21T07:48:00Z</time>
      </trkpt>
      <trkpt lat="45.85111" lon="2.97839">
        <ele>869.17</ele>
        <time>2013-09-21T07:48:01Z</time>
      </trkpt>
      <trkpt lat="45.8511" lon="2.97837">
        <ele>869.65</ele>
        <time>2013-09-21T07:48:02Z</time>
      </trkpt>
      <trkpt lat="45.85108" lon="2.97835">
        <ele>870.13</ele>
        <time>2013-09-21T07:48:03Z</time>
      </trkpt>
      <trkpt lat="45.85106" lon="2.97833">
        <ele>869.17</ele>
        <time>2013-09-21T07:48:04Z</time>
      </trkpt>
      <trkpt lat="45.85103" lon="2.97833">
        <ele>869.17</ele>
        <time>2013-09-21T07:48:05Z</time>
      </trkpt>
      <trkpt lat="45.85101" lon="2.97832">
        <ele>869.17</ele>
        <time>2013-09-21T07:48:06Z</time>
      </trkpt>
      <trkpt lat="45.85099" lon="2.97831">
        <ele>869.17</ele>
        <time>2013-09-21T07:48:07Z</time>
      </trkpt>
      <trkpt lat="45.85045" lon="2.97805">
        <ele>869.17</ele>
        <time>2013-09-21T07:48:30Z</time>
      </trkpt>
      <trkpt lat="45.85015" lon="2.97804">
        <ele>872.05</ele>
        <time>2013-09-21T07:48:49Z</time>
      </trkpt>
      <trkpt lat="45.84976" lon="2.97822">
        <ele>873.5</ele>
        <time>2013-09-21T07:49:09Z</time>
      </trkpt>
      <trkpt lat="45.84945" lon="2.97863">
        <ele>873.5</ele>
        <time>2013-09-21T07:49:28Z</time>
      </trkpt>
      <trkpt lat="45.8491" lon="2.97872">
        <ele>873.98</ele>
        <time>2013-09-21T07:49:45Z</time>
      </trkpt>
      <trkpt lat="45.84886" lon="2.9786">
        <ele>876.86</ele>
        <time>2013-09-21T07:49:59Z</time>
      </trkpt>
      <trkpt lat="45.84851" lon="2.9786">
        <ele>876.38</ele>
        <time>2013-09-21T07:50:18Z</time>
      </trkpt>
      <trkpt lat="45.84806" lon="2.97882">
        <ele>877.34</ele>
        <time>2013-09-21T07:50:40Z</time>
      </trkpt>
      <trkpt lat="45.84767" lon="2.97861">
        <ele>877.34</ele>
        <time>2013-09-21T07:50:53Z</time>
      </trkpt>
      <trkpt lat="45.84721" lon="2.97837">
        <ele>880.71</ele>
        <time>2013-09-21T07:51:09Z</time>
      </trkpt>
      <trkpt lat="45.84709" lon="2.9781">
        <ele>884.07</ele>
        <time>2013-09-21T07:51:20Z</time>
      </trkpt>
      <trkpt lat="45.84725" lon="2.97814">
        <ele>884.07</ele>
        <time>2013-09-21T07:51:26Z</time>
      </trkpt>
      <trkpt lat="45.84728" lon="2.97814">
        <ele>884.55</ele>
        <time>2013-09-21T07:51:27Z</time>
      </trkpt>
      <trkpt lat="45.84775" lon="2.97796">
        <ele>887.91</ele>
        <time>2013-09-21T07:51:43Z</time>
      </trkpt>
      <trkpt lat="45.8479" lon="2.97764">
        <ele>889.36</ele>
        <time>2013-09-21T07:51:55Z</time>
      </trkpt>
      <trkpt lat="45.84822" lon="2.97713">
        <ele>892.72</ele>
        <time>2013-09-21T07:52:17Z</time>
      </trkpt>
      <trkpt lat="45.84848" lon="2.97686">
        <ele>895.61</ele>
        <time>2013-09-21T07:52:34Z</time>
      </trkpt>
      <trkpt lat="45.84889" lon="2.9766">
        <ele>898.97</ele>
        <time>2013-09-21T07:52:56Z</time>
      </trkpt>
      <trkpt lat="45.84932" lon="2.97628">
        <ele>901.85</ele>
        <time>2013-09-21T07:53:19Z</time>
      </trkpt>
      <trkpt lat="45.84975" lon="2.9761">
        <ele>905.22</ele>
        <time>2013-09-21T07:53:41Z</time>
      </trkpt>
      <trkpt lat="45.85007" lon="2.97602">
        <ele>907.14</ele>
        <time>2013-09-21T07:54:03Z</time>
      </trkpt>
      <trkpt lat="45.8502" lon="2.97589">
        <ele>909.06</ele>
        <time>2013-09-21T07:54:11Z</time>
      </trkpt>
      <trkpt lat="45.8506" lon="2.97559">
        <ele>912.43</ele>
        <time>2013-09-21T07:54:31Z</time>
      </trkpt>
      <trkpt lat="45.85101" lon="2.97548">
        <ele>915.79</ele>
        <time>2013-09-21T07:54:50Z</time>
      </trkpt>
      <trkpt lat="45.85152" lon="2.97575">
        <ele>918.68</ele>
        <time>2013-09-21T07:55:16Z</time>
      </trkpt>
      <trkpt lat="45.85185" lon="2.97595">
        <ele>921.56</ele>
        <time>2013-09-21T07:55:33Z</time>
      </trkpt>
      <trkpt lat="45.85238" lon="2.97594">
        <ele>924.93</ele>
        <time>2013-09-21T07:55:54Z</time>
      </trkpt>
      <trkpt lat="45.85249" lon="2.97579">
        <ele>927.33</ele>
        <time>2013-09-21T07:56:11Z</time>
      </trkpt>
      <trkpt lat="45.85245" lon="2.97566">
        <ele>928.77</ele>
        <time>2013-09-21T07:56:18Z</time>
      </trkpt>
      <trkpt lat="45.85242" lon="2.97562">
        <ele>929.73</ele>
        <time>2013-09-21T07:56:20Z</time>
      </trkpt>
      <trkpt lat="45.85224" lon="2.97544">
        <ele>933.1</ele>
        <time>2013-09-21T07:56:35Z</time>
      </trkpt>
      <trkpt lat="45.85212" lon="2.97526">
        <ele>936.46</ele>
        <time>2013-09-21T07:56:49Z</time>
      </trkpt>
      <trkpt lat="45.85203" lon="2.97507">
        <ele>939.35</ele>
        <time>2013-09-21T07:57:02Z</time>
      </trkpt>
      <trkpt lat="45.85202" lon="2.97505">
        <ele>939.83</ele>
        <time>2013-09-21T07:57:03Z</time>
      </trkpt>
      <trkpt lat="45.85193" lon="2.97489">
        <ele>943.19</ele>
        <time>2013-09-21T07:57:16Z</time>
      </trkpt>
      <trkpt lat="45.85191" lon="2.97488">
        <ele>943.19</ele>
        <time>2013-09-21T07:57:17Z</time>
      </trkpt>
      <trkpt lat="45.8519" lon="2.97487">
        <ele>943.67</ele>
        <time>2013-09-21T07:57:18Z</time>
      </trkpt>
      <trkpt lat="45.8517" lon="2.97479">
        <ele>946.56</ele>
        <time>2013-09-21T07:57:33Z</time>
      </trkpt>
      <trkpt lat="45.8516" lon="2.97457">
        <ele>950.4</ele>
        <time>2013-09-21T07:57:50Z</time>
      </trkpt>
      <trkpt lat="45.8516" lon="2.97456">
        <ele>950.4</ele>
        <time>2013-09-21T07:57:51Z</time>
      </trkpt>
      <trkpt lat="45.85159" lon="2.97451">
        <ele>950.88</ele>
        <time>2013-09-21T07:57:54Z</time>
      </trkpt>
      <trkpt lat="45.85151" lon="2.97426">
        <ele>953.77</ele>
        <time>2013-09-21T07:58:09Z</time>
      </trkpt>
      <trkpt lat="45.85142" lon="2.974">
        <ele>957.13</ele>
        <time>2013-09-21T07:58:26Z</time>
      </trkpt>
      <trkpt lat="45.8514" lon="2.97392">
        <ele>957.61</ele>
        <time>2013-09-21T07:58:30Z</time>
      </trkpt>
      <trkpt lat="45.8514" lon="2.9739">
        <ele>958.09</ele>
        <time>2013-09-21T07:58:31Z</time>
      </trkpt>
      <trkpt lat="45.85129" lon="2.97376">
        <ele>960.49</ele>
        <time>2013-09-21T07:58:44Z</time>
      </trkpt>
      <trkpt lat="45.85128" lon="2.97375">
        <ele>960.49</ele>
        <time>2013-09-21T07:58:45Z</time>
      </trkpt>
      <trkpt lat="45.85127" lon="2.97374">
        <ele>961.46</ele>
        <time>2013-09-21T07:58:46Z</time>
      </trkpt>
      <trkpt lat="45.85115" lon="2.97364">
        <ele>964.34</ele>
        <time>2013-09-21T07:59:00Z</time>
      </trkpt>
      <trkpt lat="45.85106" lon="2.97353">
        <ele>967.7</ele>
        <time>2013-09-21T07:59:13Z</time>
      </trkpt>
      <trkpt lat="45.85093" lon="2.97352">
        <ele>969.63</ele>
        <time>2013-09-21T07:59:34Z</time>
      </trkpt>
      <trkpt lat="45.85077" lon="2.97349">
        <ele>968.67</ele>
        <time>2013-09-21T07:59:59Z</time>
      </trkpt>
      <trkpt lat="45.85076" lon="2.9735">
        <ele>968.67</ele>
        <time>2013-09-21T08:00:22Z</time>
      </trkpt>
      <trkpt lat="45.85091" lon="2.97344">
        <ele>969.15</ele>
        <time>2013-09-21T08:00:49Z</time>
      </trkpt>
      <trkpt lat="45.85085" lon="2.97345">
        <ele>968.67</ele>
        <time>2013-09-21T08:01:13Z</time>
      </trkpt>
      <trkpt lat="45.85086" lon="2.97345">
        <ele>969.15</ele>
        <time>2013-09-21T08:01:16Z</time>
      </trkpt>
      <trkpt lat="45.85087" lon="2.97342">
        <ele>969.15</ele>
        <time>2013-09-21T08:01:18Z</time>
      </trkpt>
      <trkpt lat="45.85095" lon="2.97323">
        <ele>971.55</ele>
        <time>2013-09-21T08:01:30Z</time>
      </trkpt>
      <trkpt lat="45.85096" lon="2.97321">
        <ele>972.03</ele>
        <time>2013-09-21T08:01:31Z</time>
      </trkpt>
      <trkpt lat="45.85098" lon="2.97317">
        <ele>972.51</ele>
        <time>2013-09-21T08:01:34Z</time>
      </trkpt>
      <trkpt lat="45.85099" lon="2.97316">
        <ele>972.51</ele>
        <time>2013-09-21T08:01:35Z</time>
      </trkpt>
      <trkpt lat="45.851" lon="2.97314">
        <ele>972.99</ele>
        <time>2013-09-21T08:01:36Z</time>
      </trkpt>
      <trkpt lat="45.85101" lon="2.97313">
        <ele>972.99</ele>
        <time>2013-09-21T08:01:37Z</time>
      </trkpt>
      <trkpt lat="45.85101" lon="2.97311">
        <ele>973.47</ele>
        <time>2013-09-21T08:01:38Z</time>
      </trkpt>
      <trkpt lat="45.85102" lon="2.97309">
        <ele>973.95</ele>
        <time>2013-09-21T08:01:39Z</time>
      </trkpt>
      <trkpt lat="45.8511" lon="2.973">
        <ele>975.88</ele>
        <time>2013-09-21T08:01:47Z</time>
      </trkpt>
      <trkpt lat="45.85118" lon="2.97289">
        <ele>977.8</ele>
        <time>2013-09-21T08:01:54Z</time>
      </trkpt>
      <trkpt lat="45.85119" lon="2.97288">
        <ele>977.8</ele>
        <time>2013-09-21T08:01:55Z</time>
      </trkpt>
      <trkpt lat="45.85122" lon="2.97283">
        <ele>978.28</ele>
        <time>2013-09-21T08:02:00Z</time>
      </trkpt>
      <trkpt lat="45.85131" lon="2.97273">
        <ele>981.16</ele>
        <time>2013-09-21T08:02:09Z</time>
      </trkpt>
      <trkpt lat="45.85147" lon="2.97259">
        <ele>984.05</ele>
        <time>2013-09-21T08:02:21Z</time>
      </trkpt>
      <trkpt lat="45.85153" lon="2.9725">
        <ele>984.53</ele>
        <time>2013-09-21T08:02:27Z</time>
      </trkpt>
      <trkpt lat="45.85153" lon="2.97248">
        <ele>984.53</ele>
        <time>2013-09-21T08:02:28Z</time>
      </trkpt>
      <trkpt lat="45.85154" lon="2.97246">
        <ele>985.01</ele>
        <time>2013-09-21T08:02:29Z</time>
      </trkpt>
      <trkpt lat="45.85154" lon="2.97244">
        <ele>984.53</ele>
        <time>2013-09-21T08:02:30Z</time>
      </trkpt>
      <trkpt lat="45.85154" lon="2.97242">
        <ele>984.05</ele>
        <time>2013-09-21T08:02:31Z</time>
      </trkpt>
      <trkpt lat="45.85154" lon="2.97239">
        <ele>984.53</ele>
        <time>2013-09-21T08:02:32Z</time>
      </trkpt>
      <trkpt lat="45.85159" lon="2.9723">
        <ele>984.53</ele>
        <time>2013-09-21T08:02:34Z</time>
      </trkpt>
      <trkpt lat="45.85162" lon="2.97227">
        <ele>984.53</ele>
        <time>2013-09-21T08:02:35Z</time>
      </trkpt>
      <trkpt lat="45.85164" lon="2.97224">
        <ele>985.01</ele>
        <time>2013-09-21T08:02:36Z</time>
      </trkpt>
      <trkpt lat="45.85167" lon="2.97222">
        <ele>984.53</ele>
        <time>2013-09-21T08:02:37Z</time>
      </trkpt>
      <trkpt lat="45.85169" lon="2.97219">
        <ele>985.01</ele>
        <time>2013-09-21T08:02:38Z</time>
      </trkpt>
      <trkpt lat="45.8517" lon="2.97216">
        <ele>984.05</ele>
        <time>2013-09-21T08:02:39Z</time>
      </trkpt>
      <trkpt lat="45.85172" lon="2.97214">
        <ele>985.49</ele>
        <time>2013-09-21T08:02:40Z</time>
      </trkpt>
      <trkpt lat="45.85175" lon="2.97212">
        <ele>985.01</ele>
        <time>2013-09-21T08:02:41Z</time>
      </trkpt>
      <trkpt lat="45.85177" lon="2.9721">
        <ele>985.49</ele>
        <time>2013-09-21T08:02:42Z</time>
      </trkpt>
      <trkpt lat="45.85179" lon="2.97207">
        <ele>985.49</ele>
        <time>2013-09-21T08:02:43Z</time>
      </trkpt>
      <trkpt lat="45.85181" lon="2.97205">
        <ele>985.49</ele>
        <time>2013-09-21T08:02:44Z</time>
      </trkpt>
      <trkpt lat="45.85183" lon="2.97202">
        <ele>985.01</ele>
        <time>2013-09-21T08:02:45Z</time>
      </trkpt>
      <trkpt lat="45.85185" lon="2.972">
        <ele>985.49</ele>
        <time>2013-09-21T08:02:46Z</time>
      </trkpt>
      <trkpt lat="45.85187" lon="2.97197">
        <ele>985.97</ele>
        <time>2013-09-21T08:02:47Z</time>
      </trkpt>
      <trkpt lat="45.85188" lon="2.97193">
        <ele>985.01</ele>
        <time>2013-09-21T08:02:48Z</time>
      </trkpt>
      <trkpt lat="45.85206" lon="2.97165">
        <ele>986.45</ele>
        <time>2013-09-21T08:02:58Z</time>
      </trkpt>
      <trkpt lat="45.85215" lon="2.97125">
        <ele>986.93</ele>
        <time>2013-09-21T08:03:08Z</time>
      </trkpt>
      <trkpt lat="45.85218" lon="2.97112">
        <ele>987.41</ele>
        <time>2013-09-21T08:03:11Z</time>
      </trkpt>
      <trkpt lat="45.85233" lon="2.9706">
        <ele>987.41</ele>
        <time>2013-09-21T08:03:22Z</time>
      </trkpt>
      <trkpt lat="45.85246" lon="2.97015">
        <ele>989.33</ele>
        <time>2013-09-21T08:03:33Z</time>
      </trkpt>
      <trkpt lat="45.85248" lon="2.96958">
        <ele>990.3</ele>
        <time>2013-09-21T08:03:46Z</time>
      </trkpt>
      <trkpt lat="45.8525" lon="2.96922">
        <ele>991.74</ele>
        <time>2013-09-21T08:03:57Z</time>
      </trkpt>
      <trkpt lat="45.85238" lon="2.96877">
        <ele>994.14</ele>
        <time>2013-09-21T08:04:08Z</time>
      </trkpt>
      <trkpt lat="45.85235" lon="2.96847">
        <ele>995.1</ele>
        <time>2013-09-21T08:04:16Z</time>
      </trkpt>
      <trkpt lat="45.85235" lon="2.96844">
        <ele>995.58</ele>
        <time>2013-09-21T08:04:17Z</time>
      </trkpt>
      <trkpt lat="45.85236" lon="2.96841">
        <ele>995.1</ele>
        <time>2013-09-21T08:04:18Z</time>
      </trkpt>
      <trkpt lat="45.85238" lon="2.96827">
        <ele>996.06</ele>
        <time>2013-09-21T08:04:22Z</time>
      </trkpt>
      <trkpt lat="45.85241" lon="2.96805">
        <ele>997.51</ele>
        <time>2013-09-21T08:04:28Z</time>
      </trkpt>
      <trkpt lat="45.85241" lon="2.96802">
        <ele>997.02</ele>
        <time>2013-09-21T08:04:29Z</time>
      </trkpt>
      <trkpt lat="45.85242" lon="2.96798">
        <ele>997.99</ele>
        <time>2013-09-21T08:04:30Z</time>
      </trkpt>
      <trkpt lat="45.85262" lon="2.96756">
        <ele>998.95</ele>
        <time>2013-09-21T08:04:41Z</time>
      </trkpt>
      <trkpt lat="45.85288" lon="2.96709">
        <ele>997.99</ele>
        <time>2013-09-21T08:04:51Z</time>
      </trkpt>
      <trkpt lat="45.85299" lon="2.96656">
        <ele>999.91</ele>
        <time>2013-09-21T08:05:01Z</time>
      </trkpt>
      <trkpt lat="45.85299" lon="2.96646">
        <ele>999.91</ele>
        <time>2013-09-21T08:05:03Z</time>
      </trkpt>
      <trkpt lat="45.85297" lon="2.96642">
        <ele>999.91</ele>
        <time>2013-09-21T08:05:04Z</time>
      </trkpt>
      <trkpt lat="45.85295" lon="2.96639">
        <ele>1000.39</ele>
        <time>2013-09-21T08:05:05Z</time>
      </trkpt>
      <trkpt lat="45.85293" lon="2.96636">
        <ele>1001.35</ele>
        <time>2013-09-21T08:05:06Z</time>
      </trkpt>
      <trkpt lat="45.8529" lon="2.96635">
        <ele>1001.35</ele>
        <time>2013-09-21T08:05:07Z</time>
      </trkpt>
      <trkpt lat="45.85269" lon="2.96615">
        <ele>1002.79</ele>
        <time>2013-09-21T08:05:16Z</time>
      </trkpt>
      <trkpt lat="45.85264" lon="2.96603">
        <ele>1003.75</ele>
        <time>2013-09-21T08:05:20Z</time>
      </trkpt>
      <trkpt lat="45.85263" lon="2.966">
        <ele>1003.75</ele>
        <time>2013-09-21T08:05:21Z</time>
      </trkpt>
      <trkpt lat="45.85262" lon="2.96596">
        <ele>1003.75</ele>
        <time>2013-09-21T08:05:22Z</time>
      </trkpt>
      <trkpt lat="45.85261" lon="2.96592">
        <ele>1003.75</ele>
        <time>2013-09-21T08:05:23Z</time>
      </trkpt>
      <trkpt lat="45.85261" lon="2.96589">
        <ele>1004.23</ele>
        <time>2013-09-21T08:05:24Z</time>
      </trkpt>
      <trkpt lat="45.8526" lon="2.96585">
        <ele>1003.75</ele>
        <time>2013-09-21T08:05:25Z</time>
      </trkpt>
      <trkpt lat="45.85259" lon="2.96582">
        <ele>1004.23</ele>
        <time>2013-09-21T08:05:26Z</time>
      </trkpt>
      <trkpt lat="45.85252" lon="2.96559">
        <ele>1005.2</ele>
        <time>2013-09-21T08:05:32Z</time>
      </trkpt>
      <trkpt lat="45.8525" lon="2.96556">
        <ele>1005.2</ele>
        <time>2013-09-21T08:05:33Z</time>
      </trkpt>
      <trkpt lat="45.85249" lon="2.96553">
        <ele>1006.16</ele>
        <time>2013-09-21T08:05:34Z</time>
      </trkpt>
      <trkpt lat="45.85247" lon="2.9655">
        <ele>1005.68</ele>
        <time>2013-09-21T08:05:35Z</time>
      </trkpt>
      <trkpt lat="45.85245" lon="2.96547">
        <ele>1005.68</ele>
        <time>2013-09-21T08:05:36Z</time>
      </trkpt>
      <trkpt lat="45.85229" lon="2.96513">
        <ele>1008.08</ele>
        <time>2013-09-21T08:05:47Z</time>
      </trkpt>
      <trkpt lat="45.85217" lon="2.96485">
        <ele>1010</ele>
        <time>2013-09-21T08:05:56Z</time>
      </trkpt>
      <trkpt lat="45.85216" lon="2.96481">
        <ele>1010</ele>
        <time>2013-09-21T08:05:57Z</time>
      </trkpt>
      <trkpt lat="45.85215" lon="2.96479">
        <ele>1010.48</ele>
        <time>2013-09-21T08:05:58Z</time>
      </trkpt>
      <trkpt lat="45.85213" lon="2.96476">
        <ele>1010.48</ele>
        <time>2013-09-21T08:05:59Z</time>
      </trkpt>
      <trkpt lat="45.85212" lon="2.96474">
        <ele>1010.48</ele>
        <time>2013-09-21T08:06:00Z</time>
      </trkpt>
      <trkpt lat="45.8521" lon="2.96471">
        <ele>1010.96</ele>
        <time>2013-09-21T08:06:01Z</time>
      </trkpt>
      <trkpt lat="45.85209" lon="2.96469">
        <ele>1010.96</ele>
        <time>2013-09-21T08:06:02Z</time>
      </trkpt>
      <trkpt lat="45.85208" lon="2.96467">
        <ele>1010.96</ele>
        <time>2013-09-21T08:06:03Z</time>
      </trkpt>
      <trkpt lat="45.85206" lon="2.96464">
        <ele>1011.44</ele>
        <time>2013-09-21T08:06:04Z</time>
      </trkpt>
      <trkpt lat="45.85205" lon="2.96461">
        <ele>1011.93</ele>
        <time>2013-09-21T08:06:05Z</time>
      </trkpt>
      <trkpt lat="45.85203" lon="2.96459">
        <ele>1011.93</ele>
        <time>2013-09-21T08:06:06Z</time>
      </trkpt>
      <trkpt lat="45.85202" lon="2.96456">
        <ele>1011.93</ele>
        <time>2013-09-21T08:06:07Z</time>
      </trkpt>
      <trkpt lat="45.85185" lon="2.96432">
        <ele>1013.37</ele>
        <time>2013-09-21T08:06:18Z</time>
      </trkpt>
      <trkpt lat="45.85165" lon="2.96412">
        <ele>1015.29</ele>
        <time>2013-09-21T08:06:29Z</time>
      </trkpt>
      <trkpt lat="45.8516" lon="2.96407">
        <ele>1015.29</ele>
        <time>2013-09-21T08:06:32Z</time>
      </trkpt>
      <trkpt lat="45.85159" lon="2.96406">
        <ele>1015.29</ele>
        <time>2013-09-21T08:06:33Z</time>
      </trkpt>
      <trkpt lat="45.85157" lon="2.96404">
        <ele>1014.81</ele>
        <time>2013-09-21T08:06:34Z</time>
      </trkpt>
      <trkpt lat="45.85156" lon="2.96401">
        <ele>1014.81</ele>
        <time>2013-09-21T08:06:35Z</time>
      </trkpt>
      <trkpt lat="45.85154" lon="2.96399">
        <ele>1015.29</ele>
        <time>2013-09-21T08:06:36Z</time>
      </trkpt>
      <trkpt lat="45.85138" lon="2.96381">
        <ele>1013.37</ele>
        <time>2013-09-21T08:06:50Z</time>
      </trkpt>
      <trkpt lat="45.85131" lon="2.96361">
        <ele>1012.89</ele>
        <time>2013-09-21T08:07:08Z</time>
      </trkpt>
      <trkpt lat="45.85131" lon="2.96359">
        <ele>1010.96</ele>
        <time>2013-09-21T08:07:09Z</time>
      </trkpt>
      <trkpt lat="45.85129" lon="2.96356">
        <ele>1011.44</ele>
        <time>2013-09-21T08:07:10Z</time>
      </trkpt>
      <trkpt lat="45.85128" lon="2.96353">
        <ele>1010.48</ele>
        <time>2013-09-21T08:07:11Z</time>
      </trkpt>
      <trkpt lat="45.85126" lon="2.96351">
        <ele>1010</ele>
        <time>2013-09-21T08:07:12Z</time>
      </trkpt>
      <trkpt lat="45.85124" lon="2.96348">
        <ele>1009.52</ele>
        <time>2013-09-21T08:07:13Z</time>
      </trkpt>
      <trkpt lat="45.85122" lon="2.96346">
        <ele>1008.56</ele>
        <time>2013-09-21T08:07:14Z</time>
      </trkpt>
      <trkpt lat="45.85115" lon="2.96339">
        <ele>1005.68</ele>
        <time>2013-09-21T08:07:17Z</time>
      </trkpt>
      <trkpt lat="45.85108" lon="2.96332">
        <ele>1001.35</ele>
        <time>2013-09-21T08:07:20Z</time>
      </trkpt>
      <trkpt lat="45.85104" lon="2.96327">
        <ele>997.51</ele>
        <time>2013-09-21T08:07:22Z</time>
      </trkpt>
      <trkpt lat="45.85097" lon="2.9632">
        <ele>994.62</ele>
        <time>2013-09-21T08:07:25Z</time>
      </trkpt>
      <trkpt lat="45.8509" lon="2.96313">
        <ele>991.26</ele>
        <time>2013-09-21T08:07:28Z</time>
      </trkpt>
      <trkpt lat="45.85079" lon="2.96301">
        <ele>987.89</ele>
        <time>2013-09-21T08:07:33Z</time>
      </trkpt>
      <trkpt lat="45.85077" lon="2.96299">
        <ele>987.89</ele>
        <time>2013-09-21T08:07:34Z</time>
      </trkpt>
      <trkpt lat="45.85061" lon="2.96283">
        <ele>985.01</ele>
        <time>2013-09-21T08:07:41Z</time>
      </trkpt>
      <trkpt lat="45.84497" lon="2.94559">
        <ele>947.52</ele>
        <time>2013-09-21T08:10:06Z</time>
      </trkpt>
      <trkpt lat="45.84486" lon="2.94458">
        <ele>943.67</ele>
        <time>2013-09-21T08:10:14Z</time>
      </trkpt>
      <trkpt lat="45.84485" lon="2.94446">
        <ele>943.67</ele>
        <time>2013-09-21T08:10:15Z</time>
      </trkpt>
      <trkpt lat="45.8447" lon="2.94302">
        <ele>940.31</ele>
        <time>2013-09-21T08:10:26Z</time>
      </trkpt>
      <trkpt lat="45.84434" lon="2.94141">
        <ele>938.38</ele>
        <time>2013-09-21T08:10:40Z</time>
      </trkpt>
      <trkpt lat="45.84388" lon="2.93935">
        <ele>937.42</ele>
        <time>2013-09-21T08:11:00Z</time>
      </trkpt>
      <trkpt lat="45.84387" lon="2.93928">
        <ele>936.94</ele>
        <time>2013-09-21T08:11:01Z</time>
      </trkpt>
      <trkpt lat="45.84387" lon="2.9392">
        <ele>937.42</ele>
        <time>2013-09-21T08:11:02Z</time>
      </trkpt>
      <trkpt lat="45.84388" lon="2.93913">
        <ele>937.42</ele>
        <time>2013-09-21T08:11:03Z</time>
      </trkpt>
      <trkpt lat="45.8439" lon="2.93906">
        <ele>937.42</ele>
        <time>2013-09-21T08:11:04Z</time>
      </trkpt>
      <trkpt lat="45.84392" lon="2.939">
        <ele>936.94</ele>
        <time>2013-09-21T08:11:05Z</time>
      </trkpt>
      <trkpt lat="45.84395" lon="2.93895">
        <ele>936.94</ele>
        <time>2013-09-21T08:11:06Z</time>
      </trkpt>
      <trkpt lat="45.84401" lon="2.93895">
        <ele>936.94</ele>
        <time>2013-09-21T08:11:07Z</time>
      </trkpt>
      <trkpt lat="45.84407" lon="2.93894">
        <ele>937.42</ele>
        <time>2013-09-21T08:11:08Z</time>
      </trkpt>
      <trkpt lat="45.84413" lon="2.93894">
        <ele>937.42</ele>
        <time>2013-09-21T08:11:09Z</time>
      </trkpt>
      <trkpt lat="45.84506" lon="2.93851">
        <ele>937.42</ele>
        <time>2013-09-21T08:11:26Z</time>
      </trkpt>
      <trkpt lat="45.84617" lon="2.9379">
        <ele>934.54</ele>
        <time>2013-09-21T08:11:44Z</time>
      </trkpt>
      <trkpt lat="45.84678" lon="2.9375">
        <ele>931.17</ele>
        <time>2013-09-21T08:11:52Z</time>
      </trkpt>
      <trkpt lat="45.84706" lon="2.93725">
        <ele>929.25</ele>
        <time>2013-09-21T08:11:56Z</time>
      </trkpt>
      <trkpt lat="45.84712" lon="2.93717">
        <ele>928.29</ele>
        <time>2013-09-21T08:11:57Z</time>
      </trkpt>
      <trkpt lat="45.84738" lon="2.93666">
        <ele>926.85</ele>
        <time>2013-09-21T08:12:02Z</time>
      </trkpt>
      <trkpt lat="45.84773" lon="2.93613">
        <ele>923.96</ele>
        <time>2013-09-21T08:12:07Z</time>
      </trkpt>
      <trkpt lat="45.84794" lon="2.93577">
        <ele>922.04</ele>
        <time>2013-09-21T08:12:10Z</time>
      </trkpt>
      <trkpt lat="45.84806" lon="2.9355">
        <ele>918.68</ele>
        <time>2013-09-21T08:12:12Z</time>
      </trkpt>
      <trkpt lat="45.84823" lon="2.93506">
        <ele>916.27</ele>
        <time>2013-09-21T08:12:15Z</time>
      </trkpt>
      <trkpt lat="45.84841" lon="2.93461">
        <ele>911.95</ele>
        <time>2013-09-21T08:12:18Z</time>
      </trkpt>
      <trkpt lat="45.84853" lon="2.93429">
        <ele>910.99</ele>
        <time>2013-09-21T08:12:20Z</time>
      </trkpt>
      <trkpt lat="45.84872" lon="2.93363">
        <ele>908.1</ele>
        <time>2013-09-21T08:12:24Z</time>
      </trkpt>
      <trkpt lat="45.84884" lon="2.9328">
        <ele>906.18</ele>
        <time>2013-09-21T08:12:29Z</time>
      </trkpt>
      <trkpt lat="45.84888" lon="2.93264">
        <ele>905.22</ele>
        <time>2013-09-21T08:12:30Z</time>
      </trkpt>
      <trkpt lat="45.8494" lon="2.93124">
        <ele>904.74</ele>
        <time>2013-09-21T08:12:41Z</time>
      </trkpt>
      <trkpt lat="45.84954" lon="2.93085">
        <ele>903.3</ele>
        <time>2013-09-21T08:12:44Z</time>
      </trkpt>
      <trkpt lat="45.84963" lon="2.9306">
        <ele>901.85</ele>
        <time>2013-09-21T08:12:46Z</time>
      </trkpt>
      <trkpt lat="45.84985" lon="2.9301">
        <ele>899.93</ele>
        <time>2013-09-21T08:12:50Z</time>
      </trkpt>
      <trkpt lat="45.84996" lon="2.92985">
        <ele>898.97</ele>
        <time>2013-09-21T08:12:52Z</time>
      </trkpt>
      <trkpt lat="45.85" lon="2.92971">
        <ele>898.01</ele>
        <time>2013-09-21T08:12:53Z</time>
      </trkpt>
      <trkpt lat="45.85019" lon="2.92898">
        <ele>895.12</ele>
        <time>2013-09-21T08:12:58Z</time>
      </trkpt>
      <trkpt lat="45.85041" lon="2.92815">
        <ele>895.61</ele>
        <time>2013-09-21T08:13:04Z</time>
      </trkpt>
      <trkpt lat="45.85063" lon="2.9274">
        <ele>892.72</ele>
        <time>2013-09-21T08:13:10Z</time>
      </trkpt>
      <trkpt lat="45.85083" lon="2.92675">
        <ele>892.24</ele>
        <time>2013-09-21T08:13:15Z</time>
      </trkpt>
      <trkpt lat="45.85089" lon="2.92664">
        <ele>893.2</ele>
        <time>2013-09-21T08:13:16Z</time>
      </trkpt>
      <trkpt lat="45.85127" lon="2.92607">
        <ele>891.28</ele>
        <time>2013-09-21T08:13:22Z</time>
      </trkpt>
      <trkpt lat="45.85154" lon="2.9259">
        <ele>892.24</ele>
        <time>2013-09-21T08:13:26Z</time>
      </trkpt>
      <trkpt lat="45.85173" lon="2.92573">
        <ele>891.28</ele>
        <time>2013-09-21T08:13:30Z</time>
      </trkpt>
      <trkpt lat="45.85176" lon="2.92568">
        <ele>891.76</ele>
        <time>2013-09-21T08:13:31Z</time>
      </trkpt>
      <trkpt lat="45.85178" lon="2.92564">
        <ele>890.8</ele>
        <time>2013-09-21T08:13:32Z</time>
      </trkpt>
      <trkpt lat="45.85179" lon="2.9256">
        <ele>890.8</ele>
        <time>2013-09-21T08:13:33Z</time>
      </trkpt>
      <trkpt lat="45.85179" lon="2.92556">
        <ele>891.28</ele>
        <time>2013-09-21T08:13:34Z</time>
      </trkpt>
      <trkpt lat="45.85179" lon="2.92553">
        <ele>890.8</ele>
        <time>2013-09-21T08:13:35Z</time>
      </trkpt>
      <trkpt lat="45.85115" lon="2.92609">
        <ele>890.8</ele>
        <time>2013-09-21T08:13:36Z</time>
      </trkpt>
      <trkpt lat="45.85111" lon="2.92611">
        <ele>890.8</ele>
        <time>2013-09-21T08:13:37Z</time>
      </trkpt>
      <trkpt lat="45.85095" lon="2.92612">
        <ele>889.84</ele>
        <time>2013-09-21T08:13:40Z</time>
      </trkpt>
      <trkpt lat="45.85089" lon="2.92608">
        <ele>889.36</ele>
        <time>2013-09-21T08:13:41Z</time>
      </trkpt>
      <trkpt lat="45.85085" lon="2.92604">
        <ele>888.88</ele>
        <time>2013-09-21T08:13:42Z</time>
      </trkpt>
      <trkpt lat="45.85081" lon="2.926">
        <ele>888.4</ele>
        <time>2013-09-21T08:13:43Z</time>
      </trkpt>
      <trkpt lat="45.85076" lon="2.92594">
        <ele>888.4</ele>
        <time>2013-09-21T08:13:44Z</time>
      </trkpt>
      <trkpt lat="45.85072" lon="2.92587">
        <ele>887.91</ele>
        <time>2013-09-21T08:13:45Z</time>
      </trkpt>
      <trkpt lat="45.85073" lon="2.92565">
        <ele>888.88</ele>
        <time>2013-09-21T08:13:47Z</time>
      </trkpt>
      <trkpt lat="45.8505" lon="2.92437">
        <ele>887.43</ele>
        <time>2013-09-21T08:13:59Z</time>
      </trkpt>
      <trkpt lat="45.85029" lon="2.92344">
        <ele>887.43</ele>
        <time>2013-09-21T08:14:09Z</time>
      </trkpt>
      <trkpt lat="45.85018" lon="2.92248">
        <ele>883.59</ele>
        <time>2013-09-21T08:14:17Z</time>
      </trkpt>
      <trkpt lat="45.85014" lon="2.9219">
        <ele>881.19</ele>
        <time>2013-09-21T08:14:21Z</time>
      </trkpt>
      <trkpt lat="45.85011" lon="2.92178">
        <ele>880.71</ele>
        <time>2013-09-21T08:14:22Z</time>
      </trkpt>
      <trkpt lat="45.85007" lon="2.92168">
        <ele>880.22</ele>
        <time>2013-09-21T08:14:23Z</time>
      </trkpt>
      <trkpt lat="45.85002" lon="2.9216">
        <ele>880.22</ele>
        <time>2013-09-21T08:14:24Z</time>
      </trkpt>
      <trkpt lat="45.84998" lon="2.92153">
        <ele>880.71</ele>
        <time>2013-09-21T08:14:25Z</time>
      </trkpt>
      <trkpt lat="45.84993" lon="2.92145">
        <ele>880.22</ele>
        <time>2013-09-21T08:14:26Z</time>
      </trkpt>
      <trkpt lat="45.84923" lon="2.92039">
        <ele>877.82</ele>
        <time>2013-09-21T08:14:37Z</time>
      </trkpt>
      <trkpt lat="45.84919" lon="2.92028">
        <ele>877.34</ele>
        <time>2013-09-21T08:14:38Z</time>
      </trkpt>
      <trkpt lat="45.84905" lon="2.91981">
        <ele>875.9</ele>
        <time>2013-09-21T08:14:42Z</time>
      </trkpt>
      <trkpt lat="45.849" lon="2.91972">
        <ele>875.42</ele>
        <time>2013-09-21T08:14:43Z</time>
      </trkpt>
      <trkpt lat="45.84895" lon="2.91964">
        <ele>875.42</ele>
        <time>2013-09-21T08:14:44Z</time>
      </trkpt>
      <trkpt lat="45.84879" lon="2.91942">
        <ele>874.46</ele>
        <time>2013-09-21T08:14:47Z</time>
      </trkpt>
      <trkpt lat="45.84876" lon="2.91933">
        <ele>874.46</ele>
        <time>2013-09-21T08:14:48Z</time>
      </trkpt>
      <trkpt lat="45.84875" lon="2.91924">
        <ele>873.98</ele>
        <time>2013-09-21T08:14:49Z</time>
      </trkpt>
      <trkpt lat="45.84875" lon="2.91914">
        <ele>873.98</ele>
        <time>2013-09-21T08:14:50Z</time>
      </trkpt>
      <trkpt lat="45.84876" lon="2.91903">
        <ele>873.5</ele>
        <time>2013-09-21T08:14:51Z</time>
      </trkpt>
      <trkpt lat="45.84877" lon="2.91893">
        <ele>873.5</ele>
        <time>2013-09-21T08:14:52Z</time>
      </trkpt>
      <trkpt lat="45.84878" lon="2.91882">
        <ele>873.98</ele>
        <time>2013-09-21T08:14:53Z</time>
      </trkpt>
      <trkpt lat="45.84891" lon="2.91815">
        <ele>874.46</ele>
        <time>2013-09-21T08:15:00Z</time>
      </trkpt>
      <trkpt lat="45.84891" lon="2.91808">
        <ele>874.94</ele>
        <time>2013-09-21T08:15:01Z</time>
      </trkpt>
      <trkpt lat="45.8489" lon="2.91804">
        <ele>874.46</ele>
        <time>2013-09-21T08:15:02Z</time>
      </trkpt>
      <trkpt lat="45.84888" lon="2.91799">
        <ele>874.46</ele>
        <time>2013-09-21T08:15:03Z</time>
      </trkpt>
      <trkpt lat="45.84885" lon="2.91794">
        <ele>874.94</ele>
        <time>2013-09-21T08:15:04Z</time>
      </trkpt>
      <trkpt lat="45.84881" lon="2.91789">
        <ele>873.5</ele>
        <time>2013-09-21T08:15:05Z</time>
      </trkpt>
      <trkpt lat="45.84864" lon="2.91764">
        <ele>872.05</ele>
        <time>2013-09-21T08:15:09Z</time>
      </trkpt>
      <trkpt lat="45.848" lon="2.9169">
        <ele>870.61</ele>
        <time>2013-09-21T08:15:23Z</time>
      </trkpt>
      <trkpt lat="45.84788" lon="2.91671">
        <ele>870.61</ele>
        <time>2013-09-21T08:15:26Z</time>
      </trkpt>
      <trkpt lat="45.84786" lon="2.91664">
        <ele>870.13</ele>
        <time>2013-09-21T08:15:27Z</time>
      </trkpt>
      <trkpt lat="45.84768" lon="2.91596">
        <ele>870.61</ele>
        <time>2013-09-21T08:15:43Z</time>
      </trkpt>
      <trkpt lat="45.84726" lon="2.91565">
        <ele>870.13</ele>
        <time>2013-09-21T08:15:59Z</time>
      </trkpt>
      <trkpt lat="45.84694" lon="2.91503">
        <ele>869.17</ele>
        <time>2013-09-21T08:16:16Z</time>
      </trkpt>
      <trkpt lat="45.84683" lon="2.91416">
        <ele>867.73</ele>
        <time>2013-09-21T08:16:34Z</time>
      </trkpt>
      <trkpt lat="45.84683" lon="2.91394">
        <ele>866.77</ele>
        <time>2013-09-21T08:16:37Z</time>
      </trkpt>
      <trkpt lat="45.84689" lon="2.91346">
        <ele>863.88</ele>
        <time>2013-09-21T08:16:44Z</time>
      </trkpt>
      <trkpt lat="45.84681" lon="2.91281">
        <ele>860.04</ele>
        <time>2013-09-21T08:16:55Z</time>
      </trkpt>
      <trkpt lat="45.84677" lon="2.91265">
        <ele>859.56</ele>
        <time>2013-09-21T08:16:57Z</time>
      </trkpt>
      <trkpt lat="45.84661" lon="2.91243">
        <ele>857.63</ele>
        <time>2013-09-21T08:17:01Z</time>
      </trkpt>
      <trkpt lat="45.84647" lon="2.91229">
        <ele>856.67</ele>
        <time>2013-09-21T08:17:04Z</time>
      </trkpt>
      <trkpt lat="45.84579" lon="2.91261">
        <ele>855.71</ele>
        <time>2013-09-21T08:17:06Z</time>
      </trkpt>
      <trkpt lat="45.84579" lon="2.91254">
        <ele>855.71</ele>
        <time>2013-09-21T08:17:07Z</time>
      </trkpt>
      <trkpt lat="45.84579" lon="2.91248">
        <ele>855.23</ele>
        <time>2013-09-21T08:17:08Z</time>
      </trkpt>
      <trkpt lat="45.84579" lon="2.91242">
        <ele>855.71</ele>
        <time>2013-09-21T08:17:09Z</time>
      </trkpt>
      <trkpt lat="45.8458" lon="2.91236">
        <ele>855.23</ele>
        <time>2013-09-21T08:17:10Z</time>
      </trkpt>
      <trkpt lat="45.84583" lon="2.91228">
        <ele>855.23</ele>
        <time>2013-09-21T08:17:11Z</time>
      </trkpt>
      <trkpt lat="45.84585" lon="2.9122">
        <ele>854.75</ele>
        <time>2013-09-21T08:17:12Z</time>
      </trkpt>
      <trkpt lat="45.84601" lon="2.91161">
        <ele>853.79</ele>
        <time>2013-09-21T08:17:19Z</time>
      </trkpt>
      <trkpt lat="45.84651" lon="2.90954">
        <ele>851.87</ele>
        <time>2013-09-21T08:17:40Z</time>
      </trkpt>
      <trkpt lat="45.84642" lon="2.90813">
        <ele>849.94</ele>
        <time>2013-09-21T08:17:54Z</time>
      </trkpt>
      <trkpt lat="45.84628" lon="2.907">
        <ele>847.06</ele>
        <time>2013-09-21T08:18:06Z</time>
      </trkpt>
      <trkpt lat="45.84629" lon="2.90663">
        <ele>843.21</ele>
        <time>2013-09-21T08:18:09Z</time>
      </trkpt>
      <trkpt lat="45.84626" lon="2.90634">
        <ele>840.81</ele>
        <time>2013-09-21T08:18:11Z</time>
      </trkpt>
      <trkpt lat="45.84623" lon="2.90547">
        <ele>837.93</ele>
        <time>2013-09-21T08:18:17Z</time>
      </trkpt>
      <trkpt lat="45.84627" lon="2.90518">
        <ele>833.6</ele>
        <time>2013-09-21T08:18:19Z</time>
      </trkpt>
      <trkpt lat="45.84635" lon="2.90472">
        <ele>831.2</ele>
        <time>2013-09-21T08:18:22Z</time>
      </trkpt>
      <trkpt lat="45.84636" lon="2.90455">
        <ele>830.24</ele>
        <time>2013-09-21T08:18:23Z</time>
      </trkpt>
      <trkpt lat="45.84635" lon="2.90439">
        <ele>830.24</ele>
        <time>2013-09-21T08:18:24Z</time>
      </trkpt>
      <trkpt lat="45.84626" lon="2.9034">
        <ele>827.35</ele>
        <time>2013-09-21T08:18:30Z</time>
      </trkpt>
      <trkpt lat="45.84622" lon="2.90326">
        <ele>827.35</ele>
        <time>2013-09-21T08:18:31Z</time>
      </trkpt>
      <trkpt lat="45.84617" lon="2.90312">
        <ele>827.35</ele>
        <time>2013-09-21T08:18:32Z</time>
      </trkpt>
      <trkpt lat="45.84598" lon="2.90275">
        <ele>826.39</ele>
        <time>2013-09-21T08:18:35Z</time>
      </trkpt>
      <trkpt lat="45.84548" lon="2.90153">
        <ele>823.51</ele>
        <time>2013-09-21T08:18:46Z</time>
      </trkpt>
      <trkpt lat="45.84548" lon="2.90146">
        <ele>822.55</ele>
        <time>2013-09-21T08:18:47Z</time>
      </trkpt>
      <trkpt lat="45.8455" lon="2.90139">
        <ele>822.06</ele>
        <time>2013-09-21T08:18:48Z</time>
      </trkpt>
      <trkpt lat="45.84553" lon="2.90131">
        <ele>822.06</ele>
        <time>2013-09-21T08:18:49Z</time>
      </trkpt>
      <trkpt lat="45.84557" lon="2.90125">
        <ele>821.58</ele>
        <time>2013-09-21T08:18:50Z</time>
      </trkpt>
      <trkpt lat="45.84562" lon="2.90119">
        <ele>822.06</ele>
        <time>2013-09-21T08:18:51Z</time>
      </trkpt>
      <trkpt lat="45.84567" lon="2.90114">
        <ele>821.58</ele>
        <time>2013-09-21T08:18:52Z</time>
      </trkpt>
      <trkpt lat="45.84573" lon="2.90109">
        <ele>821.58</ele>
        <time>2013-09-21T08:18:53Z</time>
      </trkpt>
      <trkpt lat="45.84585" lon="2.90101">
        <ele>820.62</ele>
        <time>2013-09-21T08:18:55Z</time>
      </trkpt>
      <trkpt lat="45.84647" lon="2.90072">
        <ele>819.66</ele>
        <time>2013-09-21T08:19:05Z</time>
      </trkpt>
      <trkpt lat="45.84651" lon="2.90071">
        <ele>819.66</ele>
        <time>2013-09-21T08:19:06Z</time>
      </trkpt>
      <trkpt lat="45.84657" lon="2.90066">
        <ele>819.18</ele>
        <time>2013-09-21T08:19:09Z</time>
      </trkpt>
      <trkpt lat="45.84664" lon="2.90041">
        <ele>816.3</ele>
        <time>2013-09-21T08:19:20Z</time>
      </trkpt>
      <trkpt lat="45.8467" lon="2.90011">
        <ele>813.89</ele>
        <time>2013-09-21T08:19:24Z</time>
      </trkpt>
      <trkpt lat="45.84678" lon="2.89982">
        <ele>812.93</ele>
        <time>2013-09-21T08:19:26Z</time>
      </trkpt>
      <trkpt lat="45.84681" lon="2.89968">
        <ele>812.45</ele>
        <time>2013-09-21T08:19:27Z</time>
      </trkpt>
      <trkpt lat="45.8469" lon="2.89927">
        <ele>811.49</ele>
        <time>2013-09-21T08:19:30Z</time>
      </trkpt>
      <trkpt lat="45.84695" lon="2.89914">
        <ele>810.05</ele>
        <time>2013-09-21T08:19:31Z</time>
      </trkpt>
      <trkpt lat="45.847" lon="2.89903">
        <ele>808.61</ele>
        <time>2013-09-21T08:19:32Z</time>
      </trkpt>
      <trkpt lat="45.84706" lon="2.89894">
        <ele>807.64</ele>
        <time>2013-09-21T08:19:33Z</time>
      </trkpt>
      <trkpt lat="45.84713" lon="2.89886">
        <ele>806.2</ele>
        <time>2013-09-21T08:19:34Z</time>
      </trkpt>
      <trkpt lat="45.84726" lon="2.89868">
        <ele>804.76</ele>
        <time>2013-09-21T08:19:36Z</time>
      </trkpt>
      <trkpt lat="45.8473" lon="2.89857">
        <ele>804.28</ele>
        <time>2013-09-21T08:19:37Z</time>
      </trkpt>
      <trkpt lat="45.84743" lon="2.89826">
        <ele>803.8</ele>
        <time>2013-09-21T08:19:40Z</time>
      </trkpt>
      <trkpt lat="45.84749" lon="2.89818">
        <ele>803.32</ele>
        <time>2013-09-21T08:19:41Z</time>
      </trkpt>
      <trkpt lat="45.84794" lon="2.89779">
        <ele>802.36</ele>
        <time>2013-09-21T08:19:48Z</time>
      </trkpt>
      <trkpt lat="45.84819" lon="2.89767">
        <ele>802.36</ele>
        <time>2013-09-21T08:19:52Z</time>
      </trkpt>
      <trkpt lat="45.84833" lon="2.89758">
        <ele>803.32</ele>
        <time>2013-09-21T08:19:55Z</time>
      </trkpt>
      <trkpt lat="45.84836" lon="2.89754">
        <ele>803.8</ele>
        <time>2013-09-21T08:19:56Z</time>
      </trkpt>
      <trkpt lat="45.84838" lon="2.89749">
        <ele>804.28</ele>
        <time>2013-09-21T08:19:57Z</time>
      </trkpt>
      <trkpt lat="45.84839" lon="2.89743">
        <ele>804.28</ele>
        <time>2013-09-21T08:19:58Z</time>
      </trkpt>
      <trkpt lat="45.84839" lon="2.89737">
        <ele>804.28</ele>
        <time>2013-09-21T08:19:59Z</time>
      </trkpt>
      <trkpt lat="45.84838" lon="2.89729">
        <ele>803.8</ele>
        <time>2013-09-21T08:20:00Z</time>
      </trkpt>
      <trkpt lat="45.84837" lon="2.89721">
        <ele>803.8</ele>
        <time>2013-09-21T08:20:01Z</time>
      </trkpt>
      <trkpt lat="45.84829" lon="2.8965">
        <ele>803.8</ele>
        <time>2013-09-21T08:20:09Z</time>
      </trkpt>
      <trkpt lat="45.84829" lon="2.89642">
        <ele>804.28</ele>
        <time>2013-09-21T08:20:10Z</time>
      </trkpt>
      <trkpt lat="45.8483" lon="2.89634">
        <ele>803.8</ele>
        <time>2013-09-21T08:20:11Z</time>
      </trkpt>
      <trkpt lat="45.84831" lon="2.89627">
        <ele>804.76</ele>
        <time>2013-09-21T08:20:12Z</time>
      </trkpt>
      <trkpt lat="45.84832" lon="2.89621">
        <ele>805.24</ele>
        <time>2013-09-21T08:20:13Z</time>
      </trkpt>
      <trkpt lat="45.84833" lon="2.89615">
        <ele>806.68</ele>
        <time>2013-09-21T08:20:14Z</time>
      </trkpt>
      <trkpt lat="45.84835" lon="2.89609">
        <ele>805.72</ele>
        <time>2013-09-21T08:20:15Z</time>
      </trkpt>
      <trkpt lat="45.84844" lon="2.89575">
        <ele>808.61</ele>
        <time>2013-09-21T08:20:21Z</time>
      </trkpt>
      <trkpt lat="45.84862" lon="2.89506">
        <ele>811.97</ele>
        <time>2013-09-21T08:20:34Z</time>
      </trkpt>
      <trkpt lat="45.84866" lon="2.89491">
        <ele>812.45</ele>
        <time>2013-09-21T08:20:37Z</time>
      </trkpt>
      <trkpt lat="45.84864" lon="2.89486">
        <ele>812.45</ele>
        <time>2013-09-21T08:20:38Z</time>
      </trkpt>
      <trkpt lat="45.84861" lon="2.89483">
        <ele>811.97</ele>
        <time>2013-09-21T08:20:39Z</time>
      </trkpt>
      <trkpt lat="45.84858" lon="2.89481">
        <ele>811.97</ele>
        <time>2013-09-21T08:20:40Z</time>
      </trkpt>
      <trkpt lat="45.84854" lon="2.89481">
        <ele>811.97</ele>
        <time>2013-09-21T08:20:41Z</time>
      </trkpt>
      <trkpt lat="45.8485" lon="2.8948">
        <ele>811.49</ele>
        <time>2013-09-21T08:20:42Z</time>
      </trkpt>
      <trkpt lat="45.84838" lon="2.89479">
        <ele>811.01</ele>
        <time>2013-09-21T08:20:45Z</time>
      </trkpt>
      <trkpt lat="45.84834" lon="2.8948">
        <ele>811.49</ele>
        <time>2013-09-21T08:20:46Z</time>
      </trkpt>
      <trkpt lat="45.8479" lon="2.89496">
        <ele>808.61</ele>
        <time>2013-09-21T08:21:03Z</time>
      </trkpt>
      <trkpt lat="45.84798" lon="2.89495">
        <ele>808.13</ele>
        <time>2013-09-21T08:21:17Z</time>
      </trkpt>
      <trkpt lat="45.84782" lon="2.89505">
        <ele>808.61</ele>
        <time>2013-09-21T08:21:33Z</time>
      </trkpt>
      <trkpt lat="45.8478" lon="2.89506">
        <ele>808.13</ele>
        <time>2013-09-21T08:21:35Z</time>
      </trkpt>
      <trkpt lat="45.8478" lon="2.89506">
        <ele>808.13</ele>
        <time>2013-09-21T08:21:48Z</time>
      </trkpt>
      <trkpt lat="45.84778" lon="2.89507">
        <ele>808.61</ele>
        <time>2013-09-21T08:21:58Z</time>
      </trkpt>
      <trkpt lat="45.84775" lon="2.89508">
        <ele>808.13</ele>
        <time>2013-09-21T08:22:01Z</time>
      </trkpt>
      <trkpt lat="45.84764" lon="2.89508">
        <ele>808.13</ele>
        <time>2013-09-21T08:22:11Z</time>
      </trkpt>
      <trkpt lat="45.84761" lon="2.89506">
        <ele>808.13</ele>
        <time>2013-09-21T08:22:24Z</time>
      </trkpt>
      <trkpt lat="45.8476" lon="2.89507">
        <ele>808.13</ele>
        <time>2013-09-21T08:22:42Z</time>
      </trkpt>
      <trkpt lat="45.8476" lon="2.89505">
        <ele>808.61</ele>
        <time>2013-09-21T08:22:59Z</time>
      </trkpt>
      <trkpt lat="45.8476" lon="2.89506">
        <ele>808.61</ele>
        <time>2013-09-21T08:23:13Z</time>
      </trkpt>
      <trkpt lat="45.8476" lon="2.89506">
        <ele>808.61</ele>
        <time>2013-09-21T08:23:33Z</time>
      </trkpt>
      <trkpt lat="45.84762" lon="2.89504">
        <ele>808.61</ele>
        <time>2013-09-21T08:23:51Z</time>
      </trkpt>
      <trkpt lat="45.84768" lon="2.89506">
        <ele>808.61</ele>
        <time>2013-09-21T08:24:03Z</time>
      </trkpt>
      <trkpt lat="45.84774" lon="2.89504">
        <ele>808.61</ele>
        <time>2013-09-21T08:24:09Z</time>
      </trkpt>
      <trkpt lat="45.84775" lon="2.89509">
        <ele>809.09</ele>
        <time>2013-09-21T08:24:22Z</time>
      </trkpt>
      <trkpt lat="45.84773" lon="2.8951">
        <ele>808.61</ele>
        <time>2013-09-21T08:24:24Z</time>
      </trkpt>
      <trkpt lat="45.84765" lon="2.89508">
        <ele>808.61</ele>
        <time>2013-09-21T08:24:37Z</time>
      </trkpt>
      <trkpt lat="45.84762" lon="2.89506">
        <ele>808.61</ele>
        <time>2013-09-21T08:24:50Z</time>
      </trkpt>
      <trkpt lat="45.84759" lon="2.89508">
        <ele>808.61</ele>
        <time>2013-09-21T08:25:04Z</time>
      </trkpt>
      <trkpt lat="45.84759" lon="2.89508">
        <ele>808.13</ele>
        <time>2013-09-21T08:25:07Z</time>
      </trkpt>
      <trkpt lat="45.84764" lon="2.89506">
        <ele>808.61</ele>
        <time>2013-09-21T08:25:17Z</time>
      </trkpt>
      <trkpt lat="45.84772" lon="2.89503">
        <ele>809.57</ele>
        <time>2013-09-21T08:25:30Z</time>
      </trkpt>
      <trkpt lat="45.84779" lon="2.89501">
        <ele>809.57</ele>
        <time>2013-09-21T08:25:43Z</time>
      </trkpt>
      <trkpt lat="45.8479" lon="2.89497">
        <ele>810.05</ele>
        <time>2013-09-21T08:25:59Z</time>
      </trkpt>
      <trkpt lat="45.84796" lon="2.89496">
        <ele>810.05</ele>
        <time>2013-09-21T08:26:13Z</time>
      </trkpt>
      <trkpt lat="45.84807" lon="2.89491">
        <ele>810.53</ele>
        <time>2013-09-21T08:26:26Z</time>
      </trkpt>
      <trkpt lat="45.84815" lon="2.89491">
        <ele>811.49</ele>
        <time>2013-09-21T08:26:40Z</time>
      </trkpt>
      <trkpt lat="45.84819" lon="2.89487">
        <ele>811.49</ele>
        <time>2013-09-21T08:26:54Z</time>
      </trkpt>
      <trkpt lat="45.8482" lon="2.89487">
        <ele>811.49</ele>
        <time>2013-09-21T08:26:55Z</time>
      </trkpt>
      <trkpt lat="45.84821" lon="2.89486">
        <ele>812.45</ele>
        <time>2013-09-21T08:26:56Z</time>
      </trkpt>
      <trkpt lat="45.84822" lon="2.89486">
        <ele>811.49</ele>
        <time>2013-09-21T08:26:57Z</time>
      </trkpt>
      <trkpt lat="45.84824" lon="2.89484">
        <ele>811.97</ele>
        <time>2013-09-21T08:26:58Z</time>
      </trkpt>
      <trkpt lat="45.84826" lon="2.89484">
        <ele>811.49</ele>
        <time>2013-09-21T08:26:59Z</time>
      </trkpt>
      <trkpt lat="45.84828" lon="2.89484">
        <ele>811.97</ele>
        <time>2013-09-21T08:27:00Z</time>
      </trkpt>
      <trkpt lat="45.8483" lon="2.89483">
        <ele>812.45</ele>
        <time>2013-09-21T08:27:01Z</time>
      </trkpt>
      <trkpt lat="45.84832" lon="2.89483">
        <ele>812.45</ele>
        <time>2013-09-21T08:27:02Z</time>
      </trkpt>
      <trkpt lat="45.84835" lon="2.89483">
        <ele>812.45</ele>
        <time>2013-09-21T08:27:03Z</time>
      </trkpt>
      <trkpt lat="45.84837" lon="2.89483">
        <ele>812.93</ele>
        <time>2013-09-21T08:27:04Z</time>
      </trkpt>
      <trkpt lat="45.84839" lon="2.89482">
        <ele>812.93</ele>
        <time>2013-09-21T08:27:05Z</time>
      </trkpt>
      <trkpt lat="45.84842" lon="2.89482">
        <ele>812.93</ele>
        <time>2013-09-21T08:27:06Z</time>
      </trkpt>
      <trkpt lat="45.84854" lon="2.8948">
        <ele>812.93</ele>
        <time>2013-09-21T08:27:12Z</time>
      </trkpt>
      <trkpt lat="45.84856" lon="2.89481">
        <ele>813.41</ele>
        <time>2013-09-21T08:27:13Z</time>
      </trkpt>
      <trkpt lat="45.84859" lon="2.89482">
        <ele>813.41</ele>
        <time>2013-09-21T08:27:14Z</time>
      </trkpt>
      <trkpt lat="45.84861" lon="2.89483">
        <ele>813.41</ele>
        <time>2013-09-21T08:27:15Z</time>
      </trkpt>
      <trkpt lat="45.84863" lon="2.89482">
        <ele>813.89</ele>
        <time>2013-09-21T08:27:16Z</time>
      </trkpt>
      <trkpt lat="45.84866" lon="2.8948">
        <ele>813.89</ele>
        <time>2013-09-21T08:27:17Z</time>
      </trkpt>
      <trkpt lat="45.84868" lon="2.89477">
        <ele>814.37</ele>
        <time>2013-09-21T08:27:18Z</time>
      </trkpt>
      <trkpt lat="45.84871" lon="2.89473">
        <ele>813.89</ele>
        <time>2013-09-21T08:27:19Z</time>
      </trkpt>
      <trkpt lat="45.84872" lon="2.89469">
        <ele>813.89</ele>
        <time>2013-09-21T08:27:20Z</time>
      </trkpt>
      <trkpt lat="45.84874" lon="2.89465">
        <ele>813.89</ele>
        <time>2013-09-21T08:27:21Z</time>
      </trkpt>
      <trkpt lat="45.84895" lon="2.89392">
        <ele>814.85</ele>
        <time>2013-09-21T08:27:37Z</time>
      </trkpt>
      <trkpt lat="45.84907" lon="2.89374">
        <ele>815.34</ele>
        <time>2013-09-21T08:27:42Z</time>
      </trkpt>
      <trkpt lat="45.84911" lon="2.89372">
        <ele>814.37</ele>
        <time>2013-09-21T08:27:43Z</time>
      </trkpt>
      <trkpt lat="45.84972" lon="2.89349">
        <ele>813.41</ele>
        <time>2013-09-21T08:27:56Z</time>
      </trkpt>
      <trkpt lat="45.84976" lon="2.89346">
        <ele>812.93</ele>
        <time>2013-09-21T08:27:57Z</time>
      </trkpt>
      <trkpt lat="45.85" lon="2.89332">
        <ele>813.89</ele>
        <time>2013-09-21T08:28:02Z</time>
      </trkpt>
      <trkpt lat="45.85005" lon="2.8933">
        <ele>813.41</ele>
        <time>2013-09-21T08:28:03Z</time>
      </trkpt>
      <trkpt lat="45.8501" lon="2.89329">
        <ele>812.93</ele>
        <time>2013-09-21T08:28:04Z</time>
      </trkpt>
      <trkpt lat="45.85034" lon="2.89325">
        <ele>812.93</ele>
        <time>2013-09-21T08:28:11Z</time>
      </trkpt>
      <trkpt lat="45.85035" lon="2.89325">
        <ele>812.45</ele>
        <time>2013-09-21T08:28:12Z</time>
      </trkpt>
      <trkpt lat="45.85039" lon="2.89326">
        <ele>812.93</ele>
        <time>2013-09-21T08:28:16Z</time>
      </trkpt>
      <trkpt lat="45.85041" lon="2.89329">
        <ele>812.45</ele>
        <time>2013-09-21T08:28:17Z</time>
      </trkpt>
      <trkpt lat="45.85042" lon="2.89332">
        <ele>812.45</ele>
        <time>2013-09-21T08:28:18Z</time>
      </trkpt>
      <trkpt lat="45.85044" lon="2.89336">
        <ele>812.45</ele>
        <time>2013-09-21T08:28:19Z</time>
      </trkpt>
      <trkpt lat="45.85046" lon="2.89339">
        <ele>812.45</ele>
        <time>2013-09-21T08:28:20Z</time>
      </trkpt>
      <trkpt lat="45.85049" lon="2.89342">
        <ele>812.45</ele>
        <time>2013-09-21T08:28:21Z</time>
      </trkpt>
      <trkpt lat="45.85053" lon="2.89343">
        <ele>812.45</ele>
        <time>2013-09-21T08:28:22Z</time>
      </trkpt>
      <trkpt lat="45.85056" lon="2.89343">
        <ele>812.93</ele>
        <time>2013-09-21T08:28:23Z</time>
      </trkpt>
      <trkpt lat="45.8506" lon="2.89342">
        <ele>812.93</ele>
        <time>2013-09-21T08:28:24Z</time>
      </trkpt>
      <trkpt lat="45.85063" lon="2.89339">
        <ele>812.93</ele>
        <time>2013-09-21T08:28:25Z</time>
      </trkpt>
      <trkpt lat="45.85067" lon="2.89336">
        <ele>811.97</ele>
        <time>2013-09-21T08:28:26Z</time>
      </trkpt>
      <trkpt lat="45.8512" lon="2.89285">
        <ele>811.49</ele>
        <time>2013-09-21T08:28:40Z</time>
      </trkpt>
      <trkpt lat="45.85132" lon="2.89272">
        <ele>811.01</ele>
        <time>2013-09-21T08:28:43Z</time>
      </trkpt>
      <trkpt lat="45.85135" lon="2.89267">
        <ele>810.53</ele>
        <time>2013-09-21T08:28:44Z</time>
      </trkpt>
      <trkpt lat="45.85139" lon="2.89262">
        <ele>811.01</ele>
        <time>2013-09-21T08:28:45Z</time>
      </trkpt>
      <trkpt lat="45.85143" lon="2.89259">
        <ele>810.05</ele>
        <time>2013-09-21T08:28:46Z</time>
      </trkpt>
      <trkpt lat="45.85148" lon="2.89256">
        <ele>810.05</ele>
        <time>2013-09-21T08:28:47Z</time>
      </trkpt>
      <trkpt lat="45.85154" lon="2.89255">
        <ele>810.53</ele>
        <time>2013-09-21T08:28:48Z</time>
      </trkpt>
      <trkpt lat="45.8516" lon="2.89253">
        <ele>809.57</ele>
        <time>2013-09-21T08:28:49Z</time>
      </trkpt>
      <trkpt lat="45.85186" lon="2.89247">
        <ele>807.64</ele>
        <time>2013-09-21T08:28:53Z</time>
      </trkpt>
      <trkpt lat="45.8522" lon="2.8923">
        <ele>806.2</ele>
        <time>2013-09-21T08:28:58Z</time>
      </trkpt>
      <trkpt lat="45.85228" lon="2.89228">
        <ele>805.72</ele>
        <time>2013-09-21T08:28:59Z</time>
      </trkpt>
      <trkpt lat="45.85236" lon="2.89226">
        <ele>804.76</ele>
        <time>2013-09-21T08:29:00Z</time>
      </trkpt>
      <trkpt lat="45.85244" lon="2.89227">
        <ele>803.8</ele>
        <time>2013-09-21T08:29:01Z</time>
      </trkpt>
      <trkpt lat="45.85285" lon="2.8923">
        <ele>800.44</ele>
        <time>2013-09-21T08:29:05Z</time>
      </trkpt>
      <trkpt lat="45.85306" lon="2.89233">
        <ele>797.07</ele>
        <time>2013-09-21T08:29:07Z</time>
      </trkpt>
      <trkpt lat="45.85328" lon="2.89235">
        <ele>795.63</ele>
        <time>2013-09-21T08:29:09Z</time>
      </trkpt>
      <trkpt lat="45.85361" lon="2.89239">
        <ele>793.22</ele>
        <time>2013-09-21T08:29:12Z</time>
      </trkpt>
      <trkpt lat="45.85392" lon="2.89243">
        <ele>791.78</ele>
        <time>2013-09-21T08:29:15Z</time>
      </trkpt>
      <trkpt lat="45.85403" lon="2.8924">
        <ele>791.78</ele>
        <time>2013-09-21T08:29:16Z</time>
      </trkpt>
      <trkpt lat="45.85413" lon="2.89233">
        <ele>791.3</ele>
        <time>2013-09-21T08:29:17Z</time>
      </trkpt>
      <trkpt lat="45.85523" lon="2.89162">
        <ele>790.82</ele>
        <time>2013-09-21T08:29:30Z</time>
      </trkpt>
      <trkpt lat="45.85579" lon="2.89143">
        <ele>789.38</ele>
        <time>2013-09-21T08:29:37Z</time>
      </trkpt>
      <trkpt lat="45.85587" lon="2.89138">
        <ele>789.38</ele>
        <time>2013-09-21T08:29:38Z</time>
      </trkpt>
      <trkpt lat="45.85594" lon="2.89133">
        <ele>789.38</ele>
        <time>2013-09-21T08:29:39Z</time>
      </trkpt>
      <trkpt lat="45.85601" lon="2.89126">
        <ele>788.9</ele>
        <time>2013-09-21T08:29:40Z</time>
      </trkpt>
      <trkpt lat="45.85608" lon="2.89119">
        <ele>787.94</ele>
        <time>2013-09-21T08:29:41Z</time>
      </trkpt>
      <trkpt lat="45.85615" lon="2.89113">
        <ele>789.38</ele>
        <time>2013-09-21T08:29:42Z</time>
      </trkpt>
      <trkpt lat="45.85624" lon="2.89108">
        <ele>788.42</ele>
        <time>2013-09-21T08:29:43Z</time>
      </trkpt>
      <trkpt lat="45.85651" lon="2.89092">
        <ele>784.09</ele>
        <time>2013-09-21T08:29:46Z</time>
      </trkpt>
      <trkpt lat="45.8566" lon="2.89087">
        <ele>784.57</ele>
        <time>2013-09-21T08:29:47Z</time>
      </trkpt>
      <trkpt lat="45.85688" lon="2.89066">
        <ele>780.73</ele>
        <time>2013-09-21T08:29:50Z</time>
      </trkpt>
      <trkpt lat="45.85698" lon="2.8906">
        <ele>779.29</ele>
        <time>2013-09-21T08:29:51Z</time>
      </trkpt>
      <trkpt lat="45.85708" lon="2.89055">
        <ele>777.84</ele>
        <time>2013-09-21T08:29:52Z</time>
      </trkpt>
      <trkpt lat="45.8573" lon="2.89046">
        <ele>775.44</ele>
        <time>2013-09-21T08:29:54Z</time>
      </trkpt>
      <trkpt lat="45.8574" lon="2.8904">
        <ele>774</ele>
        <time>2013-09-21T08:29:55Z</time>
      </trkpt>
      <trkpt lat="45.85751" lon="2.89035">
        <ele>773.04</ele>
        <time>2013-09-21T08:29:56Z</time>
      </trkpt>
      <trkpt lat="45.85773" lon="2.89026">
        <ele>769.67</ele>
        <time>2013-09-21T08:29:58Z</time>
      </trkpt>
      <trkpt lat="45.85784" lon="2.89024">
        <ele>769.67</ele>
        <time>2013-09-21T08:29:59Z</time>
      </trkpt>
      <trkpt lat="45.85794" lon="2.89023">
        <ele>768.71</ele>
        <time>2013-09-21T08:30:00Z</time>
      </trkpt>
      <trkpt lat="45.85826" lon="2.89019">
        <ele>765.35</ele>
        <time>2013-09-21T08:30:03Z</time>
      </trkpt>
      <trkpt lat="45.85846" lon="2.8901">
        <ele>763.9</ele>
        <time>2013-09-21T08:30:05Z</time>
      </trkpt>
      <trkpt lat="45.85855" lon="2.89003">
        <ele>762.94</ele>
        <time>2013-09-21T08:30:06Z</time>
      </trkpt>
      <trkpt lat="45.85864" lon="2.88994">
        <ele>761.98</ele>
        <time>2013-09-21T08:30:07Z</time>
      </trkpt>
      <trkpt lat="45.85873" lon="2.88984">
        <ele>761.02</ele>
        <time>2013-09-21T08:30:08Z</time>
      </trkpt>
      <trkpt lat="45.85881" lon="2.88974">
        <ele>760.54</ele>
        <time>2013-09-21T08:30:09Z</time>
      </trkpt>
      <trkpt lat="45.85889" lon="2.88965">
        <ele>759.58</ele>
        <time>2013-09-21T08:30:10Z</time>
      </trkpt>
      <trkpt lat="45.85898" lon="2.88958">
        <ele>759.58</ele>
        <time>2013-09-21T08:30:11Z</time>
      </trkpt>
      <trkpt lat="45.85943" lon="2.88929">
        <ele>757.18</ele>
        <time>2013-09-21T08:30:16Z</time>
      </trkpt>
      <trkpt lat="45.85952" lon="2.88926">
        <ele>758.14</ele>
        <time>2013-09-21T08:30:17Z</time>
      </trkpt>
      <trkpt lat="45.85961" lon="2.88926">
        <ele>756.69</ele>
        <time>2013-09-21T08:30:18Z</time>
      </trkpt>
      <trkpt lat="45.85983" lon="2.88927">
        <ele>753.33</ele>
        <time>2013-09-21T08:30:20Z</time>
      </trkpt>
      <trkpt lat="45.85994" lon="2.88927">
        <ele>753.33</ele>
        <time>2013-09-21T08:30:21Z</time>
      </trkpt>
      <trkpt lat="45.86029" lon="2.88926">
        <ele>749.97</ele>
        <time>2013-09-21T08:30:24Z</time>
      </trkpt>
      <trkpt lat="45.86041" lon="2.88926">
        <ele>749.49</ele>
        <time>2013-09-21T08:30:25Z</time>
      </trkpt>
      <trkpt lat="45.86054" lon="2.88926">
        <ele>748.04</ele>
        <time>2013-09-21T08:30:26Z</time>
      </trkpt>
      <trkpt lat="45.86066" lon="2.88929">
        <ele>747.08</ele>
        <time>2013-09-21T08:30:27Z</time>
      </trkpt>
      <trkpt lat="45.86077" lon="2.88934">
        <ele>746.12</ele>
        <time>2013-09-21T08:30:28Z</time>
      </trkpt>
      <trkpt lat="45.86087" lon="2.8894">
        <ele>744.68</ele>
        <time>2013-09-21T08:30:29Z</time>
      </trkpt>
      <trkpt lat="45.86098" lon="2.88947">
        <ele>743.24</ele>
        <time>2013-09-21T08:30:30Z</time>
      </trkpt>
      <trkpt lat="45.86108" lon="2.88951">
        <ele>743.24</ele>
        <time>2013-09-21T08:30:31Z</time>
      </trkpt>
      <trkpt lat="45.86119" lon="2.88953">
        <ele>744.68</ele>
        <time>2013-09-21T08:30:32Z</time>
      </trkpt>
      <trkpt lat="45.86129" lon="2.88952">
        <ele>745.16</ele>
        <time>2013-09-21T08:30:33Z</time>
      </trkpt>
      <trkpt lat="45.86138" lon="2.88948">
        <ele>746.6</ele>
        <time>2013-09-21T08:30:34Z</time>
      </trkpt>
      <trkpt lat="45.86146" lon="2.88943">
        <ele>746.6</ele>
        <time>2013-09-21T08:30:35Z</time>
      </trkpt>
      <trkpt lat="45.86154" lon="2.88937">
        <ele>747.08</ele>
        <time>2013-09-21T08:30:36Z</time>
      </trkpt>
      <trkpt lat="45.8616" lon="2.8893">
        <ele>748.52</ele>
        <time>2013-09-21T08:30:37Z</time>
      </trkpt>
      <trkpt lat="45.86165" lon="2.88923">
        <ele>749</ele>
        <time>2013-09-21T08:30:38Z</time>
      </trkpt>
      <trkpt lat="45.86169" lon="2.88917">
        <ele>750.45</ele>
        <time>2013-09-21T08:30:39Z</time>
      </trkpt>
      <trkpt lat="45.86172" lon="2.88912">
        <ele>750.93</ele>
        <time>2013-09-21T08:30:40Z</time>
      </trkpt>
      <trkpt lat="45.86177" lon="2.88905">
        <ele>752.37</ele>
        <time>2013-09-21T08:30:42Z</time>
      </trkpt>
      <trkpt lat="45.86188" lon="2.88888">
        <ele>755.73</ele>
        <time>2013-09-21T08:30:49Z</time>
      </trkpt>
      <trkpt lat="45.86207" lon="2.88859">
        <ele>758.62</ele>
        <time>2013-09-21T08:31:03Z</time>
      </trkpt>
      <trkpt lat="45.86231" lon="2.88831">
        <ele>761.98</ele>
        <time>2013-09-21T08:31:19Z</time>
      </trkpt>
      <trkpt lat="45.8626" lon="2.88805">
        <ele>764.87</ele>
        <time>2013-09-21T08:31:35Z</time>
      </trkpt>
      <trkpt lat="45.86285" lon="2.88777">
        <ele>768.23</ele>
        <time>2013-09-21T08:31:51Z</time>
      </trkpt>
      <trkpt lat="45.86304" lon="2.88754">
        <ele>771.11</ele>
        <time>2013-09-21T08:32:04Z</time>
      </trkpt>
      <trkpt lat="45.86313" lon="2.88744">
        <ele>773.04</ele>
        <time>2013-09-21T08:32:10Z</time>
      </trkpt>
      <trkpt lat="45.86334" lon="2.88721">
        <ele>774.96</ele>
        <time>2013-09-21T08:32:23Z</time>
      </trkpt>
      <trkpt lat="45.86374" lon="2.88677">
        <ele>778.32</ele>
        <time>2013-09-21T08:32:44Z</time>
      </trkpt>
      <trkpt lat="45.86405" lon="2.88643">
        <ele>779.77</ele>
        <time>2013-09-21T08:32:59Z</time>
      </trkpt>
      <trkpt lat="45.86437" lon="2.88604">
        <ele>782.65</ele>
        <time>2013-09-21T08:33:17Z</time>
      </trkpt>
      <trkpt lat="45.86459" lon="2.88591">
        <ele>785.53</ele>
        <time>2013-09-21T08:33:27Z</time>
      </trkpt>
      <trkpt lat="45.8649" lon="2.88571">
        <ele>789.38</ele>
        <time>2013-09-21T08:33:42Z</time>
      </trkpt>
      <trkpt lat="45.8652" lon="2.88553">
        <ele>791.3</ele>
        <time>2013-09-21T08:33:57Z</time>
      </trkpt>
      <trkpt lat="45.86553" lon="2.88526">
        <ele>793.22</ele>
        <time>2013-09-21T08:34:12Z</time>
      </trkpt>
      <trkpt lat="45.86574" lon="2.88481">
        <ele>795.63</ele>
        <time>2013-09-21T08:34:28Z</time>
      </trkpt>
      <trkpt lat="45.86583" lon="2.88442">
        <ele>797.07</ele>
        <time>2013-09-21T08:34:40Z</time>
      </trkpt>
      <trkpt lat="45.86586" lon="2.88403">
        <ele>798.03</ele>
        <time>2013-09-21T08:34:51Z</time>
      </trkpt>
      <trkpt lat="45.86578" lon="2.88348">
        <ele>798.03</ele>
        <time>2013-09-21T08:35:03Z</time>
      </trkpt>
      <trkpt lat="45.86548" lon="2.88284">
        <ele>799.47</ele>
        <time>2013-09-21T08:35:19Z</time>
      </trkpt>
      <trkpt lat="45.86537" lon="2.88235">
        <ele>801.88</ele>
        <time>2013-09-21T08:35:33Z</time>
      </trkpt>
      <trkpt lat="45.86549" lon="2.88207">
        <ele>804.28</ele>
        <time>2013-09-21T08:35:45Z</time>
      </trkpt>
      <trkpt lat="45.86553" lon="2.88209">
        <ele>805.24</ele>
        <time>2013-09-21T08:35:47Z</time>
      </trkpt>
      <trkpt lat="45.86581" lon="2.88228">
        <ele>807.64</ele>
        <time>2013-09-21T08:36:01Z</time>
      </trkpt>
      <trkpt lat="45.86606" lon="2.8822">
        <ele>810.05</ele>
        <time>2013-09-21T08:36:14Z</time>
      </trkpt>
      <trkpt lat="45.86621" lon="2.88214">
        <ele>812.93</ele>
        <time>2013-09-21T08:36:23Z</time>
      </trkpt>
      <trkpt lat="45.86641" lon="2.88194">
        <ele>814.85</ele>
        <time>2013-09-21T08:36:36Z</time>
      </trkpt>
      <trkpt lat="45.86654" lon="2.88147">
        <ele>816.78</ele>
        <time>2013-09-21T08:36:53Z</time>
      </trkpt>
      <trkpt lat="45.86656" lon="2.88102">
        <ele>817.26</ele>
        <time>2013-09-21T08:37:07Z</time>
      </trkpt>
      <trkpt lat="45.86658" lon="2.88046">
        <ele>817.26</ele>
        <time>2013-09-21T08:37:19Z</time>
      </trkpt>
      <trkpt lat="45.86677" lon="2.87983">
        <ele>818.22</ele>
        <time>2013-09-21T08:37:32Z</time>
      </trkpt>
      <trkpt lat="45.86693" lon="2.87891">
        <ele>816.3</ele>
        <time>2013-09-21T08:37:46Z</time>
      </trkpt>
      <trkpt lat="45.86702" lon="2.87769">
        <ele>815.82</ele>
        <time>2013-09-21T08:38:01Z</time>
      </trkpt>
      <trkpt lat="45.86696" lon="2.87619">
        <ele>818.22</ele>
        <time>2013-09-21T08:38:19Z</time>
      </trkpt>
      <trkpt lat="45.86693" lon="2.87581">
        <ele>818.22</ele>
        <time>2013-09-21T08:38:24Z</time>
      </trkpt>
      <trkpt lat="45.86667" lon="2.87459">
        <ele>815.34</ele>
        <time>2013-09-21T08:38:38Z</time>
      </trkpt>
      <trkpt lat="45.86657" lon="2.8738">
        <ele>811.97</ele>
        <time>2013-09-21T08:38:45Z</time>
      </trkpt>
      <trkpt lat="45.86644" lon="2.8724">
        <ele>808.61</ele>
        <time>2013-09-21T08:38:57Z</time>
      </trkpt>
      <trkpt lat="45.86647" lon="2.87189">
        <ele>806.68</ele>
        <time>2013-09-21T08:39:01Z</time>
      </trkpt>
      <trkpt lat="45.86651" lon="2.87178">
        <ele>804.28</ele>
        <time>2013-09-21T08:39:02Z</time>
      </trkpt>
      <trkpt lat="45.86658" lon="2.87169">
        <ele>804.28</ele>
        <time>2013-09-21T08:39:03Z</time>
      </trkpt>
      <trkpt lat="45.86665" lon="2.87164">
        <ele>803.32</ele>
        <time>2013-09-21T08:39:04Z</time>
      </trkpt>
      <trkpt lat="45.86674" lon="2.87162">
        <ele>802.84</ele>
        <time>2013-09-21T08:39:05Z</time>
      </trkpt>
      <trkpt lat="45.86683" lon="2.87163">
        <ele>802.84</ele>
        <time>2013-09-21T08:39:06Z</time>
      </trkpt>
      <trkpt lat="45.86693" lon="2.87164">
        <ele>802.84</ele>
        <time>2013-09-21T08:39:07Z</time>
      </trkpt>
      <trkpt lat="45.86712" lon="2.87165">
        <ele>799.95</ele>
        <time>2013-09-21T08:39:09Z</time>
      </trkpt>
      <trkpt lat="45.86761" lon="2.87162">
        <ele>795.63</ele>
        <time>2013-09-21T08:39:14Z</time>
      </trkpt>
      <trkpt lat="45.86771" lon="2.87161">
        <ele>796.11</ele>
        <time>2013-09-21T08:39:15Z</time>
      </trkpt>
      <trkpt lat="45.86781" lon="2.87161">
        <ele>793.71</ele>
        <time>2013-09-21T08:39:16Z</time>
      </trkpt>
      <trkpt lat="45.86791" lon="2.87163">
        <ele>794.67</ele>
        <time>2013-09-21T08:39:17Z</time>
      </trkpt>
      <trkpt lat="45.868" lon="2.87167">
        <ele>794.67</ele>
        <time>2013-09-21T08:39:18Z</time>
      </trkpt>
      <trkpt lat="45.86809" lon="2.87172">
        <ele>793.71</ele>
        <time>2013-09-21T08:39:19Z</time>
      </trkpt>
      <trkpt lat="45.86818" lon="2.87177">
        <ele>792.26</ele>
        <time>2013-09-21T08:39:20Z</time>
      </trkpt>
      <trkpt lat="45.86826" lon="2.87179">
        <ele>793.22</ele>
        <time>2013-09-21T08:39:21Z</time>
      </trkpt>
      <trkpt lat="45.86834" lon="2.87178">
        <ele>791.78</ele>
        <time>2013-09-21T08:39:22Z</time>
      </trkpt>
      <trkpt lat="45.86843" lon="2.87175">
        <ele>790.82</ele>
        <time>2013-09-21T08:39:23Z</time>
      </trkpt>
      <trkpt lat="45.86851" lon="2.87168">
        <ele>790.82</ele>
        <time>2013-09-21T08:39:24Z</time>
      </trkpt>
      <trkpt lat="45.86858" lon="2.8716">
        <ele>789.86</ele>
        <time>2013-09-21T08:39:25Z</time>
      </trkpt>
      <trkpt lat="45.86864" lon="2.8715">
        <ele>789.38</ele>
        <time>2013-09-21T08:39:26Z</time>
      </trkpt>
      <trkpt lat="45.86869" lon="2.87139">
        <ele>788.9</ele>
        <time>2013-09-21T08:39:27Z</time>
      </trkpt>
      <trkpt lat="45.86874" lon="2.87128">
        <ele>787.94</ele>
        <time>2013-09-21T08:39:28Z</time>
      </trkpt>
      <trkpt lat="45.86879" lon="2.87117">
        <ele>787.94</ele>
        <time>2013-09-21T08:39:29Z</time>
      </trkpt>
      <trkpt lat="45.86882" lon="2.87106">
        <ele>787.94</ele>
        <time>2013-09-21T08:39:30Z</time>
      </trkpt>
      <trkpt lat="45.86884" lon="2.87095">
        <ele>788.42</ele>
        <time>2013-09-21T08:39:31Z</time>
      </trkpt>
      <trkpt lat="45.86884" lon="2.87084">
        <ele>789.38</ele>
        <time>2013-09-21T08:39:32Z</time>
      </trkpt>
      <trkpt lat="45.86885" lon="2.87074">
        <ele>788.9</ele>
        <time>2013-09-21T08:39:33Z</time>
      </trkpt>
      <trkpt lat="45.86885" lon="2.87065">
        <ele>789.38</ele>
        <time>2013-09-21T08:39:34Z</time>
      </trkpt>
      <trkpt lat="45.86886" lon="2.87026">
        <ele>790.82</ele>
        <time>2013-09-21T08:39:39Z</time>
      </trkpt>
      <trkpt lat="45.86886" lon="2.87019">
        <ele>790.82</ele>
        <time>2013-09-21T08:39:40Z</time>
      </trkpt>
      <trkpt lat="45.86886" lon="2.87012">
        <ele>790.82</ele>
        <time>2013-09-21T08:39:41Z</time>
      </trkpt>
      <trkpt lat="45.86889" lon="2.86989">
        <ele>790.82</ele>
        <time>2013-09-21T08:39:44Z</time>
      </trkpt>
      <trkpt lat="45.86889" lon="2.86982">
        <ele>791.3</ele>
        <time>2013-09-21T08:39:45Z</time>
      </trkpt>
      <trkpt lat="45.86891" lon="2.86918">
        <ele>788.42</ele>
        <time>2013-09-21T08:39:52Z</time>
      </trkpt>
      <trkpt lat="45.86898" lon="2.86791">
        <ele>788.42</ele>
        <time>2013-09-21T08:40:05Z</time>
      </trkpt>
      <trkpt lat="45.86906" lon="2.86752">
        <ele>786.5</ele>
        <time>2013-09-21T08:40:09Z</time>
      </trkpt>
      <trkpt lat="45.86906" lon="2.86741">
        <ele>786.5</ele>
        <time>2013-09-21T08:40:10Z</time>
      </trkpt>
      <trkpt lat="45.86905" lon="2.86731">
        <ele>786.5</ele>
        <time>2013-09-21T08:40:11Z</time>
      </trkpt>
      <trkpt lat="45.86903" lon="2.8671">
        <ele>786.02</ele>
        <time>2013-09-21T08:40:13Z</time>
      </trkpt>
      <trkpt lat="45.86883" lon="2.8663">
        <ele>788.42</ele>
        <time>2013-09-21T08:40:22Z</time>
      </trkpt>
      <trkpt lat="45.8688" lon="2.86603">
        <ele>788.42</ele>
        <time>2013-09-21T08:40:25Z</time>
      </trkpt>
      <trkpt lat="45.8688" lon="2.86585">
        <ele>788.9</ele>
        <time>2013-09-21T08:40:27Z</time>
      </trkpt>
      <trkpt lat="45.86896" lon="2.86496">
        <ele>785.53</ele>
        <time>2013-09-21T08:40:36Z</time>
      </trkpt>
      <trkpt lat="45.86899" lon="2.86486">
        <ele>784.57</ele>
        <time>2013-09-21T08:40:37Z</time>
      </trkpt>
      <trkpt lat="45.86903" lon="2.86476">
        <ele>784.57</ele>
        <time>2013-09-21T08:40:38Z</time>
      </trkpt>
      <trkpt lat="45.86907" lon="2.86467">
        <ele>784.57</ele>
        <time>2013-09-21T08:40:39Z</time>
      </trkpt>
      <trkpt lat="45.86984" lon="2.86359">
        <ele>782.65</ele>
        <time>2013-09-21T08:40:53Z</time>
      </trkpt>
      <trkpt lat="45.87001" lon="2.86337">
        <ele>782.17</ele>
        <time>2013-09-21T08:40:56Z</time>
      </trkpt>
      <trkpt lat="45.87027" lon="2.86272">
        <ele>783.13</ele>
        <time>2013-09-21T08:41:04Z</time>
      </trkpt>
      <trkpt lat="45.87028" lon="2.86264">
        <ele>783.61</ele>
        <time>2013-09-21T08:41:05Z</time>
      </trkpt>
      <trkpt lat="45.87026" lon="2.86184">
        <ele>785.53</ele>
        <time>2013-09-21T08:41:15Z</time>
      </trkpt>
      <trkpt lat="45.87025" lon="2.86177">
        <ele>785.53</ele>
        <time>2013-09-21T08:41:16Z</time>
      </trkpt>
      <trkpt lat="45.87018" lon="2.86159">
        <ele>786.02</ele>
        <time>2013-09-21T08:41:19Z</time>
      </trkpt>
      <trkpt lat="45.87015" lon="2.86154">
        <ele>786.5</ele>
        <time>2013-09-21T08:41:20Z</time>
      </trkpt>
      <trkpt lat="45.87013" lon="2.8615">
        <ele>787.46</ele>
        <time>2013-09-21T08:41:21Z</time>
      </trkpt>
      <trkpt lat="45.8701" lon="2.86147">
        <ele>786.98</ele>
        <time>2013-09-21T08:41:22Z</time>
      </trkpt>
      <trkpt lat="45.87007" lon="2.86144">
        <ele>787.94</ele>
        <time>2013-09-21T08:41:23Z</time>
      </trkpt>
      <trkpt lat="45.87005" lon="2.86141">
        <ele>788.42</ele>
        <time>2013-09-21T08:41:24Z</time>
      </trkpt>
      <trkpt lat="45.87003" lon="2.86139">
        <ele>788.42</ele>
        <time>2013-09-21T08:41:25Z</time>
      </trkpt>
      <trkpt lat="45.86996" lon="2.8613">
        <ele>789.86</ele>
        <time>2013-09-21T08:41:29Z</time>
      </trkpt>
      <trkpt lat="45.86996" lon="2.86128">
        <ele>790.34</ele>
        <time>2013-09-21T08:41:30Z</time>
      </trkpt>
      <trkpt lat="45.86996" lon="2.86125">
        <ele>790.34</ele>
        <time>2013-09-21T08:41:31Z</time>
      </trkpt>
      <trkpt lat="45.86998" lon="2.86123">
        <ele>790.34</ele>
        <time>2013-09-21T08:41:32Z</time>
      </trkpt>
      <trkpt lat="45.87" lon="2.86121">
        <ele>790.34</ele>
        <time>2013-09-21T08:41:33Z</time>
      </trkpt>
      <trkpt lat="45.87002" lon="2.86121">
        <ele>790.82</ele>
        <time>2013-09-21T08:41:34Z</time>
      </trkpt>
      <trkpt lat="45.87004" lon="2.86122">
        <ele>790.82</ele>
        <time>2013-09-21T08:41:35Z</time>
      </trkpt>
      <trkpt lat="45.87006" lon="2.86121">
        <ele>791.78</ele>
        <time>2013-09-21T08:41:36Z</time>
      </trkpt>
      <trkpt lat="45.87008" lon="2.86121">
        <ele>790.82</ele>
        <time>2013-09-21T08:41:37Z</time>
      </trkpt>
      <trkpt lat="45.87035" lon="2.86112">
        <ele>794.19</ele>
        <time>2013-09-21T08:41:49Z</time>
      </trkpt>
      <trkpt lat="45.87066" lon="2.86096">
        <ele>797.07</ele>
        <time>2013-09-21T08:42:04Z</time>
      </trkpt>
      <trkpt lat="45.87098" lon="2.86078">
        <ele>800.92</ele>
        <time>2013-09-21T08:42:20Z</time>
      </trkpt>
      <trkpt lat="45.87132" lon="2.8606">
        <ele>804.28</ele>
        <time>2013-09-21T08:42:36Z</time>
      </trkpt>
      <trkpt lat="45.87157" lon="2.86037">
        <ele>806.68</ele>
        <time>2013-09-21T08:42:50Z</time>
      </trkpt>
      <trkpt lat="45.87169" lon="2.86022">
        <ele>808.61</ele>
        <time>2013-09-21T08:43:00Z</time>
      </trkpt>
      <trkpt lat="45.87171" lon="2.86021">
        <ele>808.61</ele>
        <time>2013-09-21T08:43:01Z</time>
      </trkpt>
      <trkpt lat="45.87172" lon="2.86019">
        <ele>808.61</ele>
        <time>2013-09-21T08:43:02Z</time>
      </trkpt>
      <trkpt lat="45.87174" lon="2.86018">
        <ele>809.09</ele>
        <time>2013-09-21T08:43:03Z</time>
      </trkpt>
      <trkpt lat="45.87175" lon="2.86017">
        <ele>809.57</ele>
        <time>2013-09-21T08:43:04Z</time>
      </trkpt>
      <trkpt lat="45.87177" lon="2.86016">
        <ele>810.05</ele>
        <time>2013-09-21T08:43:05Z</time>
      </trkpt>
      <trkpt lat="45.87178" lon="2.86015">
        <ele>810.53</ele>
        <time>2013-09-21T08:43:06Z</time>
      </trkpt>
      <trkpt lat="45.87187" lon="2.86015">
        <ele>811.97</ele>
        <time>2013-09-21T08:43:13Z</time>
      </trkpt>
      <trkpt lat="45.87189" lon="2.86015">
        <ele>811.49</ele>
        <time>2013-09-21T08:43:14Z</time>
      </trkpt>
      <trkpt lat="45.8719" lon="2.86016">
        <ele>811.97</ele>
        <time>2013-09-21T08:43:15Z</time>
      </trkpt>
      <trkpt lat="45.87191" lon="2.86017">
        <ele>812.45</ele>
        <time>2013-09-21T08:43:16Z</time>
      </trkpt>
      <trkpt lat="45.87193" lon="2.86018">
        <ele>812.93</ele>
        <time>2013-09-21T08:43:17Z</time>
      </trkpt>
      <trkpt lat="45.87195" lon="2.8602">
        <ele>812.93</ele>
        <time>2013-09-21T08:43:18Z</time>
      </trkpt>
      <trkpt lat="45.87217" lon="2.86029">
        <ele>815.34</ele>
        <time>2013-09-21T08:43:33Z</time>
      </trkpt>
      <trkpt lat="45.87218" lon="2.86027">
        <ele>814.85</ele>
        <time>2013-09-21T08:43:34Z</time>
      </trkpt>
      <trkpt lat="45.87219" lon="2.86023">
        <ele>814.37</ele>
        <time>2013-09-21T08:43:35Z</time>
      </trkpt>
      <trkpt lat="45.87219" lon="2.86019">
        <ele>814.37</ele>
        <time>2013-09-21T08:43:36Z</time>
      </trkpt>
      <trkpt lat="45.87219" lon="2.86015">
        <ele>814.85</ele>
        <time>2013-09-21T08:43:37Z</time>
      </trkpt>
      <trkpt lat="45.87219" lon="2.86011">
        <ele>814.37</ele>
        <time>2013-09-21T08:43:38Z</time>
      </trkpt>
      <trkpt lat="45.8722" lon="2.86006">
        <ele>814.37</ele>
        <time>2013-09-21T08:43:39Z</time>
      </trkpt>
      <trkpt lat="45.87221" lon="2.86001">
        <ele>814.37</ele>
        <time>2013-09-21T08:43:40Z</time>
      </trkpt>
      <trkpt lat="45.87222" lon="2.85996">
        <ele>814.37</ele>
        <time>2013-09-21T08:43:41Z</time>
      </trkpt>
      <trkpt lat="45.87224" lon="2.8599">
        <ele>813.89</ele>
        <time>2013-09-21T08:43:42Z</time>
      </trkpt>
      <trkpt lat="45.87234" lon="2.85953">
        <ele>811.49</ele>
        <time>2013-09-21T08:43:47Z</time>
      </trkpt>
      <trkpt lat="45.87238" lon="2.85934">
        <ele>810.05</ele>
        <time>2013-09-21T08:43:49Z</time>
      </trkpt>
      <trkpt lat="45.87241" lon="2.85924">
        <ele>809.57</ele>
        <time>2013-09-21T08:43:50Z</time>
      </trkpt>
      <trkpt lat="45.87244" lon="2.85914">
        <ele>809.09</ele>
        <time>2013-09-21T08:43:51Z</time>
      </trkpt>
      <trkpt lat="45.87248" lon="2.85906">
        <ele>809.09</ele>
        <time>2013-09-21T08:43:52Z</time>
      </trkpt>
      <trkpt lat="45.87254" lon="2.85902">
        <ele>808.61</ele>
        <time>2013-09-21T08:43:53Z</time>
      </trkpt>
      <trkpt lat="45.8726" lon="2.859">
        <ele>807.64</ele>
        <time>2013-09-21T08:43:54Z</time>
      </trkpt>
      <trkpt lat="45.87266" lon="2.85901">
        <ele>808.13</ele>
        <time>2013-09-21T08:43:55Z</time>
      </trkpt>
      <trkpt lat="45.87278" lon="2.85902">
        <ele>809.09</ele>
        <time>2013-09-21T08:43:57Z</time>
      </trkpt>
      <trkpt lat="45.87284" lon="2.85902">
        <ele>808.13</ele>
        <time>2013-09-21T08:43:58Z</time>
      </trkpt>
      <trkpt lat="45.87303" lon="2.85902">
        <ele>808.13</ele>
        <time>2013-09-21T08:44:01Z</time>
      </trkpt>
      <trkpt lat="45.87316" lon="2.859">
        <ele>806.68</ele>
        <time>2013-09-21T08:44:03Z</time>
      </trkpt>
      <trkpt lat="45.87331" lon="2.85899">
        <ele>805.72</ele>
        <time>2013-09-21T08:44:05Z</time>
      </trkpt>
      <trkpt lat="45.87362" lon="2.85892">
        <ele>802.84</ele>
        <time>2013-09-21T08:44:09Z</time>
      </trkpt>
      <trkpt lat="45.8737" lon="2.85889">
        <ele>802.84</ele>
        <time>2013-09-21T08:44:10Z</time>
      </trkpt>
      <trkpt lat="45.87379" lon="2.85884">
        <ele>800.92</ele>
        <time>2013-09-21T08:44:11Z</time>
      </trkpt>
      <trkpt lat="45.87396" lon="2.85871">
        <ele>797.55</ele>
        <time>2013-09-21T08:44:13Z</time>
      </trkpt>
      <trkpt lat="45.87425" lon="2.85849">
        <ele>794.19</ele>
        <time>2013-09-21T08:44:16Z</time>
      </trkpt>
      <trkpt lat="45.87445" lon="2.85834">
        <ele>793.22</ele>
        <time>2013-09-21T08:44:18Z</time>
      </trkpt>
      <trkpt lat="45.87504" lon="2.8579">
        <ele>789.38</ele>
        <time>2013-09-21T08:44:24Z</time>
      </trkpt>
      <trkpt lat="45.87513" lon="2.85784">
        <ele>789.86</ele>
        <time>2013-09-21T08:44:25Z</time>
      </trkpt>
      <trkpt lat="45.87531" lon="2.85773">
        <ele>788.9</ele>
        <time>2013-09-21T08:44:27Z</time>
      </trkpt>
      <trkpt lat="45.87541" lon="2.85769">
        <ele>788.42</ele>
        <time>2013-09-21T08:44:28Z</time>
      </trkpt>
      <trkpt lat="45.87577" lon="2.85758">
        <ele>786.5</ele>
        <time>2013-09-21T08:44:32Z</time>
      </trkpt>
      <trkpt lat="45.87584" lon="2.85753">
        <ele>786.5</ele>
        <time>2013-09-21T08:44:33Z</time>
      </trkpt>
      <trkpt lat="45.87589" lon="2.85746">
        <ele>786.5</ele>
        <time>2013-09-21T08:44:34Z</time>
      </trkpt>
      <trkpt lat="45.87593" lon="2.85737">
        <ele>786.02</ele>
        <time>2013-09-21T08:44:35Z</time>
      </trkpt>
      <trkpt lat="45.87595" lon="2.85727">
        <ele>785.53</ele>
        <time>2013-09-21T08:44:36Z</time>
      </trkpt>
      <trkpt lat="45.87596" lon="2.85717">
        <ele>785.05</ele>
        <time>2013-09-21T08:44:37Z</time>
      </trkpt>
      <trkpt lat="45.87597" lon="2.85707">
        <ele>786.02</ele>
        <time>2013-09-21T08:44:38Z</time>
      </trkpt>
      <trkpt lat="45.87598" lon="2.85696">
        <ele>785.53</ele>
        <time>2013-09-21T08:44:39Z</time>
      </trkpt>
      <trkpt lat="45.87598" lon="2.85686">
        <ele>785.05</ele>
        <time>2013-09-21T08:44:40Z</time>
      </trkpt>
      <trkpt lat="45.87612" lon="2.85522">
        <ele>785.05</ele>
        <time>2013-09-21T08:44:56Z</time>
      </trkpt>
      <trkpt lat="45.87613" lon="2.85503">
        <ele>785.05</ele>
        <time>2013-09-21T08:44:58Z</time>
      </trkpt>
      <trkpt lat="45.87629" lon="2.85419">
        <ele>786.02</ele>
        <time>2013-09-21T08:45:08Z</time>
      </trkpt>
      <trkpt lat="45.87632" lon="2.85411">
        <ele>786.5</ele>
        <time>2013-09-21T08:45:09Z</time>
      </trkpt>
      <trkpt lat="45.8769" lon="2.85272">
        <ele>783.13</ele>
        <time>2013-09-21T08:45:26Z</time>
      </trkpt>
      <trkpt lat="45.87712" lon="2.85171">
        <ele>783.61</ele>
        <time>2013-09-21T08:45:38Z</time>
      </trkpt>
      <trkpt lat="45.87716" lon="2.85132">
        <ele>782.17</ele>
        <time>2013-09-21T08:45:42Z</time>
      </trkpt>
      <trkpt lat="45.87717" lon="2.85122">
        <ele>781.69</ele>
        <time>2013-09-21T08:45:43Z</time>
      </trkpt>
      <trkpt lat="45.87717" lon="2.85087">
        <ele>777.84</ele>
        <time>2013-09-21T08:45:46Z</time>
      </trkpt>
      <trkpt lat="45.87718" lon="2.85062">
        <ele>776.4</ele>
        <time>2013-09-21T08:45:48Z</time>
      </trkpt>
      <trkpt lat="45.87717" lon="2.85048">
        <ele>775.44</ele>
        <time>2013-09-21T08:45:49Z</time>
      </trkpt>
      <trkpt lat="45.87716" lon="2.85035">
        <ele>774</ele>
        <time>2013-09-21T08:45:50Z</time>
      </trkpt>
      <trkpt lat="45.87707" lon="2.84964">
        <ele>770.63</ele>
        <time>2013-09-21T08:45:55Z</time>
      </trkpt>
      <trkpt lat="45.87702" lon="2.8494">
        <ele>771.11</ele>
        <time>2013-09-21T08:45:57Z</time>
      </trkpt>
      <trkpt lat="45.87698" lon="2.84932">
        <ele>771.11</ele>
        <time>2013-09-21T08:45:58Z</time>
      </trkpt>
      <trkpt lat="45.87693" lon="2.84926">
        <ele>771.6</ele>
        <time>2013-09-21T08:45:59Z</time>
      </trkpt>
      <trkpt lat="45.87687" lon="2.8492">
        <ele>770.63</ele>
        <time>2013-09-21T08:46:00Z</time>
      </trkpt>
      <trkpt lat="45.87682" lon="2.84913">
        <ele>770.15</ele>
        <time>2013-09-21T08:46:01Z</time>
      </trkpt>
      <trkpt lat="45.87676" lon="2.84905">
        <ele>768.71</ele>
        <time>2013-09-21T08:46:02Z</time>
      </trkpt>
      <trkpt lat="45.8767" lon="2.84897">
        <ele>768.71</ele>
        <time>2013-09-21T08:46:03Z</time>
      </trkpt>
      <trkpt lat="45.87651" lon="2.84871">
        <ele>766.79</ele>
        <time>2013-09-21T08:46:06Z</time>
      </trkpt>
      <trkpt lat="45.87646" lon="2.84861">
        <ele>767.27</ele>
        <time>2013-09-21T08:46:07Z</time>
      </trkpt>
      <trkpt lat="45.87643" lon="2.8485">
        <ele>767.27</ele>
        <time>2013-09-21T08:46:08Z</time>
      </trkpt>
      <trkpt lat="45.87637" lon="2.84831">
        <ele>768.23</ele>
        <time>2013-09-21T08:46:10Z</time>
      </trkpt>
      <trkpt lat="45.87633" lon="2.84823">
        <ele>768.23</ele>
        <time>2013-09-21T08:46:11Z</time>
      </trkpt>
      <trkpt lat="45.87628" lon="2.84816">
        <ele>768.23</ele>
        <time>2013-09-21T08:46:12Z</time>
      </trkpt>
      <trkpt lat="45.87601" lon="2.84785">
        <ele>764.87</ele>
        <time>2013-09-21T08:46:16Z</time>
      </trkpt>
      <trkpt lat="45.87586" lon="2.84768">
        <ele>761.98</ele>
        <time>2013-09-21T08:46:18Z</time>
      </trkpt>
      <trkpt lat="45.87577" lon="2.8476">
        <ele>761.5</ele>
        <time>2013-09-21T08:46:19Z</time>
      </trkpt>
      <trkpt lat="45.87568" lon="2.84753">
        <ele>759.58</ele>
        <time>2013-09-21T08:46:20Z</time>
      </trkpt>
      <trkpt lat="45.87551" lon="2.84734">
        <ele>757.66</ele>
        <time>2013-09-21T08:46:22Z</time>
      </trkpt>
      <trkpt lat="45.87544" lon="2.84722">
        <ele>758.14</ele>
        <time>2013-09-21T08:46:23Z</time>
      </trkpt>
      <trkpt lat="45.87527" lon="2.84688">
        <ele>755.25</ele>
        <time>2013-09-21T08:46:26Z</time>
      </trkpt>
      <trkpt lat="45.87524" lon="2.84679">
        <ele>753.33</ele>
        <time>2013-09-21T08:46:27Z</time>
      </trkpt>
      <trkpt lat="45.87522" lon="2.84672">
        <ele>753.33</ele>
        <time>2013-09-21T08:46:28Z</time>
      </trkpt>
      <trkpt lat="45.87521" lon="2.84666">
        <ele>751.89</ele>
        <time>2013-09-21T08:46:29Z</time>
      </trkpt>
      <trkpt lat="45.87519" lon="2.84661">
        <ele>750.93</ele>
        <time>2013-09-21T08:46:30Z</time>
      </trkpt>
      <trkpt lat="45.87516" lon="2.8466">
        <ele>750.45</ele>
        <time>2013-09-21T08:46:31Z</time>
      </trkpt>
      <trkpt lat="45.87513" lon="2.84663">
        <ele>749.97</ele>
        <time>2013-09-21T08:46:32Z</time>
      </trkpt>
      <trkpt lat="45.8751" lon="2.84668">
        <ele>749.97</ele>
        <time>2013-09-21T08:46:33Z</time>
      </trkpt>
      <trkpt lat="45.87506" lon="2.84672">
        <ele>749.49</ele>
        <time>2013-09-21T08:46:34Z</time>
      </trkpt>
      <trkpt lat="45.87502" lon="2.84676">
        <ele>748.52</ele>
        <time>2013-09-21T08:46:35Z</time>
      </trkpt>
      <trkpt lat="45.87497" lon="2.8468">
        <ele>748.52</ele>
        <time>2013-09-21T08:46:36Z</time>
      </trkpt>
      <trkpt lat="45.87486" lon="2.84687">
        <ele>748.04</ele>
        <time>2013-09-21T08:46:38Z</time>
      </trkpt>
      <trkpt lat="45.87469" lon="2.84694">
        <ele>745.64</ele>
        <time>2013-09-21T08:46:41Z</time>
      </trkpt>
      <trkpt lat="45.87438" lon="2.84697">
        <ele>743.72</ele>
        <time>2013-09-21T08:46:46Z</time>
      </trkpt>
      <trkpt lat="45.87431" lon="2.84696">
        <ele>743.24</ele>
        <time>2013-09-21T08:46:47Z</time>
      </trkpt>
      <trkpt lat="45.87424" lon="2.84693">
        <ele>743.24</ele>
        <time>2013-09-21T08:46:48Z</time>
      </trkpt>
      <trkpt lat="45.87417" lon="2.84688">
        <ele>742.76</ele>
        <time>2013-09-21T08:46:49Z</time>
      </trkpt>
      <trkpt lat="45.8741" lon="2.84683">
        <ele>742.76</ele>
        <time>2013-09-21T08:46:50Z</time>
      </trkpt>
      <trkpt lat="45.87403" lon="2.84679">
        <ele>742.76</ele>
        <time>2013-09-21T08:46:51Z</time>
      </trkpt>
      <trkpt lat="45.87395" lon="2.84677">
        <ele>742.76</ele>
        <time>2013-09-21T08:46:52Z</time>
      </trkpt>
      <trkpt lat="45.87387" lon="2.84676">
        <ele>741.79</ele>
        <time>2013-09-21T08:46:53Z</time>
      </trkpt>
      <trkpt lat="45.8737" lon="2.84675">
        <ele>738.91</ele>
        <time>2013-09-21T08:46:56Z</time>
      </trkpt>
      <trkpt lat="45.87361" lon="2.84674">
        <ele>736.99</ele>
        <time>2013-09-21T08:46:58Z</time>
      </trkpt>
      <trkpt lat="45.87348" lon="2.84671">
        <ele>734.58</ele>
        <time>2013-09-21T08:47:00Z</time>
      </trkpt>
      <trkpt lat="45.87335" lon="2.84665">
        <ele>733.14</ele>
        <time>2013-09-21T08:47:02Z</time>
      </trkpt>
      <trkpt lat="45.8733" lon="2.84662">
        <ele>732.18</ele>
        <time>2013-09-21T08:47:03Z</time>
      </trkpt>
      <trkpt lat="45.87326" lon="2.84658">
        <ele>731.22</ele>
        <time>2013-09-21T08:47:04Z</time>
      </trkpt>
      <trkpt lat="45.87321" lon="2.84654">
        <ele>730.74</ele>
        <time>2013-09-21T08:47:05Z</time>
      </trkpt>
      <trkpt lat="45.87317" lon="2.84649">
        <ele>729.3</ele>
        <time>2013-09-21T08:47:06Z</time>
      </trkpt>
      <trkpt lat="45.87312" lon="2.84644">
        <ele>728.82</ele>
        <time>2013-09-21T08:47:07Z</time>
      </trkpt>
      <trkpt lat="45.87308" lon="2.84637">
        <ele>727.37</ele>
        <time>2013-09-21T08:47:08Z</time>
      </trkpt>
      <trkpt lat="45.87304" lon="2.84629">
        <ele>726.41</ele>
        <time>2013-09-21T08:47:09Z</time>
      </trkpt>
      <trkpt lat="45.87292" lon="2.84606">
        <ele>723.05</ele>
        <time>2013-09-21T08:47:12Z</time>
      </trkpt>
      <trkpt lat="45.87283" lon="2.8459">
        <ele>721.61</ele>
        <time>2013-09-21T08:47:14Z</time>
      </trkpt>
      <trkpt lat="45.87273" lon="2.84581">
        <ele>718.72</ele>
        <time>2013-09-21T08:47:16Z</time>
      </trkpt>
      <trkpt lat="45.87268" lon="2.84578">
        <ele>717.76</ele>
        <time>2013-09-21T08:47:17Z</time>
      </trkpt>
      <trkpt lat="45.87261" lon="2.84578">
        <ele>717.28</ele>
        <time>2013-09-21T08:47:18Z</time>
      </trkpt>
      <trkpt lat="45.87253" lon="2.84579">
        <ele>716.32</ele>
        <time>2013-09-21T08:47:19Z</time>
      </trkpt>
      <trkpt lat="45.87247" lon="2.84579">
        <ele>714.88</ele>
        <time>2013-09-21T08:47:20Z</time>
      </trkpt>
      <trkpt lat="45.87231" lon="2.8458">
        <ele>711.51</ele>
        <time>2013-09-21T08:47:24Z</time>
      </trkpt>
      <trkpt lat="45.87213" lon="2.84581">
        <ele>707.67</ele>
        <time>2013-09-21T08:47:29Z</time>
      </trkpt>
      <trkpt lat="45.87205" lon="2.84582">
        <ele>706.71</ele>
        <time>2013-09-21T08:47:31Z</time>
      </trkpt>
      <trkpt lat="45.87191" lon="2.84583">
        <ele>703.34</ele>
        <time>2013-09-21T08:47:34Z</time>
      </trkpt>
      <trkpt lat="45.87186" lon="2.84584">
        <ele>701.9</ele>
        <time>2013-09-21T08:47:35Z</time>
      </trkpt>
      <trkpt lat="45.8718" lon="2.84585">
        <ele>700.94</ele>
        <time>2013-09-21T08:47:36Z</time>
      </trkpt>
      <trkpt lat="45.87174" lon="2.84583">
        <ele>699.5</ele>
        <time>2013-09-21T08:47:37Z</time>
      </trkpt>
      <trkpt lat="45.87169" lon="2.8458">
        <ele>698.53</ele>
        <time>2013-09-21T08:47:38Z</time>
      </trkpt>
      <trkpt lat="45.87163" lon="2.84577">
        <ele>697.09</ele>
        <time>2013-09-21T08:47:39Z</time>
      </trkpt>
      <trkpt lat="45.87158" lon="2.84574">
        <ele>697.09</ele>
        <time>2013-09-21T08:47:40Z</time>
      </trkpt>
      <trkpt lat="45.87142" lon="2.84567">
        <ele>694.21</ele>
        <time>2013-09-21T08:47:43Z</time>
      </trkpt>
      <trkpt lat="45.87137" lon="2.84566">
        <ele>693.25</ele>
        <time>2013-09-21T08:47:44Z</time>
      </trkpt>
      <trkpt lat="45.87132" lon="2.84565">
        <ele>691.81</ele>
        <time>2013-09-21T08:47:45Z</time>
      </trkpt>
      <trkpt lat="45.87125" lon="2.84562">
        <ele>690.84</ele>
        <time>2013-09-21T08:47:46Z</time>
      </trkpt>
      <trkpt lat="45.87119" lon="2.84558">
        <ele>688.92</ele>
        <time>2013-09-21T08:47:47Z</time>
      </trkpt>
      <trkpt lat="45.87115" lon="2.84554">
        <ele>687.96</ele>
        <time>2013-09-21T08:47:48Z</time>
      </trkpt>
      <trkpt lat="45.8711" lon="2.84552">
        <ele>687.96</ele>
        <time>2013-09-21T08:47:49Z</time>
      </trkpt>
      <trkpt lat="45.87095" lon="2.84543">
        <ele>685.08</ele>
        <time>2013-09-21T08:47:53Z</time>
      </trkpt>
      <trkpt lat="45.8709" lon="2.8454">
        <ele>684.6</ele>
        <time>2013-09-21T08:47:54Z</time>
      </trkpt>
      <trkpt lat="45.87072" lon="2.84527">
        <ele>680.27</ele>
        <time>2013-09-21T08:47:57Z</time>
      </trkpt>
      <trkpt lat="45.87056" lon="2.84514">
        <ele>676.42</ele>
        <time>2013-09-21T08:48:00Z</time>
      </trkpt>
      <trkpt lat="45.87052" lon="2.84507">
        <ele>675.46</ele>
        <time>2013-09-21T08:48:01Z</time>
      </trkpt>
      <trkpt lat="45.87044" lon="2.84494">
        <ele>673.06</ele>
        <time>2013-09-21T08:48:03Z</time>
      </trkpt>
      <trkpt lat="45.87034" lon="2.84474">
        <ele>669.7</ele>
        <time>2013-09-21T08:48:06Z</time>
      </trkpt>
      <trkpt lat="45.8703" lon="2.84465">
        <ele>668.25</ele>
        <time>2013-09-21T08:48:07Z</time>
      </trkpt>
      <trkpt lat="45.87028" lon="2.84455">
        <ele>666.33</ele>
        <time>2013-09-21T08:48:08Z</time>
      </trkpt>
      <trkpt lat="45.87026" lon="2.84445">
        <ele>664.89</ele>
        <time>2013-09-21T08:48:09Z</time>
      </trkpt>
      <trkpt lat="45.87027" lon="2.84434">
        <ele>663.93</ele>
        <time>2013-09-21T08:48:10Z</time>
      </trkpt>
      <trkpt lat="45.87028" lon="2.84422">
        <ele>662.49</ele>
        <time>2013-09-21T08:48:11Z</time>
      </trkpt>
      <trkpt lat="45.8703" lon="2.84411">
        <ele>660.56</ele>
        <time>2013-09-21T08:48:12Z</time>
      </trkpt>
      <trkpt lat="45.87033" lon="2.84399">
        <ele>660.08</ele>
        <time>2013-09-21T08:48:13Z</time>
      </trkpt>
      <trkpt lat="45.87045" lon="2.84361">
        <ele>656.72</ele>
        <time>2013-09-21T08:48:17Z</time>
      </trkpt>
      <trkpt lat="45.87054" lon="2.84333">
        <ele>651.91</ele>
        <time>2013-09-21T08:48:20Z</time>
      </trkpt>
      <trkpt lat="45.87058" lon="2.84321">
        <ele>649.99</ele>
        <time>2013-09-21T08:48:21Z</time>
      </trkpt>
      <trkpt lat="45.87068" lon="2.84299">
        <ele>646.14</ele>
        <time>2013-09-21T08:48:23Z</time>
      </trkpt>
      <trkpt lat="45.87078" lon="2.84277">
        <ele>641.82</ele>
        <time>2013-09-21T08:48:25Z</time>
      </trkpt>
      <trkpt lat="45.87084" lon="2.84267">
        <ele>640.86</ele>
        <time>2013-09-21T08:48:26Z</time>
      </trkpt>
      <trkpt lat="45.87088" lon="2.84257">
        <ele>639.41</ele>
        <time>2013-09-21T08:48:27Z</time>
      </trkpt>
      <trkpt lat="45.8709" lon="2.84246">
        <ele>638.93</ele>
        <time>2013-09-21T08:48:28Z</time>
      </trkpt>
      <trkpt lat="45.87093" lon="2.84224">
        <ele>638.45</ele>
        <time>2013-09-21T08:48:30Z</time>
      </trkpt>
      <trkpt lat="45.87087" lon="2.84193">
        <ele>633.65</ele>
        <time>2013-09-21T08:48:34Z</time>
      </trkpt>
      <trkpt lat="45.87082" lon="2.84188">
        <ele>631.24</ele>
        <time>2013-09-21T08:48:35Z</time>
      </trkpt>
      <trkpt lat="45.8707" lon="2.8418">
        <ele>629.32</ele>
        <time>2013-09-21T08:48:37Z</time>
      </trkpt>
      <trkpt lat="45.87064" lon="2.84176">
        <ele>628.36</ele>
        <time>2013-09-21T08:48:38Z</time>
      </trkpt>
      <trkpt lat="45.87019" lon="2.84204">
        <ele>623.07</ele>
        <time>2013-09-21T08:48:45Z</time>
      </trkpt>
      <trkpt lat="45.8702" lon="2.84211">
        <ele>624.03</ele>
        <time>2013-09-21T08:48:46Z</time>
      </trkpt>
      <trkpt lat="45.87009" lon="2.84245">
        <ele>622.59</ele>
        <time>2013-09-21T08:48:50Z</time>
      </trkpt>
      <trkpt lat="45.86991" lon="2.84259">
        <ele>620.19</ele>
        <time>2013-09-21T08:48:53Z</time>
      </trkpt>
      <trkpt lat="45.86984" lon="2.84263">
        <ele>618.75</ele>
        <time>2013-09-21T08:48:54Z</time>
      </trkpt>
      <trkpt lat="45.86976" lon="2.84267">
        <ele>618.26</ele>
        <time>2013-09-21T08:48:55Z</time>
      </trkpt>
      <trkpt lat="45.86969" lon="2.84272">
        <ele>616.82</ele>
        <time>2013-09-21T08:48:56Z</time>
      </trkpt>
      <trkpt lat="45.86961" lon="2.84278">
        <ele>616.82</ele>
        <time>2013-09-21T08:48:57Z</time>
      </trkpt>
      <trkpt lat="45.86938" lon="2.84291">
        <ele>612.98</ele>
        <time>2013-09-21T08:49:00Z</time>
      </trkpt>
      <trkpt lat="45.86928" lon="2.84292">
        <ele>612.5</ele>
        <time>2013-09-21T08:49:01Z</time>
      </trkpt>
      <trkpt lat="45.8691" lon="2.84291">
        <ele>609.13</ele>
        <time>2013-09-21T08:49:03Z</time>
      </trkpt>
      <trkpt lat="45.86885" lon="2.84293">
        <ele>605.77</ele>
        <time>2013-09-21T08:49:06Z</time>
      </trkpt>
      <trkpt lat="45.86866" lon="2.84293">
        <ele>601.92</ele>
        <time>2013-09-21T08:49:09Z</time>
      </trkpt>
      <trkpt lat="45.86856" lon="2.84292">
        <ele>599.04</ele>
        <time>2013-09-21T08:49:11Z</time>
      </trkpt>
      <trkpt lat="45.8685" lon="2.84291">
        <ele>598.08</ele>
        <time>2013-09-21T08:49:12Z</time>
      </trkpt>
      <trkpt lat="45.86844" lon="2.84288">
        <ele>597.12</ele>
        <time>2013-09-21T08:49:13Z</time>
      </trkpt>
      <trkpt lat="45.86829" lon="2.84281">
        <ele>593.27</ele>
        <time>2013-09-21T08:49:15Z</time>
      </trkpt>
      <trkpt lat="45.8682" lon="2.84278">
        <ele>590.39</ele>
        <time>2013-09-21T08:49:16Z</time>
      </trkpt>
      <trkpt lat="45.86801" lon="2.84272">
        <ele>589.91</ele>
        <time>2013-09-21T08:49:18Z</time>
      </trkpt>
      <trkpt lat="45.86793" lon="2.84265">
        <ele>587.5</ele>
        <time>2013-09-21T08:49:19Z</time>
      </trkpt>
      <trkpt lat="45.86767" lon="2.84236">
        <ele>583.66</ele>
        <time>2013-09-21T08:49:23Z</time>
      </trkpt>
      <trkpt lat="45.86762" lon="2.84232">
        <ele>583.66</ele>
        <time>2013-09-21T08:49:24Z</time>
      </trkpt>
      <trkpt lat="45.86753" lon="2.84234">
        <ele>582.22</ele>
        <time>2013-09-21T08:49:25Z</time>
      </trkpt>
      <trkpt lat="45.86745" lon="2.84232">
        <ele>582.7</ele>
        <time>2013-09-21T08:49:26Z</time>
      </trkpt>
      <trkpt lat="45.86734" lon="2.84222">
        <ele>581.73</ele>
        <time>2013-09-21T08:49:28Z</time>
      </trkpt>
      <trkpt lat="45.86733" lon="2.84214">
        <ele>582.22</ele>
        <time>2013-09-21T08:49:29Z</time>
      </trkpt>
      <trkpt lat="45.86732" lon="2.84206">
        <ele>581.25</ele>
        <time>2013-09-21T08:49:30Z</time>
      </trkpt>
      <trkpt lat="45.86732" lon="2.84198">
        <ele>580.77</ele>
        <time>2013-09-21T08:49:31Z</time>
      </trkpt>
      <trkpt lat="45.86735" lon="2.84142">
        <ele>580.77</ele>
        <time>2013-09-21T08:49:38Z</time>
      </trkpt>
      <trkpt lat="45.86736" lon="2.84136">
        <ele>580.77</ele>
        <time>2013-09-21T08:49:39Z</time>
      </trkpt>
      <trkpt lat="45.86738" lon="2.8413">
        <ele>580.29</ele>
        <time>2013-09-21T08:49:40Z</time>
      </trkpt>
      <trkpt lat="45.8674" lon="2.84125">
        <ele>580.77</ele>
        <time>2013-09-21T08:49:41Z</time>
      </trkpt>
      <trkpt lat="45.86743" lon="2.8412">
        <ele>580.29</ele>
        <time>2013-09-21T08:49:42Z</time>
      </trkpt>
      <trkpt lat="45.86746" lon="2.84116">
        <ele>580.77</ele>
        <time>2013-09-21T08:49:43Z</time>
      </trkpt>
      <trkpt lat="45.8675" lon="2.84107">
        <ele>581.25</ele>
        <time>2013-09-21T08:49:45Z</time>
      </trkpt>
      <trkpt lat="45.86749" lon="2.84103">
        <ele>581.73</ele>
        <time>2013-09-21T08:49:46Z</time>
      </trkpt>
      <trkpt lat="45.86749" lon="2.841">
        <ele>581.73</ele>
        <time>2013-09-21T08:49:47Z</time>
      </trkpt>
      <trkpt lat="45.86748" lon="2.84098">
        <ele>582.22</ele>
        <time>2013-09-21T08:49:48Z</time>
      </trkpt>
      <trkpt lat="45.86744" lon="2.84097">
        <ele>582.22</ele>
        <time>2013-09-21T08:49:49Z</time>
      </trkpt>
      <trkpt lat="45.8674" lon="2.84096">
        <ele>582.22</ele>
        <time>2013-09-21T08:49:50Z</time>
      </trkpt>
      <trkpt lat="45.86736" lon="2.84096">
        <ele>582.22</ele>
        <time>2013-09-21T08:49:51Z</time>
      </trkpt>
      <trkpt lat="45.86731" lon="2.84096">
        <ele>582.22</ele>
        <time>2013-09-21T08:49:52Z</time>
      </trkpt>
      <trkpt lat="45.86727" lon="2.84096">
        <ele>582.22</ele>
        <time>2013-09-21T08:49:53Z</time>
      </trkpt>
      <trkpt lat="45.86722" lon="2.84096">
        <ele>582.22</ele>
        <time>2013-09-21T08:49:54Z</time>
      </trkpt>
      <trkpt lat="45.86717" lon="2.84095">
        <ele>581.73</ele>
        <time>2013-09-21T08:49:55Z</time>
      </trkpt>
      <trkpt lat="45.86712" lon="2.84092">
        <ele>580.77</ele>
        <time>2013-09-21T08:49:56Z</time>
      </trkpt>
      <trkpt lat="45.86707" lon="2.84089">
        <ele>580.77</ele>
        <time>2013-09-21T08:49:57Z</time>
      </trkpt>
      <trkpt lat="45.86703" lon="2.84085">
        <ele>580.77</ele>
        <time>2013-09-21T08:49:58Z</time>
      </trkpt>
      <trkpt lat="45.86699" lon="2.8408">
        <ele>581.25</ele>
        <time>2013-09-21T08:49:59Z</time>
      </trkpt>
      <trkpt lat="45.86696" lon="2.84076">
        <ele>581.25</ele>
        <time>2013-09-21T08:50:00Z</time>
      </trkpt>
      <trkpt lat="45.86692" lon="2.84072">
        <ele>581.73</ele>
        <time>2013-09-21T08:50:01Z</time>
      </trkpt>
      <trkpt lat="45.8669" lon="2.84067">
        <ele>581.25</ele>
        <time>2013-09-21T08:50:02Z</time>
      </trkpt>
      <trkpt lat="45.86688" lon="2.84063">
        <ele>581.25</ele>
        <time>2013-09-21T08:50:03Z</time>
      </trkpt>
      <trkpt lat="45.86687" lon="2.84057">
        <ele>581.25</ele>
        <time>2013-09-21T08:50:04Z</time>
      </trkpt>
      <trkpt lat="45.86686" lon="2.84052">
        <ele>581.25</ele>
        <time>2013-09-21T08:50:05Z</time>
      </trkpt>
      <trkpt lat="45.86685" lon="2.84047">
        <ele>582.22</ele>
        <time>2013-09-21T08:50:06Z</time>
      </trkpt>
      <trkpt lat="45.86683" lon="2.84043">
        <ele>581.73</ele>
        <time>2013-09-21T08:50:07Z</time>
      </trkpt>
      <trkpt lat="45.86667" lon="2.83999">
        <ele>583.66</ele>
        <time>2013-09-21T08:50:19Z</time>
      </trkpt>
      <trkpt lat="45.86664" lon="2.83964">
        <ele>586.54</ele>
        <time>2013-09-21T08:50:32Z</time>
      </trkpt>
      <trkpt lat="45.86663" lon="2.83956">
        <ele>587.5</ele>
        <time>2013-09-21T08:50:36Z</time>
      </trkpt>
      <trkpt lat="45.86663" lon="2.83954">
        <ele>587.98</ele>
        <time>2013-09-21T08:50:37Z</time>
      </trkpt>
      <trkpt lat="45.86664" lon="2.83952">
        <ele>587.5</ele>
        <time>2013-09-21T08:50:38Z</time>
      </trkpt>
      <trkpt lat="45.86664" lon="2.8395">
        <ele>587.98</ele>
        <time>2013-09-21T08:50:39Z</time>
      </trkpt>
      <trkpt lat="45.86665" lon="2.83947">
        <ele>588.46</ele>
        <time>2013-09-21T08:50:40Z</time>
      </trkpt>
      <trkpt lat="45.86665" lon="2.83945">
        <ele>588.46</ele>
        <time>2013-09-21T08:50:41Z</time>
      </trkpt>
      <trkpt lat="45.86663" lon="2.83925">
        <ele>590.87</ele>
        <time>2013-09-21T08:50:51Z</time>
      </trkpt>
      <trkpt lat="45.86661" lon="2.83923">
        <ele>590.39</ele>
        <time>2013-09-21T08:50:52Z</time>
      </trkpt>
      <trkpt lat="45.86654" lon="2.83914">
        <ele>590.87</ele>
        <time>2013-09-21T08:50:58Z</time>
      </trkpt>
      <trkpt lat="45.86628" lon="2.83902">
        <ele>591.83</ele>
        <time>2013-09-21T08:51:12Z</time>
      </trkpt>
      <trkpt lat="45.86599" lon="2.83898">
        <ele>592.79</ele>
        <time>2013-09-21T08:51:26Z</time>
      </trkpt>
      <trkpt lat="45.86569" lon="2.83906">
        <ele>593.27</ele>
        <time>2013-09-21T08:51:41Z</time>
      </trkpt>
      <trkpt lat="45.86544" lon="2.83914">
        <ele>594.71</ele>
        <time>2013-09-21T08:51:55Z</time>
      </trkpt>
      <trkpt lat="45.86524" lon="2.83923">
        <ele>596.64</ele>
        <time>2013-09-21T08:52:07Z</time>
      </trkpt>
      <trkpt lat="45.86516" lon="2.83927">
        <ele>597.12</ele>
        <time>2013-09-21T08:52:12Z</time>
      </trkpt>
      <trkpt lat="45.86514" lon="2.83928">
        <ele>597.6</ele>
        <time>2013-09-21T08:52:13Z</time>
      </trkpt>
      <trkpt lat="45.86511" lon="2.83929">
        <ele>598.08</ele>
        <time>2013-09-21T08:52:14Z</time>
      </trkpt>
      <trkpt lat="45.86488" lon="2.83939">
        <ele>597.6</ele>
        <time>2013-09-21T08:52:26Z</time>
      </trkpt>
      <trkpt lat="45.86464" lon="2.83949">
        <ele>599.52</ele>
        <time>2013-09-21T08:52:37Z</time>
      </trkpt>
      <trkpt lat="45.8644" lon="2.83953">
        <ele>600.96</ele>
        <time>2013-09-21T08:52:48Z</time>
      </trkpt>
      <trkpt lat="45.86438" lon="2.83954">
        <ele>600.48</ele>
        <time>2013-09-21T08:52:49Z</time>
      </trkpt>
      <trkpt lat="45.86436" lon="2.83954">
        <ele>600.96</ele>
        <time>2013-09-21T08:52:50Z</time>
      </trkpt>
      <trkpt lat="45.86434" lon="2.83955">
        <ele>600.48</ele>
        <time>2013-09-21T08:52:51Z</time>
      </trkpt>
      <trkpt lat="45.86432" lon="2.83956">
        <ele>600.96</ele>
        <time>2013-09-21T08:52:52Z</time>
      </trkpt>
      <trkpt lat="45.86429" lon="2.83957">
        <ele>600.96</ele>
        <time>2013-09-21T08:52:53Z</time>
      </trkpt>
      <trkpt lat="45.86427" lon="2.83958">
        <ele>600.96</ele>
        <time>2013-09-21T08:52:54Z</time>
      </trkpt>
      <trkpt lat="45.86426" lon="2.83959">
        <ele>601.44</ele>
        <time>2013-09-21T08:52:55Z</time>
      </trkpt>
      <trkpt lat="45.86423" lon="2.8396">
        <ele>601.92</ele>
        <time>2013-09-21T08:52:56Z</time>
      </trkpt>
      <trkpt lat="45.86406" lon="2.83967">
        <ele>601.92</ele>
        <time>2013-09-21T08:53:05Z</time>
      </trkpt>
      <trkpt lat="45.86396" lon="2.83968">
        <ele>602.4</ele>
        <time>2013-09-21T08:53:10Z</time>
      </trkpt>
      <trkpt lat="45.86394" lon="2.83968">
        <ele>602.88</ele>
        <time>2013-09-21T08:53:11Z</time>
      </trkpt>
      <trkpt lat="45.86392" lon="2.83968">
        <ele>602.88</ele>
        <time>2013-09-21T08:53:12Z</time>
      </trkpt>
      <trkpt lat="45.86368" lon="2.83968">
        <ele>604.33</ele>
        <time>2013-09-21T08:53:24Z</time>
      </trkpt>
      <trkpt lat="45.86366" lon="2.83967">
        <ele>603.85</ele>
        <time>2013-09-21T08:53:25Z</time>
      </trkpt>
      <trkpt lat="45.86354" lon="2.83964">
        <ele>605.29</ele>
        <time>2013-09-21T08:53:31Z</time>
      </trkpt>
      <trkpt lat="45.86353" lon="2.83964">
        <ele>605.77</ele>
        <time>2013-09-21T08:53:32Z</time>
      </trkpt>
      <trkpt lat="45.86351" lon="2.83965">
        <ele>605.29</ele>
        <time>2013-09-21T08:53:33Z</time>
      </trkpt>
      <trkpt lat="45.86339" lon="2.83966">
        <ele>606.25</ele>
        <time>2013-09-21T08:53:38Z</time>
      </trkpt>
      <trkpt lat="45.86337" lon="2.83966">
        <ele>606.73</ele>
        <time>2013-09-21T08:53:39Z</time>
      </trkpt>
      <trkpt lat="45.86335" lon="2.83966">
        <ele>607.21</ele>
        <time>2013-09-21T08:53:40Z</time>
      </trkpt>
      <trkpt lat="45.86333" lon="2.83966">
        <ele>607.21</ele>
        <time>2013-09-21T08:53:41Z</time>
      </trkpt>
      <trkpt lat="45.8633" lon="2.83967">
        <ele>607.21</ele>
        <time>2013-09-21T08:53:42Z</time>
      </trkpt>
      <trkpt lat="45.86328" lon="2.83966">
        <ele>607.21</ele>
        <time>2013-09-21T08:53:43Z</time>
      </trkpt>
      <trkpt lat="45.86325" lon="2.83965">
        <ele>606.73</ele>
        <time>2013-09-21T08:53:44Z</time>
      </trkpt>
      <trkpt lat="45.86322" lon="2.83965">
        <ele>606.73</ele>
        <time>2013-09-21T08:53:45Z</time>
      </trkpt>
      <trkpt lat="45.86319" lon="2.83964">
        <ele>606.25</ele>
        <time>2013-09-21T08:53:46Z</time>
      </trkpt>
      <trkpt lat="45.86317" lon="2.83963">
        <ele>606.73</ele>
        <time>2013-09-21T08:53:47Z</time>
      </trkpt>
      <trkpt lat="45.86316" lon="2.83962">
        <ele>606.73</ele>
        <time>2013-09-21T08:53:48Z</time>
      </trkpt>
      <trkpt lat="45.86315" lon="2.83961">
        <ele>607.21</ele>
        <time>2013-09-21T08:53:49Z</time>
      </trkpt>
      <trkpt lat="45.86303" lon="2.83937">
        <ele>607.21</ele>
        <time>2013-09-21T08:53:57Z</time>
      </trkpt>
      <trkpt lat="45.863" lon="2.83934">
        <ele>606.25</ele>
        <time>2013-09-21T08:53:58Z</time>
      </trkpt>
      <trkpt lat="45.86292" lon="2.83925">
        <ele>606.25</ele>
        <time>2013-09-21T08:54:00Z</time>
      </trkpt>
      <trkpt lat="45.86288" lon="2.83919">
        <ele>605.77</ele>
        <time>2013-09-21T08:54:01Z</time>
      </trkpt>
      <trkpt lat="45.86284" lon="2.83914">
        <ele>604.81</ele>
        <time>2013-09-21T08:54:02Z</time>
      </trkpt>
      <trkpt lat="45.86249" lon="2.83865">
        <ele>602.4</ele>
        <time>2013-09-21T08:54:11Z</time>
      </trkpt>
      <trkpt lat="45.86243" lon="2.83852">
        <ele>602.88</ele>
        <time>2013-09-21T08:54:13Z</time>
      </trkpt>
      <trkpt lat="45.86241" lon="2.83846">
        <ele>602.88</ele>
        <time>2013-09-21T08:54:14Z</time>
      </trkpt>
      <trkpt lat="45.86238" lon="2.83839">
        <ele>602.88</ele>
        <time>2013-09-21T08:54:15Z</time>
      </trkpt>
      <trkpt lat="45.86236" lon="2.83832">
        <ele>602.4</ele>
        <time>2013-09-21T08:54:16Z</time>
      </trkpt>
      <trkpt lat="45.86234" lon="2.83825">
        <ele>601.92</ele>
        <time>2013-09-21T08:54:17Z</time>
      </trkpt>
      <trkpt lat="45.86232" lon="2.83817">
        <ele>600.96</ele>
        <time>2013-09-21T08:54:18Z</time>
      </trkpt>
      <trkpt lat="45.86225" lon="2.83766">
        <ele>601.92</ele>
        <time>2013-09-21T08:54:24Z</time>
      </trkpt>
      <trkpt lat="45.8621" lon="2.83737">
        <ele>602.4</ele>
        <time>2013-09-21T08:54:30Z</time>
      </trkpt>
      <trkpt lat="45.86207" lon="2.83732">
        <ele>601.44</ele>
        <time>2013-09-21T08:54:31Z</time>
      </trkpt>
      <trkpt lat="45.86205" lon="2.83728">
        <ele>602.4</ele>
        <time>2013-09-21T08:54:32Z</time>
      </trkpt>
      <trkpt lat="45.86206" lon="2.83724">
        <ele>603.36</ele>
        <time>2013-09-21T08:54:33Z</time>
      </trkpt>
      <trkpt lat="45.86207" lon="2.83721">
        <ele>602.88</ele>
        <time>2013-09-21T08:54:34Z</time>
      </trkpt>
      <trkpt lat="45.86209" lon="2.83718">
        <ele>603.85</ele>
        <time>2013-09-21T08:54:35Z</time>
      </trkpt>
      <trkpt lat="45.8621" lon="2.83716">
        <ele>604.33</ele>
        <time>2013-09-21T08:54:36Z</time>
      </trkpt>
      <trkpt lat="45.86211" lon="2.83713">
        <ele>605.29</ele>
        <time>2013-09-21T08:54:37Z</time>
      </trkpt>
      <trkpt lat="45.8621" lon="2.83681">
        <ele>607.69</ele>
        <time>2013-09-21T08:54:47Z</time>
      </trkpt>
      <trkpt lat="45.86202" lon="2.8364">
        <ele>609.61</ele>
        <time>2013-09-21T08:54:59Z</time>
      </trkpt>
      <trkpt lat="45.86202" lon="2.83637">
        <ele>609.13</ele>
        <time>2013-09-21T08:55:00Z</time>
      </trkpt>
      <trkpt lat="45.8621" lon="2.83596">
        <ele>611.54</ele>
        <time>2013-09-21T08:55:14Z</time>
      </trkpt>
      <trkpt lat="45.86215" lon="2.83569">
        <ele>613.46</ele>
        <time>2013-09-21T08:55:25Z</time>
      </trkpt>
      <trkpt lat="45.86214" lon="2.83566">
        <ele>613.94</ele>
        <time>2013-09-21T08:55:26Z</time>
      </trkpt>
      <trkpt lat="45.86214" lon="2.83564">
        <ele>613.94</ele>
        <time>2013-09-21T08:55:27Z</time>
      </trkpt>
      <trkpt lat="45.86214" lon="2.83561">
        <ele>613.94</ele>
        <time>2013-09-21T08:55:28Z</time>
      </trkpt>
      <trkpt lat="45.86215" lon="2.83559">
        <ele>614.9</ele>
        <time>2013-09-21T08:55:29Z</time>
      </trkpt>
      <trkpt lat="45.86215" lon="2.83557">
        <ele>614.42</ele>
        <time>2013-09-21T08:55:30Z</time>
      </trkpt>
      <trkpt lat="45.86215" lon="2.83554">
        <ele>614.42</ele>
        <time>2013-09-21T08:55:31Z</time>
      </trkpt>
      <trkpt lat="45.86215" lon="2.83552">
        <ele>614.9</ele>
        <time>2013-09-21T08:55:32Z</time>
      </trkpt>
      <trkpt lat="45.86215" lon="2.83549">
        <ele>614.9</ele>
        <time>2013-09-21T08:55:33Z</time>
      </trkpt>
      <trkpt lat="45.86215" lon="2.83547">
        <ele>615.38</ele>
        <time>2013-09-21T08:55:34Z</time>
      </trkpt>
      <trkpt lat="45.86213" lon="2.83543">
        <ele>615.86</ele>
        <time>2013-09-21T08:55:36Z</time>
      </trkpt>
      <trkpt lat="45.86211" lon="2.83534">
        <ele>616.82</ele>
        <time>2013-09-21T08:55:40Z</time>
      </trkpt>
      <trkpt lat="45.8621" lon="2.83532">
        <ele>616.82</ele>
        <time>2013-09-21T08:55:41Z</time>
      </trkpt>
      <trkpt lat="45.86209" lon="2.8353">
        <ele>617.3</ele>
        <time>2013-09-21T08:55:42Z</time>
      </trkpt>
      <trkpt lat="45.86208" lon="2.83528">
        <ele>616.82</ele>
        <time>2013-09-21T08:55:43Z</time>
      </trkpt>
      <trkpt lat="45.86207" lon="2.83525">
        <ele>616.82</ele>
        <time>2013-09-21T08:55:44Z</time>
      </trkpt>
      <trkpt lat="45.86204" lon="2.83515">
        <ele>618.75</ele>
        <time>2013-09-21T08:55:49Z</time>
      </trkpt>
      <trkpt lat="45.86204" lon="2.83501">
        <ele>619.23</ele>
        <time>2013-09-21T08:55:57Z</time>
      </trkpt>
      <trkpt lat="45.86203" lon="2.83499">
        <ele>619.71</ele>
        <time>2013-09-21T08:55:58Z</time>
      </trkpt>
      <trkpt lat="45.86203" lon="2.83497">
        <ele>619.71</ele>
        <time>2013-09-21T08:55:59Z</time>
      </trkpt>
      <trkpt lat="45.86202" lon="2.83477">
        <ele>622.11</ele>
        <time>2013-09-21T08:56:11Z</time>
      </trkpt>
      <trkpt lat="45.86201" lon="2.83475">
        <ele>622.59</ele>
        <time>2013-09-21T08:56:12Z</time>
      </trkpt>
      <trkpt lat="45.86201" lon="2.83473">
        <ele>622.59</ele>
        <time>2013-09-21T08:56:13Z</time>
      </trkpt>
      <trkpt lat="45.862" lon="2.83472">
        <ele>623.07</ele>
        <time>2013-09-21T08:56:14Z</time>
      </trkpt>
      <trkpt lat="45.862" lon="2.8347">
        <ele>623.07</ele>
        <time>2013-09-21T08:56:15Z</time>
      </trkpt>
      <trkpt lat="45.862" lon="2.83468">
        <ele>624.03</ele>
        <time>2013-09-21T08:56:16Z</time>
      </trkpt>
      <trkpt lat="45.86201" lon="2.83456">
        <ele>624.99</ele>
        <time>2013-09-21T08:56:23Z</time>
      </trkpt>
      <trkpt lat="45.86201" lon="2.83454">
        <ele>625.96</ele>
        <time>2013-09-21T08:56:24Z</time>
      </trkpt>
      <trkpt lat="45.86202" lon="2.83453">
        <ele>626.44</ele>
        <time>2013-09-21T08:56:25Z</time>
      </trkpt>
      <trkpt lat="45.86202" lon="2.83451">
        <ele>626.44</ele>
        <time>2013-09-21T08:56:26Z</time>
      </trkpt>
      <trkpt lat="45.86203" lon="2.83449">
        <ele>626.44</ele>
        <time>2013-09-21T08:56:27Z</time>
      </trkpt>
      <trkpt lat="45.86202" lon="2.83447">
        <ele>626.92</ele>
        <time>2013-09-21T08:56:28Z</time>
      </trkpt>
      <trkpt lat="45.86202" lon="2.83445">
        <ele>627.4</ele>
        <time>2013-09-21T08:56:29Z</time>
      </trkpt>
      <trkpt lat="45.86203" lon="2.83444">
        <ele>627.4</ele>
        <time>2013-09-21T08:56:30Z</time>
      </trkpt>
      <trkpt lat="45.86203" lon="2.83439">
        <ele>628.36</ele>
        <time>2013-09-21T08:56:33Z</time>
      </trkpt>
      <trkpt lat="45.86203" lon="2.83436">
        <ele>629.32</ele>
        <time>2013-09-21T08:56:35Z</time>
      </trkpt>
      <trkpt lat="45.86203" lon="2.83434">
        <ele>629.8</ele>
        <time>2013-09-21T08:56:36Z</time>
      </trkpt>
      <trkpt lat="45.86203" lon="2.83432">
        <ele>629.8</ele>
        <time>2013-09-21T08:56:37Z</time>
      </trkpt>
      <trkpt lat="45.86204" lon="2.83425">
        <ele>631.72</ele>
        <time>2013-09-21T08:56:42Z</time>
      </trkpt>
      <trkpt lat="45.86203" lon="2.8342">
        <ele>632.68</ele>
        <time>2013-09-21T08:56:45Z</time>
      </trkpt>
      <trkpt lat="45.86202" lon="2.83414">
        <ele>633.65</ele>
        <time>2013-09-21T08:56:49Z</time>
      </trkpt>
      <trkpt lat="45.86197" lon="2.83399">
        <ele>636.53</ele>
        <time>2013-09-21T08:56:58Z</time>
      </trkpt>
      <trkpt lat="45.86196" lon="2.83397">
        <ele>637.01</ele>
        <time>2013-09-21T08:56:59Z</time>
      </trkpt>
      <trkpt lat="45.86195" lon="2.83395">
        <ele>638.45</ele>
        <time>2013-09-21T08:57:00Z</time>
      </trkpt>
      <trkpt lat="45.86195" lon="2.83393">
        <ele>638.45</ele>
        <time>2013-09-21T08:57:01Z</time>
      </trkpt>
      <trkpt lat="45.86194" lon="2.83391">
        <ele>638.45</ele>
        <time>2013-09-21T08:57:02Z</time>
      </trkpt>
      <trkpt lat="45.86194" lon="2.8339">
        <ele>638.45</ele>
        <time>2013-09-21T08:57:03Z</time>
      </trkpt>
      <trkpt lat="45.86193" lon="2.83388">
        <ele>639.41</ele>
        <time>2013-09-21T08:57:04Z</time>
      </trkpt>
      <trkpt lat="45.86187" lon="2.83368">
        <ele>641.34</ele>
        <time>2013-09-21T08:57:18Z</time>
      </trkpt>
      <trkpt lat="45.86181" lon="2.83358">
        <ele>642.3</ele>
        <time>2013-09-21T08:57:28Z</time>
      </trkpt>
      <trkpt lat="45.8618" lon="2.83356">
        <ele>641.82</ele>
        <time>2013-09-21T08:57:29Z</time>
      </trkpt>
      <trkpt lat="45.8618" lon="2.83353">
        <ele>642.3</ele>
        <time>2013-09-21T08:57:32Z</time>
      </trkpt>
      <trkpt lat="45.86184" lon="2.83353">
        <ele>642.3</ele>
        <time>2013-09-21T08:57:44Z</time>
      </trkpt>
      <trkpt lat="45.86184" lon="2.83356">
        <ele>642.3</ele>
        <time>2013-09-21T08:58:07Z</time>
      </trkpt>
      <trkpt lat="45.86184" lon="2.83356">
        <ele>641.82</ele>
        <time>2013-09-21T08:58:40Z</time>
      </trkpt>
      <trkpt lat="45.86184" lon="2.83351">
        <ele>642.3</ele>
        <time>2013-09-21T08:58:55Z</time>
      </trkpt>
      <trkpt lat="45.86194" lon="2.8329">
        <ele>643.74</ele>
        <time>2013-09-21T08:59:15Z</time>
      </trkpt>
      <trkpt lat="45.86193" lon="2.83213">
        <ele>644.22</ele>
        <time>2013-09-21T08:59:32Z</time>
      </trkpt>
      <trkpt lat="45.862" lon="2.83089">
        <ele>645.18</ele>
        <time>2013-09-21T08:59:53Z</time>
      </trkpt>
      <trkpt lat="45.86236" lon="2.8302">
        <ele>648.55</ele>
        <time>2013-09-21T09:00:08Z</time>
      </trkpt>
      <trkpt lat="45.86235" lon="2.83009">
        <ele>649.03</ele>
        <time>2013-09-21T09:00:10Z</time>
      </trkpt>
      <trkpt lat="45.86196" lon="2.8298">
        <ele>649.51</ele>
        <time>2013-09-21T09:00:21Z</time>
      </trkpt>
      <trkpt lat="45.86156" lon="2.82969">
        <ele>649.99</ele>
        <time>2013-09-21T09:00:29Z</time>
      </trkpt>
      <trkpt lat="45.86109" lon="2.82948">
        <ele>653.35</ele>
        <time>2013-09-21T09:00:45Z</time>
      </trkpt>
      <trkpt lat="45.86097" lon="2.82918">
        <ele>655.76</ele>
        <time>2013-09-21T09:00:59Z</time>
      </trkpt>
      <trkpt lat="45.86103" lon="2.82915">
        <ele>657.2</ele>
        <time>2013-09-21T09:01:04Z</time>
      </trkpt>
      <trkpt lat="45.86105" lon="2.82915">
        <ele>657.2</ele>
        <time>2013-09-21T09:01:05Z</time>
      </trkpt>
      <trkpt lat="45.86113" lon="2.82897">
        <ele>659.6</ele>
        <time>2013-09-21T09:01:18Z</time>
      </trkpt>
      <trkpt lat="45.86113" lon="2.82895">
        <ele>659.6</ele>
        <time>2013-09-21T09:01:19Z</time>
      </trkpt>
      <trkpt lat="45.86113" lon="2.82893">
        <ele>660.08</ele>
        <time>2013-09-21T09:01:20Z</time>
      </trkpt>
      <trkpt lat="45.86117" lon="2.82847">
        <ele>663.45</ele>
        <time>2013-09-21T09:01:45Z</time>
      </trkpt>
      <trkpt lat="45.8612" lon="2.82841">
        <ele>662.97</ele>
        <time>2013-09-21T09:01:49Z</time>
      </trkpt>
      <trkpt lat="45.86176" lon="2.82791">
        <ele>665.85</ele>
        <time>2013-09-21T09:02:10Z</time>
      </trkpt>
      <trkpt lat="45.86214" lon="2.82755">
        <ele>668.25</ele>
        <time>2013-09-21T09:02:31Z</time>
      </trkpt>
      <trkpt lat="45.86226" lon="2.82739">
        <ele>671.62</ele>
        <time>2013-09-21T09:02:43Z</time>
      </trkpt>
      <trkpt lat="45.86227" lon="2.82732">
        <ele>671.62</ele>
        <time>2013-09-21T09:02:46Z</time>
      </trkpt>
      <trkpt lat="45.86228" lon="2.8273">
        <ele>671.14</ele>
        <time>2013-09-21T09:02:47Z</time>
      </trkpt>
      <trkpt lat="45.86246" lon="2.8268">
        <ele>673.54</ele>
        <time>2013-09-21T09:03:07Z</time>
      </trkpt>
      <trkpt lat="45.86256" lon="2.82641">
        <ele>670.18</ele>
        <time>2013-09-21T09:03:18Z</time>
      </trkpt>
      <trkpt lat="45.86299" lon="2.82535">
        <ele>670.18</ele>
        <time>2013-09-21T09:03:33Z</time>
      </trkpt>
      <trkpt lat="45.86357" lon="2.8246">
        <ele>667.77</ele>
        <time>2013-09-21T09:03:48Z</time>
      </trkpt>
      <trkpt lat="45.86434" lon="2.82382">
        <ele>667.77</ele>
        <time>2013-09-21T09:04:04Z</time>
      </trkpt>
      <trkpt lat="45.86444" lon="2.82357">
        <ele>663.45</ele>
        <time>2013-09-21T09:04:08Z</time>
      </trkpt>
      <trkpt lat="45.8645" lon="2.82354">
        <ele>660.56</ele>
        <time>2013-09-21T09:04:11Z</time>
      </trkpt>
      <trkpt lat="45.86458" lon="2.82367">
        <ele>656.24</ele>
        <time>2013-09-21T09:04:14Z</time>
      </trkpt>
      <trkpt lat="45.86467" lon="2.8239">
        <ele>652.39</ele>
        <time>2013-09-21T09:04:17Z</time>
      </trkpt>
      <trkpt lat="45.86476" lon="2.82403">
        <ele>651.43</ele>
        <time>2013-09-21T09:04:19Z</time>
      </trkpt>
      <trkpt lat="45.86542" lon="2.82439">
        <ele>650.95</ele>
        <time>2013-09-21T09:04:20Z</time>
      </trkpt>
      <trkpt lat="45.86562" lon="2.8246">
        <ele>648.07</ele>
        <time>2013-09-21T09:04:23Z</time>
      </trkpt>
      <trkpt lat="45.86591" lon="2.82494">
        <ele>644.22</ele>
        <time>2013-09-21T09:04:28Z</time>
      </trkpt>
      <trkpt lat="45.86596" lon="2.82499">
        <ele>643.74</ele>
        <time>2013-09-21T09:04:29Z</time>
      </trkpt>
      <trkpt lat="45.86621" lon="2.8251">
        <ele>643.26</ele>
        <time>2013-09-21T09:04:36Z</time>
      </trkpt>
      <trkpt lat="45.86625" lon="2.82509">
        <ele>642.3</ele>
        <time>2013-09-21T09:04:37Z</time>
      </trkpt>
      <trkpt lat="45.86629" lon="2.82507">
        <ele>642.78</ele>
        <time>2013-09-21T09:04:38Z</time>
      </trkpt>
      <trkpt lat="45.86634" lon="2.82504">
        <ele>642.3</ele>
        <time>2013-09-21T09:04:39Z</time>
      </trkpt>
      <trkpt lat="45.86639" lon="2.82501">
        <ele>642.3</ele>
        <time>2013-09-21T09:04:40Z</time>
      </trkpt>
      <trkpt lat="45.86643" lon="2.82497">
        <ele>642.78</ele>
        <time>2013-09-21T09:04:41Z</time>
      </trkpt>
      <trkpt lat="45.86648" lon="2.82492">
        <ele>641.34</ele>
        <time>2013-09-21T09:04:42Z</time>
      </trkpt>
      <trkpt lat="45.86652" lon="2.82486">
        <ele>641.34</ele>
        <time>2013-09-21T09:04:43Z</time>
      </trkpt>
      <trkpt lat="45.86656" lon="2.8248">
        <ele>641.34</ele>
        <time>2013-09-21T09:04:44Z</time>
      </trkpt>
      <trkpt lat="45.8666" lon="2.82472">
        <ele>641.34</ele>
        <time>2013-09-21T09:04:45Z</time>
      </trkpt>
      <trkpt lat="45.86663" lon="2.82464">
        <ele>641.34</ele>
        <time>2013-09-21T09:04:46Z</time>
      </trkpt>
      <trkpt lat="45.86666" lon="2.82455">
        <ele>640.38</ele>
        <time>2013-09-21T09:04:47Z</time>
      </trkpt>
      <trkpt lat="45.86668" lon="2.82446">
        <ele>639.41</ele>
        <time>2013-09-21T09:04:48Z</time>
      </trkpt>
      <trkpt lat="45.86671" lon="2.82435">
        <ele>638.93</ele>
        <time>2013-09-21T09:04:49Z</time>
      </trkpt>
      <trkpt lat="45.8668" lon="2.82334">
        <ele>635.57</ele>
        <time>2013-09-21T09:04:57Z</time>
      </trkpt>
      <trkpt lat="45.86679" lon="2.8228">
        <ele>634.61</ele>
        <time>2013-09-21T09:05:01Z</time>
      </trkpt>
      <trkpt lat="45.86681" lon="2.82205">
        <ele>631.24</ele>
        <time>2013-09-21T09:05:07Z</time>
      </trkpt>
      <trkpt lat="45.86683" lon="2.82124">
        <ele>627.88</ele>
        <time>2013-09-21T09:05:13Z</time>
      </trkpt>
      <trkpt lat="45.86679" lon="2.82056">
        <ele>624.51</ele>
        <time>2013-09-21T09:05:18Z</time>
      </trkpt>
      <trkpt lat="45.86672" lon="2.82029">
        <ele>624.51</ele>
        <time>2013-09-21T09:05:20Z</time>
      </trkpt>
      <trkpt lat="45.86668" lon="2.82019">
        <ele>624.03</ele>
        <time>2013-09-21T09:05:21Z</time>
      </trkpt>
      <trkpt lat="45.86627" lon="2.81956">
        <ele>624.99</ele>
        <time>2013-09-21T09:05:28Z</time>
      </trkpt>
      <trkpt lat="45.86613" lon="2.81936">
        <ele>626.44</ele>
        <time>2013-09-21T09:05:31Z</time>
      </trkpt>
      <trkpt lat="45.86577" lon="2.81908">
        <ele>626.44</ele>
        <time>2013-09-21T09:05:42Z</time>
      </trkpt>
      <trkpt lat="45.86531" lon="2.81911">
        <ele>628.84</ele>
        <time>2013-09-21T09:06:00Z</time>
      </trkpt>
      <trkpt lat="45.865" lon="2.81964">
        <ele>630.76</ele>
        <time>2013-09-21T09:06:24Z</time>
      </trkpt>
      <trkpt lat="45.86512" lon="2.81941">
        <ele>634.13</ele>
        <time>2013-09-21T09:06:41Z</time>
      </trkpt>
      <trkpt lat="45.86536" lon="2.81903">
        <ele>637.49</ele>
        <time>2013-09-21T09:07:05Z</time>
      </trkpt>
      <trkpt lat="45.86563" lon="2.81871">
        <ele>639.41</ele>
        <time>2013-09-21T09:07:26Z</time>
      </trkpt>
      <trkpt lat="45.86573" lon="2.81854">
        <ele>642.3</ele>
        <time>2013-09-21T09:07:46Z</time>
      </trkpt>
      <trkpt lat="45.86583" lon="2.81824">
        <ele>645.66</ele>
        <time>2013-09-21T09:08:09Z</time>
      </trkpt>
      <trkpt lat="45.86577" lon="2.81823">
        <ele>645.66</ele>
        <time>2013-09-21T09:08:12Z</time>
      </trkpt>
      <trkpt lat="45.86541" lon="2.81808">
        <ele>649.03</ele>
        <time>2013-09-21T09:08:38Z</time>
      </trkpt>
      <trkpt lat="45.86511" lon="2.81808">
        <ele>651.91</ele>
        <time>2013-09-21T09:08:53Z</time>
      </trkpt>
      <trkpt lat="45.86474" lon="2.81802">
        <ele>651.43</ele>
        <time>2013-09-21T09:09:12Z</time>
      </trkpt>
      <trkpt lat="45.86414" lon="2.81748">
        <ele>649.99</ele>
        <time>2013-09-21T09:09:33Z</time>
      </trkpt>
      <trkpt lat="45.8638" lon="2.8172">
        <ele>646.62</ele>
        <time>2013-09-21T09:09:42Z</time>
      </trkpt>
      <trkpt lat="45.86345" lon="2.81684">
        <ele>642.3</ele>
        <time>2013-09-21T09:09:50Z</time>
      </trkpt>
      <trkpt lat="45.86294" lon="2.81639">
        <ele>638.93</ele>
        <time>2013-09-21T09:09:59Z</time>
      </trkpt>
      <trkpt lat="45.86277" lon="2.81623">
        <ele>635.57</ele>
        <time>2013-09-21T09:10:02Z</time>
      </trkpt>
      <trkpt lat="45.86265" lon="2.81613">
        <ele>634.13</ele>
        <time>2013-09-21T09:10:04Z</time>
      </trkpt>
      <trkpt lat="45.86246" lon="2.81595">
        <ele>631.24</ele>
        <time>2013-09-21T09:10:07Z</time>
      </trkpt>
      <trkpt lat="45.86239" lon="2.81588">
        <ele>630.76</ele>
        <time>2013-09-21T09:10:08Z</time>
      </trkpt>
      <trkpt lat="45.86211" lon="2.81557">
        <ele>627.88</ele>
        <time>2013-09-21T09:10:12Z</time>
      </trkpt>
      <trkpt lat="45.86173" lon="2.81521">
        <ele>624.03</ele>
        <time>2013-09-21T09:10:18Z</time>
      </trkpt>
      <trkpt lat="45.86155" lon="2.81506">
        <ele>620.67</ele>
        <time>2013-09-21T09:10:21Z</time>
      </trkpt>
      <trkpt lat="45.8615" lon="2.81504">
        <ele>619.23</ele>
        <time>2013-09-21T09:10:23Z</time>
      </trkpt>
      <trkpt lat="45.86145" lon="2.81477">
        <ele>619.23</ele>
        <time>2013-09-21T09:10:32Z</time>
      </trkpt>
      <trkpt lat="45.86168" lon="2.81454">
        <ele>622.11</ele>
        <time>2013-09-21T09:10:47Z</time>
      </trkpt>
      <trkpt lat="45.86143" lon="2.81433">
        <ele>625.47</ele>
        <time>2013-09-21T09:11:07Z</time>
      </trkpt>
      <trkpt lat="45.86094" lon="2.81428">
        <ele>629.32</ele>
        <time>2013-09-21T09:11:28Z</time>
      </trkpt>
      <trkpt lat="45.8605" lon="2.81415">
        <ele>632.2</ele>
        <time>2013-09-21T09:11:51Z</time>
      </trkpt>
      <trkpt lat="45.86031" lon="2.81412">
        <ele>635.09</ele>
        <time>2013-09-21T09:12:08Z</time>
      </trkpt>
      <trkpt lat="45.86034" lon="2.81415">
        <ele>635.09</ele>
        <time>2013-09-21T09:12:10Z</time>
      </trkpt>
      <trkpt lat="45.86072" lon="2.81409">
        <ele>637.01</ele>
        <time>2013-09-21T09:12:29Z</time>
      </trkpt>
      <trkpt lat="45.86098" lon="2.81397">
        <ele>640.38</ele>
        <time>2013-09-21T09:12:48Z</time>
      </trkpt>
      <trkpt lat="45.86137" lon="2.8139">
        <ele>643.26</ele>
        <time>2013-09-21T09:13:06Z</time>
      </trkpt>
      <trkpt lat="45.86177" lon="2.814">
        <ele>646.14</ele>
        <time>2013-09-21T09:13:25Z</time>
      </trkpt>
      <trkpt lat="45.86226" lon="2.81427">
        <ele>649.03</ele>
        <time>2013-09-21T09:13:51Z</time>
      </trkpt>
      <trkpt lat="45.86255" lon="2.81435">
        <ele>650.95</ele>
        <time>2013-09-21T09:14:13Z</time>
      </trkpt>
      <trkpt lat="45.86266" lon="2.81364">
        <ele>650.47</ele>
        <time>2013-09-21T09:14:28Z</time>
      </trkpt>
      <trkpt lat="45.8627" lon="2.81292">
        <ele>653.35</ele>
        <time>2013-09-21T09:14:46Z</time>
      </trkpt>
      <trkpt lat="45.86262" lon="2.81266">
        <ele>656.72</ele>
        <time>2013-09-21T09:15:05Z</time>
      </trkpt>
      <trkpt lat="45.86248" lon="2.81236">
        <ele>658.64</ele>
        <time>2013-09-21T09:15:28Z</time>
      </trkpt>
      <trkpt lat="45.86232" lon="2.81193">
        <ele>660.56</ele>
        <time>2013-09-21T09:15:53Z</time>
      </trkpt>
      <trkpt lat="45.86226" lon="2.81155">
        <ele>661.52</ele>
        <time>2013-09-21T09:16:19Z</time>
      </trkpt>
      <trkpt lat="45.86212" lon="2.81133">
        <ele>663.93</ele>
        <time>2013-09-21T09:16:42Z</time>
      </trkpt>
      <trkpt lat="45.862" lon="2.81114">
        <ele>665.37</ele>
        <time>2013-09-21T09:17:01Z</time>
      </trkpt>
      <trkpt lat="45.862" lon="2.8111">
        <ele>664.89</ele>
        <time>2013-09-21T09:17:03Z</time>
      </trkpt>
      <trkpt lat="45.862" lon="2.81108">
        <ele>665.37</ele>
        <time>2013-09-21T09:17:04Z</time>
      </trkpt>
      <trkpt lat="45.862" lon="2.81068">
        <ele>668.73</ele>
        <time>2013-09-21T09:17:22Z</time>
      </trkpt>
      <trkpt lat="45.86196" lon="2.81052">
        <ele>668.73</ele>
        <time>2013-09-21T09:17:39Z</time>
      </trkpt>
      <trkpt lat="45.86193" lon="2.81022">
        <ele>672.58</ele>
        <time>2013-09-21T09:17:56Z</time>
      </trkpt>
      <trkpt lat="45.86189" lon="2.80984">
        <ele>672.58</ele>
        <time>2013-09-21T09:18:15Z</time>
      </trkpt>
      <trkpt lat="45.86189" lon="2.80973">
        <ele>672.58</ele>
        <time>2013-09-21T09:18:21Z</time>
      </trkpt>
      <trkpt lat="45.86187" lon="2.80954">
        <ele>674.5</ele>
        <time>2013-09-21T09:18:41Z</time>
      </trkpt>
      <trkpt lat="45.86182" lon="2.80931">
        <ele>676.91</ele>
        <time>2013-09-21T09:19:00Z</time>
      </trkpt>
      <trkpt lat="45.86177" lon="2.8091">
        <ele>677.87</ele>
        <time>2013-09-21T09:19:12Z</time>
      </trkpt>
      <trkpt lat="45.86177" lon="2.80908">
        <ele>677.39</ele>
        <time>2013-09-21T09:19:13Z</time>
      </trkpt>
      <trkpt lat="45.86172" lon="2.80858">
        <ele>680.27</ele>
        <time>2013-09-21T09:19:41Z</time>
      </trkpt>
      <trkpt lat="45.86187" lon="2.8084">
        <ele>680.27</ele>
        <time>2013-09-21T09:19:48Z</time>
      </trkpt>
      <trkpt lat="45.86206" lon="2.80804">
        <ele>682.19</ele>
        <time>2013-09-21T09:20:02Z</time>
      </trkpt>
      <trkpt lat="45.86208" lon="2.80779">
        <ele>684.6</ele>
        <time>2013-09-21T09:20:21Z</time>
      </trkpt>
      <trkpt lat="45.86215" lon="2.80739">
        <ele>686.52</ele>
        <time>2013-09-21T09:20:43Z</time>
      </trkpt>
      <trkpt lat="45.86215" lon="2.80718">
        <ele>689.88</ele>
        <time>2013-09-21T09:20:53Z</time>
      </trkpt>
      <trkpt lat="45.86213" lon="2.80681">
        <ele>692.29</ele>
        <time>2013-09-21T09:21:13Z</time>
      </trkpt>
      <trkpt lat="45.86212" lon="2.80653">
        <ele>694.21</ele>
        <time>2013-09-21T09:21:29Z</time>
      </trkpt>
      <trkpt lat="45.86212" lon="2.80651">
        <ele>694.21</ele>
        <time>2013-09-21T09:21:30Z</time>
      </trkpt>
      <trkpt lat="45.86186" lon="2.80629">
        <ele>697.57</ele>
        <time>2013-09-21T09:21:48Z</time>
      </trkpt>
      <trkpt lat="45.86152" lon="2.80607">
        <ele>700.46</ele>
        <time>2013-09-21T09:22:11Z</time>
      </trkpt>
      <trkpt lat="45.86133" lon="2.80587">
        <ele>703.34</ele>
        <time>2013-09-21T09:22:35Z</time>
      </trkpt>
      <trkpt lat="45.86122" lon="2.80579">
        <ele>703.34</ele>
        <time>2013-09-21T09:22:44Z</time>
      </trkpt>
      <trkpt lat="45.86102" lon="2.80567">
        <ele>706.71</ele>
        <time>2013-09-21T09:22:58Z</time>
      </trkpt>
      <trkpt lat="45.861" lon="2.80549">
        <ele>709.11</ele>
        <time>2013-09-21T09:23:15Z</time>
      </trkpt>
      <trkpt lat="45.86071" lon="2.80533">
        <ele>709.11</ele>
        <time>2013-09-21T09:23:39Z</time>
      </trkpt>
      <trkpt lat="45.86061" lon="2.8054">
        <ele>711.03</ele>
        <time>2013-09-21T09:24:01Z</time>
      </trkpt>
      <trkpt lat="45.86053" lon="2.80538">
        <ele>711.99</ele>
        <time>2013-09-21T09:24:10Z</time>
      </trkpt>
      <trkpt lat="45.86048" lon="2.80536">
        <ele>711.51</ele>
        <time>2013-09-21T09:24:12Z</time>
      </trkpt>
      <trkpt lat="45.85998" lon="2.805">
        <ele>710.55</ele>
        <time>2013-09-21T09:24:29Z</time>
      </trkpt>
      <trkpt lat="45.85962" lon="2.80467">
        <ele>713.92</ele>
        <time>2013-09-21T09:24:43Z</time>
      </trkpt>
      <trkpt lat="45.8594" lon="2.80454">
        <ele>715.36</ele>
        <time>2013-09-21T09:25:01Z</time>
      </trkpt>
      <trkpt lat="45.85922" lon="2.8044">
        <ele>716.8</ele>
        <time>2013-09-21T09:25:21Z</time>
      </trkpt>
      <trkpt lat="45.85874" lon="2.80426">
        <ele>718.24</ele>
        <time>2013-09-21T09:25:36Z</time>
      </trkpt>
      <trkpt lat="45.85838" lon="2.80438">
        <ele>721.13</ele>
        <time>2013-09-21T09:25:47Z</time>
      </trkpt>
      <trkpt lat="45.8578" lon="2.80456">
        <ele>724.01</ele>
        <time>2013-09-21T09:26:08Z</time>
      </trkpt>
      <trkpt lat="45.85733" lon="2.80471">
        <ele>726.41</ele>
        <time>2013-09-21T09:26:29Z</time>
      </trkpt>
      <trkpt lat="45.85687" lon="2.80484">
        <ele>729.78</ele>
        <time>2013-09-21T09:26:50Z</time>
      </trkpt>
      <trkpt lat="45.85652" lon="2.80495">
        <ele>732.66</ele>
        <time>2013-09-21T09:27:11Z</time>
      </trkpt>
      <trkpt lat="45.85638" lon="2.80504">
        <ele>735.55</ele>
        <time>2013-09-21T09:27:23Z</time>
      </trkpt>
      <trkpt lat="45.85619" lon="2.80506">
        <ele>739.39</ele>
        <time>2013-09-21T09:27:42Z</time>
      </trkpt>
      <trkpt lat="45.8559" lon="2.80496">
        <ele>741.79</ele>
        <time>2013-09-21T09:28:05Z</time>
      </trkpt>
      <trkpt lat="45.85563" lon="2.80481">
        <ele>745.16</ele>
        <time>2013-09-21T09:28:25Z</time>
      </trkpt>
      <trkpt lat="45.85526" lon="2.80454">
        <ele>748.04</ele>
        <time>2013-09-21T09:28:51Z</time>
      </trkpt>
      <trkpt lat="45.8552" lon="2.8045">
        <ele>748.04</ele>
        <time>2013-09-21T09:28:57Z</time>
      </trkpt>
      <trkpt lat="45.85519" lon="2.80448">
        <ele>748.04</ele>
        <time>2013-09-21T09:28:58Z</time>
      </trkpt>
      <trkpt lat="45.85492" lon="2.80389">
        <ele>746.12</ele>
        <time>2013-09-21T09:29:15Z</time>
      </trkpt>
      <trkpt lat="45.85489" lon="2.80387">
        <ele>746.12</ele>
        <time>2013-09-21T09:29:31Z</time>
      </trkpt>
      <trkpt lat="45.85492" lon="2.80389">
        <ele>746.12</ele>
        <time>2013-09-21T09:30:11Z</time>
      </trkpt>
      <trkpt lat="45.85486" lon="2.8039">
        <ele>746.12</ele>
        <time>2013-09-21T09:30:36Z</time>
      </trkpt>
      <trkpt lat="45.85491" lon="2.80396">
        <ele>746.6</ele>
        <time>2013-09-21T09:31:14Z</time>
      </trkpt>
      <trkpt lat="45.85488" lon="2.80393">
        <ele>746.6</ele>
        <time>2013-09-21T09:31:47Z</time>
      </trkpt>
      <trkpt lat="45.8549" lon="2.80385">
        <ele>745.64</ele>
        <time>2013-09-21T09:32:13Z</time>
      </trkpt>
      <trkpt lat="45.85487" lon="2.80388">
        <ele>746.12</ele>
        <time>2013-09-21T09:32:36Z</time>
      </trkpt>
      <trkpt lat="45.85488" lon="2.80399">
        <ele>746.12</ele>
        <time>2013-09-21T09:33:12Z</time>
      </trkpt>
      <trkpt lat="45.85488" lon="2.80387">
        <ele>747.08</ele>
        <time>2013-09-21T09:33:40Z</time>
      </trkpt>
      <trkpt lat="45.85488" lon="2.80384">
        <ele>746.12</ele>
        <time>2013-09-21T09:33:41Z</time>
      </trkpt>
      <trkpt lat="45.85488" lon="2.80382">
        <ele>746.6</ele>
        <time>2013-09-21T09:33:42Z</time>
      </trkpt>
      <trkpt lat="45.85488" lon="2.80379">
        <ele>746.6</ele>
        <time>2013-09-21T09:33:43Z</time>
      </trkpt>
      <trkpt lat="45.85488" lon="2.80377">
        <ele>746.6</ele>
        <time>2013-09-21T09:33:44Z</time>
      </trkpt>
      <trkpt lat="45.85488" lon="2.80374">
        <ele>746.6</ele>
        <time>2013-09-21T09:33:45Z</time>
      </trkpt>
      <trkpt lat="45.85487" lon="2.80371">
        <ele>747.08</ele>
        <time>2013-09-21T09:33:46Z</time>
      </trkpt>
      <trkpt lat="45.85466" lon="2.80305">
        <ele>748.52</ele>
        <time>2013-09-21T09:34:02Z</time>
      </trkpt>
      <trkpt lat="45.85442" lon="2.80235">
        <ele>749.49</ele>
        <time>2013-09-21T09:34:17Z</time>
      </trkpt>
      <trkpt lat="45.85439" lon="2.80238">
        <ele>749.49</ele>
        <time>2013-09-21T09:34:19Z</time>
      </trkpt>
      <trkpt lat="45.85423" lon="2.80299">
        <ele>749</ele>
        <time>2013-09-21T09:34:28Z</time>
      </trkpt>
      <trkpt lat="45.85411" lon="2.80447">
        <ele>750.45</ele>
        <time>2013-09-21T09:34:47Z</time>
      </trkpt>
      <trkpt lat="45.85408" lon="2.80476">
        <ele>751.41</ele>
        <time>2013-09-21T09:34:52Z</time>
      </trkpt>
      <trkpt lat="45.85398" lon="2.80541">
        <ele>753.33</ele>
        <time>2013-09-21T09:35:05Z</time>
      </trkpt>
      <trkpt lat="45.85395" lon="2.80544">
        <ele>753.81</ele>
        <time>2013-09-21T09:35:06Z</time>
      </trkpt>
      <trkpt lat="45.85391" lon="2.80546">
        <ele>754.29</ele>
        <time>2013-09-21T09:35:07Z</time>
      </trkpt>
      <trkpt lat="45.85388" lon="2.80547">
        <ele>755.25</ele>
        <time>2013-09-21T09:35:08Z</time>
      </trkpt>
      <trkpt lat="45.85384" lon="2.80546">
        <ele>754.77</ele>
        <time>2013-09-21T09:35:09Z</time>
      </trkpt>
      <trkpt lat="45.85381" lon="2.80545">
        <ele>755.25</ele>
        <time>2013-09-21T09:35:10Z</time>
      </trkpt>
      <trkpt lat="45.85378" lon="2.80544">
        <ele>755.73</ele>
        <time>2013-09-21T09:35:11Z</time>
      </trkpt>
      <trkpt lat="45.85312" lon="2.80517">
        <ele>758.62</ele>
        <time>2013-09-21T09:35:32Z</time>
      </trkpt>
      <trkpt lat="45.85269" lon="2.80503">
        <ele>761.98</ele>
        <time>2013-09-21T09:35:48Z</time>
      </trkpt>
      <trkpt lat="45.85242" lon="2.80492">
        <ele>764.39</ele>
        <time>2013-09-21T09:35:58Z</time>
      </trkpt>
      <trkpt lat="45.85184" lon="2.80466">
        <ele>766.31</ele>
        <time>2013-09-21T09:36:19Z</time>
      </trkpt>
      <trkpt lat="45.85117" lon="2.80445">
        <ele>767.75</ele>
        <time>2013-09-21T09:36:42Z</time>
      </trkpt>
      <trkpt lat="45.85111" lon="2.80438">
        <ele>767.27</ele>
        <time>2013-09-21T09:36:44Z</time>
      </trkpt>
      <trkpt lat="45.85109" lon="2.80432">
        <ele>767.75</ele>
        <time>2013-09-21T09:36:45Z</time>
      </trkpt>
      <trkpt lat="45.85107" lon="2.80425">
        <ele>767.27</ele>
        <time>2013-09-21T09:36:46Z</time>
      </trkpt>
      <trkpt lat="45.85105" lon="2.80418">
        <ele>767.75</ele>
        <time>2013-09-21T09:36:47Z</time>
      </trkpt>
      <trkpt lat="45.85103" lon="2.80411">
        <ele>767.75</ele>
        <time>2013-09-21T09:36:48Z</time>
      </trkpt>
      <trkpt lat="45.85101" lon="2.80404">
        <ele>767.27</ele>
        <time>2013-09-21T09:36:49Z</time>
      </trkpt>
      <trkpt lat="45.85073" lon="2.80275">
        <ele>766.31</ele>
        <time>2013-09-21T09:37:06Z</time>
      </trkpt>
      <trkpt lat="45.85009" lon="2.80194">
        <ele>767.75</ele>
        <time>2013-09-21T09:37:21Z</time>
      </trkpt>
      <trkpt lat="45.84972" lon="2.80145">
        <ele>771.11</ele>
        <time>2013-09-21T09:37:30Z</time>
      </trkpt>
      <trkpt lat="45.8491" lon="2.8005">
        <ele>774</ele>
        <time>2013-09-21T09:37:47Z</time>
      </trkpt>
      <trkpt lat="45.84833" lon="2.7994">
        <ele>775.92</ele>
        <time>2013-09-21T09:38:09Z</time>
      </trkpt>
      <trkpt lat="45.84813" lon="2.79936">
        <ele>776.88</ele>
        <time>2013-09-21T09:38:14Z</time>
      </trkpt>
      <trkpt lat="45.84801" lon="2.79935">
        <ele>778.32</ele>
        <time>2013-09-21T09:38:17Z</time>
      </trkpt>
      <trkpt lat="45.84742" lon="2.79923">
        <ele>781.69</ele>
        <time>2013-09-21T09:38:33Z</time>
      </trkpt>
      <trkpt lat="45.84701" lon="2.79847">
        <ele>782.17</ele>
        <time>2013-09-21T09:38:50Z</time>
      </trkpt>
      <trkpt lat="45.84669" lon="2.79778">
        <ele>778.81</ele>
        <time>2013-09-21T09:39:02Z</time>
      </trkpt>
      <trkpt lat="45.84657" lon="2.79726">
        <ele>775.44</ele>
        <time>2013-09-21T09:39:08Z</time>
      </trkpt>
      <trkpt lat="45.84653" lon="2.79682">
        <ele>772.56</ele>
        <time>2013-09-21T09:39:12Z</time>
      </trkpt>
      <trkpt lat="45.8465" lon="2.79635">
        <ele>772.08</ele>
        <time>2013-09-21T09:39:16Z</time>
      </trkpt>
      <trkpt lat="45.84657" lon="2.79517">
        <ele>769.19</ele>
        <time>2013-09-21T09:39:26Z</time>
      </trkpt>
      <trkpt lat="45.84663" lon="2.79471">
        <ele>767.75</ele>
        <time>2013-09-21T09:39:30Z</time>
      </trkpt>
      <trkpt lat="45.84667" lon="2.79421">
        <ele>765.83</ele>
        <time>2013-09-21T09:39:34Z</time>
      </trkpt>
      <trkpt lat="45.8467" lon="2.79383">
        <ele>764.39</ele>
        <time>2013-09-21T09:39:37Z</time>
      </trkpt>
      <trkpt lat="45.84682" lon="2.79249">
        <ele>761.5</ele>
        <time>2013-09-21T09:39:48Z</time>
      </trkpt>
      <trkpt lat="45.84692" lon="2.79102">
        <ele>758.62</ele>
        <time>2013-09-21T09:40:00Z</time>
      </trkpt>
      <trkpt lat="45.84706" lon="2.79025">
        <ele>755.73</ele>
        <time>2013-09-21T09:40:07Z</time>
      </trkpt>
      <trkpt lat="45.84732" lon="2.78959">
        <ele>753.33</ele>
        <time>2013-09-21T09:40:13Z</time>
      </trkpt>
      <trkpt lat="45.84738" lon="2.78949">
        <ele>753.81</ele>
        <time>2013-09-21T09:40:14Z</time>
      </trkpt>
      <trkpt lat="45.84745" lon="2.78941">
        <ele>752.85</ele>
        <time>2013-09-21T09:40:15Z</time>
      </trkpt>
      <trkpt lat="45.84751" lon="2.78934">
        <ele>751.89</ele>
        <time>2013-09-21T09:40:16Z</time>
      </trkpt>
      <trkpt lat="45.84759" lon="2.78927">
        <ele>752.37</ele>
        <time>2013-09-21T09:40:17Z</time>
      </trkpt>
      <trkpt lat="45.84766" lon="2.78921">
        <ele>752.85</ele>
        <time>2013-09-21T09:40:18Z</time>
      </trkpt>
      <trkpt lat="45.84774" lon="2.78916">
        <ele>753.33</ele>
        <time>2013-09-21T09:40:19Z</time>
      </trkpt>
      <trkpt lat="45.84874" lon="2.78843">
        <ele>756.21</ele>
        <time>2013-09-21T09:40:35Z</time>
      </trkpt>
      <trkpt lat="45.84881" lon="2.78838">
        <ele>756.69</ele>
        <time>2013-09-21T09:40:37Z</time>
      </trkpt>
      <trkpt lat="45.84893" lon="2.78808">
        <ele>753.33</ele>
        <time>2013-09-21T09:40:50Z</time>
      </trkpt>
      <trkpt lat="45.84889" lon="2.78784">
        <ele>752.37</ele>
        <time>2013-09-21T09:40:54Z</time>
      </trkpt>
      <trkpt lat="45.84877" lon="2.78776">
        <ele>751.89</ele>
        <time>2013-09-21T09:40:55Z</time>
      </trkpt>
      <trkpt lat="45.8487" lon="2.78769">
        <ele>751.89</ele>
        <time>2013-09-21T09:40:56Z</time>
      </trkpt>
      <trkpt lat="45.84863" lon="2.78762">
        <ele>752.37</ele>
        <time>2013-09-21T09:40:57Z</time>
      </trkpt>
      <trkpt lat="45.84783" lon="2.78753">
        <ele>750.93</ele>
        <time>2013-09-21T09:41:00Z</time>
      </trkpt>
      <trkpt lat="45.84695" lon="2.7875">
        <ele>750.93</ele>
        <time>2013-09-21T09:41:13Z</time>
      </trkpt>
      <trkpt lat="45.84688" lon="2.78748">
        <ele>750.93</ele>
        <time>2013-09-21T09:41:14Z</time>
      </trkpt>
      <trkpt lat="45.84635" lon="2.78717">
        <ele>749.49</ele>
        <time>2013-09-21T09:41:22Z</time>
      </trkpt>
      <trkpt lat="45.84523" lon="2.78655">
        <ele>749</ele>
        <time>2013-09-21T09:41:41Z</time>
      </trkpt>
      <trkpt lat="45.8448" lon="2.78618">
        <ele>747.08</ele>
        <time>2013-09-21T09:41:51Z</time>
      </trkpt>
      <trkpt lat="45.84483" lon="2.78609">
        <ele>746.6</ele>
        <time>2013-09-21T09:41:58Z</time>
      </trkpt>
      <trkpt lat="45.84458" lon="2.78594">
        <ele>743.24</ele>
        <time>2013-09-21T09:42:07Z</time>
      </trkpt>
      <trkpt lat="45.84435" lon="2.78586">
        <ele>741.31</ele>
        <time>2013-09-21T09:42:10Z</time>
      </trkpt>
      <trkpt lat="45.84401" lon="2.78575">
        <ele>737.95</ele>
        <time>2013-09-21T09:42:14Z</time>
      </trkpt>
      <trkpt lat="45.84383" lon="2.78569">
        <ele>737.47</ele>
        <time>2013-09-21T09:42:16Z</time>
      </trkpt>
      <trkpt lat="45.84338" lon="2.78554">
        <ele>735.07</ele>
        <time>2013-09-21T09:42:22Z</time>
      </trkpt>
      <trkpt lat="45.84334" lon="2.78553">
        <ele>735.55</ele>
        <time>2013-09-21T09:42:23Z</time>
      </trkpt>
      <trkpt lat="45.84317" lon="2.78572">
        <ele>736.99</ele>
        <time>2013-09-21T09:42:33Z</time>
      </trkpt>
      <trkpt lat="45.84317" lon="2.78587">
        <ele>739.87</ele>
        <time>2013-09-21T09:42:40Z</time>
      </trkpt>
      <trkpt lat="45.84324" lon="2.78613">
        <ele>743.24</ele>
        <time>2013-09-21T09:42:54Z</time>
      </trkpt>
      <trkpt lat="45.84329" lon="2.78634">
        <ele>746.12</ele>
        <time>2013-09-21T09:43:06Z</time>
      </trkpt>
      <trkpt lat="45.84333" lon="2.78668">
        <ele>749</ele>
        <time>2013-09-21T09:43:22Z</time>
      </trkpt>
      <trkpt lat="45.84324" lon="2.78713">
        <ele>751.41</ele>
        <time>2013-09-21T09:43:43Z</time>
      </trkpt>
      <trkpt lat="45.84302" lon="2.78749">
        <ele>754.29</ele>
        <time>2013-09-21T09:44:05Z</time>
      </trkpt>
      <trkpt lat="45.84281" lon="2.78776">
        <ele>757.18</ele>
        <time>2013-09-21T09:44:25Z</time>
      </trkpt>
      <trkpt lat="45.84278" lon="2.7878">
        <ele>758.62</ele>
        <time>2013-09-21T09:44:28Z</time>
      </trkpt>
      <trkpt lat="45.84245" lon="2.78817">
        <ele>761.98</ele>
        <time>2013-09-21T09:44:51Z</time>
      </trkpt>
      <trkpt lat="45.84237" lon="2.78877">
        <ele>764.87</ele>
        <time>2013-09-21T09:45:16Z</time>
      </trkpt>
      <trkpt lat="45.84232" lon="2.78897">
        <ele>768.23</ele>
        <time>2013-09-21T09:45:26Z</time>
      </trkpt>
      <trkpt lat="45.84218" lon="2.78953">
        <ele>770.15</ele>
        <time>2013-09-21T09:45:47Z</time>
      </trkpt>
      <trkpt lat="45.84176" lon="2.79021">
        <ele>772.08</ele>
        <time>2013-09-21T09:46:08Z</time>
      </trkpt>
      <trkpt lat="45.8413" lon="2.79049">
        <ele>774.96</ele>
        <time>2013-09-21T09:46:27Z</time>
      </trkpt>
      <trkpt lat="45.84111" lon="2.7906">
        <ele>776.88</ele>
        <time>2013-09-21T09:46:36Z</time>
      </trkpt>
      <trkpt lat="45.84084" lon="2.79072">
        <ele>780.25</ele>
        <time>2013-09-21T09:46:49Z</time>
      </trkpt>
      <trkpt lat="45.84038" lon="2.79094">
        <ele>783.61</ele>
        <time>2013-09-21T09:47:11Z</time>
      </trkpt>
      <trkpt lat="45.84009" lon="2.79108">
        <ele>786.98</ele>
        <time>2013-09-21T09:47:32Z</time>
      </trkpt>
      <trkpt lat="45.83975" lon="2.79132">
        <ele>790.34</ele>
        <time>2013-09-21T09:47:49Z</time>
      </trkpt>
      <trkpt lat="45.83944" lon="2.79153">
        <ele>793.22</ele>
        <time>2013-09-21T09:48:05Z</time>
      </trkpt>
      <trkpt lat="45.83913" lon="2.79177">
        <ele>797.07</ele>
        <time>2013-09-21T09:48:22Z</time>
      </trkpt>
      <trkpt lat="45.83881" lon="2.79201">
        <ele>800.44</ele>
        <time>2013-09-21T09:48:40Z</time>
      </trkpt>
      <trkpt lat="45.8385" lon="2.79229">
        <ele>803.32</ele>
        <time>2013-09-21T09:49:01Z</time>
      </trkpt>
      <trkpt lat="45.8382" lon="2.79245">
        <ele>806.68</ele>
        <time>2013-09-21T09:49:21Z</time>
      </trkpt>
      <trkpt lat="45.8378" lon="2.79262">
        <ele>809.57</ele>
        <time>2013-09-21T09:49:42Z</time>
      </trkpt>
      <trkpt lat="45.83748" lon="2.79299">
        <ele>812.45</ele>
        <time>2013-09-21T09:50:01Z</time>
      </trkpt>
      <trkpt lat="45.8371" lon="2.7934">
        <ele>815.82</ele>
        <time>2013-09-21T09:50:21Z</time>
      </trkpt>
      <trkpt lat="45.83676" lon="2.79383">
        <ele>819.18</ele>
        <time>2013-09-21T09:50:40Z</time>
      </trkpt>
      <trkpt lat="45.83644" lon="2.79415">
        <ele>820.62</ele>
        <time>2013-09-21T09:50:56Z</time>
      </trkpt>
      <trkpt lat="45.83579" lon="2.79464">
        <ele>821.1</ele>
        <time>2013-09-21T09:51:21Z</time>
      </trkpt>
      <trkpt lat="45.83512" lon="2.79525">
        <ele>820.62</ele>
        <time>2013-09-21T09:51:43Z</time>
      </trkpt>
      <trkpt lat="45.83432" lon="2.79583">
        <ele>823.03</ele>
        <time>2013-09-21T09:52:06Z</time>
      </trkpt>
      <trkpt lat="45.83356" lon="2.79604">
        <ele>823.03</ele>
        <time>2013-09-21T09:52:27Z</time>
      </trkpt>
      <trkpt lat="45.83265" lon="2.79623">
        <ele>821.58</ele>
        <time>2013-09-21T09:52:48Z</time>
      </trkpt>
      <trkpt lat="45.83201" lon="2.79634">
        <ele>818.22</ele>
        <time>2013-09-21T09:53:00Z</time>
      </trkpt>
      <trkpt lat="45.83195" lon="2.79631">
        <ele>818.22</ele>
        <time>2013-09-21T09:53:01Z</time>
      </trkpt>
      <trkpt lat="45.83159" lon="2.79605">
        <ele>815.82</ele>
        <time>2013-09-21T09:53:07Z</time>
      </trkpt>
      <trkpt lat="45.83206" lon="2.79521">
        <ele>814.85</ele>
        <time>2013-09-21T09:53:09Z</time>
      </trkpt>
      <trkpt lat="45.83201" lon="2.79482">
        <ele>811.49</ele>
        <time>2013-09-21T09:53:12Z</time>
      </trkpt>
      <trkpt lat="45.83198" lon="2.7947">
        <ele>811.49</ele>
        <time>2013-09-21T09:53:13Z</time>
      </trkpt>
      <trkpt lat="45.83192" lon="2.79418">
        <ele>807.64</ele>
        <time>2013-09-21T09:53:17Z</time>
      </trkpt>
      <trkpt lat="45.83192" lon="2.79393">
        <ele>806.68</ele>
        <time>2013-09-21T09:53:19Z</time>
      </trkpt>
      <trkpt lat="45.83192" lon="2.79375">
        <ele>804.28</ele>
        <time>2013-09-21T09:53:20Z</time>
      </trkpt>
      <trkpt lat="45.83194" lon="2.7933">
        <ele>800.44</ele>
        <time>2013-09-21T09:53:24Z</time>
      </trkpt>
      <trkpt lat="45.83193" lon="2.7932">
        <ele>798.51</ele>
        <time>2013-09-21T09:53:25Z</time>
      </trkpt>
      <trkpt lat="45.83191" lon="2.79312">
        <ele>798.03</ele>
        <time>2013-09-21T09:53:26Z</time>
      </trkpt>
      <trkpt lat="45.83185" lon="2.79295">
        <ele>794.67</ele>
        <time>2013-09-21T09:53:28Z</time>
      </trkpt>
      <trkpt lat="45.83179" lon="2.79279">
        <ele>791.3</ele>
        <time>2013-09-21T09:53:30Z</time>
      </trkpt>
      <trkpt lat="45.83168" lon="2.79274">
        <ele>790.82</ele>
        <time>2013-09-21T09:53:31Z</time>
      </trkpt>
      <trkpt lat="45.83157" lon="2.79269">
        <ele>788.9</ele>
        <time>2013-09-21T09:53:32Z</time>
      </trkpt>
      <trkpt lat="45.83145" lon="2.79266">
        <ele>786.98</ele>
        <time>2013-09-21T09:53:33Z</time>
      </trkpt>
      <trkpt lat="45.83133" lon="2.79265">
        <ele>786.02</ele>
        <time>2013-09-21T09:53:34Z</time>
      </trkpt>
      <trkpt lat="45.83098" lon="2.79266">
        <ele>786.5</ele>
        <time>2013-09-21T09:53:37Z</time>
      </trkpt>
      <trkpt lat="45.83078" lon="2.79273">
        <ele>786.02</ele>
        <time>2013-09-21T09:53:39Z</time>
      </trkpt>
      <trkpt lat="45.83069" lon="2.79278">
        <ele>784.57</ele>
        <time>2013-09-21T09:53:40Z</time>
      </trkpt>
      <trkpt lat="45.8306" lon="2.79286">
        <ele>782.65</ele>
        <time>2013-09-21T09:53:41Z</time>
      </trkpt>
      <trkpt lat="45.83038" lon="2.79303">
        <ele>779.29</ele>
        <time>2013-09-21T09:53:43Z</time>
      </trkpt>
      <trkpt lat="45.83001" lon="2.7933">
        <ele>778.32</ele>
        <time>2013-09-21T09:53:46Z</time>
      </trkpt>
      <trkpt lat="45.8297" lon="2.7934">
        <ele>774.96</ele>
        <time>2013-09-21T09:53:49Z</time>
      </trkpt>
      <trkpt lat="45.82946" lon="2.7934">
        <ele>770.63</ele>
        <time>2013-09-21T09:53:52Z</time>
      </trkpt>
      <trkpt lat="45.82933" lon="2.79335">
        <ele>767.27</ele>
        <time>2013-09-21T09:53:54Z</time>
      </trkpt>
      <trkpt lat="45.82922" lon="2.79322">
        <ele>765.35</ele>
        <time>2013-09-21T09:53:57Z</time>
      </trkpt>
      <trkpt lat="45.82922" lon="2.79315">
        <ele>765.83</ele>
        <time>2013-09-21T09:53:58Z</time>
      </trkpt>
      <trkpt lat="45.82923" lon="2.79306">
        <ele>765.83</ele>
        <time>2013-09-21T09:53:59Z</time>
      </trkpt>
      <trkpt lat="45.82924" lon="2.79296">
        <ele>764.39</ele>
        <time>2013-09-21T09:54:00Z</time>
      </trkpt>
      <trkpt lat="45.82926" lon="2.79285">
        <ele>764.87</ele>
        <time>2013-09-21T09:54:01Z</time>
      </trkpt>
      <trkpt lat="45.82937" lon="2.79242">
        <ele>766.31</ele>
        <time>2013-09-21T09:54:05Z</time>
      </trkpt>
      <trkpt lat="45.82944" lon="2.79234">
        <ele>765.35</ele>
        <time>2013-09-21T09:54:07Z</time>
      </trkpt>
      <trkpt lat="45.82907" lon="2.79224">
        <ele>767.75</ele>
        <time>2013-09-21T09:54:24Z</time>
      </trkpt>
      <trkpt lat="45.82899" lon="2.79222">
        <ele>771.11</ele>
        <time>2013-09-21T09:54:33Z</time>
      </trkpt>
      <trkpt lat="45.82878" lon="2.79214">
        <ele>774.48</ele>
        <time>2013-09-21T09:54:44Z</time>
      </trkpt>
      <trkpt lat="45.8282" lon="2.79228">
        <ele>775.44</ele>
        <time>2013-09-21T09:55:05Z</time>
      </trkpt>
      <trkpt lat="45.82778" lon="2.79229">
        <ele>777.84</ele>
        <time>2013-09-21T09:55:23Z</time>
      </trkpt>
      <trkpt lat="45.82722" lon="2.79224">
        <ele>779.29</ele>
        <time>2013-09-21T09:55:45Z</time>
      </trkpt>
      <trkpt lat="45.82692" lon="2.7923">
        <ele>780.25</ele>
        <time>2013-09-21T09:55:53Z</time>
      </trkpt>
      <trkpt lat="45.82622" lon="2.7925">
        <ele>782.65</ele>
        <time>2013-09-21T09:56:15Z</time>
      </trkpt>
      <trkpt lat="45.82574" lon="2.79266">
        <ele>782.65</ele>
        <time>2013-09-21T09:56:30Z</time>
      </trkpt>
      <trkpt lat="45.8257" lon="2.79266">
        <ele>782.17</ele>
        <time>2013-09-21T09:56:31Z</time>
      </trkpt>
      <trkpt lat="45.82566" lon="2.79266">
        <ele>782.65</ele>
        <time>2013-09-21T09:56:32Z</time>
      </trkpt>
      <trkpt lat="45.82562" lon="2.79264">
        <ele>783.13</ele>
        <time>2013-09-21T09:56:33Z</time>
      </trkpt>
      <trkpt lat="45.82559" lon="2.79263">
        <ele>783.13</ele>
        <time>2013-09-21T09:56:34Z</time>
      </trkpt>
      <trkpt lat="45.82556" lon="2.7926">
        <ele>783.61</ele>
        <time>2013-09-21T09:56:35Z</time>
      </trkpt>
      <trkpt lat="45.82553" lon="2.79258">
        <ele>783.61</ele>
        <time>2013-09-21T09:56:36Z</time>
      </trkpt>
      <trkpt lat="45.82519" lon="2.79228">
        <ele>786.98</ele>
        <time>2013-09-21T09:56:51Z</time>
      </trkpt>
      <trkpt lat="45.82495" lon="2.79224">
        <ele>786.5</ele>
        <time>2013-09-21T09:57:04Z</time>
      </trkpt>
      <trkpt lat="45.82494" lon="2.79229">
        <ele>785.53</ele>
        <time>2013-09-21T09:57:05Z</time>
      </trkpt>
      <trkpt lat="45.8245" lon="2.79282">
        <ele>788.42</ele>
        <time>2013-09-21T09:57:21Z</time>
      </trkpt>
      <trkpt lat="45.82364" lon="2.79309">
        <ele>791.3</ele>
        <time>2013-09-21T09:57:52Z</time>
      </trkpt>
      <trkpt lat="45.82332" lon="2.79344">
        <ele>788.42</ele>
        <time>2013-09-21T09:58:02Z</time>
      </trkpt>
      <trkpt lat="45.82271" lon="2.79369">
        <ele>788.9</ele>
        <time>2013-09-21T09:58:13Z</time>
      </trkpt>
      <trkpt lat="45.82196" lon="2.7937">
        <ele>790.82</ele>
        <time>2013-09-21T09:58:35Z</time>
      </trkpt>
      <trkpt lat="45.82158" lon="2.79358">
        <ele>793.71</ele>
        <time>2013-09-21T09:58:48Z</time>
      </trkpt>
      <trkpt lat="45.82117" lon="2.7935">
        <ele>796.11</ele>
        <time>2013-09-21T09:59:06Z</time>
      </trkpt>
      <trkpt lat="45.82103" lon="2.79324">
        <ele>798.99</ele>
        <time>2013-09-21T09:59:20Z</time>
      </trkpt>
      <trkpt lat="45.82093" lon="2.79307">
        <ele>802.36</ele>
        <time>2013-09-21T09:59:32Z</time>
      </trkpt>
      <trkpt lat="45.82083" lon="2.79272">
        <ele>805.24</ele>
        <time>2013-09-21T09:59:53Z</time>
      </trkpt>
      <trkpt lat="45.82078" lon="2.79249">
        <ele>807.64</ele>
        <time>2013-09-21T10:00:04Z</time>
      </trkpt>
      <trkpt lat="45.82074" lon="2.79223">
        <ele>810.53</ele>
        <time>2013-09-21T10:00:19Z</time>
      </trkpt>
      <trkpt lat="45.82072" lon="2.79192">
        <ele>813.89</ele>
        <time>2013-09-21T10:00:36Z</time>
      </trkpt>
      <trkpt lat="45.82074" lon="2.79144">
        <ele>817.26</ele>
        <time>2013-09-21T10:00:59Z</time>
      </trkpt>
      <trkpt lat="45.8207" lon="2.79098">
        <ele>820.62</ele>
        <time>2013-09-21T10:01:21Z</time>
      </trkpt>
      <trkpt lat="45.82047" lon="2.79037">
        <ele>822.55</ele>
        <time>2013-09-21T10:01:45Z</time>
      </trkpt>
      <trkpt lat="45.82027" lon="2.78969">
        <ele>825.43</ele>
        <time>2013-09-21T10:02:06Z</time>
      </trkpt>
      <trkpt lat="45.82007" lon="2.78909">
        <ele>828.79</ele>
        <time>2013-09-21T10:02:25Z</time>
      </trkpt>
      <trkpt lat="45.81998" lon="2.78886">
        <ele>830.24</ele>
        <time>2013-09-21T10:02:32Z</time>
      </trkpt>
      <trkpt lat="45.81968" lon="2.78791">
        <ele>832.64</ele>
        <time>2013-09-21T10:02:59Z</time>
      </trkpt>
      <trkpt lat="45.81932" lon="2.78684">
        <ele>834.56</ele>
        <time>2013-09-21T10:03:25Z</time>
      </trkpt>
      <trkpt lat="45.81917" lon="2.78627">
        <ele>837.93</ele>
        <time>2013-09-21T10:03:40Z</time>
      </trkpt>
      <trkpt lat="45.81895" lon="2.78555">
        <ele>841.29</ele>
        <time>2013-09-21T10:04:02Z</time>
      </trkpt>
      <trkpt lat="45.81882" lon="2.78512">
        <ele>844.18</ele>
        <time>2013-09-21T10:04:18Z</time>
      </trkpt>
      <trkpt lat="45.81857" lon="2.78435">
        <ele>847.06</ele>
        <time>2013-09-21T10:04:40Z</time>
      </trkpt>
      <trkpt lat="45.81836" lon="2.78365">
        <ele>848.98</ele>
        <time>2013-09-21T10:04:59Z</time>
      </trkpt>
      <trkpt lat="45.81819" lon="2.78302">
        <ele>850.9</ele>
        <time>2013-09-21T10:05:17Z</time>
      </trkpt>
      <trkpt lat="45.81787" lon="2.78261">
        <ele>852.35</ele>
        <time>2013-09-21T10:05:30Z</time>
      </trkpt>
      <trkpt lat="45.81786" lon="2.78258">
        <ele>851.87</ele>
        <time>2013-09-21T10:05:31Z</time>
      </trkpt>
      <trkpt lat="45.81785" lon="2.78255">
        <ele>852.35</ele>
        <time>2013-09-21T10:05:32Z</time>
      </trkpt>
      <trkpt lat="45.81786" lon="2.78252">
        <ele>851.38</ele>
        <time>2013-09-21T10:05:33Z</time>
      </trkpt>
      <trkpt lat="45.81788" lon="2.78248">
        <ele>852.35</ele>
        <time>2013-09-21T10:05:34Z</time>
      </trkpt>
      <trkpt lat="45.81843" lon="2.7819">
        <ele>852.83</ele>
        <time>2013-09-21T10:05:53Z</time>
      </trkpt>
      <trkpt lat="45.81915" lon="2.78121">
        <ele>850.9</ele>
        <time>2013-09-21T10:06:13Z</time>
      </trkpt>
      <trkpt lat="45.81939" lon="2.7809">
        <ele>848.98</ele>
        <time>2013-09-21T10:06:18Z</time>
      </trkpt>
      <trkpt lat="45.81975" lon="2.78023">
        <ele>845.62</ele>
        <time>2013-09-21T10:06:26Z</time>
      </trkpt>
      <trkpt lat="45.82001" lon="2.77958">
        <ele>842.25</ele>
        <time>2013-09-21T10:06:32Z</time>
      </trkpt>
      <trkpt lat="45.82022" lon="2.77926">
        <ele>841.77</ele>
        <time>2013-09-21T10:06:37Z</time>
      </trkpt>
      <trkpt lat="45.82023" lon="2.77919">
        <ele>841.77</ele>
        <time>2013-09-21T10:06:38Z</time>
      </trkpt>
      <trkpt lat="45.82021" lon="2.77889">
        <ele>843.21</ele>
        <time>2013-09-21T10:06:44Z</time>
      </trkpt>
      <trkpt lat="45.82018" lon="2.77885">
        <ele>843.21</ele>
        <time>2013-09-21T10:06:45Z</time>
      </trkpt>
      <trkpt lat="45.82016" lon="2.77881">
        <ele>843.21</ele>
        <time>2013-09-21T10:06:46Z</time>
      </trkpt>
      <trkpt lat="45.8197" lon="2.77796">
        <ele>841.77</ele>
        <time>2013-09-21T10:07:00Z</time>
      </trkpt>
      <trkpt lat="45.81967" lon="2.77789">
        <ele>842.25</ele>
        <time>2013-09-21T10:07:01Z</time>
      </trkpt>
      <trkpt lat="45.81962" lon="2.77783">
        <ele>842.73</ele>
        <time>2013-09-21T10:07:02Z</time>
      </trkpt>
      <trkpt lat="45.81958" lon="2.77778">
        <ele>842.73</ele>
        <time>2013-09-21T10:07:03Z</time>
      </trkpt>
      <trkpt lat="45.81953" lon="2.77774">
        <ele>842.73</ele>
        <time>2013-09-21T10:07:04Z</time>
      </trkpt>
      <trkpt lat="45.81949" lon="2.77771">
        <ele>843.21</ele>
        <time>2013-09-21T10:07:05Z</time>
      </trkpt>
      <trkpt lat="45.81944" lon="2.77768">
        <ele>842.73</ele>
        <time>2013-09-21T10:07:06Z</time>
      </trkpt>
      <trkpt lat="45.81869" lon="2.77689">
        <ele>843.21</ele>
        <time>2013-09-21T10:07:22Z</time>
      </trkpt>
      <trkpt lat="45.81837" lon="2.77636">
        <ele>841.29</ele>
        <time>2013-09-21T10:07:29Z</time>
      </trkpt>
      <trkpt lat="45.81833" lon="2.77628">
        <ele>840.33</ele>
        <time>2013-09-21T10:07:30Z</time>
      </trkpt>
      <trkpt lat="45.81829" lon="2.77619">
        <ele>839.85</ele>
        <time>2013-09-21T10:07:31Z</time>
      </trkpt>
      <trkpt lat="45.81825" lon="2.7761">
        <ele>839.37</ele>
        <time>2013-09-21T10:07:32Z</time>
      </trkpt>
      <trkpt lat="45.81806" lon="2.77569">
        <ele>836</ele>
        <time>2013-09-21T10:07:36Z</time>
      </trkpt>
      <trkpt lat="45.81787" lon="2.77538">
        <ele>832.16</ele>
        <time>2013-09-21T10:07:39Z</time>
      </trkpt>
      <trkpt lat="45.81756" lon="2.77498">
        <ele>828.31</ele>
        <time>2013-09-21T10:07:43Z</time>
      </trkpt>
      <trkpt lat="45.8173" lon="2.77472">
        <ele>826.87</ele>
        <time>2013-09-21T10:07:46Z</time>
      </trkpt>
      <trkpt lat="45.81722" lon="2.77466">
        <ele>825.43</ele>
        <time>2013-09-21T10:07:47Z</time>
      </trkpt>
      <trkpt lat="45.81714" lon="2.77463">
        <ele>825.91</ele>
        <time>2013-09-21T10:07:48Z</time>
      </trkpt>
      <trkpt lat="45.81707" lon="2.77463">
        <ele>826.39</ele>
        <time>2013-09-21T10:07:49Z</time>
      </trkpt>
      <trkpt lat="45.817" lon="2.77465">
        <ele>826.39</ele>
        <time>2013-09-21T10:07:50Z</time>
      </trkpt>
      <trkpt lat="45.81643" lon="2.77479">
        <ele>829.76</ele>
        <time>2013-09-21T10:07:59Z</time>
      </trkpt>
      <trkpt lat="45.81624" lon="2.77483">
        <ele>828.31</ele>
        <time>2013-09-21T10:08:02Z</time>
      </trkpt>
      <trkpt lat="45.81539" lon="2.7751">
        <ele>825.91</ele>
        <time>2013-09-21T10:08:15Z</time>
      </trkpt>
      <trkpt lat="45.81459" lon="2.77542">
        <ele>824.95</ele>
        <time>2013-09-21T10:08:28Z</time>
      </trkpt>
      <trkpt lat="45.81423" lon="2.77566">
        <ele>823.03</ele>
        <time>2013-09-21T10:08:34Z</time>
      </trkpt>
      <trkpt lat="45.81415" lon="2.77569">
        <ele>822.06</ele>
        <time>2013-09-21T10:08:35Z</time>
      </trkpt>
      <trkpt lat="45.81407" lon="2.77571">
        <ele>821.58</ele>
        <time>2013-09-21T10:08:36Z</time>
      </trkpt>
      <trkpt lat="45.81391" lon="2.77574">
        <ele>818.22</ele>
        <time>2013-09-21T10:08:38Z</time>
      </trkpt>
      <trkpt lat="45.81379" lon="2.77574">
        <ele>817.74</ele>
        <time>2013-09-21T10:08:39Z</time>
      </trkpt>
      <trkpt lat="45.81369" lon="2.77572">
        <ele>816.3</ele>
        <time>2013-09-21T10:08:40Z</time>
      </trkpt>
      <trkpt lat="45.81328" lon="2.77556">
        <ele>820.14</ele>
        <time>2013-09-21T10:08:46Z</time>
      </trkpt>
      <trkpt lat="45.81306" lon="2.77561">
        <ele>821.1</ele>
        <time>2013-09-21T10:08:52Z</time>
      </trkpt>
      <trkpt lat="45.81266" lon="2.77571">
        <ele>820.62</ele>
        <time>2013-09-21T10:09:01Z</time>
      </trkpt>
      <trkpt lat="45.81261" lon="2.77572">
        <ele>821.1</ele>
        <time>2013-09-21T10:09:02Z</time>
      </trkpt>
      <trkpt lat="45.81237" lon="2.77579">
        <ele>821.58</ele>
        <time>2013-09-21T10:09:07Z</time>
      </trkpt>
      <trkpt lat="45.81232" lon="2.77579">
        <ele>821.1</ele>
        <time>2013-09-21T10:09:08Z</time>
      </trkpt>
      <trkpt lat="45.81227" lon="2.77578">
        <ele>821.58</ele>
        <time>2013-09-21T10:09:09Z</time>
      </trkpt>
      <trkpt lat="45.81223" lon="2.77577">
        <ele>821.1</ele>
        <time>2013-09-21T10:09:10Z</time>
      </trkpt>
      <trkpt lat="45.81218" lon="2.77576">
        <ele>821.58</ele>
        <time>2013-09-21T10:09:11Z</time>
      </trkpt>
      <trkpt lat="45.81214" lon="2.77574">
        <ele>822.55</ele>
        <time>2013-09-21T10:09:12Z</time>
      </trkpt>
      <trkpt lat="45.8121" lon="2.77572">
        <ele>823.03</ele>
        <time>2013-09-21T10:09:13Z</time>
      </trkpt>
      <trkpt lat="45.81206" lon="2.77571">
        <ele>822.55</ele>
        <time>2013-09-21T10:09:14Z</time>
      </trkpt>
      <trkpt lat="45.81202" lon="2.77569">
        <ele>822.55</ele>
        <time>2013-09-21T10:09:15Z</time>
      </trkpt>
      <trkpt lat="45.81185" lon="2.77561">
        <ele>822.55</ele>
        <time>2013-09-21T10:09:19Z</time>
      </trkpt>
      <trkpt lat="45.81161" lon="2.77548">
        <ele>822.06</ele>
        <time>2013-09-21T10:09:24Z</time>
      </trkpt>
      <trkpt lat="45.81155" lon="2.77547">
        <ele>822.06</ele>
        <time>2013-09-21T10:09:25Z</time>
      </trkpt>
      <trkpt lat="45.8112" lon="2.77544">
        <ele>823.99</ele>
        <time>2013-09-21T10:09:32Z</time>
      </trkpt>
      <trkpt lat="45.81115" lon="2.77544">
        <ele>823.99</ele>
        <time>2013-09-21T10:09:33Z</time>
      </trkpt>
      <trkpt lat="45.81111" lon="2.77543">
        <ele>824.47</ele>
        <time>2013-09-21T10:09:34Z</time>
      </trkpt>
      <trkpt lat="45.81053" lon="2.77545">
        <ele>826.39</ele>
        <time>2013-09-21T10:09:50Z</time>
      </trkpt>
      <trkpt lat="45.81005" lon="2.77531">
        <ele>826.87</ele>
        <time>2013-09-21T10:10:02Z</time>
      </trkpt>
      <trkpt lat="45.81001" lon="2.77528">
        <ele>826.39</ele>
        <time>2013-09-21T10:10:03Z</time>
      </trkpt>
      <trkpt lat="45.80996" lon="2.77526">
        <ele>826.39</ele>
        <time>2013-09-21T10:10:04Z</time>
      </trkpt>
      <trkpt lat="45.8098" lon="2.77516">
        <ele>826.87</ele>
        <time>2013-09-21T10:10:08Z</time>
      </trkpt>
      <trkpt lat="45.80977" lon="2.77513">
        <ele>826.87</ele>
        <time>2013-09-21T10:10:09Z</time>
      </trkpt>
      <trkpt lat="45.80973" lon="2.7751">
        <ele>826.87</ele>
        <time>2013-09-21T10:10:10Z</time>
      </trkpt>
      <trkpt lat="45.80923" lon="2.77487">
        <ele>829.76</ele>
        <time>2013-09-21T10:10:25Z</time>
      </trkpt>
      <trkpt lat="45.80892" lon="2.77473">
        <ele>832.64</ele>
        <time>2013-09-21T10:10:37Z</time>
      </trkpt>
      <trkpt lat="45.80874" lon="2.77459">
        <ele>833.12</ele>
        <time>2013-09-21T10:10:44Z</time>
      </trkpt>
      <trkpt lat="45.80871" lon="2.77458">
        <ele>833.6</ele>
        <time>2013-09-21T10:10:45Z</time>
      </trkpt>
      <trkpt lat="45.8083" lon="2.77458">
        <ele>836</ele>
        <time>2013-09-21T10:11:00Z</time>
      </trkpt>
      <trkpt lat="45.80793" lon="2.77433">
        <ele>834.08</ele>
        <time>2013-09-21T10:11:10Z</time>
      </trkpt>
      <trkpt lat="45.80769" lon="2.77412">
        <ele>835.52</ele>
        <time>2013-09-21T10:11:21Z</time>
      </trkpt>
      <trkpt lat="45.80755" lon="2.77392">
        <ele>837.93</ele>
        <time>2013-09-21T10:11:33Z</time>
      </trkpt>
      <trkpt lat="45.80752" lon="2.77389">
        <ele>838.41</ele>
        <time>2013-09-21T10:11:35Z</time>
      </trkpt>
      <trkpt lat="45.80751" lon="2.77388">
        <ele>838.41</ele>
        <time>2013-09-21T10:11:36Z</time>
      </trkpt>
      <trkpt lat="45.8075" lon="2.77387">
        <ele>838.89</ele>
        <time>2013-09-21T10:11:37Z</time>
      </trkpt>
      <trkpt lat="45.80749" lon="2.77386">
        <ele>838.89</ele>
        <time>2013-09-21T10:11:38Z</time>
      </trkpt>
      <trkpt lat="45.80747" lon="2.77385">
        <ele>838.89</ele>
        <time>2013-09-21T10:11:39Z</time>
      </trkpt>
      <trkpt lat="45.80746" lon="2.77384">
        <ele>839.37</ele>
        <time>2013-09-21T10:11:40Z</time>
      </trkpt>
      <trkpt lat="45.80745" lon="2.77382">
        <ele>839.37</ele>
        <time>2013-09-21T10:11:41Z</time>
      </trkpt>
      <trkpt lat="45.80743" lon="2.7738">
        <ele>839.37</ele>
        <time>2013-09-21T10:11:42Z</time>
      </trkpt>
      <trkpt lat="45.80742" lon="2.77379">
        <ele>839.85</ele>
        <time>2013-09-21T10:11:43Z</time>
      </trkpt>
      <trkpt lat="45.8074" lon="2.77377">
        <ele>839.85</ele>
        <time>2013-09-21T10:11:44Z</time>
      </trkpt>
      <trkpt lat="45.80739" lon="2.77376">
        <ele>839.85</ele>
        <time>2013-09-21T10:11:45Z</time>
      </trkpt>
      <trkpt lat="45.80723" lon="2.77361">
        <ele>842.25</ele>
        <time>2013-09-21T10:11:58Z</time>
      </trkpt>
      <trkpt lat="45.8071" lon="2.77347">
        <ele>844.66</ele>
        <time>2013-09-21T10:12:10Z</time>
      </trkpt>
      <trkpt lat="45.80709" lon="2.77344">
        <ele>845.14</ele>
        <time>2013-09-21T10:12:12Z</time>
      </trkpt>
      <trkpt lat="45.80707" lon="2.77341">
        <ele>845.62</ele>
        <time>2013-09-21T10:12:15Z</time>
      </trkpt>
      <trkpt lat="45.80704" lon="2.77339">
        <ele>845.62</ele>
        <time>2013-09-21T10:12:17Z</time>
      </trkpt>
      <trkpt lat="45.80686" lon="2.77328">
        <ele>847.54</ele>
        <time>2013-09-21T10:12:30Z</time>
      </trkpt>
      <trkpt lat="45.80684" lon="2.77328">
        <ele>847.54</ele>
        <time>2013-09-21T10:12:31Z</time>
      </trkpt>
      <trkpt lat="45.80678" lon="2.7733">
        <ele>848.02</ele>
        <time>2013-09-21T10:12:35Z</time>
      </trkpt>
      <trkpt lat="45.80663" lon="2.77345">
        <ele>849.46</ele>
        <time>2013-09-21T10:12:47Z</time>
      </trkpt>
      <trkpt lat="45.80656" lon="2.77353">
        <ele>850.42</ele>
        <time>2013-09-21T10:12:53Z</time>
      </trkpt>
      <trkpt lat="45.80655" lon="2.77355">
        <ele>849.94</ele>
        <time>2013-09-21T10:12:54Z</time>
      </trkpt>
      <trkpt lat="45.80654" lon="2.77356">
        <ele>850.42</ele>
        <time>2013-09-21T10:12:55Z</time>
      </trkpt>
      <trkpt lat="45.80653" lon="2.77357">
        <ele>849.94</ele>
        <time>2013-09-21T10:12:56Z</time>
      </trkpt>
      <trkpt lat="45.80652" lon="2.77359">
        <ele>850.42</ele>
        <time>2013-09-21T10:12:57Z</time>
      </trkpt>
      <trkpt lat="45.80651" lon="2.7736">
        <ele>850.9</ele>
        <time>2013-09-21T10:12:58Z</time>
      </trkpt>
      <trkpt lat="45.80649" lon="2.77361">
        <ele>850.9</ele>
        <time>2013-09-21T10:12:59Z</time>
      </trkpt>
      <trkpt lat="45.80648" lon="2.77362">
        <ele>851.38</ele>
        <time>2013-09-21T10:13:00Z</time>
      </trkpt>
      <trkpt lat="45.8064" lon="2.7737">
        <ele>852.35</ele>
        <time>2013-09-21T10:13:06Z</time>
      </trkpt>
      <trkpt lat="45.80639" lon="2.77371">
        <ele>851.87</ele>
        <time>2013-09-21T10:13:07Z</time>
      </trkpt>
      <trkpt lat="45.80625" lon="2.77379">
        <ele>854.27</ele>
        <time>2013-09-21T10:13:17Z</time>
      </trkpt>
      <trkpt lat="45.80624" lon="2.7738">
        <ele>854.27</ele>
        <time>2013-09-21T10:13:18Z</time>
      </trkpt>
      <trkpt lat="45.80623" lon="2.77381">
        <ele>854.27</ele>
        <time>2013-09-21T10:13:19Z</time>
      </trkpt>
      <trkpt lat="45.80598" lon="2.77403">
        <ele>857.63</ele>
        <time>2013-09-21T10:13:37Z</time>
      </trkpt>
      <trkpt lat="45.80568" lon="2.7741">
        <ele>859.56</ele>
        <time>2013-09-21T10:13:54Z</time>
      </trkpt>
      <trkpt lat="45.80528" lon="2.7739">
        <ele>861</ele>
        <time>2013-09-21T10:14:10Z</time>
      </trkpt>
      <trkpt lat="45.80487" lon="2.77368">
        <ele>861.48</ele>
        <time>2013-09-21T10:14:23Z</time>
      </trkpt>
      <trkpt lat="45.80455" lon="2.77326">
        <ele>864.36</ele>
        <time>2013-09-21T10:14:40Z</time>
      </trkpt>
      <trkpt lat="45.80425" lon="2.77276">
        <ele>865.8</ele>
        <time>2013-09-21T10:14:57Z</time>
      </trkpt>
      <trkpt lat="45.80389" lon="2.77223">
        <ele>868.21</ele>
        <time>2013-09-21T10:15:14Z</time>
      </trkpt>
      <trkpt lat="45.80355" lon="2.77173">
        <ele>870.13</ele>
        <time>2013-09-21T10:15:30Z</time>
      </trkpt>
      <trkpt lat="45.80337" lon="2.77151">
        <ele>872.05</ele>
        <time>2013-09-21T10:15:38Z</time>
      </trkpt>
      <trkpt lat="45.80318" lon="2.77129">
        <ele>873.01</ele>
        <time>2013-09-21T10:15:46Z</time>
      </trkpt>
      <trkpt lat="45.80272" lon="2.77103">
        <ele>875.42</ele>
        <time>2013-09-21T10:16:04Z</time>
      </trkpt>
      <trkpt lat="45.80261" lon="2.77102">
        <ele>876.86</ele>
        <time>2013-09-21T10:16:08Z</time>
      </trkpt>
      <trkpt lat="45.80221" lon="2.77094">
        <ele>880.22</ele>
        <time>2013-09-21T10:16:23Z</time>
      </trkpt>
      <trkpt lat="45.80179" lon="2.77091">
        <ele>883.11</ele>
        <time>2013-09-21T10:16:39Z</time>
      </trkpt>
      <trkpt lat="45.80132" lon="2.77086">
        <ele>885.03</ele>
        <time>2013-09-21T10:16:57Z</time>
      </trkpt>
      <trkpt lat="45.80087" lon="2.7709">
        <ele>886.95</ele>
        <time>2013-09-21T10:17:14Z</time>
      </trkpt>
      <trkpt lat="45.80059" lon="2.77126">
        <ele>888.4</ele>
        <time>2013-09-21T10:17:27Z</time>
      </trkpt>
      <trkpt lat="45.80027" lon="2.77127">
        <ele>888.88</ele>
        <time>2013-09-21T10:17:38Z</time>
      </trkpt>
      <trkpt lat="45.79987" lon="2.77094">
        <ele>889.84</ele>
        <time>2013-09-21T10:17:52Z</time>
      </trkpt>
      <trkpt lat="45.79946" lon="2.77085">
        <ele>891.76</ele>
        <time>2013-09-21T10:18:06Z</time>
      </trkpt>
      <trkpt lat="45.79899" lon="2.7713">
        <ele>891.76</ele>
        <time>2013-09-21T10:18:22Z</time>
      </trkpt>
      <trkpt lat="45.79899" lon="2.77158">
        <ele>890.8</ele>
        <time>2013-09-21T10:18:27Z</time>
      </trkpt>
      <trkpt lat="45.79929" lon="2.77252">
        <ele>889.84</ele>
        <time>2013-09-21T10:18:42Z</time>
      </trkpt>
      <trkpt lat="45.79952" lon="2.77346">
        <ele>890.8</ele>
        <time>2013-09-21T10:18:58Z</time>
      </trkpt>
      <trkpt lat="45.79962" lon="2.77374">
        <ele>891.76</ele>
        <time>2013-09-21T10:19:04Z</time>
      </trkpt>
      <trkpt lat="45.7997" lon="2.77396">
        <ele>892.72</ele>
        <time>2013-09-21T10:19:08Z</time>
      </trkpt>
      <trkpt lat="45.79971" lon="2.77401">
        <ele>892.72</ele>
        <time>2013-09-21T10:19:09Z</time>
      </trkpt>
      <trkpt lat="45.79968" lon="2.77489">
        <ele>894.64</ele>
        <time>2013-09-21T10:19:25Z</time>
      </trkpt>
      <trkpt lat="45.79962" lon="2.77593">
        <ele>894.16</ele>
        <time>2013-09-21T10:19:41Z</time>
      </trkpt>
      <trkpt lat="45.79959" lon="2.7762">
        <ele>892.72</ele>
        <time>2013-09-21T10:19:45Z</time>
      </trkpt>
      <trkpt lat="45.79958" lon="2.77627">
        <ele>892.24</ele>
        <time>2013-09-21T10:19:46Z</time>
      </trkpt>
      <trkpt lat="45.79952" lon="2.77648">
        <ele>892.72</ele>
        <time>2013-09-21T10:19:49Z</time>
      </trkpt>
      <trkpt lat="45.79949" lon="2.77654">
        <ele>891.76</ele>
        <time>2013-09-21T10:19:50Z</time>
      </trkpt>
      <trkpt lat="45.79946" lon="2.77659">
        <ele>892.24</ele>
        <time>2013-09-21T10:19:51Z</time>
      </trkpt>
      <trkpt lat="45.79942" lon="2.77664">
        <ele>892.72</ele>
        <time>2013-09-21T10:19:52Z</time>
      </trkpt>
      <trkpt lat="45.79938" lon="2.77668">
        <ele>892.72</ele>
        <time>2013-09-21T10:19:53Z</time>
      </trkpt>
      <trkpt lat="45.79882" lon="2.77716">
        <ele>892.72</ele>
        <time>2013-09-21T10:20:07Z</time>
      </trkpt>
      <trkpt lat="45.79874" lon="2.77722">
        <ele>893.2</ele>
        <time>2013-09-21T10:20:09Z</time>
      </trkpt>
      <trkpt lat="45.79812" lon="2.77773">
        <ele>893.68</ele>
        <time>2013-09-21T10:20:25Z</time>
      </trkpt>
      <trkpt lat="45.79746" lon="2.77817">
        <ele>895.12</ele>
        <time>2013-09-21T10:20:42Z</time>
      </trkpt>
      <trkpt lat="45.79738" lon="2.77817">
        <ele>896.09</ele>
        <time>2013-09-21T10:20:44Z</time>
      </trkpt>
      <trkpt lat="45.79734" lon="2.77816">
        <ele>895.61</ele>
        <time>2013-09-21T10:20:45Z</time>
      </trkpt>
      <trkpt lat="45.7973" lon="2.77814">
        <ele>895.61</ele>
        <time>2013-09-21T10:20:46Z</time>
      </trkpt>
      <trkpt lat="45.79727" lon="2.77809">
        <ele>895.12</ele>
        <time>2013-09-21T10:20:47Z</time>
      </trkpt>
      <trkpt lat="45.79723" lon="2.77804">
        <ele>895.12</ele>
        <time>2013-09-21T10:20:48Z</time>
      </trkpt>
      <trkpt lat="45.79711" lon="2.7779">
        <ele>894.16</ele>
        <time>2013-09-21T10:20:51Z</time>
      </trkpt>
      <trkpt lat="45.79631" lon="2.77748">
        <ele>892.72</ele>
        <time>2013-09-21T10:21:06Z</time>
      </trkpt>
      <trkpt lat="45.79614" lon="2.77741">
        <ele>892.72</ele>
        <time>2013-09-21T10:21:09Z</time>
      </trkpt>
      <trkpt lat="45.79544" lon="2.77728">
        <ele>891.76</ele>
        <time>2013-09-21T10:21:23Z</time>
      </trkpt>
      <trkpt lat="45.79503" lon="2.77721">
        <ele>891.76</ele>
        <time>2013-09-21T10:21:30Z</time>
      </trkpt>
      <trkpt lat="45.79441" lon="2.777">
        <ele>890.8</ele>
        <time>2013-09-21T10:21:40Z</time>
      </trkpt>
      <trkpt lat="45.79383" lon="2.77697">
        <ele>889.84</ele>
        <time>2013-09-21T10:21:51Z</time>
      </trkpt>
      <trkpt lat="45.79367" lon="2.77697">
        <ele>890.32</ele>
        <time>2013-09-21T10:21:56Z</time>
      </trkpt>
      <trkpt lat="45.79362" lon="2.77697">
        <ele>890.32</ele>
        <time>2013-09-21T10:21:57Z</time>
      </trkpt>
      <trkpt lat="45.79356" lon="2.77697">
        <ele>889.84</ele>
        <time>2013-09-21T10:21:58Z</time>
      </trkpt>
      <trkpt lat="45.79345" lon="2.77698">
        <ele>890.32</ele>
        <time>2013-09-21T10:22:00Z</time>
      </trkpt>
      <trkpt lat="45.79332" lon="2.77697">
        <ele>889.84</ele>
        <time>2013-09-21T10:22:02Z</time>
      </trkpt>
      <trkpt lat="45.79271" lon="2.77714">
        <ele>890.32</ele>
        <time>2013-09-21T10:22:12Z</time>
      </trkpt>
      <trkpt lat="45.79266" lon="2.77718">
        <ele>889.36</ele>
        <time>2013-09-21T10:22:13Z</time>
      </trkpt>
      <trkpt lat="45.79227" lon="2.77751">
        <ele>890.32</ele>
        <time>2013-09-21T10:22:21Z</time>
      </trkpt>
      <trkpt lat="45.79163" lon="2.77796">
        <ele>890.32</ele>
        <time>2013-09-21T10:22:34Z</time>
      </trkpt>
      <trkpt lat="45.79157" lon="2.77798">
        <ele>890.8</ele>
        <time>2013-09-21T10:22:35Z</time>
      </trkpt>
      <trkpt lat="45.79147" lon="2.77802">
        <ele>889.84</ele>
        <time>2013-09-21T10:22:37Z</time>
      </trkpt>
      <trkpt lat="45.79073" lon="2.778">
        <ele>890.8</ele>
        <time>2013-09-21T10:22:51Z</time>
      </trkpt>
      <trkpt lat="45.79012" lon="2.77782">
        <ele>890.8</ele>
        <time>2013-09-21T10:23:03Z</time>
      </trkpt>
      <trkpt lat="45.79001" lon="2.77777">
        <ele>891.28</ele>
        <time>2013-09-21T10:23:05Z</time>
      </trkpt>
      <trkpt lat="45.78992" lon="2.7777">
        <ele>891.28</ele>
        <time>2013-09-21T10:23:07Z</time>
      </trkpt>
      <trkpt lat="45.78943" lon="2.77735">
        <ele>891.28</ele>
        <time>2013-09-21T10:23:17Z</time>
      </trkpt>
      <trkpt lat="45.78935" lon="2.77726">
        <ele>891.28</ele>
        <time>2013-09-21T10:23:19Z</time>
      </trkpt>
      <trkpt lat="45.78932" lon="2.77721">
        <ele>891.76</ele>
        <time>2013-09-21T10:23:20Z</time>
      </trkpt>
      <trkpt lat="45.78872" lon="2.77624">
        <ele>893.2</ele>
        <time>2013-09-21T10:23:37Z</time>
      </trkpt>
      <trkpt lat="45.78856" lon="2.77606">
        <ele>893.68</ele>
        <time>2013-09-21T10:23:41Z</time>
      </trkpt>
      <trkpt lat="45.78816" lon="2.77568">
        <ele>895.12</ele>
        <time>2013-09-21T10:23:51Z</time>
      </trkpt>
      <trkpt lat="45.78813" lon="2.77563">
        <ele>895.12</ele>
        <time>2013-09-21T10:23:52Z</time>
      </trkpt>
      <trkpt lat="45.7881" lon="2.77558">
        <ele>895.61</ele>
        <time>2013-09-21T10:23:53Z</time>
      </trkpt>
      <trkpt lat="45.78809" lon="2.77552">
        <ele>895.12</ele>
        <time>2013-09-21T10:23:54Z</time>
      </trkpt>
      <trkpt lat="45.78808" lon="2.77546">
        <ele>896.09</ele>
        <time>2013-09-21T10:23:55Z</time>
      </trkpt>
      <trkpt lat="45.78807" lon="2.77541">
        <ele>896.57</ele>
        <time>2013-09-21T10:23:56Z</time>
      </trkpt>
      <trkpt lat="45.78806" lon="2.77536">
        <ele>896.09</ele>
        <time>2013-09-21T10:23:57Z</time>
      </trkpt>
      <trkpt lat="45.78804" lon="2.77533">
        <ele>896.57</ele>
        <time>2013-09-21T10:24:06Z</time>
      </trkpt>
      <trkpt lat="45.788" lon="2.77531">
        <ele>896.57</ele>
        <time>2013-09-21T10:24:32Z</time>
      </trkpt>
      <trkpt lat="45.78799" lon="2.7753">
        <ele>896.57</ele>
        <time>2013-09-21T10:24:33Z</time>
      </trkpt>
      <trkpt lat="45.78767" lon="2.77495">
        <ele>897.05</ele>
        <time>2013-09-21T10:24:45Z</time>
      </trkpt>
      <trkpt lat="45.78722" lon="2.77442">
        <ele>898.01</ele>
        <time>2013-09-21T10:25:01Z</time>
      </trkpt>
      <trkpt lat="45.78694" lon="2.77406">
        <ele>897.05</ele>
        <time>2013-09-21T10:25:12Z</time>
      </trkpt>
      <trkpt lat="45.78655" lon="2.77351">
        <ele>897.53</ele>
        <time>2013-09-21T10:25:26Z</time>
      </trkpt>
      <trkpt lat="45.78652" lon="2.77347">
        <ele>897.05</ele>
        <time>2013-09-21T10:25:27Z</time>
      </trkpt>
      <trkpt lat="45.78638" lon="2.77334">
        <ele>897.05</ele>
        <time>2013-09-21T10:25:31Z</time>
      </trkpt>
      <trkpt lat="45.78634" lon="2.77333">
        <ele>896.57</ele>
        <time>2013-09-21T10:25:32Z</time>
      </trkpt>
      <trkpt lat="45.78629" lon="2.77332">
        <ele>896.09</ele>
        <time>2013-09-21T10:25:33Z</time>
      </trkpt>
      <trkpt lat="45.78625" lon="2.77332">
        <ele>896.57</ele>
        <time>2013-09-21T10:25:34Z</time>
      </trkpt>
      <trkpt lat="45.7862" lon="2.77333">
        <ele>896.57</ele>
        <time>2013-09-21T10:25:35Z</time>
      </trkpt>
      <trkpt lat="45.78616" lon="2.77335">
        <ele>896.57</ele>
        <time>2013-09-21T10:25:36Z</time>
      </trkpt>
      <trkpt lat="45.78611" lon="2.77337">
        <ele>895.61</ele>
        <time>2013-09-21T10:25:37Z</time>
      </trkpt>
      <trkpt lat="45.78607" lon="2.77339">
        <ele>896.09</ele>
        <time>2013-09-21T10:25:38Z</time>
      </trkpt>
      <trkpt lat="45.78603" lon="2.77342">
        <ele>896.57</ele>
        <time>2013-09-21T10:25:39Z</time>
      </trkpt>
      <trkpt lat="45.78584" lon="2.77349">
        <ele>896.09</ele>
        <time>2013-09-21T10:25:44Z</time>
      </trkpt>
      <trkpt lat="45.78581" lon="2.77345">
        <ele>895.12</ele>
        <time>2013-09-21T10:25:45Z</time>
      </trkpt>
      <trkpt lat="45.78578" lon="2.7734">
        <ele>895.12</ele>
        <time>2013-09-21T10:25:46Z</time>
      </trkpt>
      <trkpt lat="45.78576" lon="2.77334">
        <ele>895.61</ele>
        <time>2013-09-21T10:25:47Z</time>
      </trkpt>
      <trkpt lat="45.78573" lon="2.77328">
        <ele>893.68</ele>
        <time>2013-09-21T10:25:48Z</time>
      </trkpt>
      <trkpt lat="45.78571" lon="2.77321">
        <ele>893.68</ele>
        <time>2013-09-21T10:25:49Z</time>
      </trkpt>
      <trkpt lat="45.78567" lon="2.77295">
        <ele>891.28</ele>
        <time>2013-09-21T10:25:52Z</time>
      </trkpt>
      <trkpt lat="45.78567" lon="2.77288">
        <ele>890.8</ele>
        <time>2013-09-21T10:25:53Z</time>
      </trkpt>
      <trkpt lat="45.78565" lon="2.77283">
        <ele>890.8</ele>
        <time>2013-09-21T10:25:54Z</time>
      </trkpt>
      <trkpt lat="45.78562" lon="2.77281">
        <ele>890.32</ele>
        <time>2013-09-21T10:25:55Z</time>
      </trkpt>
      <trkpt lat="45.78558" lon="2.77282">
        <ele>890.32</ele>
        <time>2013-09-21T10:25:56Z</time>
      </trkpt>
      <trkpt lat="45.78553" lon="2.77282">
        <ele>889.84</ele>
        <time>2013-09-21T10:25:57Z</time>
      </trkpt>
      <trkpt lat="45.78548" lon="2.77282">
        <ele>889.36</ele>
        <time>2013-09-21T10:25:58Z</time>
      </trkpt>
      <trkpt lat="45.78506" lon="2.77271">
        <ele>885.99</ele>
        <time>2013-09-21T10:26:04Z</time>
      </trkpt>
      <trkpt lat="45.78499" lon="2.77266">
        <ele>885.51</ele>
        <time>2013-09-21T10:26:05Z</time>
      </trkpt>
      <trkpt lat="45.78492" lon="2.7726">
        <ele>885.03</ele>
        <time>2013-09-21T10:26:06Z</time>
      </trkpt>
      <trkpt lat="45.78451" lon="2.77222">
        <ele>885.51</ele>
        <time>2013-09-21T10:26:13Z</time>
      </trkpt>
      <trkpt lat="45.78423" lon="2.77193">
        <ele>886.47</ele>
        <time>2013-09-21T10:26:20Z</time>
      </trkpt>
      <trkpt lat="45.78411" lon="2.77187">
        <ele>887.43</ele>
        <time>2013-09-21T10:26:23Z</time>
      </trkpt>
      <trkpt lat="45.78407" lon="2.77186">
        <ele>886.95</ele>
        <time>2013-09-21T10:26:24Z</time>
      </trkpt>
      <trkpt lat="45.78403" lon="2.77186">
        <ele>886.95</ele>
        <time>2013-09-21T10:26:25Z</time>
      </trkpt>
      <trkpt lat="45.78398" lon="2.77185">
        <ele>886.95</ele>
        <time>2013-09-21T10:26:26Z</time>
      </trkpt>
      <trkpt lat="45.78394" lon="2.77184">
        <ele>886.95</ele>
        <time>2013-09-21T10:26:27Z</time>
      </trkpt>
      <trkpt lat="45.78313" lon="2.77165">
        <ele>884.55</ele>
        <time>2013-09-21T10:26:42Z</time>
      </trkpt>
      <trkpt lat="45.78308" lon="2.77161">
        <ele>884.55</ele>
        <time>2013-09-21T10:26:43Z</time>
      </trkpt>
      <trkpt lat="45.78285" lon="2.77142">
        <ele>885.51</ele>
        <time>2013-09-21T10:26:48Z</time>
      </trkpt>
      <trkpt lat="45.78231" lon="2.77086">
        <ele>887.43</ele>
        <time>2013-09-21T10:27:01Z</time>
      </trkpt>
      <trkpt lat="45.78227" lon="2.77083">
        <ele>887.43</ele>
        <time>2013-09-21T10:27:02Z</time>
      </trkpt>
      <trkpt lat="45.78166" lon="2.77021">
        <ele>886.47</ele>
        <time>2013-09-21T10:27:16Z</time>
      </trkpt>
      <trkpt lat="45.7816" lon="2.77018">
        <ele>886.47</ele>
        <time>2013-09-21T10:27:17Z</time>
      </trkpt>
      <trkpt lat="45.78154" lon="2.77015">
        <ele>886.95</ele>
        <time>2013-09-21T10:27:18Z</time>
      </trkpt>
      <trkpt lat="45.7813" lon="2.77008">
        <ele>885.51</ele>
        <time>2013-09-21T10:27:22Z</time>
      </trkpt>
      <trkpt lat="45.78029" lon="2.76995">
        <ele>883.11</ele>
        <time>2013-09-21T10:27:38Z</time>
      </trkpt>
      <trkpt lat="45.7794" lon="2.76991">
        <ele>883.59</ele>
        <time>2013-09-21T10:27:53Z</time>
      </trkpt>
      <trkpt lat="45.77935" lon="2.76991">
        <ele>883.11</ele>
        <time>2013-09-21T10:27:54Z</time>
      </trkpt>
      <trkpt lat="45.77857" lon="2.76993">
        <ele>883.11</ele>
        <time>2013-09-21T10:28:08Z</time>
      </trkpt>
      <trkpt lat="45.77846" lon="2.76993">
        <ele>883.59</ele>
        <time>2013-09-21T10:28:10Z</time>
      </trkpt>
      <trkpt lat="45.77841" lon="2.7699">
        <ele>883.11</ele>
        <time>2013-09-21T10:28:11Z</time>
      </trkpt>
      <trkpt lat="45.77837" lon="2.76985">
        <ele>883.59</ele>
        <time>2013-09-21T10:28:12Z</time>
      </trkpt>
      <trkpt lat="45.77834" lon="2.76979">
        <ele>882.63</ele>
        <time>2013-09-21T10:28:13Z</time>
      </trkpt>
      <trkpt lat="45.77832" lon="2.76973">
        <ele>883.11</ele>
        <time>2013-09-21T10:28:14Z</time>
      </trkpt>
      <trkpt lat="45.7783" lon="2.76966">
        <ele>883.59</ele>
        <time>2013-09-21T10:28:15Z</time>
      </trkpt>
      <trkpt lat="45.77828" lon="2.76959">
        <ele>883.59</ele>
        <time>2013-09-21T10:28:16Z</time>
      </trkpt>
      <trkpt lat="45.77797" lon="2.76841">
        <ele>884.07</ele>
        <time>2013-09-21T10:28:34Z</time>
      </trkpt>
      <trkpt lat="45.77782" lon="2.76762">
        <ele>880.22</ele>
        <time>2013-09-21T10:28:43Z</time>
      </trkpt>
      <trkpt lat="45.7778" lon="2.7675">
        <ele>880.22</ele>
        <time>2013-09-21T10:28:44Z</time>
      </trkpt>
      <trkpt lat="45.77774" lon="2.76725">
        <ele>878.78</ele>
        <time>2013-09-21T10:28:46Z</time>
      </trkpt>
      <trkpt lat="45.77768" lon="2.76699">
        <ele>876.38</ele>
        <time>2013-09-21T10:28:48Z</time>
      </trkpt>
      <trkpt lat="45.7776" lon="2.76673">
        <ele>875.42</ele>
        <time>2013-09-21T10:28:50Z</time>
      </trkpt>
      <trkpt lat="45.77745" lon="2.76619">
        <ele>872.05</ele>
        <time>2013-09-21T10:28:54Z</time>
      </trkpt>
      <trkpt lat="45.77718" lon="2.76523">
        <ele>867.25</ele>
        <time>2013-09-21T10:29:01Z</time>
      </trkpt>
      <trkpt lat="45.77715" lon="2.7651">
        <ele>867.25</ele>
        <time>2013-09-21T10:29:02Z</time>
      </trkpt>
      <trkpt lat="45.77704" lon="2.7647">
        <ele>863.88</ele>
        <time>2013-09-21T10:29:05Z</time>
      </trkpt>
      <trkpt lat="45.77692" lon="2.76417">
        <ele>859.56</ele>
        <time>2013-09-21T10:29:09Z</time>
      </trkpt>
      <trkpt lat="45.77685" lon="2.76386">
        <ele>856.19</ele>
        <time>2013-09-21T10:29:11Z</time>
      </trkpt>
      <trkpt lat="45.7768" lon="2.76371">
        <ele>855.23</ele>
        <time>2013-09-21T10:29:12Z</time>
      </trkpt>
      <trkpt lat="45.77658" lon="2.76316">
        <ele>852.35</ele>
        <time>2013-09-21T10:29:16Z</time>
      </trkpt>
      <trkpt lat="45.77652" lon="2.76304">
        <ele>852.83</ele>
        <time>2013-09-21T10:29:17Z</time>
      </trkpt>
      <trkpt lat="45.77641" lon="2.76281">
        <ele>853.79</ele>
        <time>2013-09-21T10:29:19Z</time>
      </trkpt>
      <trkpt lat="45.77627" lon="2.7624">
        <ele>857.15</ele>
        <time>2013-09-21T10:29:23Z</time>
      </trkpt>
      <trkpt lat="45.77623" lon="2.76216">
        <ele>859.08</ele>
        <time>2013-09-21T10:29:26Z</time>
      </trkpt>
      <trkpt lat="45.77623" lon="2.76209">
        <ele>858.11</ele>
        <time>2013-09-21T10:29:27Z</time>
      </trkpt>
      <trkpt lat="45.77628" lon="2.76157">
        <ele>861.96</ele>
        <time>2013-09-21T10:29:39Z</time>
      </trkpt>
      <trkpt lat="45.77626" lon="2.76076">
        <ele>864.84</ele>
        <time>2013-09-21T10:30:00Z</time>
      </trkpt>
      <trkpt lat="45.77625" lon="2.75985">
        <ele>867.25</ele>
        <time>2013-09-21T10:30:25Z</time>
      </trkpt>
      <trkpt lat="45.77621" lon="2.75897">
        <ele>870.61</ele>
        <time>2013-09-21T10:30:47Z</time>
      </trkpt>
      <trkpt lat="45.77616" lon="2.75796">
        <ele>873.98</ele>
        <time>2013-09-21T10:31:11Z</time>
      </trkpt>
      <trkpt lat="45.77612" lon="2.75711">
        <ele>876.86</ele>
        <time>2013-09-21T10:31:32Z</time>
      </trkpt>
      <trkpt lat="45.77607" lon="2.75663">
        <ele>878.78</ele>
        <time>2013-09-21T10:31:46Z</time>
      </trkpt>
      <trkpt lat="45.77605" lon="2.75663">
        <ele>878.78</ele>
        <time>2013-09-21T10:31:47Z</time>
      </trkpt>
      <trkpt lat="45.77603" lon="2.75666">
        <ele>878.3</ele>
        <time>2013-09-21T10:31:48Z</time>
      </trkpt>
      <trkpt lat="45.776" lon="2.75669">
        <ele>878.3</ele>
        <time>2013-09-21T10:31:49Z</time>
      </trkpt>
      <trkpt lat="45.77598" lon="2.75673">
        <ele>877.82</ele>
        <time>2013-09-21T10:31:50Z</time>
      </trkpt>
      <trkpt lat="45.77565" lon="2.75728">
        <ele>874.46</ele>
        <time>2013-09-21T10:31:59Z</time>
      </trkpt>
      <trkpt lat="45.77561" lon="2.75735">
        <ele>874.46</ele>
        <time>2013-09-21T10:32:00Z</time>
      </trkpt>
      <trkpt lat="45.77552" lon="2.75749">
        <ele>873.01</ele>
        <time>2013-09-21T10:32:02Z</time>
      </trkpt>
      <trkpt lat="45.77479" lon="2.75854">
        <ele>870.13</ele>
        <time>2013-09-21T10:32:18Z</time>
      </trkpt>
      <trkpt lat="45.77474" lon="2.75856">
        <ele>871.09</ele>
        <time>2013-09-21T10:32:19Z</time>
      </trkpt>
      <trkpt lat="45.77468" lon="2.75857">
        <ele>870.13</ele>
        <time>2013-09-21T10:32:20Z</time>
      </trkpt>
      <trkpt lat="45.77462" lon="2.75857">
        <ele>869.65</ele>
        <time>2013-09-21T10:32:21Z</time>
      </trkpt>
      <trkpt lat="45.77456" lon="2.75855">
        <ele>870.13</ele>
        <time>2013-09-21T10:32:22Z</time>
      </trkpt>
      <trkpt lat="45.7745" lon="2.75851">
        <ele>870.61</ele>
        <time>2013-09-21T10:32:23Z</time>
      </trkpt>
      <trkpt lat="45.77445" lon="2.75845">
        <ele>869.65</ele>
        <time>2013-09-21T10:32:24Z</time>
      </trkpt>
      <trkpt lat="45.7744" lon="2.75838">
        <ele>869.65</ele>
        <time>2013-09-21T10:32:25Z</time>
      </trkpt>
      <trkpt lat="45.77437" lon="2.75831">
        <ele>869.65</ele>
        <time>2013-09-21T10:32:26Z</time>
      </trkpt>
      <trkpt lat="45.77434" lon="2.75824">
        <ele>870.13</ele>
        <time>2013-09-21T10:32:27Z</time>
      </trkpt>
      <trkpt lat="45.77433" lon="2.75815">
        <ele>869.65</ele>
        <time>2013-09-21T10:32:28Z</time>
      </trkpt>
      <trkpt lat="45.77433" lon="2.75806">
        <ele>869.65</ele>
        <time>2013-09-21T10:32:29Z</time>
      </trkpt>
      <trkpt lat="45.77432" lon="2.75798">
        <ele>869.65</ele>
        <time>2013-09-21T10:32:30Z</time>
      </trkpt>
      <trkpt lat="45.77415" lon="2.7568">
        <ele>868.21</ele>
        <time>2013-09-21T10:32:44Z</time>
      </trkpt>
      <trkpt lat="45.77405" lon="2.75571">
        <ele>867.73</ele>
        <time>2013-09-21T10:32:57Z</time>
      </trkpt>
      <trkpt lat="45.77404" lon="2.75564">
        <ele>868.21</ele>
        <time>2013-09-21T10:32:58Z</time>
      </trkpt>
      <trkpt lat="45.77401" lon="2.75558">
        <ele>867.73</ele>
        <time>2013-09-21T10:32:59Z</time>
      </trkpt>
      <trkpt lat="45.77397" lon="2.75556">
        <ele>868.69</ele>
        <time>2013-09-21T10:33:00Z</time>
      </trkpt>
      <trkpt lat="45.77392" lon="2.75556">
        <ele>867.73</ele>
        <time>2013-09-21T10:33:01Z</time>
      </trkpt>
      <trkpt lat="45.77386" lon="2.75559">
        <ele>867.25</ele>
        <time>2013-09-21T10:33:02Z</time>
      </trkpt>
      <trkpt lat="45.7738" lon="2.75563">
        <ele>865.8</ele>
        <time>2013-09-21T10:33:03Z</time>
      </trkpt>
      <trkpt lat="45.77367" lon="2.7557">
        <ele>864.84</ele>
        <time>2013-09-21T10:33:05Z</time>
      </trkpt>
      <trkpt lat="45.77296" lon="2.7561">
        <ele>861.48</ele>
        <time>2013-09-21T10:33:15Z</time>
      </trkpt>
      <trkpt lat="45.77206" lon="2.75668">
        <ele>859.08</ele>
        <time>2013-09-21T10:33:27Z</time>
      </trkpt>
      <trkpt lat="45.7718" lon="2.75687">
        <ele>858.11</ele>
        <time>2013-09-21T10:33:31Z</time>
      </trkpt>
      <trkpt lat="45.77175" lon="2.75693">
        <ele>858.11</ele>
        <time>2013-09-21T10:33:32Z</time>
      </trkpt>
      <trkpt lat="45.77172" lon="2.75702">
        <ele>857.63</ele>
        <time>2013-09-21T10:33:33Z</time>
      </trkpt>
      <trkpt lat="45.7717" lon="2.7571">
        <ele>857.63</ele>
        <time>2013-09-21T10:33:34Z</time>
      </trkpt>
      <trkpt lat="45.77168" lon="2.75719">
        <ele>858.11</ele>
        <time>2013-09-21T10:33:35Z</time>
      </trkpt>
      <trkpt lat="45.7714" lon="2.75842">
        <ele>854.27</ele>
        <time>2013-09-21T10:33:48Z</time>
      </trkpt>
      <trkpt lat="45.77137" lon="2.75853">
        <ele>854.27</ele>
        <time>2013-09-21T10:33:49Z</time>
      </trkpt>
      <trkpt lat="45.77131" lon="2.75874">
        <ele>854.27</ele>
        <time>2013-09-21T10:33:51Z</time>
      </trkpt>
      <trkpt lat="45.77127" lon="2.75883">
        <ele>853.31</ele>
        <time>2013-09-21T10:33:52Z</time>
      </trkpt>
      <trkpt lat="45.77121" lon="2.75891">
        <ele>853.79</ele>
        <time>2013-09-21T10:33:53Z</time>
      </trkpt>
      <trkpt lat="45.77116" lon="2.75898">
        <ele>853.79</ele>
        <time>2013-09-21T10:33:54Z</time>
      </trkpt>
      <trkpt lat="45.7711" lon="2.75904">
        <ele>853.79</ele>
        <time>2013-09-21T10:33:55Z</time>
      </trkpt>
      <trkpt lat="45.77103" lon="2.75906">
        <ele>854.75</ele>
        <time>2013-09-21T10:33:56Z</time>
      </trkpt>
      <trkpt lat="45.77096" lon="2.75905">
        <ele>854.27</ele>
        <time>2013-09-21T10:33:57Z</time>
      </trkpt>
      <trkpt lat="45.77091" lon="2.75901">
        <ele>854.75</ele>
        <time>2013-09-21T10:33:58Z</time>
      </trkpt>
      <trkpt lat="45.77086" lon="2.75894">
        <ele>854.75</ele>
        <time>2013-09-21T10:33:59Z</time>
      </trkpt>
      <trkpt lat="45.77082" lon="2.75888">
        <ele>854.27</ele>
        <time>2013-09-21T10:34:00Z</time>
      </trkpt>
      <trkpt lat="45.77076" lon="2.75882">
        <ele>854.27</ele>
        <time>2013-09-21T10:34:01Z</time>
      </trkpt>
      <trkpt lat="45.7707" lon="2.75878">
        <ele>854.27</ele>
        <time>2013-09-21T10:34:02Z</time>
      </trkpt>
      <trkpt lat="45.77064" lon="2.75875">
        <ele>854.27</ele>
        <time>2013-09-21T10:34:03Z</time>
      </trkpt>
      <trkpt lat="45.77057" lon="2.75875">
        <ele>854.27</ele>
        <time>2013-09-21T10:34:04Z</time>
      </trkpt>
      <trkpt lat="45.7705" lon="2.75875">
        <ele>853.79</ele>
        <time>2013-09-21T10:34:05Z</time>
      </trkpt>
      <trkpt lat="45.77043" lon="2.75877">
        <ele>853.79</ele>
        <time>2013-09-21T10:34:06Z</time>
      </trkpt>
      <trkpt lat="45.77036" lon="2.75879">
        <ele>853.79</ele>
        <time>2013-09-21T10:34:07Z</time>
      </trkpt>
      <trkpt lat="45.76956" lon="2.75905">
        <ele>853.31</ele>
        <time>2013-09-21T10:34:19Z</time>
      </trkpt>
      <trkpt lat="45.7695" lon="2.75908">
        <ele>853.31</ele>
        <time>2013-09-21T10:34:20Z</time>
      </trkpt>
      <trkpt lat="45.76944" lon="2.75911">
        <ele>852.35</ele>
        <time>2013-09-21T10:34:21Z</time>
      </trkpt>
      <trkpt lat="45.76891" lon="2.75959">
        <ele>852.35</ele>
        <time>2013-09-21T10:34:32Z</time>
      </trkpt>
      <trkpt lat="45.76879" lon="2.75976">
        <ele>852.83</ele>
        <time>2013-09-21T10:34:35Z</time>
      </trkpt>
      <trkpt lat="45.76875" lon="2.75983">
        <ele>852.83</ele>
        <time>2013-09-21T10:34:36Z</time>
      </trkpt>
      <trkpt lat="45.76871" lon="2.7599">
        <ele>852.83</ele>
        <time>2013-09-21T10:34:37Z</time>
      </trkpt>
      <trkpt lat="45.76828" lon="2.76056">
        <ele>854.75</ele>
        <time>2013-09-21T10:34:49Z</time>
      </trkpt>
      <trkpt lat="45.76824" lon="2.76057">
        <ele>854.75</ele>
        <time>2013-09-21T10:34:50Z</time>
      </trkpt>
      <trkpt lat="45.76819" lon="2.76055">
        <ele>854.27</ele>
        <time>2013-09-21T10:34:51Z</time>
      </trkpt>
      <trkpt lat="45.76815" lon="2.76051">
        <ele>853.79</ele>
        <time>2013-09-21T10:34:52Z</time>
      </trkpt>
      <trkpt lat="45.7681" lon="2.76048">
        <ele>853.79</ele>
        <time>2013-09-21T10:34:53Z</time>
      </trkpt>
      <trkpt lat="45.76733" lon="2.7598">
        <ele>850.42</ele>
        <time>2013-09-21T10:35:07Z</time>
      </trkpt>
      <trkpt lat="45.76728" lon="2.75973">
        <ele>850.42</ele>
        <time>2013-09-21T10:35:08Z</time>
      </trkpt>
      <trkpt lat="45.76724" lon="2.75966">
        <ele>850.42</ele>
        <time>2013-09-21T10:35:09Z</time>
      </trkpt>
      <trkpt lat="45.7672" lon="2.75958">
        <ele>849.94</ele>
        <time>2013-09-21T10:35:10Z</time>
      </trkpt>
      <trkpt lat="45.76716" lon="2.7595">
        <ele>849.46</ele>
        <time>2013-09-21T10:35:11Z</time>
      </trkpt>
      <trkpt lat="45.76714" lon="2.75941">
        <ele>850.42</ele>
        <time>2013-09-21T10:35:12Z</time>
      </trkpt>
      <trkpt lat="45.76713" lon="2.75932">
        <ele>848.98</ele>
        <time>2013-09-21T10:35:13Z</time>
      </trkpt>
      <trkpt lat="45.76712" lon="2.75924">
        <ele>849.94</ele>
        <time>2013-09-21T10:35:14Z</time>
      </trkpt>
      <trkpt lat="45.76711" lon="2.75908">
        <ele>849.94</ele>
        <time>2013-09-21T10:35:16Z</time>
      </trkpt>
      <trkpt lat="45.76713" lon="2.75821">
        <ele>850.9</ele>
        <time>2013-09-21T10:35:28Z</time>
      </trkpt>
      <trkpt lat="45.76711" lon="2.75814">
        <ele>850.42</ele>
        <time>2013-09-21T10:35:29Z</time>
      </trkpt>
      <trkpt lat="45.76708" lon="2.75809">
        <ele>850.42</ele>
        <time>2013-09-21T10:35:30Z</time>
      </trkpt>
      <trkpt lat="45.76704" lon="2.75805">
        <ele>849.94</ele>
        <time>2013-09-21T10:35:31Z</time>
      </trkpt>
      <trkpt lat="45.767" lon="2.75802">
        <ele>850.42</ele>
        <time>2013-09-21T10:35:32Z</time>
      </trkpt>
      <trkpt lat="45.76665" lon="2.75765">
        <ele>850.9</ele>
        <time>2013-09-21T10:35:44Z</time>
      </trkpt>
      <trkpt lat="45.76662" lon="2.75723">
        <ele>851.38</ele>
        <time>2013-09-21T10:35:56Z</time>
      </trkpt>
      <trkpt lat="45.76663" lon="2.75703">
        <ele>851.87</ele>
        <time>2013-09-21T10:36:03Z</time>
      </trkpt>
      <trkpt lat="45.76664" lon="2.75701">
        <ele>851.38</ele>
        <time>2013-09-21T10:36:04Z</time>
      </trkpt>
      <trkpt lat="45.76666" lon="2.75699">
        <ele>851.38</ele>
        <time>2013-09-21T10:36:05Z</time>
      </trkpt>
      <trkpt lat="45.76667" lon="2.75694">
        <ele>851.87</ele>
        <time>2013-09-21T10:36:07Z</time>
      </trkpt>
      <trkpt lat="45.76668" lon="2.75682">
        <ele>851.38</ele>
        <time>2013-09-21T10:36:17Z</time>
      </trkpt>
      <trkpt lat="45.76668" lon="2.75679">
        <ele>851.87</ele>
        <time>2013-09-21T10:36:24Z</time>
      </trkpt>
      <trkpt lat="45.76656" lon="2.75658">
        <ele>851.87</ele>
        <time>2013-09-21T10:36:34Z</time>
      </trkpt>
      <trkpt lat="45.76656" lon="2.75654">
        <ele>851.87</ele>
        <time>2013-09-21T10:36:45Z</time>
      </trkpt>
      <trkpt lat="45.76657" lon="2.75656">
        <ele>852.35</ele>
        <time>2013-09-21T10:36:58Z</time>
      </trkpt>
      <trkpt lat="45.76658" lon="2.75657">
        <ele>852.83</ele>
        <time>2013-09-21T10:37:23Z</time>
      </trkpt>
      <trkpt lat="45.76658" lon="2.7566">
        <ele>852.35</ele>
        <time>2013-09-21T10:37:41Z</time>
      </trkpt>
      <trkpt lat="45.76658" lon="2.75659">
        <ele>852.83</ele>
        <time>2013-09-21T10:37:56Z</time>
      </trkpt>
      <trkpt lat="45.76659" lon="2.75662">
        <ele>852.83</ele>
        <time>2013-09-21T10:38:05Z</time>
      </trkpt>
      <trkpt lat="45.76666" lon="2.75672">
        <ele>851.87</ele>
        <time>2013-09-21T10:38:17Z</time>
      </trkpt>
      <trkpt lat="45.76665" lon="2.75697">
        <ele>852.35</ele>
        <time>2013-09-21T10:38:31Z</time>
      </trkpt>
      <trkpt lat="45.76661" lon="2.75711">
        <ele>851.87</ele>
        <time>2013-09-21T10:38:44Z</time>
      </trkpt>
      <trkpt lat="45.76653" lon="2.75719">
        <ele>852.35</ele>
        <time>2013-09-21T10:39:00Z</time>
      </trkpt>
      <trkpt lat="45.7665" lon="2.75713">
        <ele>851.87</ele>
        <time>2013-09-21T10:39:22Z</time>
      </trkpt>
      <trkpt lat="45.76652" lon="2.75714">
        <ele>852.35</ele>
        <time>2013-09-21T10:39:42Z</time>
      </trkpt>
      <trkpt lat="45.76652" lon="2.75705">
        <ele>852.83</ele>
        <time>2013-09-21T10:40:01Z</time>
      </trkpt>
      <trkpt lat="45.76651" lon="2.75704">
        <ele>852.83</ele>
        <time>2013-09-21T10:40:21Z</time>
      </trkpt>
      <trkpt lat="45.76649" lon="2.75705">
        <ele>852.83</ele>
        <time>2013-09-21T10:40:53Z</time>
      </trkpt>
      <trkpt lat="45.7665" lon="2.75707">
        <ele>853.31</ele>
        <time>2013-09-21T10:41:16Z</time>
      </trkpt>
      <trkpt lat="45.76651" lon="2.75707">
        <ele>853.31</ele>
        <time>2013-09-21T10:41:36Z</time>
      </trkpt>
      <trkpt lat="45.76652" lon="2.75702">
        <ele>853.31</ele>
        <time>2013-09-21T10:41:53Z</time>
      </trkpt>
      <trkpt lat="45.76658" lon="2.75687">
        <ele>853.79</ele>
        <time>2013-09-21T10:42:11Z</time>
      </trkpt>
      <trkpt lat="45.7666" lon="2.75686">
        <ele>852.83</ele>
        <time>2013-09-21T10:42:34Z</time>
      </trkpt>
      <trkpt lat="45.76662" lon="2.75683">
        <ele>852.35</ele>
        <time>2013-09-21T10:42:52Z</time>
      </trkpt>
      <trkpt lat="45.76659" lon="2.75682">
        <ele>853.31</ele>
        <time>2013-09-21T10:43:19Z</time>
      </trkpt>
      <trkpt lat="45.76659" lon="2.75682">
        <ele>852.35</ele>
        <time>2013-09-21T10:43:40Z</time>
      </trkpt>
      <trkpt lat="45.76658" lon="2.75681">
        <ele>852.83</ele>
        <time>2013-09-21T10:44:11Z</time>
      </trkpt>
      <trkpt lat="45.76655" lon="2.75681">
        <ele>852.83</ele>
        <time>2013-09-21T10:44:41Z</time>
      </trkpt>
      <trkpt lat="45.76654" lon="2.75676">
        <ele>852.83</ele>
        <time>2013-09-21T10:45:13Z</time>
      </trkpt>
      <trkpt lat="45.7666" lon="2.75679">
        <ele>853.79</ele>
        <time>2013-09-21T10:45:48Z</time>
      </trkpt>
      <trkpt lat="45.76658" lon="2.75679">
        <ele>852.83</ele>
        <time>2013-09-21T10:46:21Z</time>
      </trkpt>
      <trkpt lat="45.76656" lon="2.75678">
        <ele>852.83</ele>
        <time>2013-09-21T10:46:53Z</time>
      </trkpt>
      <trkpt lat="45.76657" lon="2.75681">
        <ele>852.83</ele>
        <time>2013-09-21T10:47:25Z</time>
      </trkpt>
      <trkpt lat="45.76659" lon="2.75679">
        <ele>852.83</ele>
        <time>2013-09-21T10:47:57Z</time>
      </trkpt>
      <trkpt lat="45.76664" lon="2.75678">
        <ele>853.31</ele>
        <time>2013-09-21T10:48:29Z</time>
      </trkpt>
      <trkpt lat="45.76662" lon="2.75678">
        <ele>853.31</ele>
        <time>2013-09-21T10:49:02Z</time>
      </trkpt>
      <trkpt lat="45.76662" lon="2.75678">
        <ele>852.83</ele>
        <time>2013-09-21T10:49:34Z</time>
      </trkpt>
      <trkpt lat="45.76668" lon="2.75682">
        <ele>853.79</ele>
        <time>2013-09-21T10:50:10Z</time>
      </trkpt>
      <trkpt lat="45.76661" lon="2.75685">
        <ele>853.79</ele>
        <time>2013-09-21T10:50:49Z</time>
      </trkpt>
      <trkpt lat="45.76657" lon="2.75685">
        <ele>854.75</ele>
        <time>2013-09-21T10:51:24Z</time>
      </trkpt>
      <trkpt lat="45.76655" lon="2.75686">
        <ele>854.27</ele>
        <time>2013-09-21T10:51:55Z</time>
      </trkpt>
      <trkpt lat="45.76659" lon="2.75685">
        <ele>854.75</ele>
        <time>2013-09-21T10:52:27Z</time>
      </trkpt>
      <trkpt lat="45.76656" lon="2.7568">
        <ele>854.27</ele>
        <time>2013-09-21T10:53:03Z</time>
      </trkpt>
      <trkpt lat="45.76658" lon="2.75683">
        <ele>854.75</ele>
        <time>2013-09-21T10:53:40Z</time>
      </trkpt>
      <trkpt lat="45.76659" lon="2.75686">
        <ele>854.75</ele>
        <time>2013-09-21T10:54:15Z</time>
      </trkpt>
      <trkpt lat="45.76654" lon="2.75682">
        <ele>853.79</ele>
        <time>2013-09-21T10:54:48Z</time>
      </trkpt>
      <trkpt lat="45.76653" lon="2.75685">
        <ele>853.79</ele>
        <time>2013-09-21T10:55:18Z</time>
      </trkpt>
      <trkpt lat="45.76655" lon="2.75685">
        <ele>854.27</ele>
        <time>2013-09-21T10:55:53Z</time>
      </trkpt>
      <trkpt lat="45.76655" lon="2.75683">
        <ele>854.27</ele>
        <time>2013-09-21T10:56:32Z</time>
      </trkpt>
      <trkpt lat="45.76652" lon="2.75689">
        <ele>854.75</ele>
        <time>2013-09-21T10:57:07Z</time>
      </trkpt>
      <trkpt lat="45.76656" lon="2.75683">
        <ele>854.75</ele>
        <time>2013-09-21T10:57:47Z</time>
      </trkpt>
      <trkpt lat="45.76657" lon="2.75681">
        <ele>854.75</ele>
        <time>2013-09-21T10:58:27Z</time>
      </trkpt>
      <trkpt lat="45.76656" lon="2.75684">
        <ele>854.27</ele>
        <time>2013-09-21T10:59:03Z</time>
      </trkpt>
      <trkpt lat="45.76655" lon="2.75676">
        <ele>854.75</ele>
        <time>2013-09-21T10:59:36Z</time>
      </trkpt>
      <trkpt lat="45.76658" lon="2.75678">
        <ele>854.75</ele>
        <time>2013-09-21T11:00:07Z</time>
      </trkpt>
      <trkpt lat="45.76655" lon="2.75683">
        <ele>854.75</ele>
        <time>2013-09-21T11:00:35Z</time>
      </trkpt>
      <trkpt lat="45.76655" lon="2.75682">
        <ele>854.75</ele>
        <time>2013-09-21T11:01:07Z</time>
      </trkpt>
      <trkpt lat="45.76655" lon="2.75686">
        <ele>854.27</ele>
        <time>2013-09-21T11:01:50Z</time>
      </trkpt>
      <trkpt lat="45.76653" lon="2.75685">
        <ele>854.27</ele>
        <time>2013-09-21T11:02:26Z</time>
      </trkpt>
      <trkpt lat="45.76653" lon="2.75686">
        <ele>853.79</ele>
        <time>2013-09-21T11:03:04Z</time>
      </trkpt>
      <trkpt lat="45.76654" lon="2.75683">
        <ele>853.79</ele>
        <time>2013-09-21T11:03:39Z</time>
      </trkpt>
      <trkpt lat="45.76654" lon="2.75685">
        <ele>854.27</ele>
        <time>2013-09-21T11:04:12Z</time>
      </trkpt>
      <trkpt lat="45.76652" lon="2.75687">
        <ele>854.27</ele>
        <time>2013-09-21T11:04:46Z</time>
      </trkpt>
      <trkpt lat="45.76648" lon="2.75681">
        <ele>853.31</ele>
        <time>2013-09-21T11:05:24Z</time>
      </trkpt>
      <trkpt lat="45.76652" lon="2.75681">
        <ele>853.31</ele>
        <time>2013-09-21T11:06:06Z</time>
      </trkpt>
      <trkpt lat="45.76653" lon="2.75687">
        <ele>852.83</ele>
        <time>2013-09-21T11:06:36Z</time>
      </trkpt>
      <trkpt lat="45.76649" lon="2.75683">
        <ele>852.83</ele>
        <time>2013-09-21T11:07:09Z</time>
      </trkpt>
      <trkpt lat="45.76649" lon="2.75685">
        <ele>852.83</ele>
        <time>2013-09-21T11:07:46Z</time>
      </trkpt>
      <trkpt lat="45.7665" lon="2.75687">
        <ele>852.83</ele>
        <time>2013-09-21T11:08:20Z</time>
      </trkpt>
      <trkpt lat="45.7665" lon="2.75687">
        <ele>853.31</ele>
        <time>2013-09-21T11:08:54Z</time>
      </trkpt>
      <trkpt lat="45.76652" lon="2.75691">
        <ele>853.31</ele>
        <time>2013-09-21T11:09:25Z</time>
      </trkpt>
      <trkpt lat="45.7665" lon="2.75687">
        <ele>853.31</ele>
        <time>2013-09-21T11:09:59Z</time>
      </trkpt>
      <trkpt lat="45.76649" lon="2.75688">
        <ele>852.83</ele>
        <time>2013-09-21T11:10:42Z</time>
      </trkpt>
      <trkpt lat="45.76653" lon="2.75688">
        <ele>852.83</ele>
        <time>2013-09-21T11:11:11Z</time>
      </trkpt>
      <trkpt lat="45.76656" lon="2.75688">
        <ele>852.83</ele>
        <time>2013-09-21T11:11:46Z</time>
      </trkpt>
      <trkpt lat="45.76657" lon="2.75687">
        <ele>852.83</ele>
        <time>2013-09-21T11:12:19Z</time>
      </trkpt>
      <trkpt lat="45.76654" lon="2.75684">
        <ele>853.31</ele>
        <time>2013-09-21T11:12:49Z</time>
      </trkpt>
      <trkpt lat="45.76648" lon="2.75681">
        <ele>853.79</ele>
        <time>2013-09-21T11:13:20Z</time>
      </trkpt>
      <trkpt lat="45.76648" lon="2.75682">
        <ele>852.83</ele>
        <time>2013-09-21T11:13:31Z</time>
      </trkpt>
      <trkpt lat="45.7665" lon="2.7568">
        <ele>854.27</ele>
        <time>2013-09-21T11:13:56Z</time>
      </trkpt>
      <trkpt lat="45.76653" lon="2.75683">
        <ele>853.79</ele>
        <time>2013-09-21T11:14:17Z</time>
      </trkpt>
      <trkpt lat="45.76656" lon="2.75681">
        <ele>853.79</ele>
        <time>2013-09-21T11:14:34Z</time>
      </trkpt>
      <trkpt lat="45.76655" lon="2.75685">
        <ele>853.79</ele>
        <time>2013-09-21T11:14:49Z</time>
      </trkpt>
      <trkpt lat="45.76655" lon="2.7569">
        <ele>853.79</ele>
        <time>2013-09-21T11:15:09Z</time>
      </trkpt>
      <trkpt lat="45.76656" lon="2.7569">
        <ele>854.27</ele>
        <time>2013-09-21T11:15:31Z</time>
      </trkpt>
      <trkpt lat="45.7666" lon="2.75699">
        <ele>853.79</ele>
        <time>2013-09-21T11:15:46Z</time>
      </trkpt>
      <trkpt lat="45.7666" lon="2.75694">
        <ele>853.79</ele>
        <time>2013-09-21T11:16:00Z</time>
      </trkpt>
      <trkpt lat="45.76663" lon="2.75698">
        <ele>854.27</ele>
        <time>2013-09-21T11:16:17Z</time>
      </trkpt>
      <trkpt lat="45.76667" lon="2.75695">
        <ele>853.79</ele>
        <time>2013-09-21T11:16:42Z</time>
      </trkpt>
      <trkpt lat="45.76667" lon="2.75694">
        <ele>854.27</ele>
        <time>2013-09-21T11:17:08Z</time>
      </trkpt>
      <trkpt lat="45.76664" lon="2.75693">
        <ele>854.27</ele>
        <time>2013-09-21T11:17:25Z</time>
      </trkpt>
      <trkpt lat="45.76664" lon="2.75692">
        <ele>854.75</ele>
        <time>2013-09-21T11:17:39Z</time>
      </trkpt>
      <trkpt lat="45.76667" lon="2.75684">
        <ele>854.75</ele>
        <time>2013-09-21T11:17:54Z</time>
      </trkpt>
      <trkpt lat="45.76667" lon="2.75676">
        <ele>854.75</ele>
        <time>2013-09-21T11:18:06Z</time>
      </trkpt>
      <trkpt lat="45.76664" lon="2.75663">
        <ele>855.71</ele>
        <time>2013-09-21T11:18:21Z</time>
      </trkpt>
      <trkpt lat="45.76664" lon="2.75656">
        <ele>855.71</ele>
        <time>2013-09-21T11:18:33Z</time>
      </trkpt>
      <trkpt lat="45.76658" lon="2.7565">
        <ele>855.71</ele>
        <time>2013-09-21T11:18:46Z</time>
      </trkpt>
      <trkpt lat="45.76659" lon="2.75653">
        <ele>855.23</ele>
        <time>2013-09-21T11:19:03Z</time>
      </trkpt>
      <trkpt lat="45.76659" lon="2.75651">
        <ele>855.71</ele>
        <time>2013-09-21T11:19:32Z</time>
      </trkpt>
      <trkpt lat="45.76657" lon="2.75654">
        <ele>855.23</ele>
        <time>2013-09-21T11:20:02Z</time>
      </trkpt>
      <trkpt lat="45.7666" lon="2.75653">
        <ele>855.71</ele>
        <time>2013-09-21T11:20:27Z</time>
      </trkpt>
      <trkpt lat="45.76657" lon="2.7565">
        <ele>855.23</ele>
        <time>2013-09-21T11:21:15Z</time>
      </trkpt>
      <trkpt lat="45.76657" lon="2.75653">
        <ele>854.75</ele>
        <time>2013-09-21T11:21:51Z</time>
      </trkpt>
      <trkpt lat="45.76658" lon="2.75655">
        <ele>854.75</ele>
        <time>2013-09-21T11:22:43Z</time>
      </trkpt>
      <trkpt lat="45.76657" lon="2.75654">
        <ele>854.75</ele>
        <time>2013-09-21T11:23:41Z</time>
      </trkpt>
      <trkpt lat="45.76657" lon="2.75654">
        <ele>854.75</ele>
        <time>2013-09-21T11:24:32Z</time>
      </trkpt>
      <trkpt lat="45.76656" lon="2.75654">
        <ele>854.27</ele>
        <time>2013-09-21T11:25:17Z</time>
      </trkpt>
      <trkpt lat="45.76655" lon="2.75652">
        <ele>854.75</ele>
        <time>2013-09-21T11:25:52Z</time>
      </trkpt>
      <trkpt lat="45.76657" lon="2.75654">
        <ele>854.75</ele>
        <time>2013-09-21T11:26:21Z</time>
      </trkpt>
      <trkpt lat="45.76656" lon="2.75651">
        <ele>854.75</ele>
        <time>2013-09-21T11:26:33Z</time>
      </trkpt>
      <trkpt lat="45.76656" lon="2.7565">
        <ele>854.75</ele>
        <time>2013-09-21T11:26:53Z</time>
      </trkpt>
      <trkpt lat="45.76658" lon="2.7565">
        <ele>851.87</ele>
        <time>2013-09-21T11:27:26Z</time>
      </trkpt>
      <trkpt lat="45.76658" lon="2.7565">
        <ele>854.75</ele>
        <time>2013-09-21T11:27:27Z</time>
      </trkpt>
      <trkpt lat="45.76657" lon="2.75652">
        <ele>854.27</ele>
        <time>2013-09-21T11:27:59Z</time>
      </trkpt>
      <trkpt lat="45.76659" lon="2.7565">
        <ele>854.75</ele>
        <time>2013-09-21T11:28:19Z</time>
      </trkpt>
      <trkpt lat="45.76665" lon="2.75644">
        <ele>854.27</ele>
        <time>2013-09-21T11:28:26Z</time>
      </trkpt>
      <trkpt lat="45.76671" lon="2.7565">
        <ele>854.27</ele>
        <time>2013-09-21T11:28:36Z</time>
      </trkpt>
      <trkpt lat="45.76672" lon="2.75672">
        <ele>854.27</ele>
        <time>2013-09-21T11:28:47Z</time>
      </trkpt>
      <trkpt lat="45.76674" lon="2.75683">
        <ele>854.75</ele>
        <time>2013-09-21T11:29:00Z</time>
      </trkpt>
      <trkpt lat="45.76673" lon="2.75685">
        <ele>853.79</ele>
        <time>2013-09-21T11:29:06Z</time>
      </trkpt>
      <trkpt lat="45.76665" lon="2.75696">
        <ele>853.31</ele>
        <time>2013-09-21T11:29:17Z</time>
      </trkpt>
      <trkpt lat="45.76664" lon="2.757">
        <ele>853.79</ele>
        <time>2013-09-21T11:29:19Z</time>
      </trkpt>
      <trkpt lat="45.76668" lon="2.75712">
        <ele>854.27</ele>
        <time>2013-09-21T11:29:29Z</time>
      </trkpt>
      <trkpt lat="45.76665" lon="2.75715">
        <ele>854.75</ele>
        <time>2013-09-21T11:29:36Z</time>
      </trkpt>
      <trkpt lat="45.76659" lon="2.75724">
        <ele>853.79</ele>
        <time>2013-09-21T11:29:46Z</time>
      </trkpt>
      <trkpt lat="45.76662" lon="2.75732">
        <ele>853.31</ele>
        <time>2013-09-21T11:29:50Z</time>
      </trkpt>
      <trkpt lat="45.76667" lon="2.75748">
        <ele>853.31</ele>
        <time>2013-09-21T11:29:56Z</time>
      </trkpt>
      <trkpt lat="45.76657" lon="2.75754">
        <ele>853.31</ele>
        <time>2013-09-21T11:30:07Z</time>
      </trkpt>
      <trkpt lat="45.76652" lon="2.7575">
        <ele>853.31</ele>
        <time>2013-09-21T11:30:10Z</time>
      </trkpt>
      <trkpt lat="45.7665" lon="2.75748">
        <ele>852.83</ele>
        <time>2013-09-21T11:30:11Z</time>
      </trkpt>
      <trkpt lat="45.76649" lon="2.75747">
        <ele>853.31</ele>
        <time>2013-09-21T11:30:12Z</time>
      </trkpt>
      <trkpt lat="45.76647" lon="2.75746">
        <ele>853.31</ele>
        <time>2013-09-21T11:30:13Z</time>
      </trkpt>
      <trkpt lat="45.76646" lon="2.75744">
        <ele>852.83</ele>
        <time>2013-09-21T11:30:14Z</time>
      </trkpt>
      <trkpt lat="45.76644" lon="2.75743">
        <ele>852.83</ele>
        <time>2013-09-21T11:30:15Z</time>
      </trkpt>
      <trkpt lat="45.76642" lon="2.75742">
        <ele>853.31</ele>
        <time>2013-09-21T11:30:16Z</time>
      </trkpt>
      <trkpt lat="45.7664" lon="2.75741">
        <ele>853.31</ele>
        <time>2013-09-21T11:30:17Z</time>
      </trkpt>
      <trkpt lat="45.76639" lon="2.75739">
        <ele>853.31</ele>
        <time>2013-09-21T11:30:18Z</time>
      </trkpt>
      <trkpt lat="45.76605" lon="2.75703">
        <ele>852.83</ele>
        <time>2013-09-21T11:30:33Z</time>
      </trkpt>
      <trkpt lat="45.76594" lon="2.75693">
        <ele>852.83</ele>
        <time>2013-09-21T11:30:37Z</time>
      </trkpt>
      <trkpt lat="45.76591" lon="2.75694">
        <ele>853.79</ele>
        <time>2013-09-21T11:30:38Z</time>
      </trkpt>
      <trkpt lat="45.76588" lon="2.75696">
        <ele>853.79</ele>
        <time>2013-09-21T11:30:39Z</time>
      </trkpt>
      <trkpt lat="45.76586" lon="2.75699">
        <ele>852.83</ele>
        <time>2013-09-21T11:30:40Z</time>
      </trkpt>
      <trkpt lat="45.76584" lon="2.75703">
        <ele>852.83</ele>
        <time>2013-09-21T11:30:41Z</time>
      </trkpt>
      <trkpt lat="45.76582" lon="2.75707">
        <ele>852.83</ele>
        <time>2013-09-21T11:30:42Z</time>
      </trkpt>
      <trkpt lat="45.76582" lon="2.75759">
        <ele>852.83</ele>
        <time>2013-09-21T11:30:53Z</time>
      </trkpt>
      <trkpt lat="45.76586" lon="2.75819">
        <ele>852.35</ele>
        <time>2013-09-21T11:31:06Z</time>
      </trkpt>
      <trkpt lat="45.7658" lon="2.75888">
        <ele>853.31</ele>
        <time>2013-09-21T11:31:21Z</time>
      </trkpt>
      <trkpt lat="45.76563" lon="2.75959">
        <ele>854.75</ele>
        <time>2013-09-21T11:31:38Z</time>
      </trkpt>
      <trkpt lat="45.76548" lon="2.76056">
        <ele>852.83</ele>
        <time>2013-09-21T11:31:57Z</time>
      </trkpt>
      <trkpt lat="45.76544" lon="2.76065">
        <ele>853.31</ele>
        <time>2013-09-21T11:31:59Z</time>
      </trkpt>
      <trkpt lat="45.7654" lon="2.76067">
        <ele>852.83</ele>
        <time>2013-09-21T11:32:00Z</time>
      </trkpt>
      <trkpt lat="45.76536" lon="2.76067">
        <ele>853.31</ele>
        <time>2013-09-21T11:32:01Z</time>
      </trkpt>
      <trkpt lat="45.76533" lon="2.76067">
        <ele>853.31</ele>
        <time>2013-09-21T11:32:02Z</time>
      </trkpt>
      <trkpt lat="45.76529" lon="2.76066">
        <ele>853.79</ele>
        <time>2013-09-21T11:32:03Z</time>
      </trkpt>
      <trkpt lat="45.76526" lon="2.76065">
        <ele>853.79</ele>
        <time>2013-09-21T11:32:04Z</time>
      </trkpt>
      <trkpt lat="45.7648" lon="2.76056">
        <ele>856.67</ele>
        <time>2013-09-21T11:32:19Z</time>
      </trkpt>
      <trkpt lat="45.76437" lon="2.76048">
        <ele>859.56</ele>
        <time>2013-09-21T11:32:36Z</time>
      </trkpt>
      <trkpt lat="45.76393" lon="2.76039">
        <ele>861</ele>
        <time>2013-09-21T11:32:53Z</time>
      </trkpt>
      <trkpt lat="45.7633" lon="2.76027">
        <ele>861.96</ele>
        <time>2013-09-21T11:33:12Z</time>
      </trkpt>
      <trkpt lat="45.76285" lon="2.76019">
        <ele>861.96</ele>
        <time>2013-09-21T11:33:26Z</time>
      </trkpt>
      <trkpt lat="45.76236" lon="2.7601">
        <ele>862.44</ele>
        <time>2013-09-21T11:33:40Z</time>
      </trkpt>
      <trkpt lat="45.76174" lon="2.75997">
        <ele>861.96</ele>
        <time>2013-09-21T11:33:55Z</time>
      </trkpt>
      <trkpt lat="45.76113" lon="2.75976">
        <ele>863.88</ele>
        <time>2013-09-21T11:34:11Z</time>
      </trkpt>
      <trkpt lat="45.76062" lon="2.75891">
        <ele>861.48</ele>
        <time>2013-09-21T11:34:28Z</time>
      </trkpt>
      <trkpt lat="45.76024" lon="2.75828">
        <ele>863.4</ele>
        <time>2013-09-21T11:34:42Z</time>
      </trkpt>
      <trkpt lat="45.75981" lon="2.75758">
        <ele>864.36</ele>
        <time>2013-09-21T11:34:59Z</time>
      </trkpt>
      <trkpt lat="45.75959" lon="2.7572">
        <ele>863.4</ele>
        <time>2013-09-21T11:35:08Z</time>
      </trkpt>
      <trkpt lat="45.75918" lon="2.75656">
        <ele>861.48</ele>
        <time>2013-09-21T11:35:21Z</time>
      </trkpt>
      <trkpt lat="45.75914" lon="2.75649">
        <ele>861</ele>
        <time>2013-09-21T11:35:22Z</time>
      </trkpt>
      <trkpt lat="45.75857" lon="2.75556">
        <ele>859.56</ele>
        <time>2013-09-21T11:35:37Z</time>
      </trkpt>
      <trkpt lat="45.75854" lon="2.7555">
        <ele>859.56</ele>
        <time>2013-09-21T11:35:38Z</time>
      </trkpt>
      <trkpt lat="45.75829" lon="2.75511">
        <ele>862.44</ele>
        <time>2013-09-21T11:35:46Z</time>
      </trkpt>
      <trkpt lat="45.75806" lon="2.75472">
        <ele>863.4</ele>
        <time>2013-09-21T11:35:56Z</time>
      </trkpt>
      <trkpt lat="45.75803" lon="2.75467">
        <ele>863.4</ele>
        <time>2013-09-21T11:35:57Z</time>
      </trkpt>
      <trkpt lat="45.75796" lon="2.7546">
        <ele>862.92</ele>
        <time>2013-09-21T11:35:59Z</time>
      </trkpt>
      <trkpt lat="45.75793" lon="2.75456">
        <ele>862.92</ele>
        <time>2013-09-21T11:36:00Z</time>
      </trkpt>
      <trkpt lat="45.7579" lon="2.75451">
        <ele>862.92</ele>
        <time>2013-09-21T11:36:01Z</time>
      </trkpt>
      <trkpt lat="45.75787" lon="2.75446">
        <ele>863.4</ele>
        <time>2013-09-21T11:36:02Z</time>
      </trkpt>
      <trkpt lat="45.75784" lon="2.75441">
        <ele>862.92</ele>
        <time>2013-09-21T11:36:03Z</time>
      </trkpt>
      <trkpt lat="45.75782" lon="2.75436">
        <ele>862.92</ele>
        <time>2013-09-21T11:36:04Z</time>
      </trkpt>
      <trkpt lat="45.75776" lon="2.75426">
        <ele>863.4</ele>
        <time>2013-09-21T11:36:06Z</time>
      </trkpt>
      <trkpt lat="45.75761" lon="2.75406">
        <ele>863.4</ele>
        <time>2013-09-21T11:36:11Z</time>
      </trkpt>
      <trkpt lat="45.75755" lon="2.75396">
        <ele>863.4</ele>
        <time>2013-09-21T11:36:13Z</time>
      </trkpt>
      <trkpt lat="45.75753" lon="2.75391">
        <ele>863.4</ele>
        <time>2013-09-21T11:36:14Z</time>
      </trkpt>
      <trkpt lat="45.7575" lon="2.75386">
        <ele>863.4</ele>
        <time>2013-09-21T11:36:15Z</time>
      </trkpt>
      <trkpt lat="45.75747" lon="2.75382">
        <ele>862.92</ele>
        <time>2013-09-21T11:36:16Z</time>
      </trkpt>
      <trkpt lat="45.75744" lon="2.75378">
        <ele>862.92</ele>
        <time>2013-09-21T11:36:17Z</time>
      </trkpt>
      <trkpt lat="45.75705" lon="2.75311">
        <ele>865.8</ele>
        <time>2013-09-21T11:36:34Z</time>
      </trkpt>
      <trkpt lat="45.75686" lon="2.7528">
        <ele>868.69</ele>
        <time>2013-09-21T11:36:48Z</time>
      </trkpt>
      <trkpt lat="45.75684" lon="2.75277">
        <ele>869.17</ele>
        <time>2013-09-21T11:36:50Z</time>
      </trkpt>
      <trkpt lat="45.75683" lon="2.75276">
        <ele>869.17</ele>
        <time>2013-09-21T11:36:51Z</time>
      </trkpt>
      <trkpt lat="45.75682" lon="2.75274">
        <ele>869.17</ele>
        <time>2013-09-21T11:36:52Z</time>
      </trkpt>
      <trkpt lat="45.75681" lon="2.75273">
        <ele>869.65</ele>
        <time>2013-09-21T11:36:53Z</time>
      </trkpt>
      <trkpt lat="45.7568" lon="2.75271">
        <ele>870.13</ele>
        <time>2013-09-21T11:36:54Z</time>
      </trkpt>
      <trkpt lat="45.75679" lon="2.7527">
        <ele>870.13</ele>
        <time>2013-09-21T11:36:55Z</time>
      </trkpt>
      <trkpt lat="45.75678" lon="2.75269">
        <ele>870.13</ele>
        <time>2013-09-21T11:36:56Z</time>
      </trkpt>
      <trkpt lat="45.75661" lon="2.75239">
        <ele>871.57</ele>
        <time>2013-09-21T11:37:13Z</time>
      </trkpt>
      <trkpt lat="45.75644" lon="2.7521">
        <ele>873.98</ele>
        <time>2013-09-21T11:37:30Z</time>
      </trkpt>
      <trkpt lat="45.75642" lon="2.75204">
        <ele>874.46</ele>
        <time>2013-09-21T11:37:33Z</time>
      </trkpt>
      <trkpt lat="45.7564" lon="2.75197">
        <ele>875.42</ele>
        <time>2013-09-21T11:37:37Z</time>
      </trkpt>
      <trkpt lat="45.75639" lon="2.75194">
        <ele>875.42</ele>
        <time>2013-09-21T11:37:38Z</time>
      </trkpt>
      <trkpt lat="45.75639" lon="2.75192">
        <ele>875.9</ele>
        <time>2013-09-21T11:37:39Z</time>
      </trkpt>
      <trkpt lat="45.75638" lon="2.7519">
        <ele>874.94</ele>
        <time>2013-09-21T11:37:40Z</time>
      </trkpt>
      <trkpt lat="45.75637" lon="2.75188">
        <ele>875.9</ele>
        <time>2013-09-21T11:37:41Z</time>
      </trkpt>
      <trkpt lat="45.75634" lon="2.75181">
        <ele>876.86</ele>
        <time>2013-09-21T11:37:45Z</time>
      </trkpt>
      <trkpt lat="45.75633" lon="2.75179">
        <ele>876.86</ele>
        <time>2013-09-21T11:37:46Z</time>
      </trkpt>
      <trkpt lat="45.75622" lon="2.75146">
        <ele>880.71</ele>
        <time>2013-09-21T11:38:02Z</time>
      </trkpt>
      <trkpt lat="45.7561" lon="2.75109">
        <ele>883.59</ele>
        <time>2013-09-21T11:38:21Z</time>
      </trkpt>
      <trkpt lat="45.75601" lon="2.75078">
        <ele>886.47</ele>
        <time>2013-09-21T11:38:36Z</time>
      </trkpt>
      <trkpt lat="45.75579" lon="2.75034">
        <ele>886.47</ele>
        <time>2013-09-21T11:38:53Z</time>
      </trkpt>
      <trkpt lat="45.75551" lon="2.74983">
        <ele>886.47</ele>
        <time>2013-09-21T11:39:09Z</time>
      </trkpt>
      <trkpt lat="45.75515" lon="2.74915">
        <ele>886.47</ele>
        <time>2013-09-21T11:39:28Z</time>
      </trkpt>
      <trkpt lat="45.75492" lon="2.74846">
        <ele>886.47</ele>
        <time>2013-09-21T11:39:43Z</time>
      </trkpt>
      <trkpt lat="45.75484" lon="2.74805">
        <ele>885.99</ele>
        <time>2013-09-21T11:39:49Z</time>
      </trkpt>
      <trkpt lat="45.75479" lon="2.74785">
        <ele>886.47</ele>
        <time>2013-09-21T11:39:52Z</time>
      </trkpt>
      <trkpt lat="45.75477" lon="2.74778">
        <ele>886.47</ele>
        <time>2013-09-21T11:39:53Z</time>
      </trkpt>
      <trkpt lat="45.75475" lon="2.74772">
        <ele>885.99</ele>
        <time>2013-09-21T11:39:54Z</time>
      </trkpt>
      <trkpt lat="45.75472" lon="2.74766">
        <ele>886.47</ele>
        <time>2013-09-21T11:39:55Z</time>
      </trkpt>
      <trkpt lat="45.75469" lon="2.74763">
        <ele>885.99</ele>
        <time>2013-09-21T11:39:56Z</time>
      </trkpt>
      <trkpt lat="45.75465" lon="2.74762">
        <ele>886.95</ele>
        <time>2013-09-21T11:39:57Z</time>
      </trkpt>
      <trkpt lat="45.75462" lon="2.74761">
        <ele>887.91</ele>
        <time>2013-09-21T11:39:58Z</time>
      </trkpt>
      <trkpt lat="45.75423" lon="2.74739">
        <ele>889.84</ele>
        <time>2013-09-21T11:40:11Z</time>
      </trkpt>
      <trkpt lat="45.75389" lon="2.74761">
        <ele>890.32</ele>
        <time>2013-09-21T11:40:22Z</time>
      </trkpt>
      <trkpt lat="45.75364" lon="2.74785">
        <ele>889.36</ele>
        <time>2013-09-21T11:40:28Z</time>
      </trkpt>
      <trkpt lat="45.75359" lon="2.74788">
        <ele>889.84</ele>
        <time>2013-09-21T11:40:29Z</time>
      </trkpt>
      <trkpt lat="45.75331" lon="2.74799">
        <ele>889.84</ele>
        <time>2013-09-21T11:40:35Z</time>
      </trkpt>
      <trkpt lat="45.75326" lon="2.74798">
        <ele>889.84</ele>
        <time>2013-09-21T11:40:36Z</time>
      </trkpt>
      <trkpt lat="45.75321" lon="2.74796">
        <ele>889.84</ele>
        <time>2013-09-21T11:40:37Z</time>
      </trkpt>
      <trkpt lat="45.75281" lon="2.74789">
        <ele>890.8</ele>
        <time>2013-09-21T11:40:46Z</time>
      </trkpt>
      <trkpt lat="45.75216" lon="2.74814">
        <ele>891.76</ele>
        <time>2013-09-21T11:41:01Z</time>
      </trkpt>
      <trkpt lat="45.75167" lon="2.74874">
        <ele>894.64</ele>
        <time>2013-09-21T11:41:18Z</time>
      </trkpt>
      <trkpt lat="45.75134" lon="2.74946">
        <ele>896.09</ele>
        <time>2013-09-21T11:41:33Z</time>
      </trkpt>
      <trkpt lat="45.75087" lon="2.75016">
        <ele>898.49</ele>
        <time>2013-09-21T11:41:50Z</time>
      </trkpt>
      <trkpt lat="45.75026" lon="2.75073">
        <ele>899.45</ele>
        <time>2013-09-21T11:42:07Z</time>
      </trkpt>
      <trkpt lat="45.75013" lon="2.75086">
        <ele>899.93</ele>
        <time>2013-09-21T11:42:11Z</time>
      </trkpt>
      <trkpt lat="45.74984" lon="2.75111">
        <ele>900.41</ele>
        <time>2013-09-21T11:42:19Z</time>
      </trkpt>
      <trkpt lat="45.74981" lon="2.75114">
        <ele>900.89</ele>
        <time>2013-09-21T11:42:20Z</time>
      </trkpt>
      <trkpt lat="45.74927" lon="2.75164">
        <ele>903.78</ele>
        <time>2013-09-21T11:42:37Z</time>
      </trkpt>
      <trkpt lat="45.74902" lon="2.75215">
        <ele>906.66</ele>
        <time>2013-09-21T11:42:51Z</time>
      </trkpt>
      <trkpt lat="45.74872" lon="2.75303">
        <ele>908.1</ele>
        <time>2013-09-21T11:43:12Z</time>
      </trkpt>
      <trkpt lat="45.7484" lon="2.75377">
        <ele>910.51</ele>
        <time>2013-09-21T11:43:29Z</time>
      </trkpt>
      <trkpt lat="45.74808" lon="2.75443">
        <ele>912.43</ele>
        <time>2013-09-21T11:43:45Z</time>
      </trkpt>
      <trkpt lat="45.7476" lon="2.755">
        <ele>914.35</ele>
        <time>2013-09-21T11:44:03Z</time>
      </trkpt>
      <trkpt lat="45.74697" lon="2.75539">
        <ele>916.75</ele>
        <time>2013-09-21T11:44:22Z</time>
      </trkpt>
      <trkpt lat="45.7468" lon="2.7555">
        <ele>915.31</ele>
        <time>2013-09-21T11:44:27Z</time>
      </trkpt>
      <trkpt lat="45.7467" lon="2.75565">
        <ele>915.31</ele>
        <time>2013-09-21T11:44:30Z</time>
      </trkpt>
      <trkpt lat="45.7466" lon="2.75583">
        <ele>913.87</ele>
        <time>2013-09-21T11:44:33Z</time>
      </trkpt>
      <trkpt lat="45.74603" lon="2.75689">
        <ele>911.95</ele>
        <time>2013-09-21T11:44:50Z</time>
      </trkpt>
      <trkpt lat="45.74576" lon="2.75735">
        <ele>912.43</ele>
        <time>2013-09-21T11:44:58Z</time>
      </trkpt>
      <trkpt lat="45.7454" lon="2.75795">
        <ele>914.83</ele>
        <time>2013-09-21T11:45:12Z</time>
      </trkpt>
      <trkpt lat="45.74513" lon="2.75837">
        <ele>917.72</ele>
        <time>2013-09-21T11:45:27Z</time>
      </trkpt>
      <trkpt lat="45.74492" lon="2.75876">
        <ele>920.6</ele>
        <time>2013-09-21T11:45:41Z</time>
      </trkpt>
      <trkpt lat="45.74466" lon="2.75933">
        <ele>919.16</ele>
        <time>2013-09-21T11:45:55Z</time>
      </trkpt>
      <trkpt lat="45.74424" lon="2.76021">
        <ele>918.68</ele>
        <time>2013-09-21T11:46:13Z</time>
      </trkpt>
      <trkpt lat="45.74393" lon="2.76086">
        <ele>922.04</ele>
        <time>2013-09-21T11:46:28Z</time>
      </trkpt>
      <trkpt lat="45.74365" lon="2.76144">
        <ele>925.41</ele>
        <time>2013-09-21T11:46:43Z</time>
      </trkpt>
      <trkpt lat="45.74326" lon="2.7623">
        <ele>927.33</ele>
        <time>2013-09-21T11:47:05Z</time>
      </trkpt>
      <trkpt lat="45.74278" lon="2.76328">
        <ele>925.41</ele>
        <time>2013-09-21T11:47:25Z</time>
      </trkpt>
      <trkpt lat="45.74234" lon="2.7642">
        <ele>926.37</ele>
        <time>2013-09-21T11:47:41Z</time>
      </trkpt>
      <trkpt lat="45.74223" lon="2.76443">
        <ele>925.41</ele>
        <time>2013-09-21T11:47:46Z</time>
      </trkpt>
      <trkpt lat="45.74221" lon="2.76449">
        <ele>925.41</ele>
        <time>2013-09-21T11:47:47Z</time>
      </trkpt>
      <trkpt lat="45.7422" lon="2.76455">
        <ele>924.93</ele>
        <time>2013-09-21T11:47:48Z</time>
      </trkpt>
      <trkpt lat="45.7422" lon="2.76462">
        <ele>924.93</ele>
        <time>2013-09-21T11:47:49Z</time>
      </trkpt>
      <trkpt lat="45.74219" lon="2.76469">
        <ele>925.41</ele>
        <time>2013-09-21T11:47:50Z</time>
      </trkpt>
      <trkpt lat="45.7422" lon="2.76497">
        <ele>923.96</ele>
        <time>2013-09-21T11:47:54Z</time>
      </trkpt>
      <trkpt lat="45.74216" lon="2.7653">
        <ele>926.85</ele>
        <time>2013-09-21T11:48:00Z</time>
      </trkpt>
      <trkpt lat="45.74213" lon="2.76532">
        <ele>926.37</ele>
        <time>2013-09-21T11:48:01Z</time>
      </trkpt>
      <trkpt lat="45.7421" lon="2.76534">
        <ele>926.37</ele>
        <time>2013-09-21T11:48:02Z</time>
      </trkpt>
      <trkpt lat="45.74179" lon="2.76554">
        <ele>925.89</ele>
        <time>2013-09-21T11:48:10Z</time>
      </trkpt>
      <trkpt lat="45.74176" lon="2.76556">
        <ele>926.37</ele>
        <time>2013-09-21T11:48:11Z</time>
      </trkpt>
      <trkpt lat="45.7413" lon="2.7659">
        <ele>926.37</ele>
        <time>2013-09-21T11:48:23Z</time>
      </trkpt>
      <trkpt lat="45.74124" lon="2.76598">
        <ele>926.37</ele>
        <time>2013-09-21T11:48:25Z</time>
      </trkpt>
      <trkpt lat="45.74063" lon="2.76657">
        <ele>926.85</ele>
        <time>2013-09-21T11:48:42Z</time>
      </trkpt>
      <trkpt lat="45.74007" lon="2.76691">
        <ele>926.37</ele>
        <time>2013-09-21T11:48:54Z</time>
      </trkpt>
      <trkpt lat="45.73996" lon="2.76691">
        <ele>925.41</ele>
        <time>2013-09-21T11:48:56Z</time>
      </trkpt>
      <trkpt lat="45.7399" lon="2.76689">
        <ele>926.37</ele>
        <time>2013-09-21T11:48:57Z</time>
      </trkpt>
      <trkpt lat="45.73985" lon="2.76683">
        <ele>925.41</ele>
        <time>2013-09-21T11:48:58Z</time>
      </trkpt>
      <trkpt lat="45.73981" lon="2.76676">
        <ele>924.93</ele>
        <time>2013-09-21T11:48:59Z</time>
      </trkpt>
      <trkpt lat="45.73978" lon="2.76669">
        <ele>923.96</ele>
        <time>2013-09-21T11:49:00Z</time>
      </trkpt>
      <trkpt lat="45.73943" lon="2.76609">
        <ele>922.04</ele>
        <time>2013-09-21T11:49:08Z</time>
      </trkpt>
      <trkpt lat="45.7387" lon="2.76495">
        <ele>919.16</ele>
        <time>2013-09-21T11:49:23Z</time>
      </trkpt>
      <trkpt lat="45.73865" lon="2.76488">
        <ele>918.68</ele>
        <time>2013-09-21T11:49:24Z</time>
      </trkpt>
      <trkpt lat="45.7386" lon="2.76482">
        <ele>918.2</ele>
        <time>2013-09-21T11:49:25Z</time>
      </trkpt>
      <trkpt lat="45.73853" lon="2.76477">
        <ele>918.68</ele>
        <time>2013-09-21T11:49:26Z</time>
      </trkpt>
      <trkpt lat="45.73835" lon="2.76465">
        <ele>918.2</ele>
        <time>2013-09-21T11:49:29Z</time>
      </trkpt>
      <trkpt lat="45.73829" lon="2.7646">
        <ele>918.68</ele>
        <time>2013-09-21T11:49:30Z</time>
      </trkpt>
      <trkpt lat="45.73824" lon="2.76455">
        <ele>918.68</ele>
        <time>2013-09-21T11:49:31Z</time>
      </trkpt>
      <trkpt lat="45.73814" lon="2.76445">
        <ele>918.68</ele>
        <time>2013-09-21T11:49:33Z</time>
      </trkpt>
      <trkpt lat="45.73783" lon="2.76406">
        <ele>918.68</ele>
        <time>2013-09-21T11:49:40Z</time>
      </trkpt>
      <trkpt lat="45.73776" lon="2.76393">
        <ele>918.68</ele>
        <time>2013-09-21T11:49:42Z</time>
      </trkpt>
      <trkpt lat="45.73773" lon="2.76387">
        <ele>918.2</ele>
        <time>2013-09-21T11:49:43Z</time>
      </trkpt>
      <trkpt lat="45.73771" lon="2.76379">
        <ele>918.68</ele>
        <time>2013-09-21T11:49:44Z</time>
      </trkpt>
      <trkpt lat="45.73729" lon="2.76236">
        <ele>919.16</ele>
        <time>2013-09-21T11:50:03Z</time>
      </trkpt>
      <trkpt lat="45.73707" lon="2.76176">
        <ele>919.64</ele>
        <time>2013-09-21T11:50:11Z</time>
      </trkpt>
      <trkpt lat="45.73703" lon="2.7617">
        <ele>919.16</ele>
        <time>2013-09-21T11:50:12Z</time>
      </trkpt>
      <trkpt lat="45.73699" lon="2.76164">
        <ele>919.16</ele>
        <time>2013-09-21T11:50:13Z</time>
      </trkpt>
      <trkpt lat="45.73663" lon="2.76117">
        <ele>917.72</ele>
        <time>2013-09-21T11:50:21Z</time>
      </trkpt>
      <trkpt lat="45.73629" lon="2.76113">
        <ele>917.72</ele>
        <time>2013-09-21T11:50:27Z</time>
      </trkpt>
      <trkpt lat="45.73611" lon="2.76112">
        <ele>917.24</ele>
        <time>2013-09-21T11:50:30Z</time>
      </trkpt>
      <trkpt lat="45.7356" lon="2.761">
        <ele>919.16</ele>
        <time>2013-09-21T11:50:39Z</time>
      </trkpt>
      <trkpt lat="45.73518" lon="2.76089">
        <ele>918.2</ele>
        <time>2013-09-21T11:50:46Z</time>
      </trkpt>
      <trkpt lat="45.73512" lon="2.76089">
        <ele>918.2</ele>
        <time>2013-09-21T11:50:47Z</time>
      </trkpt>
      <trkpt lat="45.73506" lon="2.76091">
        <ele>918.2</ele>
        <time>2013-09-21T11:50:48Z</time>
      </trkpt>
      <trkpt lat="45.73449" lon="2.76117">
        <ele>915.31</ele>
        <time>2013-09-21T11:50:58Z</time>
      </trkpt>
      <trkpt lat="45.73436" lon="2.76123">
        <ele>913.87</ele>
        <time>2013-09-21T11:51:00Z</time>
      </trkpt>
      <trkpt lat="45.73395" lon="2.76141">
        <ele>910.51</ele>
        <time>2013-09-21T11:51:06Z</time>
      </trkpt>
      <trkpt lat="45.73387" lon="2.76145">
        <ele>910.99</ele>
        <time>2013-09-21T11:51:07Z</time>
      </trkpt>
      <trkpt lat="45.73363" lon="2.76157">
        <ele>907.62</ele>
        <time>2013-09-21T11:51:10Z</time>
      </trkpt>
      <trkpt lat="45.73334" lon="2.76171">
        <ele>905.7</ele>
        <time>2013-09-21T11:51:14Z</time>
      </trkpt>
      <trkpt lat="45.73306" lon="2.76183">
        <ele>902.33</ele>
        <time>2013-09-21T11:51:19Z</time>
      </trkpt>
      <trkpt lat="45.73302" lon="2.76188">
        <ele>901.37</ele>
        <time>2013-09-21T11:51:20Z</time>
      </trkpt>
      <trkpt lat="45.73299" lon="2.76194">
        <ele>899.93</ele>
        <time>2013-09-21T11:51:21Z</time>
      </trkpt>
      <trkpt lat="45.73296" lon="2.76202">
        <ele>899.93</ele>
        <time>2013-09-21T11:51:22Z</time>
      </trkpt>
      <trkpt lat="45.73296" lon="2.76212">
        <ele>897.53</ele>
        <time>2013-09-21T11:51:23Z</time>
      </trkpt>
      <trkpt lat="45.73297" lon="2.76222">
        <ele>897.05</ele>
        <time>2013-09-21T11:51:24Z</time>
      </trkpt>
      <trkpt lat="45.73298" lon="2.76233">
        <ele>896.09</ele>
        <time>2013-09-21T11:51:25Z</time>
      </trkpt>
      <trkpt lat="45.73302" lon="2.76257">
        <ele>895.61</ele>
        <time>2013-09-21T11:51:27Z</time>
      </trkpt>
      <trkpt lat="45.73306" lon="2.76292">
        <ele>892.24</ele>
        <time>2013-09-21T11:51:30Z</time>
      </trkpt>
      <trkpt lat="45.73309" lon="2.76304">
        <ele>892.24</ele>
        <time>2013-09-21T11:51:31Z</time>
      </trkpt>
      <trkpt lat="45.73314" lon="2.7633">
        <ele>890.32</ele>
        <time>2013-09-21T11:51:33Z</time>
      </trkpt>
      <trkpt lat="45.73328" lon="2.76411">
        <ele>887.43</ele>
        <time>2013-09-21T11:51:40Z</time>
      </trkpt>
      <trkpt lat="45.73328" lon="2.76415">
        <ele>887.91</ele>
        <time>2013-09-21T11:51:41Z</time>
      </trkpt>
      <trkpt lat="45.73326" lon="2.76415">
        <ele>888.88</ele>
        <time>2013-09-21T11:51:42Z</time>
      </trkpt>
      <trkpt lat="45.73324" lon="2.76414">
        <ele>888.4</ele>
        <time>2013-09-21T11:51:43Z</time>
      </trkpt>
      <trkpt lat="45.73323" lon="2.76411">
        <ele>887.91</ele>
        <time>2013-09-21T11:51:44Z</time>
      </trkpt>
      <trkpt lat="45.73322" lon="2.76408">
        <ele>887.91</ele>
        <time>2013-09-21T11:51:45Z</time>
      </trkpt>
      <trkpt lat="45.73321" lon="2.76404">
        <ele>887.43</ele>
        <time>2013-09-21T11:51:46Z</time>
      </trkpt>
      <trkpt lat="45.73319" lon="2.76399">
        <ele>886.47</ele>
        <time>2013-09-21T11:51:47Z</time>
      </trkpt>
      <trkpt lat="45.73309" lon="2.76376">
        <ele>883.59</ele>
        <time>2013-09-21T11:51:50Z</time>
      </trkpt>
      <trkpt lat="45.73306" lon="2.76368">
        <ele>884.07</ele>
        <time>2013-09-21T11:51:51Z</time>
      </trkpt>
      <trkpt lat="45.73299" lon="2.7635">
        <ele>882.15</ele>
        <time>2013-09-21T11:51:53Z</time>
      </trkpt>
      <trkpt lat="45.73284" lon="2.76324">
        <ele>879.26</ele>
        <time>2013-09-21T11:51:56Z</time>
      </trkpt>
      <trkpt lat="45.73257" lon="2.76288">
        <ele>875.9</ele>
        <time>2013-09-21T11:52:00Z</time>
      </trkpt>
      <trkpt lat="45.73242" lon="2.76268">
        <ele>872.53</ele>
        <time>2013-09-21T11:52:02Z</time>
      </trkpt>
      <trkpt lat="45.73219" lon="2.7624">
        <ele>869.17</ele>
        <time>2013-09-21T11:52:05Z</time>
      </trkpt>
      <trkpt lat="45.73202" lon="2.76215">
        <ele>866.29</ele>
        <time>2013-09-21T11:52:08Z</time>
      </trkpt>
      <trkpt lat="45.73193" lon="2.762">
        <ele>863.88</ele>
        <time>2013-09-21T11:52:10Z</time>
      </trkpt>
      <trkpt lat="45.7318" lon="2.76182">
        <ele>861.48</ele>
        <time>2013-09-21T11:52:13Z</time>
      </trkpt>
      <trkpt lat="45.73176" lon="2.76178">
        <ele>860.52</ele>
        <time>2013-09-21T11:52:14Z</time>
      </trkpt>
      <trkpt lat="45.73164" lon="2.7616">
        <ele>859.08</ele>
        <time>2013-09-21T11:52:17Z</time>
      </trkpt>
      <trkpt lat="45.73159" lon="2.76155">
        <ele>857.63</ele>
        <time>2013-09-21T11:52:18Z</time>
      </trkpt>
      <trkpt lat="45.73155" lon="2.7615">
        <ele>857.63</ele>
        <time>2013-09-21T11:52:19Z</time>
      </trkpt>
      <trkpt lat="45.73138" lon="2.76132">
        <ele>853.79</ele>
        <time>2013-09-21T11:52:23Z</time>
      </trkpt>
      <trkpt lat="45.73134" lon="2.76126">
        <ele>854.27</ele>
        <time>2013-09-21T11:52:24Z</time>
      </trkpt>
      <trkpt lat="45.73126" lon="2.76114">
        <ele>850.9</ele>
        <time>2013-09-21T11:52:26Z</time>
      </trkpt>
      <trkpt lat="45.73107" lon="2.76087">
        <ele>847.06</ele>
        <time>2013-09-21T11:52:31Z</time>
      </trkpt>
      <trkpt lat="45.73104" lon="2.76082">
        <ele>847.06</ele>
        <time>2013-09-21T11:52:32Z</time>
      </trkpt>
      <trkpt lat="45.73094" lon="2.76064">
        <ele>843.21</ele>
        <time>2013-09-21T11:52:39Z</time>
      </trkpt>
      <trkpt lat="45.7309" lon="2.76055">
        <ele>841.77</ele>
        <time>2013-09-21T11:52:42Z</time>
      </trkpt>
      <trkpt lat="45.73087" lon="2.76048">
        <ele>841.77</ele>
        <time>2013-09-21T11:52:44Z</time>
      </trkpt>
      <trkpt lat="45.73064" lon="2.76025">
        <ele>838.41</ele>
        <time>2013-09-21T11:52:54Z</time>
      </trkpt>
      <trkpt lat="45.73056" lon="2.76025">
        <ele>836.48</ele>
        <time>2013-09-21T11:52:58Z</time>
      </trkpt>
      <trkpt lat="45.73053" lon="2.76028">
        <ele>835.04</ele>
        <time>2013-09-21T11:53:00Z</time>
      </trkpt>
      <trkpt lat="45.7305" lon="2.76028">
        <ele>833.6</ele>
        <time>2013-09-21T11:53:03Z</time>
      </trkpt>
      <trkpt lat="45.73039" lon="2.76028">
        <ele>832.16</ele>
        <time>2013-09-21T11:53:06Z</time>
      </trkpt>
      <trkpt lat="45.73034" lon="2.76027">
        <ele>831.68</ele>
        <time>2013-09-21T11:53:07Z</time>
      </trkpt>
      <trkpt lat="45.73029" lon="2.76025">
        <ele>830.72</ele>
        <time>2013-09-21T11:53:08Z</time>
      </trkpt>
      <trkpt lat="45.73024" lon="2.76024">
        <ele>830.72</ele>
        <time>2013-09-21T11:53:09Z</time>
      </trkpt>
      <trkpt lat="45.73021" lon="2.76023">
        <ele>830.72</ele>
        <time>2013-09-21T11:53:10Z</time>
      </trkpt>
      <trkpt lat="45.73018" lon="2.76022">
        <ele>829.76</ele>
        <time>2013-09-21T11:53:11Z</time>
      </trkpt>
      <trkpt lat="45.73015" lon="2.7602">
        <ele>829.76</ele>
        <time>2013-09-21T11:53:12Z</time>
      </trkpt>
      <trkpt lat="45.73003" lon="2.76014">
        <ele>827.83</ele>
        <time>2013-09-21T11:53:15Z</time>
      </trkpt>
      <trkpt lat="45.72991" lon="2.76012">
        <ele>826.87</ele>
        <time>2013-09-21T11:53:17Z</time>
      </trkpt>
      <trkpt lat="45.72977" lon="2.76013">
        <ele>825.43</ele>
        <time>2013-09-21T11:53:20Z</time>
      </trkpt>
      <trkpt lat="45.72967" lon="2.76013">
        <ele>823.51</ele>
        <time>2013-09-21T11:53:23Z</time>
      </trkpt>
      <trkpt lat="45.72956" lon="2.76015">
        <ele>821.58</ele>
        <time>2013-09-21T11:53:26Z</time>
      </trkpt>
      <trkpt lat="45.72952" lon="2.76018">
        <ele>820.62</ele>
        <time>2013-09-21T11:53:27Z</time>
      </trkpt>
      <trkpt lat="45.72931" lon="2.76024">
        <ele>820.14</ele>
        <time>2013-09-21T11:53:30Z</time>
      </trkpt>
      <trkpt lat="45.72914" lon="2.76023">
        <ele>818.7</ele>
        <time>2013-09-21T11:53:33Z</time>
      </trkpt>
      <trkpt lat="45.729" lon="2.76015">
        <ele>817.74</ele>
        <time>2013-09-21T11:53:37Z</time>
      </trkpt>
      <trkpt lat="45.72871" lon="2.75989">
        <ele>814.85</ele>
        <time>2013-09-21T11:53:47Z</time>
      </trkpt>
      <trkpt lat="45.72863" lon="2.75981">
        <ele>813.89</ele>
        <time>2013-09-21T11:53:50Z</time>
      </trkpt>
      <trkpt lat="45.72861" lon="2.75981">
        <ele>813.89</ele>
        <time>2013-09-21T11:53:51Z</time>
      </trkpt>
      <trkpt lat="45.7286" lon="2.75981">
        <ele>813.89</ele>
        <time>2013-09-21T11:53:52Z</time>
      </trkpt>
      <trkpt lat="45.72858" lon="2.75984">
        <ele>815.34</ele>
        <time>2013-09-21T11:53:54Z</time>
      </trkpt>
      <trkpt lat="45.72852" lon="2.75982">
        <ele>815.82</ele>
        <time>2013-09-21T11:53:57Z</time>
      </trkpt>
      <trkpt lat="45.7285" lon="2.7598">
        <ele>815.82</ele>
        <time>2013-09-21T11:53:58Z</time>
      </trkpt>
      <trkpt lat="45.72847" lon="2.75979">
        <ele>815.82</ele>
        <time>2013-09-21T11:53:59Z</time>
      </trkpt>
      <trkpt lat="45.72824" lon="2.75968">
        <ele>816.3</ele>
        <time>2013-09-21T11:54:07Z</time>
      </trkpt>
      <trkpt lat="45.72794" lon="2.75939">
        <ele>814.37</ele>
        <time>2013-09-21T11:54:21Z</time>
      </trkpt>
      <trkpt lat="45.72761" lon="2.7593">
        <ele>815.34</ele>
        <time>2013-09-21T11:54:33Z</time>
      </trkpt>
      <trkpt lat="45.72716" lon="2.75913">
        <ele>815.82</ele>
        <time>2013-09-21T11:54:47Z</time>
      </trkpt>
      <trkpt lat="45.72645" lon="2.75884">
        <ele>815.82</ele>
        <time>2013-09-21T11:54:58Z</time>
      </trkpt>
      <trkpt lat="45.72642" lon="2.75881">
        <ele>815.34</ele>
        <time>2013-09-21T11:54:59Z</time>
      </trkpt>
      <trkpt lat="45.72599" lon="2.75879">
        <ele>814.85</ele>
        <time>2013-09-21T11:55:10Z</time>
      </trkpt>
      <trkpt lat="45.72561" lon="2.75889">
        <ele>814.85</ele>
        <time>2013-09-21T11:55:21Z</time>
      </trkpt>
      <trkpt lat="45.72519" lon="2.75907">
        <ele>814.85</ele>
        <time>2013-09-21T11:55:33Z</time>
      </trkpt>
      <trkpt lat="45.72501" lon="2.75935">
        <ele>815.34</ele>
        <time>2013-09-21T11:55:42Z</time>
      </trkpt>
      <trkpt lat="45.72458" lon="2.75962">
        <ele>814.85</ele>
        <time>2013-09-21T11:55:53Z</time>
      </trkpt>
      <trkpt lat="45.72435" lon="2.75975">
        <ele>814.37</ele>
        <time>2013-09-21T11:55:59Z</time>
      </trkpt>
      <trkpt lat="45.72423" lon="2.75984">
        <ele>813.89</ele>
        <time>2013-09-21T11:56:02Z</time>
      </trkpt>
      <trkpt lat="45.72408" lon="2.76039">
        <ele>814.85</ele>
        <time>2013-09-21T11:56:12Z</time>
      </trkpt>
      <trkpt lat="45.7243" lon="2.76107">
        <ele>813.89</ele>
        <time>2013-09-21T11:56:25Z</time>
      </trkpt>
      <trkpt lat="45.72459" lon="2.76154">
        <ele>813.89</ele>
        <time>2013-09-21T11:56:35Z</time>
      </trkpt>
      <trkpt lat="45.72484" lon="2.76189">
        <ele>813.89</ele>
        <time>2013-09-21T11:56:45Z</time>
      </trkpt>
      <trkpt lat="45.72509" lon="2.76218">
        <ele>813.89</ele>
        <time>2013-09-21T11:56:54Z</time>
      </trkpt>
      <trkpt lat="45.72531" lon="2.76259">
        <ele>813.89</ele>
        <time>2013-09-21T11:57:03Z</time>
      </trkpt>
      <trkpt lat="45.72569" lon="2.76311">
        <ele>813.89</ele>
        <time>2013-09-21T11:57:13Z</time>
      </trkpt>
      <trkpt lat="45.72571" lon="2.76315">
        <ele>813.89</ele>
        <time>2013-09-21T11:57:14Z</time>
      </trkpt>
      <trkpt lat="45.72572" lon="2.7635">
        <ele>813.41</ele>
        <time>2013-09-21T11:57:20Z</time>
      </trkpt>
      <trkpt lat="45.72572" lon="2.76375">
        <ele>812.93</ele>
        <time>2013-09-21T11:57:24Z</time>
      </trkpt>
      <trkpt lat="45.72573" lon="2.76417">
        <ele>813.41</ele>
        <time>2013-09-21T11:57:32Z</time>
      </trkpt>
      <trkpt lat="45.72589" lon="2.76464">
        <ele>813.89</ele>
        <time>2013-09-21T11:57:43Z</time>
      </trkpt>
      <trkpt lat="45.72592" lon="2.76474">
        <ele>812.93</ele>
        <time>2013-09-21T11:57:45Z</time>
      </trkpt>
      <trkpt lat="45.72586" lon="2.76528">
        <ele>812.93</ele>
        <time>2013-09-21T11:57:54Z</time>
      </trkpt>
      <trkpt lat="45.72581" lon="2.76568">
        <ele>812.93</ele>
        <time>2013-09-21T11:58:01Z</time>
      </trkpt>
      <trkpt lat="45.72573" lon="2.76589">
        <ele>812.45</ele>
        <time>2013-09-21T11:58:05Z</time>
      </trkpt>
      <trkpt lat="45.72534" lon="2.76622">
        <ele>812.93</ele>
        <time>2013-09-21T11:58:18Z</time>
      </trkpt>
      <trkpt lat="45.72497" lon="2.76648">
        <ele>812.45</ele>
        <time>2013-09-21T11:58:28Z</time>
      </trkpt>
      <trkpt lat="45.72459" lon="2.76674">
        <ele>812.93</ele>
        <time>2013-09-21T11:58:39Z</time>
      </trkpt>
      <trkpt lat="45.7242" lon="2.76691">
        <ele>812.93</ele>
        <time>2013-09-21T11:58:48Z</time>
      </trkpt>
      <trkpt lat="45.72415" lon="2.76704">
        <ele>812.93</ele>
        <time>2013-09-21T11:58:51Z</time>
      </trkpt>
      <trkpt lat="45.72433" lon="2.76764">
        <ele>812.45</ele>
        <time>2013-09-21T11:59:02Z</time>
      </trkpt>
      <trkpt lat="45.72448" lon="2.76831">
        <ele>812.45</ele>
        <time>2013-09-21T11:59:14Z</time>
      </trkpt>
      <trkpt lat="45.7245" lon="2.76849">
        <ele>812.45</ele>
        <time>2013-09-21T11:59:17Z</time>
      </trkpt>
      <trkpt lat="45.72461" lon="2.76917">
        <ele>812.45</ele>
        <time>2013-09-21T11:59:29Z</time>
      </trkpt>
      <trkpt lat="45.72479" lon="2.76963">
        <ele>812.45</ele>
        <time>2013-09-21T11:59:39Z</time>
      </trkpt>
      <trkpt lat="45.72508" lon="2.77005">
        <ele>812.45</ele>
        <time>2013-09-21T11:59:49Z</time>
      </trkpt>
      <trkpt lat="45.72529" lon="2.77039">
        <ele>811.97</ele>
        <time>2013-09-21T11:59:57Z</time>
      </trkpt>
      <trkpt lat="45.7255" lon="2.77086">
        <ele>812.93</ele>
        <time>2013-09-21T12:00:06Z</time>
      </trkpt>
      <trkpt lat="45.72554" lon="2.77118">
        <ele>811.97</ele>
        <time>2013-09-21T12:00:11Z</time>
      </trkpt>
      <trkpt lat="45.72559" lon="2.77143">
        <ele>812.45</ele>
        <time>2013-09-21T12:00:15Z</time>
      </trkpt>
      <trkpt lat="45.72582" lon="2.77191">
        <ele>811.97</ele>
        <time>2013-09-21T12:00:27Z</time>
      </trkpt>
      <trkpt lat="45.72611" lon="2.77232">
        <ele>811.49</ele>
        <time>2013-09-21T12:00:38Z</time>
      </trkpt>
      <trkpt lat="45.72652" lon="2.77266">
        <ele>811.49</ele>
        <time>2013-09-21T12:00:50Z</time>
      </trkpt>
      <trkpt lat="45.72691" lon="2.77282">
        <ele>811.49</ele>
        <time>2013-09-21T12:01:00Z</time>
      </trkpt>
      <trkpt lat="45.72724" lon="2.77285">
        <ele>811.01</ele>
        <time>2013-09-21T12:01:10Z</time>
      </trkpt>
      <trkpt lat="45.72756" lon="2.77281">
        <ele>811.49</ele>
        <time>2013-09-21T12:01:21Z</time>
      </trkpt>
      <trkpt lat="45.72758" lon="2.77282">
        <ele>810.53</ele>
        <time>2013-09-21T12:01:22Z</time>
      </trkpt>
      <trkpt lat="45.72777" lon="2.77328">
        <ele>811.97</ele>
        <time>2013-09-21T12:01:30Z</time>
      </trkpt>
      <trkpt lat="45.72799" lon="2.77363">
        <ele>811.01</ele>
        <time>2013-09-21T12:01:37Z</time>
      </trkpt>
      <trkpt lat="45.72802" lon="2.77368">
        <ele>811.49</ele>
        <time>2013-09-21T12:01:38Z</time>
      </trkpt>
      <trkpt lat="45.72805" lon="2.77372">
        <ele>811.97</ele>
        <time>2013-09-21T12:01:39Z</time>
      </trkpt>
      <trkpt lat="45.72808" lon="2.77377">
        <ele>811.97</ele>
        <time>2013-09-21T12:01:40Z</time>
      </trkpt>
      <trkpt lat="45.7281" lon="2.77381">
        <ele>811.01</ele>
        <time>2013-09-21T12:01:41Z</time>
      </trkpt>
      <trkpt lat="45.72812" lon="2.77386">
        <ele>811.49</ele>
        <time>2013-09-21T12:01:42Z</time>
      </trkpt>
      <trkpt lat="45.72814" lon="2.7739">
        <ele>811.49</ele>
        <time>2013-09-21T12:01:43Z</time>
      </trkpt>
      <trkpt lat="45.72817" lon="2.77394">
        <ele>811.01</ele>
        <time>2013-09-21T12:01:44Z</time>
      </trkpt>
      <trkpt lat="45.7282" lon="2.77398">
        <ele>811.49</ele>
        <time>2013-09-21T12:01:45Z</time>
      </trkpt>
      <trkpt lat="45.72823" lon="2.77402">
        <ele>811.97</ele>
        <time>2013-09-21T12:01:46Z</time>
      </trkpt>
      <trkpt lat="45.72826" lon="2.77407">
        <ele>811.49</ele>
        <time>2013-09-21T12:01:47Z</time>
      </trkpt>
      <trkpt lat="45.72846" lon="2.77439">
        <ele>811.49</ele>
        <time>2013-09-21T12:01:54Z</time>
      </trkpt>
      <trkpt lat="45.72848" lon="2.77444">
        <ele>811.49</ele>
        <time>2013-09-21T12:01:55Z</time>
      </trkpt>
      <trkpt lat="45.72851" lon="2.77448">
        <ele>811.49</ele>
        <time>2013-09-21T12:01:56Z</time>
      </trkpt>
      <trkpt lat="45.72854" lon="2.77453">
        <ele>811.97</ele>
        <time>2013-09-21T12:01:57Z</time>
      </trkpt>
      <trkpt lat="45.72856" lon="2.77458">
        <ele>811.01</ele>
        <time>2013-09-21T12:01:58Z</time>
      </trkpt>
      <trkpt lat="45.72865" lon="2.7748">
        <ele>811.49</ele>
        <time>2013-09-21T12:02:02Z</time>
      </trkpt>
      <trkpt lat="45.7288" lon="2.77541">
        <ele>811.01</ele>
        <time>2013-09-21T12:02:13Z</time>
      </trkpt>
      <trkpt lat="45.72882" lon="2.77552">
        <ele>811.49</ele>
        <time>2013-09-21T12:02:15Z</time>
      </trkpt>
      <trkpt lat="45.72893" lon="2.7764">
        <ele>811.97</ele>
        <time>2013-09-21T12:02:31Z</time>
      </trkpt>
      <trkpt lat="45.72899" lon="2.77697">
        <ele>811.49</ele>
        <time>2013-09-21T12:02:41Z</time>
      </trkpt>
      <trkpt lat="45.72906" lon="2.77738">
        <ele>811.01</ele>
        <time>2013-09-21T12:02:51Z</time>
      </trkpt>
      <trkpt lat="45.7294" lon="2.77774">
        <ele>810.53</ele>
        <time>2013-09-21T12:03:04Z</time>
      </trkpt>
      <trkpt lat="45.72949" lon="2.77775">
        <ele>810.53</ele>
        <time>2013-09-21T12:03:07Z</time>
      </trkpt>
      <trkpt lat="45.72979" lon="2.77766">
        <ele>811.49</ele>
        <time>2013-09-21T12:03:16Z</time>
      </trkpt>
      <trkpt lat="45.72994" lon="2.77762">
        <ele>807.64</ele>
        <time>2013-09-21T12:03:22Z</time>
      </trkpt>
      <trkpt lat="45.73003" lon="2.77761">
        <ele>807.64</ele>
        <time>2013-09-21T12:03:24Z</time>
      </trkpt>
      <trkpt lat="45.73066" lon="2.77762">
        <ele>808.61</ele>
        <time>2013-09-21T12:03:35Z</time>
      </trkpt>
      <trkpt lat="45.73072" lon="2.7777">
        <ele>808.61</ele>
        <time>2013-09-21T12:03:40Z</time>
      </trkpt>
      <trkpt lat="45.7307" lon="2.77775">
        <ele>809.09</ele>
        <time>2013-09-21T12:03:42Z</time>
      </trkpt>
      <trkpt lat="45.73069" lon="2.77786">
        <ele>810.53</ele>
        <time>2013-09-21T12:03:46Z</time>
      </trkpt>
      <trkpt lat="45.73068" lon="2.77788">
        <ele>810.53</ele>
        <time>2013-09-21T12:03:47Z</time>
      </trkpt>
      <trkpt lat="45.73067" lon="2.7779">
        <ele>811.01</ele>
        <time>2013-09-21T12:03:48Z</time>
      </trkpt>
      <trkpt lat="45.7305" lon="2.77828">
        <ele>811.01</ele>
        <time>2013-09-21T12:03:59Z</time>
      </trkpt>
      <trkpt lat="45.73037" lon="2.77879">
        <ele>810.53</ele>
        <time>2013-09-21T12:04:09Z</time>
      </trkpt>
      <trkpt lat="45.73036" lon="2.77885">
        <ele>810.05</ele>
        <time>2013-09-21T12:04:10Z</time>
      </trkpt>
      <trkpt lat="45.73035" lon="2.77892">
        <ele>809.57</ele>
        <time>2013-09-21T12:04:11Z</time>
      </trkpt>
      <trkpt lat="45.73032" lon="2.7792">
        <ele>810.05</ele>
        <time>2013-09-21T12:04:15Z</time>
      </trkpt>
      <trkpt lat="45.7303" lon="2.77939">
        <ele>809.57</ele>
        <time>2013-09-21T12:04:18Z</time>
      </trkpt>
      <trkpt lat="45.73039" lon="2.77992">
        <ele>810.05</ele>
        <time>2013-09-21T12:04:27Z</time>
      </trkpt>
      <trkpt lat="45.73056" lon="2.78055">
        <ele>809.09</ele>
        <time>2013-09-21T12:04:38Z</time>
      </trkpt>
      <trkpt lat="45.73078" lon="2.78114">
        <ele>810.05</ele>
        <time>2013-09-21T12:04:49Z</time>
      </trkpt>
      <trkpt lat="45.73099" lon="2.78164">
        <ele>809.57</ele>
        <time>2013-09-21T12:04:59Z</time>
      </trkpt>
      <trkpt lat="45.73106" lon="2.78172">
        <ele>810.05</ele>
        <time>2013-09-21T12:05:01Z</time>
      </trkpt>
      <trkpt lat="45.73125" lon="2.78203">
        <ele>810.53</ele>
        <time>2013-09-21T12:05:09Z</time>
      </trkpt>
      <trkpt lat="45.73125" lon="2.78206">
        <ele>810.53</ele>
        <time>2013-09-21T12:05:10Z</time>
      </trkpt>
      <trkpt lat="45.73126" lon="2.78209">
        <ele>810.53</ele>
        <time>2013-09-21T12:05:11Z</time>
      </trkpt>
      <trkpt lat="45.73127" lon="2.78212">
        <ele>811.01</ele>
        <time>2013-09-21T12:05:12Z</time>
      </trkpt>
      <trkpt lat="45.73128" lon="2.78215">
        <ele>811.49</ele>
        <time>2013-09-21T12:05:13Z</time>
      </trkpt>
      <trkpt lat="45.7313" lon="2.78218">
        <ele>811.49</ele>
        <time>2013-09-21T12:05:14Z</time>
      </trkpt>
      <trkpt lat="45.73133" lon="2.7822">
        <ele>811.97</ele>
        <time>2013-09-21T12:05:15Z</time>
      </trkpt>
      <trkpt lat="45.73135" lon="2.78221">
        <ele>811.97</ele>
        <time>2013-09-21T12:05:16Z</time>
      </trkpt>
      <trkpt lat="45.73138" lon="2.78223">
        <ele>811.97</ele>
        <time>2013-09-21T12:05:17Z</time>
      </trkpt>
      <trkpt lat="45.7314" lon="2.78224">
        <ele>812.45</ele>
        <time>2013-09-21T12:05:18Z</time>
      </trkpt>
      <trkpt lat="45.73173" lon="2.78252">
        <ele>812.93</ele>
        <time>2013-09-21T12:05:31Z</time>
      </trkpt>
      <trkpt lat="45.73209" lon="2.7827">
        <ele>811.01</ele>
        <time>2013-09-21T12:05:42Z</time>
      </trkpt>
      <trkpt lat="45.73231" lon="2.7827">
        <ele>810.53</ele>
        <time>2013-09-21T12:05:48Z</time>
      </trkpt>
      <trkpt lat="45.73233" lon="2.78272">
        <ele>810.53</ele>
        <time>2013-09-21T12:05:49Z</time>
      </trkpt>
      <trkpt lat="45.73234" lon="2.78276">
        <ele>810.53</ele>
        <time>2013-09-21T12:05:50Z</time>
      </trkpt>
      <trkpt lat="45.73235" lon="2.7828">
        <ele>810.53</ele>
        <time>2013-09-21T12:05:52Z</time>
      </trkpt>
      <trkpt lat="45.73233" lon="2.78282">
        <ele>810.05</ele>
        <time>2013-09-21T12:05:53Z</time>
      </trkpt>
      <trkpt lat="45.7323" lon="2.78283">
        <ele>810.53</ele>
        <time>2013-09-21T12:05:54Z</time>
      </trkpt>
      <trkpt lat="45.73227" lon="2.78285">
        <ele>810.53</ele>
        <time>2013-09-21T12:05:55Z</time>
      </trkpt>
      <trkpt lat="45.73185" lon="2.7831">
        <ele>807.64</ele>
        <time>2013-09-21T12:06:05Z</time>
      </trkpt>
      <trkpt lat="45.7318" lon="2.78311">
        <ele>807.64</ele>
        <time>2013-09-21T12:06:06Z</time>
      </trkpt>
      <trkpt lat="45.73174" lon="2.78311">
        <ele>806.2</ele>
        <time>2013-09-21T12:06:07Z</time>
      </trkpt>
      <trkpt lat="45.73167" lon="2.7831">
        <ele>805.72</ele>
        <time>2013-09-21T12:06:08Z</time>
      </trkpt>
      <trkpt lat="45.73159" lon="2.78308">
        <ele>805.24</ele>
        <time>2013-09-21T12:06:09Z</time>
      </trkpt>
      <trkpt lat="45.73151" lon="2.78305">
        <ele>804.76</ele>
        <time>2013-09-21T12:06:10Z</time>
      </trkpt>
      <trkpt lat="45.73126" lon="2.78299">
        <ele>802.36</ele>
        <time>2013-09-21T12:06:13Z</time>
      </trkpt>
      <trkpt lat="45.73112" lon="2.78294">
        <ele>800.44</ele>
        <time>2013-09-21T12:06:15Z</time>
      </trkpt>
      <trkpt lat="45.73105" lon="2.78288">
        <ele>798.51</ele>
        <time>2013-09-21T12:06:16Z</time>
      </trkpt>
      <trkpt lat="45.73099" lon="2.78281">
        <ele>798.03</ele>
        <time>2013-09-21T12:06:17Z</time>
      </trkpt>
      <trkpt lat="45.73088" lon="2.78264">
        <ele>794.19</ele>
        <time>2013-09-21T12:06:19Z</time>
      </trkpt>
      <trkpt lat="45.73066" lon="2.78224">
        <ele>790.82</ele>
        <time>2013-09-21T12:06:23Z</time>
      </trkpt>
      <trkpt lat="45.73055" lon="2.78203">
        <ele>790.34</ele>
        <time>2013-09-21T12:06:25Z</time>
      </trkpt>
      <trkpt lat="45.73032" lon="2.7816">
        <ele>786.98</ele>
        <time>2013-09-21T12:06:29Z</time>
      </trkpt>
      <trkpt lat="45.73022" lon="2.78139">
        <ele>786.02</ele>
        <time>2013-09-21T12:06:31Z</time>
      </trkpt>
      <trkpt lat="45.73005" lon="2.78104">
        <ele>784.09</ele>
        <time>2013-09-21T12:06:35Z</time>
      </trkpt>
      <trkpt lat="45.72988" lon="2.78081">
        <ele>781.69</ele>
        <time>2013-09-21T12:06:38Z</time>
      </trkpt>
      <trkpt lat="45.7298" lon="2.78075">
        <ele>780.25</ele>
        <time>2013-09-21T12:06:39Z</time>
      </trkpt>
      <trkpt lat="45.72973" lon="2.78069">
        <ele>779.29</ele>
        <time>2013-09-21T12:06:40Z</time>
      </trkpt>
      <trkpt lat="45.72966" lon="2.78065">
        <ele>778.81</ele>
        <time>2013-09-21T12:06:41Z</time>
      </trkpt>
      <trkpt lat="45.72959" lon="2.78062">
        <ele>777.36</ele>
        <time>2013-09-21T12:06:42Z</time>
      </trkpt>
      <trkpt lat="45.72942" lon="2.78054">
        <ele>775.44</ele>
        <time>2013-09-21T12:06:45Z</time>
      </trkpt>
      <trkpt lat="45.72937" lon="2.78056">
        <ele>775.92</ele>
        <time>2013-09-21T12:06:46Z</time>
      </trkpt>
      <trkpt lat="45.72933" lon="2.78061">
        <ele>775.44</ele>
        <time>2013-09-21T12:06:47Z</time>
      </trkpt>
      <trkpt lat="45.7293" lon="2.78069">
        <ele>774.96</ele>
        <time>2013-09-21T12:06:48Z</time>
      </trkpt>
      <trkpt lat="45.72929" lon="2.78077">
        <ele>773.52</ele>
        <time>2013-09-21T12:06:49Z</time>
      </trkpt>
      <trkpt lat="45.7293" lon="2.78085">
        <ele>771.6</ele>
        <time>2013-09-21T12:06:50Z</time>
      </trkpt>
      <trkpt lat="45.7293" lon="2.78093">
        <ele>770.63</ele>
        <time>2013-09-21T12:06:51Z</time>
      </trkpt>
      <trkpt lat="45.72928" lon="2.78099">
        <ele>769.67</ele>
        <time>2013-09-21T12:06:52Z</time>
      </trkpt>
      <trkpt lat="45.72926" lon="2.78102">
        <ele>769.67</ele>
        <time>2013-09-21T12:06:53Z</time>
      </trkpt>
      <trkpt lat="45.72924" lon="2.78103">
        <ele>769.19</ele>
        <time>2013-09-21T12:06:54Z</time>
      </trkpt>
      <trkpt lat="45.7292" lon="2.781">
        <ele>768.23</ele>
        <time>2013-09-21T12:06:55Z</time>
      </trkpt>
      <trkpt lat="45.72915" lon="2.78095">
        <ele>767.75</ele>
        <time>2013-09-21T12:06:56Z</time>
      </trkpt>
      <trkpt lat="45.7291" lon="2.78089">
        <ele>766.79</ele>
        <time>2013-09-21T12:06:57Z</time>
      </trkpt>
      <trkpt lat="45.72904" lon="2.78083">
        <ele>765.35</ele>
        <time>2013-09-21T12:06:58Z</time>
      </trkpt>
      <trkpt lat="45.72898" lon="2.78078">
        <ele>765.83</ele>
        <time>2013-09-21T12:06:59Z</time>
      </trkpt>
      <trkpt lat="45.72894" lon="2.78074">
        <ele>764.87</ele>
        <time>2013-09-21T12:07:00Z</time>
      </trkpt>
      <trkpt lat="45.7288" lon="2.78055">
        <ele>763.42</ele>
        <time>2013-09-21T12:07:08Z</time>
      </trkpt>
      <trkpt lat="45.72877" lon="2.7805">
        <ele>761.98</ele>
        <time>2013-09-21T12:07:19Z</time>
      </trkpt>
      <trkpt lat="45.72873" lon="2.78047">
        <ele>761.98</ele>
        <time>2013-09-21T12:07:38Z</time>
      </trkpt>
      <trkpt lat="45.72866" lon="2.78045">
        <ele>761.02</ele>
        <time>2013-09-21T12:07:54Z</time>
      </trkpt>
      <trkpt lat="45.72862" lon="2.78046">
        <ele>761.02</ele>
        <time>2013-09-21T12:08:01Z</time>
      </trkpt>
      <trkpt lat="45.72859" lon="2.78046">
        <ele>761.5</ele>
        <time>2013-09-21T12:08:04Z</time>
      </trkpt>
      <trkpt lat="45.72852" lon="2.78054">
        <ele>760.54</ele>
        <time>2013-09-21T12:08:18Z</time>
      </trkpt>
      <trkpt lat="45.72852" lon="2.7806">
        <ele>761.02</ele>
        <time>2013-09-21T12:08:38Z</time>
      </trkpt>
      <trkpt lat="45.72852" lon="2.78066">
        <ele>760.06</ele>
        <time>2013-09-21T12:08:50Z</time>
      </trkpt>
      <trkpt lat="45.72853" lon="2.78067">
        <ele>760.06</ele>
        <time>2013-09-21T12:08:51Z</time>
      </trkpt>
      <trkpt lat="45.72853" lon="2.78069">
        <ele>760.06</ele>
        <time>2013-09-21T12:08:52Z</time>
      </trkpt>
      <trkpt lat="45.72854" lon="2.78071">
        <ele>760.06</ele>
        <time>2013-09-21T12:08:53Z</time>
      </trkpt>
      <trkpt lat="45.72856" lon="2.78073">
        <ele>759.58</ele>
        <time>2013-09-21T12:08:54Z</time>
      </trkpt>
      <trkpt lat="45.72858" lon="2.78076">
        <ele>759.1</ele>
        <time>2013-09-21T12:08:55Z</time>
      </trkpt>
      <trkpt lat="45.72859" lon="2.78079">
        <ele>759.1</ele>
        <time>2013-09-21T12:08:56Z</time>
      </trkpt>
      <trkpt lat="45.72861" lon="2.78082">
        <ele>759.1</ele>
        <time>2013-09-21T12:08:57Z</time>
      </trkpt>
      <trkpt lat="45.72863" lon="2.78085">
        <ele>758.62</ele>
        <time>2013-09-21T12:08:58Z</time>
      </trkpt>
      <trkpt lat="45.72866" lon="2.78089">
        <ele>758.62</ele>
        <time>2013-09-21T12:08:59Z</time>
      </trkpt>
      <trkpt lat="45.72869" lon="2.78093">
        <ele>758.14</ele>
        <time>2013-09-21T12:09:00Z</time>
      </trkpt>
      <trkpt lat="45.72872" lon="2.78097">
        <ele>757.66</ele>
        <time>2013-09-21T12:09:01Z</time>
      </trkpt>
      <trkpt lat="45.72875" lon="2.78102">
        <ele>757.66</ele>
        <time>2013-09-21T12:09:02Z</time>
      </trkpt>
      <trkpt lat="45.72876" lon="2.78106">
        <ele>757.66</ele>
        <time>2013-09-21T12:09:03Z</time>
      </trkpt>
      <trkpt lat="45.72891" lon="2.7813">
        <ele>756.21</ele>
        <time>2013-09-21T12:09:08Z</time>
      </trkpt>
      <trkpt lat="45.72926" lon="2.78188">
        <ele>754.29</ele>
        <time>2013-09-21T12:09:19Z</time>
      </trkpt>
      <trkpt lat="45.72929" lon="2.78193">
        <ele>754.29</ele>
        <time>2013-09-21T12:09:20Z</time>
      </trkpt>
      <trkpt lat="45.72937" lon="2.78204">
        <ele>752.85</ele>
        <time>2013-09-21T12:09:22Z</time>
      </trkpt>
      <trkpt lat="45.72945" lon="2.78214">
        <ele>753.33</ele>
        <time>2013-09-21T12:09:24Z</time>
      </trkpt>
      <trkpt lat="45.72948" lon="2.7822">
        <ele>753.33</ele>
        <time>2013-09-21T12:09:25Z</time>
      </trkpt>
      <trkpt lat="45.72951" lon="2.78224">
        <ele>753.33</ele>
        <time>2013-09-21T12:09:26Z</time>
      </trkpt>
      <trkpt lat="45.72955" lon="2.78228">
        <ele>753.81</ele>
        <time>2013-09-21T12:09:27Z</time>
      </trkpt>
      <trkpt lat="45.72957" lon="2.78232">
        <ele>753.81</ele>
        <time>2013-09-21T12:09:28Z</time>
      </trkpt>
      <trkpt lat="45.7296" lon="2.78236">
        <ele>753.33</ele>
        <time>2013-09-21T12:09:29Z</time>
      </trkpt>
      <trkpt lat="45.72988" lon="2.78291">
        <ele>753.33</ele>
        <time>2013-09-21T12:09:40Z</time>
      </trkpt>
      <trkpt lat="45.72988" lon="2.78344">
        <ele>751.89</ele>
        <time>2013-09-21T12:09:50Z</time>
      </trkpt>
      <trkpt lat="45.72983" lon="2.78363">
        <ele>753.81</ele>
        <time>2013-09-21T12:09:57Z</time>
      </trkpt>
      <trkpt lat="45.72982" lon="2.78365">
        <ele>753.33</ele>
        <time>2013-09-21T12:09:58Z</time>
      </trkpt>
      <trkpt lat="45.72982" lon="2.78369">
        <ele>753.33</ele>
        <time>2013-09-21T12:10:11Z</time>
      </trkpt>
      <trkpt lat="45.72978" lon="2.78372">
        <ele>753.33</ele>
        <time>2013-09-21T12:10:21Z</time>
      </trkpt>
      <trkpt lat="45.72976" lon="2.78373">
        <ele>752.85</ele>
        <time>2013-09-21T12:10:22Z</time>
      </trkpt>
      <trkpt lat="45.72968" lon="2.78392">
        <ele>752.37</ele>
        <time>2013-09-21T12:10:30Z</time>
      </trkpt>
      <trkpt lat="45.72969" lon="2.784">
        <ele>752.85</ele>
        <time>2013-09-21T12:10:34Z</time>
      </trkpt>
      <trkpt lat="45.72968" lon="2.78402">
        <ele>753.33</ele>
        <time>2013-09-21T12:10:35Z</time>
      </trkpt>
      <trkpt lat="45.72967" lon="2.78404">
        <ele>753.33</ele>
        <time>2013-09-21T12:10:36Z</time>
      </trkpt>
      <trkpt lat="45.72967" lon="2.78406">
        <ele>753.81</ele>
        <time>2013-09-21T12:10:37Z</time>
      </trkpt>
      <trkpt lat="45.72966" lon="2.78407">
        <ele>753.81</ele>
        <time>2013-09-21T12:10:38Z</time>
      </trkpt>
      <trkpt lat="45.72964" lon="2.7841">
        <ele>754.29</ele>
        <time>2013-09-21T12:10:40Z</time>
      </trkpt>
      <trkpt lat="45.72963" lon="2.78414">
        <ele>755.25</ele>
        <time>2013-09-21T12:10:42Z</time>
      </trkpt>
      <trkpt lat="45.72962" lon="2.78437">
        <ele>758.14</ele>
        <time>2013-09-21T12:10:55Z</time>
      </trkpt>
      <trkpt lat="45.72963" lon="2.78441">
        <ele>758.14</ele>
        <time>2013-09-21T12:10:57Z</time>
      </trkpt>
      <trkpt lat="45.72963" lon="2.78444">
        <ele>758.14</ele>
        <time>2013-09-21T12:10:58Z</time>
      </trkpt>
      <trkpt lat="45.72962" lon="2.78453">
        <ele>759.58</ele>
        <time>2013-09-21T12:11:03Z</time>
      </trkpt>
      <trkpt lat="45.72962" lon="2.78456">
        <ele>759.58</ele>
        <time>2013-09-21T12:11:05Z</time>
      </trkpt>
      <trkpt lat="45.72961" lon="2.78459">
        <ele>759.58</ele>
        <time>2013-09-21T12:11:07Z</time>
      </trkpt>
      <trkpt lat="45.72961" lon="2.78461">
        <ele>760.06</ele>
        <time>2013-09-21T12:11:08Z</time>
      </trkpt>
      <trkpt lat="45.72961" lon="2.78463">
        <ele>760.54</ele>
        <time>2013-09-21T12:11:09Z</time>
      </trkpt>
      <trkpt lat="45.72959" lon="2.78471">
        <ele>761.5</ele>
        <time>2013-09-21T12:11:14Z</time>
      </trkpt>
      <trkpt lat="45.72958" lon="2.78473">
        <ele>761.98</ele>
        <time>2013-09-21T12:11:15Z</time>
      </trkpt>
      <trkpt lat="45.72948" lon="2.78497">
        <ele>763.9</ele>
        <time>2013-09-21T12:11:29Z</time>
      </trkpt>
      <trkpt lat="45.72943" lon="2.78496">
        <ele>766.31</ele>
        <time>2013-09-21T12:11:41Z</time>
      </trkpt>
      <trkpt lat="45.72942" lon="2.78491">
        <ele>767.75</ele>
        <time>2013-09-21T12:11:47Z</time>
      </trkpt>
      <trkpt lat="45.72941" lon="2.78489">
        <ele>767.27</ele>
        <time>2013-09-21T12:11:48Z</time>
      </trkpt>
      <trkpt lat="45.7292" lon="2.78479">
        <ele>770.15</ele>
        <time>2013-09-21T12:12:02Z</time>
      </trkpt>
      <trkpt lat="45.72903" lon="2.78467">
        <ele>771.6</ele>
        <time>2013-09-21T12:12:13Z</time>
      </trkpt>
      <trkpt lat="45.72886" lon="2.78457">
        <ele>774</ele>
        <time>2013-09-21T12:12:27Z</time>
      </trkpt>
      <trkpt lat="45.72866" lon="2.78448">
        <ele>775.44</ele>
        <time>2013-09-21T12:12:42Z</time>
      </trkpt>
      <trkpt lat="45.72849" lon="2.78443">
        <ele>777.36</ele>
        <time>2013-09-21T12:12:56Z</time>
      </trkpt>
      <trkpt lat="45.72835" lon="2.7844">
        <ele>780.25</ele>
        <time>2013-09-21T12:13:09Z</time>
      </trkpt>
      <trkpt lat="45.72818" lon="2.78432">
        <ele>784.09</ele>
        <time>2013-09-21T12:13:26Z</time>
      </trkpt>
      <trkpt lat="45.72799" lon="2.7843">
        <ele>786.02</ele>
        <time>2013-09-21T12:13:41Z</time>
      </trkpt>
      <trkpt lat="45.72787" lon="2.78426">
        <ele>787.94</ele>
        <time>2013-09-21T12:13:57Z</time>
      </trkpt>
      <trkpt lat="45.72777" lon="2.78418">
        <ele>789.86</ele>
        <time>2013-09-21T12:14:09Z</time>
      </trkpt>
      <trkpt lat="45.72775" lon="2.78417">
        <ele>790.34</ele>
        <time>2013-09-21T12:14:10Z</time>
      </trkpt>
      <trkpt lat="45.72771" lon="2.78416">
        <ele>790.82</ele>
        <time>2013-09-21T12:14:12Z</time>
      </trkpt>
      <trkpt lat="45.72769" lon="2.78416">
        <ele>790.82</ele>
        <time>2013-09-21T12:14:13Z</time>
      </trkpt>
      <trkpt lat="45.72759" lon="2.78412">
        <ele>792.26</ele>
        <time>2013-09-21T12:14:21Z</time>
      </trkpt>
      <trkpt lat="45.72757" lon="2.78411">
        <ele>792.74</ele>
        <time>2013-09-21T12:14:22Z</time>
      </trkpt>
      <trkpt lat="45.72754" lon="2.78408">
        <ele>792.74</ele>
        <time>2013-09-21T12:14:24Z</time>
      </trkpt>
      <trkpt lat="45.72753" lon="2.78408">
        <ele>792.74</ele>
        <time>2013-09-21T12:14:25Z</time>
      </trkpt>
      <trkpt lat="45.72735" lon="2.78402">
        <ele>795.63</ele>
        <time>2013-09-21T12:14:41Z</time>
      </trkpt>
      <trkpt lat="45.72716" lon="2.784">
        <ele>798.51</ele>
        <time>2013-09-21T12:14:56Z</time>
      </trkpt>
      <trkpt lat="45.72708" lon="2.78401">
        <ele>799.95</ele>
        <time>2013-09-21T12:15:02Z</time>
      </trkpt>
      <trkpt lat="45.72691" lon="2.78406">
        <ele>802.84</ele>
        <time>2013-09-21T12:15:16Z</time>
      </trkpt>
      <trkpt lat="45.72674" lon="2.78412">
        <ele>804.76</ele>
        <time>2013-09-21T12:15:30Z</time>
      </trkpt>
      <trkpt lat="45.72659" lon="2.78417">
        <ele>806.68</ele>
        <time>2013-09-21T12:15:42Z</time>
      </trkpt>
      <trkpt lat="45.72657" lon="2.78418">
        <ele>807.16</ele>
        <time>2013-09-21T12:15:43Z</time>
      </trkpt>
      <trkpt lat="45.72656" lon="2.78418">
        <ele>807.16</ele>
        <time>2013-09-21T12:15:44Z</time>
      </trkpt>
      <trkpt lat="45.72634" lon="2.78423">
        <ele>809.09</ele>
        <time>2013-09-21T12:15:58Z</time>
      </trkpt>
      <trkpt lat="45.72627" lon="2.78428">
        <ele>810.53</ele>
        <time>2013-09-21T12:16:04Z</time>
      </trkpt>
      <trkpt lat="45.72626" lon="2.7843">
        <ele>810.53</ele>
        <time>2013-09-21T12:16:05Z</time>
      </trkpt>
      <trkpt lat="45.72625" lon="2.78431">
        <ele>811.01</ele>
        <time>2013-09-21T12:16:06Z</time>
      </trkpt>
      <trkpt lat="45.72624" lon="2.78433">
        <ele>810.53</ele>
        <time>2013-09-21T12:16:07Z</time>
      </trkpt>
      <trkpt lat="45.72623" lon="2.78434">
        <ele>811.01</ele>
        <time>2013-09-21T12:16:08Z</time>
      </trkpt>
      <trkpt lat="45.72622" lon="2.78435">
        <ele>811.01</ele>
        <time>2013-09-21T12:16:09Z</time>
      </trkpt>
      <trkpt lat="45.7262" lon="2.78437">
        <ele>811.97</ele>
        <time>2013-09-21T12:16:11Z</time>
      </trkpt>
      <trkpt lat="45.72619" lon="2.78439">
        <ele>811.49</ele>
        <time>2013-09-21T12:16:12Z</time>
      </trkpt>
      <trkpt lat="45.72618" lon="2.78463">
        <ele>814.37</ele>
        <time>2013-09-21T12:16:26Z</time>
      </trkpt>
      <trkpt lat="45.72621" lon="2.78474">
        <ele>815.34</ele>
        <time>2013-09-21T12:16:32Z</time>
      </trkpt>
      <trkpt lat="45.72623" lon="2.78476">
        <ele>815.34</ele>
        <time>2013-09-21T12:16:33Z</time>
      </trkpt>
      <trkpt lat="45.72624" lon="2.78478">
        <ele>815.34</ele>
        <time>2013-09-21T12:16:34Z</time>
      </trkpt>
      <trkpt lat="45.72632" lon="2.78507">
        <ele>816.3</ele>
        <time>2013-09-21T12:16:46Z</time>
      </trkpt>
      <trkpt lat="45.72633" lon="2.7851">
        <ele>816.3</ele>
        <time>2013-09-21T12:16:47Z</time>
      </trkpt>
      <trkpt lat="45.72634" lon="2.78512">
        <ele>816.3</ele>
        <time>2013-09-21T12:16:48Z</time>
      </trkpt>
      <trkpt lat="45.72634" lon="2.78515">
        <ele>816.3</ele>
        <time>2013-09-21T12:16:49Z</time>
      </trkpt>
      <trkpt lat="45.72634" lon="2.78517">
        <ele>816.3</ele>
        <time>2013-09-21T12:16:50Z</time>
      </trkpt>
      <trkpt lat="45.72634" lon="2.7852">
        <ele>816.78</ele>
        <time>2013-09-21T12:16:51Z</time>
      </trkpt>
      <trkpt lat="45.72634" lon="2.78522">
        <ele>817.74</ele>
        <time>2013-09-21T12:16:52Z</time>
      </trkpt>
      <trkpt lat="45.72627" lon="2.78562">
        <ele>817.74</ele>
        <time>2013-09-21T12:17:05Z</time>
      </trkpt>
      <trkpt lat="45.72601" lon="2.78574">
        <ele>818.7</ele>
        <time>2013-09-21T12:17:17Z</time>
      </trkpt>
      <trkpt lat="45.72575" lon="2.78542">
        <ele>820.14</ele>
        <time>2013-09-21T12:17:30Z</time>
      </trkpt>
      <trkpt lat="45.72539" lon="2.78501">
        <ele>823.03</ele>
        <time>2013-09-21T12:17:47Z</time>
      </trkpt>
      <trkpt lat="45.72516" lon="2.78495">
        <ele>824.47</ele>
        <time>2013-09-21T12:18:01Z</time>
      </trkpt>
      <trkpt lat="45.72501" lon="2.78493">
        <ele>825.91</ele>
        <time>2013-09-21T12:18:12Z</time>
      </trkpt>
      <trkpt lat="45.72499" lon="2.78492">
        <ele>825.43</ele>
        <time>2013-09-21T12:18:13Z</time>
      </trkpt>
      <trkpt lat="45.72498" lon="2.78492">
        <ele>825.43</ele>
        <time>2013-09-21T12:18:14Z</time>
      </trkpt>
      <trkpt lat="45.72497" lon="2.78492">
        <ele>825.91</ele>
        <time>2013-09-21T12:18:15Z</time>
      </trkpt>
      <trkpt lat="45.72495" lon="2.78492">
        <ele>826.39</ele>
        <time>2013-09-21T12:18:16Z</time>
      </trkpt>
      <trkpt lat="45.72474" lon="2.7849">
        <ele>829.27</ele>
        <time>2013-09-21T12:18:33Z</time>
      </trkpt>
      <trkpt lat="45.72457" lon="2.7849">
        <ele>831.2</ele>
        <time>2013-09-21T12:18:46Z</time>
      </trkpt>
      <trkpt lat="45.7244" lon="2.78489">
        <ele>833.6</ele>
        <time>2013-09-21T12:19:00Z</time>
      </trkpt>
      <trkpt lat="45.72424" lon="2.78488">
        <ele>836.48</ele>
        <time>2013-09-21T12:19:13Z</time>
      </trkpt>
      <trkpt lat="45.72408" lon="2.78484">
        <ele>839.37</ele>
        <time>2013-09-21T12:19:26Z</time>
      </trkpt>
      <trkpt lat="45.72396" lon="2.78484">
        <ele>841.77</ele>
        <time>2013-09-21T12:19:37Z</time>
      </trkpt>
      <trkpt lat="45.72393" lon="2.78486">
        <ele>842.25</ele>
        <time>2013-09-21T12:19:40Z</time>
      </trkpt>
      <trkpt lat="45.72392" lon="2.78486">
        <ele>842.73</ele>
        <time>2013-09-21T12:19:41Z</time>
      </trkpt>
      <trkpt lat="45.7239" lon="2.78486">
        <ele>843.21</ele>
        <time>2013-09-21T12:19:42Z</time>
      </trkpt>
      <trkpt lat="45.72388" lon="2.78486">
        <ele>843.69</ele>
        <time>2013-09-21T12:19:43Z</time>
      </trkpt>
      <trkpt lat="45.72387" lon="2.78486">
        <ele>842.73</ele>
        <time>2013-09-21T12:19:44Z</time>
      </trkpt>
      <trkpt lat="45.72363" lon="2.78487">
        <ele>846.1</ele>
        <time>2013-09-21T12:20:00Z</time>
      </trkpt>
      <trkpt lat="45.72349" lon="2.78491">
        <ele>847.54</ele>
        <time>2013-09-21T12:20:09Z</time>
      </trkpt>
      <trkpt lat="45.72339" lon="2.78494">
        <ele>848.02</ele>
        <time>2013-09-21T12:20:16Z</time>
      </trkpt>
      <trkpt lat="45.72338" lon="2.78494">
        <ele>848.02</ele>
        <time>2013-09-21T12:20:17Z</time>
      </trkpt>
      <trkpt lat="45.72336" lon="2.78494">
        <ele>848.5</ele>
        <time>2013-09-21T12:20:18Z</time>
      </trkpt>
      <trkpt lat="45.72322" lon="2.78502">
        <ele>849.46</ele>
        <time>2013-09-21T12:20:30Z</time>
      </trkpt>
      <trkpt lat="45.72319" lon="2.78509">
        <ele>849.46</ele>
        <time>2013-09-21T12:20:42Z</time>
      </trkpt>
      <trkpt lat="45.72319" lon="2.78512">
        <ele>849.46</ele>
        <time>2013-09-21T12:21:14Z</time>
      </trkpt>
      <trkpt lat="45.72319" lon="2.7851">
        <ele>848.98</ele>
        <time>2013-09-21T12:21:45Z</time>
      </trkpt>
      <trkpt lat="45.72315" lon="2.78509">
        <ele>848.98</ele>
        <time>2013-09-21T12:21:58Z</time>
      </trkpt>
      <trkpt lat="45.72314" lon="2.7851">
        <ele>848.98</ele>
        <time>2013-09-21T12:21:59Z</time>
      </trkpt>
      <trkpt lat="45.72299" lon="2.78514">
        <ele>850.9</ele>
        <time>2013-09-21T12:22:11Z</time>
      </trkpt>
      <trkpt lat="45.72286" lon="2.78517">
        <ele>852.83</ele>
        <time>2013-09-21T12:22:20Z</time>
      </trkpt>
      <trkpt lat="45.72274" lon="2.78522">
        <ele>853.79</ele>
        <time>2013-09-21T12:22:30Z</time>
      </trkpt>
      <trkpt lat="45.72255" lon="2.78527">
        <ele>854.75</ele>
        <time>2013-09-21T12:22:43Z</time>
      </trkpt>
      <trkpt lat="45.7223" lon="2.78526">
        <ele>857.15</ele>
        <time>2013-09-21T12:22:58Z</time>
      </trkpt>
      <trkpt lat="45.72216" lon="2.78527">
        <ele>859.08</ele>
        <time>2013-09-21T12:23:09Z</time>
      </trkpt>
      <trkpt lat="45.72215" lon="2.78527">
        <ele>859.08</ele>
        <time>2013-09-21T12:23:10Z</time>
      </trkpt>
      <trkpt lat="45.72213" lon="2.78527">
        <ele>859.56</ele>
        <time>2013-09-21T12:23:11Z</time>
      </trkpt>
      <trkpt lat="45.72212" lon="2.78527">
        <ele>859.56</ele>
        <time>2013-09-21T12:23:12Z</time>
      </trkpt>
      <trkpt lat="45.72211" lon="2.78527">
        <ele>859.56</ele>
        <time>2013-09-21T12:23:13Z</time>
      </trkpt>
      <trkpt lat="45.72209" lon="2.78527">
        <ele>859.56</ele>
        <time>2013-09-21T12:23:14Z</time>
      </trkpt>
      <trkpt lat="45.72208" lon="2.78527">
        <ele>860.04</ele>
        <time>2013-09-21T12:23:15Z</time>
      </trkpt>
      <trkpt lat="45.72207" lon="2.78527">
        <ele>860.04</ele>
        <time>2013-09-21T12:23:16Z</time>
      </trkpt>
      <trkpt lat="45.72184" lon="2.78527">
        <ele>862.92</ele>
        <time>2013-09-21T12:23:34Z</time>
      </trkpt>
      <trkpt lat="45.72178" lon="2.78528">
        <ele>863.4</ele>
        <time>2013-09-21T12:23:38Z</time>
      </trkpt>
      <trkpt lat="45.7215" lon="2.78543">
        <ele>864.84</ele>
        <time>2013-09-21T12:23:52Z</time>
      </trkpt>
      <trkpt lat="45.72119" lon="2.78557">
        <ele>866.77</ele>
        <time>2013-09-21T12:24:08Z</time>
      </trkpt>
      <trkpt lat="45.72082" lon="2.78565">
        <ele>868.21</ele>
        <time>2013-09-21T12:24:24Z</time>
      </trkpt>
      <trkpt lat="45.72024" lon="2.78571">
        <ele>866.29</ele>
        <time>2013-09-21T12:24:38Z</time>
      </trkpt>
      <trkpt lat="45.71998" lon="2.78567">
        <ele>864.84</ele>
        <time>2013-09-21T12:24:43Z</time>
      </trkpt>
      <trkpt lat="45.71963" lon="2.78562">
        <ele>861.48</ele>
        <time>2013-09-21T12:24:49Z</time>
      </trkpt>
      <trkpt lat="45.71956" lon="2.7856">
        <ele>861.96</ele>
        <time>2013-09-21T12:24:50Z</time>
      </trkpt>
      <trkpt lat="45.7195" lon="2.78557">
        <ele>860.04</ele>
        <time>2013-09-21T12:24:51Z</time>
      </trkpt>
      <trkpt lat="45.71943" lon="2.78552">
        <ele>859.08</ele>
        <time>2013-09-21T12:24:52Z</time>
      </trkpt>
      <trkpt lat="45.71935" lon="2.78546">
        <ele>858.59</ele>
        <time>2013-09-21T12:24:53Z</time>
      </trkpt>
      <trkpt lat="45.71925" lon="2.78541">
        <ele>856.19</ele>
        <time>2013-09-21T12:24:54Z</time>
      </trkpt>
      <trkpt lat="45.71915" lon="2.78539">
        <ele>853.79</ele>
        <time>2013-09-21T12:24:55Z</time>
      </trkpt>
      <trkpt lat="45.71904" lon="2.7854">
        <ele>852.83</ele>
        <time>2013-09-21T12:24:56Z</time>
      </trkpt>
      <trkpt lat="45.71893" lon="2.78542">
        <ele>851.38</ele>
        <time>2013-09-21T12:24:57Z</time>
      </trkpt>
      <trkpt lat="45.71849" lon="2.78551">
        <ele>848.02</ele>
        <time>2013-09-21T12:25:01Z</time>
      </trkpt>
      <trkpt lat="45.71838" lon="2.78552">
        <ele>847.54</ele>
        <time>2013-09-21T12:25:02Z</time>
      </trkpt>
      <trkpt lat="45.71751" lon="2.78525">
        <ele>848.02</ele>
        <time>2013-09-21T12:25:11Z</time>
      </trkpt>
      <trkpt lat="45.71721" lon="2.78517">
        <ele>848.5</ele>
        <time>2013-09-21T12:25:15Z</time>
      </trkpt>
      <trkpt lat="45.7169" lon="2.78515">
        <ele>849.46</ele>
        <time>2013-09-21T12:25:20Z</time>
      </trkpt>
      <trkpt lat="45.71667" lon="2.78516">
        <ele>850.42</ele>
        <time>2013-09-21T12:25:25Z</time>
      </trkpt>
      <trkpt lat="45.71663" lon="2.78518">
        <ele>849.94</ele>
        <time>2013-09-21T12:25:26Z</time>
      </trkpt>
      <trkpt lat="45.71659" lon="2.78521">
        <ele>849.94</ele>
        <time>2013-09-21T12:25:27Z</time>
      </trkpt>
      <trkpt lat="45.71656" lon="2.78524">
        <ele>850.42</ele>
        <time>2013-09-21T12:25:28Z</time>
      </trkpt>
      <trkpt lat="45.71652" lon="2.78529">
        <ele>850.42</ele>
        <time>2013-09-21T12:25:29Z</time>
      </trkpt>
      <trkpt lat="45.71649" lon="2.78533">
        <ele>850.9</ele>
        <time>2013-09-21T12:25:30Z</time>
      </trkpt>
      <trkpt lat="45.71646" lon="2.78538">
        <ele>850.42</ele>
        <time>2013-09-21T12:25:31Z</time>
      </trkpt>
      <trkpt lat="45.71623" lon="2.78563">
        <ele>853.31</ele>
        <time>2013-09-21T12:25:39Z</time>
      </trkpt>
      <trkpt lat="45.71565" lon="2.78602">
        <ele>854.27</ele>
        <time>2013-09-21T12:25:58Z</time>
      </trkpt>
      <trkpt lat="45.71552" lon="2.78627">
        <ele>852.83</ele>
        <time>2013-09-21T12:26:03Z</time>
      </trkpt>
      <trkpt lat="45.71549" lon="2.78632">
        <ele>853.31</ele>
        <time>2013-09-21T12:26:04Z</time>
      </trkpt>
      <trkpt lat="45.71547" lon="2.78638">
        <ele>853.79</ele>
        <time>2013-09-21T12:26:05Z</time>
      </trkpt>
      <trkpt lat="45.71517" lon="2.78682">
        <ele>855.23</ele>
        <time>2013-09-21T12:26:18Z</time>
      </trkpt>
      <trkpt lat="45.71514" lon="2.78681">
        <ele>855.71</ele>
        <time>2013-09-21T12:26:19Z</time>
      </trkpt>
      <trkpt lat="45.71512" lon="2.78678">
        <ele>856.19</ele>
        <time>2013-09-21T12:26:20Z</time>
      </trkpt>
      <trkpt lat="45.71511" lon="2.78673">
        <ele>856.19</ele>
        <time>2013-09-21T12:26:21Z</time>
      </trkpt>
      <trkpt lat="45.71512" lon="2.78669">
        <ele>856.19</ele>
        <time>2013-09-21T12:26:22Z</time>
      </trkpt>
      <trkpt lat="45.71514" lon="2.78664">
        <ele>855.71</ele>
        <time>2013-09-21T12:26:23Z</time>
      </trkpt>
      <trkpt lat="45.71516" lon="2.7866">
        <ele>856.19</ele>
        <time>2013-09-21T12:26:24Z</time>
      </trkpt>
      <trkpt lat="45.71544" lon="2.7858">
        <ele>856.67</ele>
        <time>2013-09-21T12:26:40Z</time>
      </trkpt>
      <trkpt lat="45.7156" lon="2.78517">
        <ele>858.11</ele>
        <time>2013-09-21T12:26:54Z</time>
      </trkpt>
      <trkpt lat="45.71575" lon="2.78433">
        <ele>859.56</ele>
        <time>2013-09-21T12:27:11Z</time>
      </trkpt>
      <trkpt lat="45.71595" lon="2.78352">
        <ele>862.44</ele>
        <time>2013-09-21T12:27:28Z</time>
      </trkpt>
      <trkpt lat="45.71612" lon="2.78298">
        <ele>863.4</ele>
        <time>2013-09-21T12:27:40Z</time>
      </trkpt>
      <trkpt lat="45.71645" lon="2.78241">
        <ele>863.4</ele>
        <time>2013-09-21T12:27:54Z</time>
      </trkpt>
      <trkpt lat="45.71647" lon="2.78236">
        <ele>863.4</ele>
        <time>2013-09-21T12:27:55Z</time>
      </trkpt>
      <trkpt lat="45.71649" lon="2.7823">
        <ele>863.4</ele>
        <time>2013-09-21T12:27:56Z</time>
      </trkpt>
      <trkpt lat="45.71651" lon="2.78223">
        <ele>862.44</ele>
        <time>2013-09-21T12:27:57Z</time>
      </trkpt>
      <trkpt lat="45.71656" lon="2.78197">
        <ele>861</ele>
        <time>2013-09-21T12:28:01Z</time>
      </trkpt>
      <trkpt lat="45.71656" lon="2.78185">
        <ele>861</ele>
        <time>2013-09-21T12:28:03Z</time>
      </trkpt>
      <trkpt lat="45.71655" lon="2.78179">
        <ele>861.48</ele>
        <time>2013-09-21T12:28:04Z</time>
      </trkpt>
      <trkpt lat="45.71642" lon="2.78145">
        <ele>863.88</ele>
        <time>2013-09-21T12:28:13Z</time>
      </trkpt>
      <trkpt lat="45.71624" lon="2.78092">
        <ele>864.36</ele>
        <time>2013-09-21T12:28:26Z</time>
      </trkpt>
      <trkpt lat="45.71601" lon="2.78052">
        <ele>865.32</ele>
        <time>2013-09-21T12:28:37Z</time>
      </trkpt>
      <trkpt lat="45.71568" lon="2.78016">
        <ele>865.8</ele>
        <time>2013-09-21T12:28:50Z</time>
      </trkpt>
      <trkpt lat="45.71527" lon="2.77973">
        <ele>866.29</ele>
        <time>2013-09-21T12:29:05Z</time>
      </trkpt>
      <trkpt lat="45.7149" lon="2.77949">
        <ele>868.69</ele>
        <time>2013-09-21T12:29:19Z</time>
      </trkpt>
      <trkpt lat="45.7144" lon="2.77923">
        <ele>867.25</ele>
        <time>2013-09-21T12:29:33Z</time>
      </trkpt>
      <trkpt lat="45.71425" lon="2.77915">
        <ele>866.77</ele>
        <time>2013-09-21T12:29:37Z</time>
      </trkpt>
      <trkpt lat="45.71373" lon="2.77886">
        <ele>866.29</ele>
        <time>2013-09-21T12:29:50Z</time>
      </trkpt>
      <trkpt lat="45.71331" lon="2.77897">
        <ele>865.8</ele>
        <time>2013-09-21T12:30:02Z</time>
      </trkpt>
      <trkpt lat="45.71309" lon="2.77912">
        <ele>861.96</ele>
        <time>2013-09-21T12:30:06Z</time>
      </trkpt>
      <trkpt lat="45.71303" lon="2.77919">
        <ele>860.52</ele>
        <time>2013-09-21T12:30:07Z</time>
      </trkpt>
      <trkpt lat="45.71292" lon="2.77932">
        <ele>861</ele>
        <time>2013-09-21T12:30:09Z</time>
      </trkpt>
      <trkpt lat="45.71287" lon="2.77936">
        <ele>861</ele>
        <time>2013-09-21T12:30:10Z</time>
      </trkpt>
      <trkpt lat="45.71282" lon="2.77938">
        <ele>861</ele>
        <time>2013-09-21T12:30:11Z</time>
      </trkpt>
      <trkpt lat="45.71277" lon="2.77939">
        <ele>861.48</ele>
        <time>2013-09-21T12:30:12Z</time>
      </trkpt>
      <trkpt lat="45.71273" lon="2.77939">
        <ele>862.44</ele>
        <time>2013-09-21T12:30:13Z</time>
      </trkpt>
      <trkpt lat="45.71255" lon="2.77935">
        <ele>864.84</ele>
        <time>2013-09-21T12:30:22Z</time>
      </trkpt>
      <trkpt lat="45.71243" lon="2.77924">
        <ele>868.21</ele>
        <time>2013-09-21T12:30:34Z</time>
      </trkpt>
      <trkpt lat="45.71242" lon="2.77922">
        <ele>868.21</ele>
        <time>2013-09-21T12:30:36Z</time>
      </trkpt>
      <trkpt lat="45.71242" lon="2.77921">
        <ele>868.21</ele>
        <time>2013-09-21T12:30:37Z</time>
      </trkpt>
      <trkpt lat="45.71241" lon="2.7792">
        <ele>868.69</ele>
        <time>2013-09-21T12:30:38Z</time>
      </trkpt>
      <trkpt lat="45.7124" lon="2.77919">
        <ele>869.17</ele>
        <time>2013-09-21T12:30:39Z</time>
      </trkpt>
      <trkpt lat="45.71233" lon="2.77911">
        <ele>870.61</ele>
        <time>2013-09-21T12:30:50Z</time>
      </trkpt>
      <trkpt lat="45.71221" lon="2.77902">
        <ele>872.53</ele>
        <time>2013-09-21T12:31:02Z</time>
      </trkpt>
      <trkpt lat="45.71217" lon="2.77899">
        <ele>873.5</ele>
        <time>2013-09-21T12:31:08Z</time>
      </trkpt>
      <trkpt lat="45.71213" lon="2.77897">
        <ele>872.53</ele>
        <time>2013-09-21T12:31:12Z</time>
      </trkpt>
      <trkpt lat="45.7121" lon="2.77896">
        <ele>873.5</ele>
        <time>2013-09-21T12:31:14Z</time>
      </trkpt>
      <trkpt lat="45.71208" lon="2.77895">
        <ele>873.5</ele>
        <time>2013-09-21T12:31:15Z</time>
      </trkpt>
      <trkpt lat="45.71184" lon="2.77884">
        <ele>873.98</ele>
        <time>2013-09-21T12:31:25Z</time>
      </trkpt>
      <trkpt lat="45.71148" lon="2.7787">
        <ele>874.46</ele>
        <time>2013-09-21T12:31:36Z</time>
      </trkpt>
      <trkpt lat="45.71112" lon="2.7786">
        <ele>875.9</ele>
        <time>2013-09-21T12:31:49Z</time>
      </trkpt>
      <trkpt lat="45.71075" lon="2.77851">
        <ele>876.86</ele>
        <time>2013-09-21T12:32:03Z</time>
      </trkpt>
      <trkpt lat="45.71053" lon="2.77859">
        <ele>879.26</ele>
        <time>2013-09-21T12:32:18Z</time>
      </trkpt>
      <trkpt lat="45.71031" lon="2.7787">
        <ele>882.15</ele>
        <time>2013-09-21T12:32:34Z</time>
      </trkpt>
      <trkpt lat="45.71" lon="2.77869">
        <ele>881.67</ele>
        <time>2013-09-21T12:32:49Z</time>
      </trkpt>
      <trkpt lat="45.70958" lon="2.77869">
        <ele>882.15</ele>
        <time>2013-09-21T12:33:05Z</time>
      </trkpt>
      <trkpt lat="45.70917" lon="2.77862">
        <ele>882.15</ele>
        <time>2013-09-21T12:33:20Z</time>
      </trkpt>
      <trkpt lat="45.70894" lon="2.77859">
        <ele>882.63</ele>
        <time>2013-09-21T12:33:30Z</time>
      </trkpt>
      <trkpt lat="45.70861" lon="2.77856">
        <ele>882.15</ele>
        <time>2013-09-21T12:33:43Z</time>
      </trkpt>
      <trkpt lat="45.70835" lon="2.77855">
        <ele>880.71</ele>
        <time>2013-09-21T12:33:51Z</time>
      </trkpt>
      <trkpt lat="45.7083" lon="2.77854">
        <ele>881.19</ele>
        <time>2013-09-21T12:33:52Z</time>
      </trkpt>
      <trkpt lat="45.70782" lon="2.77844">
        <ele>880.22</ele>
        <time>2013-09-21T12:34:04Z</time>
      </trkpt>
      <trkpt lat="45.70756" lon="2.7783">
        <ele>878.3</ele>
        <time>2013-09-21T12:34:10Z</time>
      </trkpt>
      <trkpt lat="45.70736" lon="2.77814">
        <ele>874.46</ele>
        <time>2013-09-21T12:34:13Z</time>
      </trkpt>
      <trkpt lat="45.70729" lon="2.77808">
        <ele>874.46</ele>
        <time>2013-09-21T12:34:14Z</time>
      </trkpt>
      <trkpt lat="45.70722" lon="2.77801">
        <ele>873.5</ele>
        <time>2013-09-21T12:34:15Z</time>
      </trkpt>
      <trkpt lat="45.707" lon="2.77776">
        <ele>869.17</ele>
        <time>2013-09-21T12:34:18Z</time>
      </trkpt>
      <trkpt lat="45.70692" lon="2.77768">
        <ele>869.17</ele>
        <time>2013-09-21T12:34:19Z</time>
      </trkpt>
      <trkpt lat="45.70683" lon="2.77762">
        <ele>867.73</ele>
        <time>2013-09-21T12:34:20Z</time>
      </trkpt>
      <trkpt lat="45.70674" lon="2.77759">
        <ele>867.25</ele>
        <time>2013-09-21T12:34:21Z</time>
      </trkpt>
      <trkpt lat="45.70665" lon="2.77758">
        <ele>867.25</ele>
        <time>2013-09-21T12:34:22Z</time>
      </trkpt>
      <trkpt lat="45.70656" lon="2.77758">
        <ele>866.77</ele>
        <time>2013-09-21T12:34:23Z</time>
      </trkpt>
      <trkpt lat="45.70648" lon="2.77759">
        <ele>867.73</ele>
        <time>2013-09-21T12:34:24Z</time>
      </trkpt>
      <trkpt lat="45.7064" lon="2.77761">
        <ele>868.69</ele>
        <time>2013-09-21T12:34:25Z</time>
      </trkpt>
      <trkpt lat="45.70633" lon="2.77764">
        <ele>869.17</ele>
        <time>2013-09-21T12:34:26Z</time>
      </trkpt>
      <trkpt lat="45.70618" lon="2.77771">
        <ele>870.61</ele>
        <time>2013-09-21T12:34:29Z</time>
      </trkpt>
      <trkpt lat="45.70585" lon="2.77779">
        <ele>870.61</ele>
        <time>2013-09-21T12:34:37Z</time>
      </trkpt>
      <trkpt lat="45.70581" lon="2.77782">
        <ele>870.61</ele>
        <time>2013-09-21T12:34:38Z</time>
      </trkpt>
      <trkpt lat="45.70577" lon="2.77785">
        <ele>871.09</ele>
        <time>2013-09-21T12:34:39Z</time>
      </trkpt>
      <trkpt lat="45.70574" lon="2.77789">
        <ele>870.61</ele>
        <time>2013-09-21T12:34:40Z</time>
      </trkpt>
      <trkpt lat="45.70571" lon="2.77792">
        <ele>871.57</ele>
        <time>2013-09-21T12:34:41Z</time>
      </trkpt>
      <trkpt lat="45.70526" lon="2.77827">
        <ele>874.46</ele>
        <time>2013-09-21T12:34:57Z</time>
      </trkpt>
      <trkpt lat="45.70482" lon="2.77849">
        <ele>875.42</ele>
        <time>2013-09-21T12:35:11Z</time>
      </trkpt>
      <trkpt lat="45.7046" lon="2.7786">
        <ele>875.42</ele>
        <time>2013-09-21T12:35:17Z</time>
      </trkpt>
      <trkpt lat="45.70404" lon="2.77893">
        <ele>875.42</ele>
        <time>2013-09-21T12:35:32Z</time>
      </trkpt>
      <trkpt lat="45.704" lon="2.77895">
        <ele>874.46</ele>
        <time>2013-09-21T12:35:33Z</time>
      </trkpt>
      <trkpt lat="45.70352" lon="2.7791">
        <ele>875.42</ele>
        <time>2013-09-21T12:35:45Z</time>
      </trkpt>
      <trkpt lat="45.70302" lon="2.77906">
        <ele>875.42</ele>
        <time>2013-09-21T12:35:57Z</time>
      </trkpt>
      <trkpt lat="45.70265" lon="2.77899">
        <ele>877.82</ele>
        <time>2013-09-21T12:36:09Z</time>
      </trkpt>
      <trkpt lat="45.70242" lon="2.77883">
        <ele>880.22</ele>
        <time>2013-09-21T12:36:21Z</time>
      </trkpt>
      <trkpt lat="45.70221" lon="2.77863">
        <ele>883.11</ele>
        <time>2013-09-21T12:36:33Z</time>
      </trkpt>
      <trkpt lat="45.70193" lon="2.77846">
        <ele>885.51</ele>
        <time>2013-09-21T12:36:47Z</time>
      </trkpt>
      <trkpt lat="45.70161" lon="2.77828">
        <ele>887.43</ele>
        <time>2013-09-21T12:37:01Z</time>
      </trkpt>
      <trkpt lat="45.70123" lon="2.77822">
        <ele>887.91</ele>
        <time>2013-09-21T12:37:16Z</time>
      </trkpt>
      <trkpt lat="45.70087" lon="2.77825">
        <ele>887.91</ele>
        <time>2013-09-21T12:37:28Z</time>
      </trkpt>
      <trkpt lat="45.70075" lon="2.7785">
        <ele>891.28</ele>
        <time>2013-09-21T12:37:39Z</time>
      </trkpt>
      <trkpt lat="45.70068" lon="2.77858">
        <ele>891.76</ele>
        <time>2013-09-21T12:37:43Z</time>
      </trkpt>
      <trkpt lat="45.70041" lon="2.77858">
        <ele>891.28</ele>
        <time>2013-09-21T12:37:55Z</time>
      </trkpt>
      <trkpt lat="45.70029" lon="2.77859">
        <ele>890.32</ele>
        <time>2013-09-21T12:37:57Z</time>
      </trkpt>
      <trkpt lat="45.70023" lon="2.77861">
        <ele>889.84</ele>
        <time>2013-09-21T12:37:58Z</time>
      </trkpt>
      <trkpt lat="45.70019" lon="2.77864">
        <ele>890.8</ele>
        <time>2013-09-21T12:37:59Z</time>
      </trkpt>
      <trkpt lat="45.70017" lon="2.77869">
        <ele>890.8</ele>
        <time>2013-09-21T12:38:00Z</time>
      </trkpt>
      <trkpt lat="45.70016" lon="2.77874">
        <ele>891.28</ele>
        <time>2013-09-21T12:38:01Z</time>
      </trkpt>
      <trkpt lat="45.69995" lon="2.77888">
        <ele>894.16</ele>
        <time>2013-09-21T12:38:12Z</time>
      </trkpt>
      <trkpt lat="45.69968" lon="2.77889">
        <ele>895.61</ele>
        <time>2013-09-21T12:38:25Z</time>
      </trkpt>
      <trkpt lat="45.69936" lon="2.7789">
        <ele>896.09</ele>
        <time>2013-09-21T12:38:38Z</time>
      </trkpt>
      <trkpt lat="45.69918" lon="2.7792">
        <ele>898.97</ele>
        <time>2013-09-21T12:38:52Z</time>
      </trkpt>
      <trkpt lat="45.69907" lon="2.77949">
        <ele>900.41</ele>
        <time>2013-09-21T12:39:04Z</time>
      </trkpt>
      <trkpt lat="45.69895" lon="2.7798">
        <ele>902.33</ele>
        <time>2013-09-21T12:39:17Z</time>
      </trkpt>
      <trkpt lat="45.69884" lon="2.78006">
        <ele>904.74</ele>
        <time>2013-09-21T12:39:28Z</time>
      </trkpt>
      <trkpt lat="45.69869" lon="2.78047">
        <ele>907.62</ele>
        <time>2013-09-21T12:39:44Z</time>
      </trkpt>
      <trkpt lat="45.69856" lon="2.78076">
        <ele>910.51</ele>
        <time>2013-09-21T12:39:57Z</time>
      </trkpt>
      <trkpt lat="45.69855" lon="2.78077">
        <ele>910.51</ele>
        <time>2013-09-21T12:39:58Z</time>
      </trkpt>
      <trkpt lat="45.69853" lon="2.78078">
        <ele>910.51</ele>
        <time>2013-09-21T12:39:59Z</time>
      </trkpt>
      <trkpt lat="45.69851" lon="2.78079">
        <ele>910.99</ele>
        <time>2013-09-21T12:40:00Z</time>
      </trkpt>
      <trkpt lat="45.6985" lon="2.7808">
        <ele>911.47</ele>
        <time>2013-09-21T12:40:01Z</time>
      </trkpt>
      <trkpt lat="45.69848" lon="2.7808">
        <ele>911.47</ele>
        <time>2013-09-21T12:40:02Z</time>
      </trkpt>
      <trkpt lat="45.69846" lon="2.78081">
        <ele>911.47</ele>
        <time>2013-09-21T12:40:03Z</time>
      </trkpt>
      <trkpt lat="45.69844" lon="2.78081">
        <ele>911.95</ele>
        <time>2013-09-21T12:40:04Z</time>
      </trkpt>
      <trkpt lat="45.69807" lon="2.78068">
        <ele>912.43</ele>
        <time>2013-09-21T12:40:20Z</time>
      </trkpt>
      <trkpt lat="45.69765" lon="2.78052">
        <ele>913.39</ele>
        <time>2013-09-21T12:40:38Z</time>
      </trkpt>
      <trkpt lat="45.6973" lon="2.78038">
        <ele>915.31</ele>
        <time>2013-09-21T12:40:52Z</time>
      </trkpt>
      <trkpt lat="45.69685" lon="2.78014">
        <ele>917.72</ele>
        <time>2013-09-21T12:41:08Z</time>
      </trkpt>
      <trkpt lat="45.69633" lon="2.7798">
        <ele>919.16</ele>
        <time>2013-09-21T12:41:26Z</time>
      </trkpt>
      <trkpt lat="45.69588" lon="2.7795">
        <ele>920.12</ele>
        <time>2013-09-21T12:41:41Z</time>
      </trkpt>
      <trkpt lat="45.69542" lon="2.77922">
        <ele>920.12</ele>
        <time>2013-09-21T12:41:55Z</time>
      </trkpt>
      <trkpt lat="45.69494" lon="2.77926">
        <ele>922.04</ele>
        <time>2013-09-21T12:42:08Z</time>
      </trkpt>
      <trkpt lat="45.69453" lon="2.77982">
        <ele>923</ele>
        <time>2013-09-21T12:42:23Z</time>
      </trkpt>
      <trkpt lat="45.69426" lon="2.78022">
        <ele>923.96</ele>
        <time>2013-09-21T12:42:36Z</time>
      </trkpt>
      <trkpt lat="45.69415" lon="2.78032">
        <ele>923.96</ele>
        <time>2013-09-21T12:42:40Z</time>
      </trkpt>
      <trkpt lat="45.69412" lon="2.78032">
        <ele>923.96</ele>
        <time>2013-09-21T12:42:41Z</time>
      </trkpt>
      <trkpt lat="45.69409" lon="2.78032">
        <ele>924.45</ele>
        <time>2013-09-21T12:42:42Z</time>
      </trkpt>
      <trkpt lat="45.69405" lon="2.78031">
        <ele>924.45</ele>
        <time>2013-09-21T12:42:43Z</time>
      </trkpt>
      <trkpt lat="45.69402" lon="2.7803">
        <ele>924.45</ele>
        <time>2013-09-21T12:42:44Z</time>
      </trkpt>
      <trkpt lat="45.69399" lon="2.78028">
        <ele>924.93</ele>
        <time>2013-09-21T12:42:45Z</time>
      </trkpt>
      <trkpt lat="45.69353" lon="2.78016">
        <ele>925.41</ele>
        <time>2013-09-21T12:42:58Z</time>
      </trkpt>
      <trkpt lat="45.69303" lon="2.78001">
        <ele>925.89</ele>
        <time>2013-09-21T12:43:12Z</time>
      </trkpt>
      <trkpt lat="45.69243" lon="2.77987">
        <ele>926.85</ele>
        <time>2013-09-21T12:43:29Z</time>
      </trkpt>
      <trkpt lat="45.69177" lon="2.77969">
        <ele>928.29</ele>
        <time>2013-09-21T12:43:46Z</time>
      </trkpt>
      <trkpt lat="45.69117" lon="2.77943">
        <ele>928.29</ele>
        <time>2013-09-21T12:44:03Z</time>
      </trkpt>
      <trkpt lat="45.69069" lon="2.77921">
        <ele>929.73</ele>
        <time>2013-09-21T12:44:16Z</time>
      </trkpt>
      <trkpt lat="45.69022" lon="2.7792">
        <ele>931.65</ele>
        <time>2013-09-21T12:44:30Z</time>
      </trkpt>
      <trkpt lat="45.68972" lon="2.77931">
        <ele>933.58</ele>
        <time>2013-09-21T12:44:46Z</time>
      </trkpt>
      <trkpt lat="45.68933" lon="2.77942">
        <ele>936.46</ele>
        <time>2013-09-21T12:45:02Z</time>
      </trkpt>
      <trkpt lat="45.68888" lon="2.77935">
        <ele>937.9</ele>
        <time>2013-09-21T12:45:20Z</time>
      </trkpt>
      <trkpt lat="45.68847" lon="2.77929">
        <ele>938.86</ele>
        <time>2013-09-21T12:45:34Z</time>
      </trkpt>
      <trkpt lat="45.68793" lon="2.77919">
        <ele>939.83</ele>
        <time>2013-09-21T12:45:50Z</time>
      </trkpt>
      <trkpt lat="45.6875" lon="2.77908">
        <ele>939.35</ele>
        <time>2013-09-21T12:46:03Z</time>
      </trkpt>
      <trkpt lat="45.68746" lon="2.77906">
        <ele>939.35</ele>
        <time>2013-09-21T12:46:04Z</time>
      </trkpt>
      <trkpt lat="45.68742" lon="2.77903">
        <ele>938.86</ele>
        <time>2013-09-21T12:46:05Z</time>
      </trkpt>
      <trkpt lat="45.68738" lon="2.77901">
        <ele>938.38</ele>
        <time>2013-09-21T12:46:06Z</time>
      </trkpt>
      <trkpt lat="45.68734" lon="2.77901">
        <ele>938.86</ele>
        <time>2013-09-21T12:46:07Z</time>
      </trkpt>
      <trkpt lat="45.6873" lon="2.779">
        <ele>938.86</ele>
        <time>2013-09-21T12:46:08Z</time>
      </trkpt>
      <trkpt lat="45.68726" lon="2.77899">
        <ele>938.86</ele>
        <time>2013-09-21T12:46:09Z</time>
      </trkpt>
      <trkpt lat="45.687" lon="2.77892">
        <ele>937.42</ele>
        <time>2013-09-21T12:46:15Z</time>
      </trkpt>
      <trkpt lat="45.68695" lon="2.77891">
        <ele>937.42</ele>
        <time>2013-09-21T12:46:16Z</time>
      </trkpt>
      <trkpt lat="45.68691" lon="2.7789">
        <ele>937.42</ele>
        <time>2013-09-21T12:46:17Z</time>
      </trkpt>
      <trkpt lat="45.68615" lon="2.77871">
        <ele>934.54</ele>
        <time>2013-09-21T12:46:32Z</time>
      </trkpt>
      <trkpt lat="45.68599" lon="2.77867">
        <ele>933.58</ele>
        <time>2013-09-21T12:46:35Z</time>
      </trkpt>
      <trkpt lat="45.68594" lon="2.77865">
        <ele>933.58</ele>
        <time>2013-09-21T12:46:36Z</time>
      </trkpt>
      <trkpt lat="45.68539" lon="2.77839">
        <ele>930.69</ele>
        <time>2013-09-21T12:46:46Z</time>
      </trkpt>
      <trkpt lat="45.68534" lon="2.77834">
        <ele>930.21</ele>
        <time>2013-09-21T12:46:47Z</time>
      </trkpt>
      <trkpt lat="45.68527" lon="2.77828">
        <ele>929.73</ele>
        <time>2013-09-21T12:46:48Z</time>
      </trkpt>
      <trkpt lat="45.68521" lon="2.77824">
        <ele>928.77</ele>
        <time>2013-09-21T12:46:49Z</time>
      </trkpt>
      <trkpt lat="45.68515" lon="2.77819">
        <ele>928.77</ele>
        <time>2013-09-21T12:46:50Z</time>
      </trkpt>
      <trkpt lat="45.68496" lon="2.77805">
        <ele>927.33</ele>
        <time>2013-09-21T12:46:53Z</time>
      </trkpt>
      <trkpt lat="45.68425" lon="2.77762">
        <ele>924.45</ele>
        <time>2013-09-21T12:47:04Z</time>
      </trkpt>
      <trkpt lat="45.68389" lon="2.7774">
        <ele>923.48</ele>
        <time>2013-09-21T12:47:10Z</time>
      </trkpt>
      <trkpt lat="45.68315" lon="2.77721">
        <ele>923.96</ele>
        <time>2013-09-21T12:47:24Z</time>
      </trkpt>
      <trkpt lat="45.68259" lon="2.77718">
        <ele>924.45</ele>
        <time>2013-09-21T12:47:36Z</time>
      </trkpt>
      <trkpt lat="45.68216" lon="2.77729">
        <ele>926.37</ele>
        <time>2013-09-21T12:47:48Z</time>
      </trkpt>
      <trkpt lat="45.68212" lon="2.77728">
        <ele>925.41</ele>
        <time>2013-09-21T12:47:49Z</time>
      </trkpt>
      <trkpt lat="45.68205" lon="2.77726">
        <ele>925.41</ele>
        <time>2013-09-21T12:47:51Z</time>
      </trkpt>
      <trkpt lat="45.68192" lon="2.77718">
        <ele>925.41</ele>
        <time>2013-09-21T12:47:54Z</time>
      </trkpt>
      <trkpt lat="45.6818" lon="2.77706">
        <ele>923.96</ele>
        <time>2013-09-21T12:47:57Z</time>
      </trkpt>
      <trkpt lat="45.68171" lon="2.77695">
        <ele>923.48</ele>
        <time>2013-09-21T12:47:59Z</time>
      </trkpt>
      <trkpt lat="45.68168" lon="2.77688">
        <ele>923.96</ele>
        <time>2013-09-21T12:48:00Z</time>
      </trkpt>
      <trkpt lat="45.68165" lon="2.77681">
        <ele>923</ele>
        <time>2013-09-21T12:48:01Z</time>
      </trkpt>
      <trkpt lat="45.68162" lon="2.77674">
        <ele>922.52</ele>
        <time>2013-09-21T12:48:02Z</time>
      </trkpt>
      <trkpt lat="45.68159" lon="2.77665">
        <ele>922.04</ele>
        <time>2013-09-21T12:48:03Z</time>
      </trkpt>
      <trkpt lat="45.68146" lon="2.77627">
        <ele>919.64</ele>
        <time>2013-09-21T12:48:07Z</time>
      </trkpt>
      <trkpt lat="45.68138" lon="2.77607">
        <ele>917.72</ele>
        <time>2013-09-21T12:48:09Z</time>
      </trkpt>
      <trkpt lat="45.68132" lon="2.77597">
        <ele>916.75</ele>
        <time>2013-09-21T12:48:10Z</time>
      </trkpt>
      <trkpt lat="45.6812" lon="2.77579">
        <ele>915.79</ele>
        <time>2013-09-21T12:48:12Z</time>
      </trkpt>
      <trkpt lat="45.68098" lon="2.77554">
        <ele>914.35</ele>
        <time>2013-09-21T12:48:15Z</time>
      </trkpt>
      <trkpt lat="45.68059" lon="2.77518">
        <ele>912.43</ele>
        <time>2013-09-21T12:48:20Z</time>
      </trkpt>
      <trkpt lat="45.68015" lon="2.77479">
        <ele>908.58</ele>
        <time>2013-09-21T12:48:26Z</time>
      </trkpt>
      <trkpt lat="45.68007" lon="2.77474">
        <ele>907.62</ele>
        <time>2013-09-21T12:48:27Z</time>
      </trkpt>
      <trkpt lat="45.67957" lon="2.77443">
        <ele>906.66</ele>
        <time>2013-09-21T12:48:33Z</time>
      </trkpt>
      <trkpt lat="45.6795" lon="2.77436">
        <ele>906.66</ele>
        <time>2013-09-21T12:48:34Z</time>
      </trkpt>
      <trkpt lat="45.67945" lon="2.77428">
        <ele>907.14</ele>
        <time>2013-09-21T12:48:35Z</time>
      </trkpt>
      <trkpt lat="45.6794" lon="2.7742">
        <ele>907.62</ele>
        <time>2013-09-21T12:48:36Z</time>
      </trkpt>
      <trkpt lat="45.67937" lon="2.77412">
        <ele>907.62</ele>
        <time>2013-09-21T12:48:37Z</time>
      </trkpt>
      <trkpt lat="45.67933" lon="2.77404">
        <ele>908.1</ele>
        <time>2013-09-21T12:48:38Z</time>
      </trkpt>
      <trkpt lat="45.67931" lon="2.77397">
        <ele>909.06</ele>
        <time>2013-09-21T12:48:39Z</time>
      </trkpt>
      <trkpt lat="45.67928" lon="2.77391">
        <ele>909.06</ele>
        <time>2013-09-21T12:48:40Z</time>
      </trkpt>
      <trkpt lat="45.67919" lon="2.77371">
        <ele>911.47</ele>
        <time>2013-09-21T12:48:45Z</time>
      </trkpt>
      <trkpt lat="45.67898" lon="2.77357">
        <ele>914.83</ele>
        <time>2013-09-21T12:48:55Z</time>
      </trkpt>
      <trkpt lat="45.67897" lon="2.77355">
        <ele>914.83</ele>
        <time>2013-09-21T12:48:56Z</time>
      </trkpt>
      <trkpt lat="45.67897" lon="2.77352">
        <ele>914.83</ele>
        <time>2013-09-21T12:48:57Z</time>
      </trkpt>
      <trkpt lat="45.67897" lon="2.77349">
        <ele>914.83</ele>
        <time>2013-09-21T12:48:58Z</time>
      </trkpt>
      <trkpt lat="45.67898" lon="2.77346">
        <ele>915.31</ele>
        <time>2013-09-21T12:48:59Z</time>
      </trkpt>
      <trkpt lat="45.67899" lon="2.77343">
        <ele>915.31</ele>
        <time>2013-09-21T12:49:00Z</time>
      </trkpt>
      <trkpt lat="45.679" lon="2.77341">
        <ele>915.79</ele>
        <time>2013-09-21T12:49:01Z</time>
      </trkpt>
      <trkpt lat="45.67901" lon="2.77338">
        <ele>915.79</ele>
        <time>2013-09-21T12:49:02Z</time>
      </trkpt>
      <trkpt lat="45.67901" lon="2.77336">
        <ele>916.27</ele>
        <time>2013-09-21T12:49:04Z</time>
      </trkpt>
      <trkpt lat="45.67899" lon="2.77336">
        <ele>916.27</ele>
        <time>2013-09-21T12:49:05Z</time>
      </trkpt>
      <trkpt lat="45.67898" lon="2.77338">
        <ele>916.27</ele>
        <time>2013-09-21T12:49:06Z</time>
      </trkpt>
      <trkpt lat="45.67897" lon="2.77341">
        <ele>915.79</ele>
        <time>2013-09-21T12:49:07Z</time>
      </trkpt>
      <trkpt lat="45.67896" lon="2.77345">
        <ele>915.79</ele>
        <time>2013-09-21T12:49:08Z</time>
      </trkpt>
      <trkpt lat="45.67894" lon="2.77349">
        <ele>915.79</ele>
        <time>2013-09-21T12:49:10Z</time>
      </trkpt>
      <trkpt lat="45.67894" lon="2.77352">
        <ele>915.31</ele>
        <time>2013-09-21T12:49:11Z</time>
      </trkpt>
      <trkpt lat="45.67893" lon="2.77354">
        <ele>915.31</ele>
        <time>2013-09-21T12:49:12Z</time>
      </trkpt>
      <trkpt lat="45.67893" lon="2.77357">
        <ele>914.83</ele>
        <time>2013-09-21T12:49:13Z</time>
      </trkpt>
      <trkpt lat="45.67894" lon="2.7736">
        <ele>914.83</ele>
        <time>2013-09-21T12:49:14Z</time>
      </trkpt>
      <trkpt lat="45.67895" lon="2.77363">
        <ele>914.83</ele>
        <time>2013-09-21T12:49:15Z</time>
      </trkpt>
      <trkpt lat="45.67898" lon="2.77365">
        <ele>913.87</ele>
        <time>2013-09-21T12:49:16Z</time>
      </trkpt>
      <trkpt lat="45.67901" lon="2.77366">
        <ele>914.35</ele>
        <time>2013-09-21T12:49:17Z</time>
      </trkpt>
      <trkpt lat="45.67905" lon="2.77369">
        <ele>913.39</ele>
        <time>2013-09-21T12:49:18Z</time>
      </trkpt>
      <trkpt lat="45.67908" lon="2.77371">
        <ele>912.91</ele>
        <time>2013-09-21T12:49:19Z</time>
      </trkpt>
      <trkpt lat="45.67921" lon="2.77378">
        <ele>911.47</ele>
        <time>2013-09-21T12:49:23Z</time>
      </trkpt>
      <trkpt lat="45.67924" lon="2.77376">
        <ele>911.47</ele>
        <time>2013-09-21T12:49:24Z</time>
      </trkpt>
      <trkpt lat="45.67943" lon="2.77323">
        <ele>911.47</ele>
        <time>2013-09-21T12:49:38Z</time>
      </trkpt>
      <trkpt lat="45.67961" lon="2.77248">
        <ele>909.54</ele>
        <time>2013-09-21T12:49:52Z</time>
      </trkpt>
      <trkpt lat="45.67962" lon="2.77241">
        <ele>909.54</ele>
        <time>2013-09-21T12:49:53Z</time>
      </trkpt>
      <trkpt lat="45.67962" lon="2.77234">
        <ele>909.06</ele>
        <time>2013-09-21T12:49:54Z</time>
      </trkpt>
      <trkpt lat="45.67965" lon="2.77179">
        <ele>908.1</ele>
        <time>2013-09-21T12:50:02Z</time>
      </trkpt>
      <trkpt lat="45.67967" lon="2.77174">
        <ele>908.58</ele>
        <time>2013-09-21T12:50:03Z</time>
      </trkpt>
      <trkpt lat="45.67972" lon="2.77162">
        <ele>908.1</ele>
        <time>2013-09-21T12:50:05Z</time>
      </trkpt>
      <trkpt lat="45.67975" lon="2.77157">
        <ele>908.1</ele>
        <time>2013-09-21T12:50:06Z</time>
      </trkpt>
      <trkpt lat="45.67979" lon="2.77153">
        <ele>908.58</ele>
        <time>2013-09-21T12:50:07Z</time>
      </trkpt>
      <trkpt lat="45.67982" lon="2.77149">
        <ele>907.62</ele>
        <time>2013-09-21T12:50:08Z</time>
      </trkpt>
      <trkpt lat="45.67987" lon="2.77147">
        <ele>908.1</ele>
        <time>2013-09-21T12:50:09Z</time>
      </trkpt>
      <trkpt lat="45.67991" lon="2.77145">
        <ele>908.1</ele>
        <time>2013-09-21T12:50:10Z</time>
      </trkpt>
      <trkpt lat="45.67996" lon="2.77144">
        <ele>908.1</ele>
        <time>2013-09-21T12:50:11Z</time>
      </trkpt>
      <trkpt lat="45.68001" lon="2.77145">
        <ele>908.1</ele>
        <time>2013-09-21T12:50:12Z</time>
      </trkpt>
      <trkpt lat="45.68005" lon="2.77147">
        <ele>907.62</ele>
        <time>2013-09-21T12:50:13Z</time>
      </trkpt>
      <trkpt lat="45.68015" lon="2.7715">
        <ele>908.1</ele>
        <time>2013-09-21T12:50:15Z</time>
      </trkpt>
      <trkpt lat="45.68053" lon="2.77175">
        <ele>909.06</ele>
        <time>2013-09-21T12:50:26Z</time>
      </trkpt>
      <trkpt lat="45.68054" lon="2.77179">
        <ele>908.58</ele>
        <time>2013-09-21T12:50:27Z</time>
      </trkpt>
      <trkpt lat="45.68038" lon="2.77197">
        <ele>908.58</ele>
        <time>2013-09-21T12:50:35Z</time>
      </trkpt>
      <trkpt lat="45.68036" lon="2.77196">
        <ele>908.58</ele>
        <time>2013-09-21T12:50:45Z</time>
      </trkpt>
      <trkpt lat="45.68036" lon="2.77196">
        <ele>908.58</ele>
        <time>2013-09-21T12:51:16Z</time>
      </trkpt>
      <trkpt lat="45.68036" lon="2.77195">
        <ele>909.06</ele>
        <time>2013-09-21T12:51:59Z</time>
      </trkpt>
      <trkpt lat="45.68034" lon="2.77194">
        <ele>908.1</ele>
        <time>2013-09-21T12:52:35Z</time>
      </trkpt>
      <trkpt lat="45.68033" lon="2.77193">
        <ele>908.58</ele>
        <time>2013-09-21T12:53:04Z</time>
      </trkpt>
      <trkpt lat="45.68037" lon="2.77196">
        <ele>909.06</ele>
        <time>2013-09-21T12:53:33Z</time>
      </trkpt>
      <trkpt lat="45.68036" lon="2.77197">
        <ele>908.58</ele>
        <time>2013-09-21T12:54:07Z</time>
      </trkpt>
      <trkpt lat="45.68036" lon="2.77195">
        <ele>907.62</ele>
        <time>2013-09-21T12:54:39Z</time>
      </trkpt>
      <trkpt lat="45.68036" lon="2.77196">
        <ele>908.1</ele>
        <time>2013-09-21T12:55:16Z</time>
      </trkpt>
      <trkpt lat="45.68036" lon="2.77196">
        <ele>908.58</ele>
        <time>2013-09-21T12:55:55Z</time>
      </trkpt>
      <trkpt lat="45.68036" lon="2.77194">
        <ele>908.1</ele>
        <time>2013-09-21T12:56:41Z</time>
      </trkpt>
      <trkpt lat="45.68036" lon="2.77195">
        <ele>908.58</ele>
        <time>2013-09-21T12:57:09Z</time>
      </trkpt>
      <trkpt lat="45.68037" lon="2.77194">
        <ele>908.1</ele>
        <time>2013-09-21T12:57:35Z</time>
      </trkpt>
      <trkpt lat="45.68038" lon="2.77193">
        <ele>908.1</ele>
        <time>2013-09-21T12:57:36Z</time>
      </trkpt>
      <trkpt lat="45.68048" lon="2.77185">
        <ele>908.1</ele>
        <time>2013-09-21T12:57:44Z</time>
      </trkpt>
      <trkpt lat="45.68052" lon="2.77182">
        <ele>908.58</ele>
        <time>2013-09-21T12:57:46Z</time>
      </trkpt>
      <trkpt lat="45.68054" lon="2.7718">
        <ele>907.62</ele>
        <time>2013-09-21T12:57:47Z</time>
      </trkpt>
      <trkpt lat="45.68053" lon="2.77171">
        <ele>909.06</ele>
        <time>2013-09-21T12:57:51Z</time>
      </trkpt>
      <trkpt lat="45.68023" lon="2.77151">
        <ele>908.1</ele>
        <time>2013-09-21T12:58:04Z</time>
      </trkpt>
      <trkpt lat="45.67979" lon="2.77148">
        <ele>908.58</ele>
        <time>2013-09-21T12:58:17Z</time>
      </trkpt>
      <trkpt lat="45.6796" lon="2.77197">
        <ele>908.1</ele>
        <time>2013-09-21T12:58:28Z</time>
      </trkpt>
      <trkpt lat="45.67956" lon="2.77261">
        <ele>909.54</ele>
        <time>2013-09-21T12:58:41Z</time>
      </trkpt>
      <trkpt lat="45.67938" lon="2.77323">
        <ele>910.99</ele>
        <time>2013-09-21T12:58:56Z</time>
      </trkpt>
      <trkpt lat="45.6792" lon="2.77365">
        <ele>911.47</ele>
        <time>2013-09-21T12:59:07Z</time>
      </trkpt>
      <trkpt lat="45.67897" lon="2.77358">
        <ele>913.87</ele>
        <time>2013-09-21T12:59:18Z</time>
      </trkpt>
      <trkpt lat="45.67881" lon="2.77343">
        <ele>916.27</ele>
        <time>2013-09-21T12:59:29Z</time>
      </trkpt>
      <trkpt lat="45.67854" lon="2.77321">
        <ele>918.68</ele>
        <time>2013-09-21T12:59:46Z</time>
      </trkpt>
      <trkpt lat="45.67828" lon="2.77309">
        <ele>921.56</ele>
        <time>2013-09-21T13:00:00Z</time>
      </trkpt>
      <trkpt lat="45.67807" lon="2.77281">
        <ele>923.48</ele>
        <time>2013-09-21T13:00:17Z</time>
      </trkpt>
      <trkpt lat="45.67795" lon="2.77249">
        <ele>925.89</ele>
        <time>2013-09-21T13:00:31Z</time>
      </trkpt>
      <trkpt lat="45.67781" lon="2.77217">
        <ele>927.81</ele>
        <time>2013-09-21T13:00:46Z</time>
      </trkpt>
      <trkpt lat="45.67765" lon="2.77197">
        <ele>929.73</ele>
        <time>2013-09-21T13:00:58Z</time>
      </trkpt>
      <trkpt lat="45.67732" lon="2.77168">
        <ele>930.69</ele>
        <time>2013-09-21T13:01:14Z</time>
      </trkpt>
      <trkpt lat="45.67692" lon="2.77139">
        <ele>930.69</ele>
        <time>2013-09-21T13:01:28Z</time>
      </trkpt>
      <trkpt lat="45.67645" lon="2.77115">
        <ele>933.1</ele>
        <time>2013-09-21T13:01:44Z</time>
      </trkpt>
      <trkpt lat="45.67624" lon="2.77128">
        <ele>935.5</ele>
        <time>2013-09-21T13:01:55Z</time>
      </trkpt>
      <trkpt lat="45.67616" lon="2.77161">
        <ele>938.38</ele>
        <time>2013-09-21T13:02:11Z</time>
      </trkpt>
      <trkpt lat="45.67617" lon="2.77167">
        <ele>939.35</ele>
        <time>2013-09-21T13:02:14Z</time>
      </trkpt>
      <trkpt lat="45.6764" lon="2.77193">
        <ele>942.23</ele>
        <time>2013-09-21T13:02:32Z</time>
      </trkpt>
      <trkpt lat="45.67669" lon="2.77217">
        <ele>945.59</ele>
        <time>2013-09-21T13:02:51Z</time>
      </trkpt>
      <trkpt lat="45.67677" lon="2.77247">
        <ele>947.52</ele>
        <time>2013-09-21T13:03:06Z</time>
      </trkpt>
      <trkpt lat="45.67655" lon="2.77263">
        <ele>948.48</ele>
        <time>2013-09-21T13:03:20Z</time>
      </trkpt>
      <trkpt lat="45.6762" lon="2.77263">
        <ele>950.4</ele>
        <time>2013-09-21T13:03:37Z</time>
      </trkpt>
      <trkpt lat="45.67572" lon="2.77263">
        <ele>952.8</ele>
        <time>2013-09-21T13:03:56Z</time>
      </trkpt>
      <trkpt lat="45.67523" lon="2.77261">
        <ele>954.25</ele>
        <time>2013-09-21T13:04:13Z</time>
      </trkpt>
      <trkpt lat="45.67473" lon="2.77248">
        <ele>955.69</ele>
        <time>2013-09-21T13:04:28Z</time>
      </trkpt>
      <trkpt lat="45.67428" lon="2.77233">
        <ele>957.61</ele>
        <time>2013-09-21T13:04:41Z</time>
      </trkpt>
      <trkpt lat="45.67358" lon="2.77223">
        <ele>960.49</ele>
        <time>2013-09-21T13:05:01Z</time>
      </trkpt>
      <trkpt lat="45.67301" lon="2.7722">
        <ele>963.38</ele>
        <time>2013-09-21T13:05:18Z</time>
      </trkpt>
      <trkpt lat="45.6724" lon="2.77198">
        <ele>964.82</ele>
        <time>2013-09-21T13:05:37Z</time>
      </trkpt>
      <trkpt lat="45.67194" lon="2.77181">
        <ele>965.78</ele>
        <time>2013-09-21T13:05:50Z</time>
      </trkpt>
      <trkpt lat="45.67139" lon="2.7716">
        <ele>967.22</ele>
        <time>2013-09-21T13:06:06Z</time>
      </trkpt>
      <trkpt lat="45.67078" lon="2.77121">
        <ele>969.15</ele>
        <time>2013-09-21T13:06:24Z</time>
      </trkpt>
      <trkpt lat="45.67032" lon="2.77096">
        <ele>971.07</ele>
        <time>2013-09-21T13:06:38Z</time>
      </trkpt>
      <trkpt lat="45.66987" lon="2.77075">
        <ele>971.07</ele>
        <time>2013-09-21T13:06:51Z</time>
      </trkpt>
      <trkpt lat="45.66941" lon="2.77068">
        <ele>972.03</ele>
        <time>2013-09-21T13:07:04Z</time>
      </trkpt>
      <trkpt lat="45.66898" lon="2.77067">
        <ele>973.47</ele>
        <time>2013-09-21T13:07:17Z</time>
      </trkpt>
      <trkpt lat="45.66868" lon="2.77058">
        <ele>971.07</ele>
        <time>2013-09-21T13:07:23Z</time>
      </trkpt>
      <trkpt lat="45.66862" lon="2.77054">
        <ele>970.59</ele>
        <time>2013-09-21T13:07:24Z</time>
      </trkpt>
      <trkpt lat="45.66857" lon="2.77049">
        <ele>969.15</ele>
        <time>2013-09-21T13:07:25Z</time>
      </trkpt>
      <trkpt lat="45.66853" lon="2.77042">
        <ele>968.67</ele>
        <time>2013-09-21T13:07:26Z</time>
      </trkpt>
      <trkpt lat="45.66849" lon="2.77035">
        <ele>967.7</ele>
        <time>2013-09-21T13:07:27Z</time>
      </trkpt>
      <trkpt lat="45.66844" lon="2.77029">
        <ele>968.18</ele>
        <time>2013-09-21T13:07:28Z</time>
      </trkpt>
      <trkpt lat="45.66838" lon="2.77026">
        <ele>967.22</ele>
        <time>2013-09-21T13:07:29Z</time>
      </trkpt>
      <trkpt lat="45.66833" lon="2.77025">
        <ele>967.7</ele>
        <time>2013-09-21T13:07:30Z</time>
      </trkpt>
      <trkpt lat="45.66828" lon="2.77024">
        <ele>967.7</ele>
        <time>2013-09-21T13:07:31Z</time>
      </trkpt>
      <trkpt lat="45.66825" lon="2.77019">
        <ele>967.7</ele>
        <time>2013-09-21T13:07:32Z</time>
      </trkpt>
      <trkpt lat="45.66824" lon="2.77013">
        <ele>967.22</ele>
        <time>2013-09-21T13:07:33Z</time>
      </trkpt>
      <trkpt lat="45.66825" lon="2.77006">
        <ele>967.22</ele>
        <time>2013-09-21T13:07:34Z</time>
      </trkpt>
      <trkpt lat="45.66827" lon="2.76999">
        <ele>966.74</ele>
        <time>2013-09-21T13:07:35Z</time>
      </trkpt>
      <trkpt lat="45.66828" lon="2.76992">
        <ele>966.26</ele>
        <time>2013-09-21T13:07:36Z</time>
      </trkpt>
      <trkpt lat="45.66828" lon="2.76984">
        <ele>965.78</ele>
        <time>2013-09-21T13:07:37Z</time>
      </trkpt>
      <trkpt lat="45.66827" lon="2.76976">
        <ele>965.78</ele>
        <time>2013-09-21T13:07:38Z</time>
      </trkpt>
      <trkpt lat="45.66825" lon="2.76968">
        <ele>965.3</ele>
        <time>2013-09-21T13:07:39Z</time>
      </trkpt>
      <trkpt lat="45.66822" lon="2.76958">
        <ele>963.86</ele>
        <time>2013-09-21T13:07:40Z</time>
      </trkpt>
      <trkpt lat="45.66815" lon="2.76938">
        <ele>961.94</ele>
        <time>2013-09-21T13:07:42Z</time>
      </trkpt>
      <trkpt lat="45.66811" lon="2.76929">
        <ele>960.49</ele>
        <time>2013-09-21T13:07:43Z</time>
      </trkpt>
      <trkpt lat="45.66805" lon="2.76921">
        <ele>960.01</ele>
        <time>2013-09-21T13:07:44Z</time>
      </trkpt>
      <trkpt lat="45.66799" lon="2.76915">
        <ele>960.49</ele>
        <time>2013-09-21T13:07:45Z</time>
      </trkpt>
      <trkpt lat="45.66793" lon="2.76913">
        <ele>960.98</ele>
        <time>2013-09-21T13:07:46Z</time>
      </trkpt>
      <trkpt lat="45.66787" lon="2.76913">
        <ele>961.46</ele>
        <time>2013-09-21T13:07:47Z</time>
      </trkpt>
      <trkpt lat="45.66781" lon="2.76914">
        <ele>962.42</ele>
        <time>2013-09-21T13:07:48Z</time>
      </trkpt>
      <trkpt lat="45.66775" lon="2.76915">
        <ele>962.9</ele>
        <time>2013-09-21T13:07:49Z</time>
      </trkpt>
      <trkpt lat="45.6677" lon="2.76917">
        <ele>962.9</ele>
        <time>2013-09-21T13:07:50Z</time>
      </trkpt>
      <trkpt lat="45.66745" lon="2.7692">
        <ele>965.78</ele>
        <time>2013-09-21T13:07:59Z</time>
      </trkpt>
      <trkpt lat="45.66725" lon="2.76918">
        <ele>968.18</ele>
        <time>2013-09-21T13:08:13Z</time>
      </trkpt>
      <trkpt lat="45.6671" lon="2.76916">
        <ele>971.07</ele>
        <time>2013-09-21T13:08:25Z</time>
      </trkpt>
      <trkpt lat="45.66708" lon="2.76916">
        <ele>971.55</ele>
        <time>2013-09-21T13:08:26Z</time>
      </trkpt>
      <trkpt lat="45.66707" lon="2.76916">
        <ele>972.03</ele>
        <time>2013-09-21T13:08:27Z</time>
      </trkpt>
      <trkpt lat="45.66694" lon="2.76914">
        <ele>973.95</ele>
        <time>2013-09-21T13:08:38Z</time>
      </trkpt>
      <trkpt lat="45.66693" lon="2.76913">
        <ele>974.43</ele>
        <time>2013-09-21T13:08:39Z</time>
      </trkpt>
      <trkpt lat="45.66692" lon="2.76912">
        <ele>974.91</ele>
        <time>2013-09-21T13:08:40Z</time>
      </trkpt>
      <trkpt lat="45.6669" lon="2.76912">
        <ele>974.91</ele>
        <time>2013-09-21T13:08:41Z</time>
      </trkpt>
      <trkpt lat="45.66689" lon="2.76911">
        <ele>974.91</ele>
        <time>2013-09-21T13:08:42Z</time>
      </trkpt>
      <trkpt lat="45.66688" lon="2.7691">
        <ele>974.91</ele>
        <time>2013-09-21T13:08:43Z</time>
      </trkpt>
      <trkpt lat="45.66687" lon="2.76909">
        <ele>974.91</ele>
        <time>2013-09-21T13:08:44Z</time>
      </trkpt>
      <trkpt lat="45.66686" lon="2.76907">
        <ele>975.88</ele>
        <time>2013-09-21T13:08:45Z</time>
      </trkpt>
      <trkpt lat="45.66686" lon="2.76905">
        <ele>975.39</ele>
        <time>2013-09-21T13:08:46Z</time>
      </trkpt>
      <trkpt lat="45.66684" lon="2.76902">
        <ele>976.36</ele>
        <time>2013-09-21T13:08:48Z</time>
      </trkpt>
      <trkpt lat="45.6668" lon="2.76881">
        <ele>978.28</ele>
        <time>2013-09-21T13:09:00Z</time>
      </trkpt>
      <trkpt lat="45.66679" lon="2.76879">
        <ele>977.8</ele>
        <time>2013-09-21T13:09:01Z</time>
      </trkpt>
      <trkpt lat="45.66679" lon="2.76877">
        <ele>977.8</ele>
        <time>2013-09-21T13:09:02Z</time>
      </trkpt>
      <trkpt lat="45.66679" lon="2.76876">
        <ele>978.28</ele>
        <time>2013-09-21T13:09:03Z</time>
      </trkpt>
      <trkpt lat="45.66679" lon="2.76874">
        <ele>978.76</ele>
        <time>2013-09-21T13:09:04Z</time>
      </trkpt>
      <trkpt lat="45.66674" lon="2.76841">
        <ele>981.16</ele>
        <time>2013-09-21T13:09:22Z</time>
      </trkpt>
      <trkpt lat="45.66674" lon="2.76829">
        <ele>982.12</ele>
        <time>2013-09-21T13:09:29Z</time>
      </trkpt>
      <trkpt lat="45.66673" lon="2.76827">
        <ele>982.12</ele>
        <time>2013-09-21T13:09:30Z</time>
      </trkpt>
      <trkpt lat="45.66672" lon="2.76798">
        <ele>984.53</ele>
        <time>2013-09-21T13:09:46Z</time>
      </trkpt>
      <trkpt lat="45.66672" lon="2.76793">
        <ele>985.01</ele>
        <time>2013-09-21T13:09:48Z</time>
      </trkpt>
      <trkpt lat="45.66671" lon="2.76791">
        <ele>985.01</ele>
        <time>2013-09-21T13:09:49Z</time>
      </trkpt>
      <trkpt lat="45.66669" lon="2.76789">
        <ele>984.05</ele>
        <time>2013-09-21T13:09:50Z</time>
      </trkpt>
      <trkpt lat="45.66668" lon="2.76786">
        <ele>984.05</ele>
        <time>2013-09-21T13:09:51Z</time>
      </trkpt>
      <trkpt lat="45.66666" lon="2.76784">
        <ele>983.57</ele>
        <time>2013-09-21T13:09:52Z</time>
      </trkpt>
      <trkpt lat="45.66663" lon="2.76781">
        <ele>983.57</ele>
        <time>2013-09-21T13:09:53Z</time>
      </trkpt>
      <trkpt lat="45.6666" lon="2.76778">
        <ele>983.57</ele>
        <time>2013-09-21T13:09:54Z</time>
      </trkpt>
      <trkpt lat="45.66647" lon="2.76765">
        <ele>982.6</ele>
        <time>2013-09-21T13:09:58Z</time>
      </trkpt>
      <trkpt lat="45.66644" lon="2.76761">
        <ele>982.6</ele>
        <time>2013-09-21T13:09:59Z</time>
      </trkpt>
      <trkpt lat="45.6661" lon="2.76725">
        <ele>979.72</ele>
        <time>2013-09-21T13:10:06Z</time>
      </trkpt>
      <trkpt lat="45.6656" lon="2.76681">
        <ele>978.28</ele>
        <time>2013-09-21T13:10:15Z</time>
      </trkpt>
      <trkpt lat="45.66555" lon="2.76677">
        <ele>978.28</ele>
        <time>2013-09-21T13:10:16Z</time>
      </trkpt>
      <trkpt lat="45.66541" lon="2.76669">
        <ele>977.8</ele>
        <time>2013-09-21T13:10:19Z</time>
      </trkpt>
      <trkpt lat="45.66537" lon="2.76669">
        <ele>978.28</ele>
        <time>2013-09-21T13:10:20Z</time>
      </trkpt>
      <trkpt lat="45.66535" lon="2.76672">
        <ele>978.28</ele>
        <time>2013-09-21T13:10:21Z</time>
      </trkpt>
      <trkpt lat="45.66533" lon="2.76677">
        <ele>977.8</ele>
        <time>2013-09-21T13:10:22Z</time>
      </trkpt>
      <trkpt lat="45.66531" lon="2.76684">
        <ele>976.84</ele>
        <time>2013-09-21T13:10:23Z</time>
      </trkpt>
      <trkpt lat="45.66528" lon="2.76691">
        <ele>975.88</ele>
        <time>2013-09-21T13:10:24Z</time>
      </trkpt>
      <trkpt lat="45.66519" lon="2.76716">
        <ele>973.95</ele>
        <time>2013-09-21T13:10:27Z</time>
      </trkpt>
      <trkpt lat="45.66508" lon="2.76741">
        <ele>973.47</ele>
        <time>2013-09-21T13:10:30Z</time>
      </trkpt>
      <trkpt lat="45.66503" lon="2.76747">
        <ele>973.95</ele>
        <time>2013-09-21T13:10:31Z</time>
      </trkpt>
      <trkpt lat="45.66497" lon="2.76749">
        <ele>973.95</ele>
        <time>2013-09-21T13:10:32Z</time>
      </trkpt>
      <trkpt lat="45.66491" lon="2.76748">
        <ele>974.43</ele>
        <time>2013-09-21T13:10:33Z</time>
      </trkpt>
      <trkpt lat="45.66485" lon="2.76745">
        <ele>973.95</ele>
        <time>2013-09-21T13:10:34Z</time>
      </trkpt>
      <trkpt lat="45.66466" lon="2.76733">
        <ele>976.36</ele>
        <time>2013-09-21T13:10:39Z</time>
      </trkpt>
      <trkpt lat="45.66438" lon="2.76715">
        <ele>976.84</ele>
        <time>2013-09-21T13:10:52Z</time>
      </trkpt>
      <trkpt lat="45.66401" lon="2.76708">
        <ele>977.8</ele>
        <time>2013-09-21T13:11:05Z</time>
      </trkpt>
      <trkpt lat="45.66357" lon="2.76706">
        <ele>979.24</ele>
        <time>2013-09-21T13:11:21Z</time>
      </trkpt>
      <trkpt lat="45.66313" lon="2.76704">
        <ele>981.16</ele>
        <time>2013-09-21T13:11:37Z</time>
      </trkpt>
      <trkpt lat="45.66268" lon="2.76702">
        <ele>981.64</ele>
        <time>2013-09-21T13:11:52Z</time>
      </trkpt>
      <trkpt lat="45.66215" lon="2.76715">
        <ele>983.09</ele>
        <time>2013-09-21T13:12:10Z</time>
      </trkpt>
      <trkpt lat="45.66175" lon="2.7673">
        <ele>985.01</ele>
        <time>2013-09-21T13:12:24Z</time>
      </trkpt>
      <trkpt lat="45.6612" lon="2.76752">
        <ele>986.93</ele>
        <time>2013-09-21T13:12:42Z</time>
      </trkpt>
      <trkpt lat="45.66081" lon="2.7678">
        <ele>988.85</ele>
        <time>2013-09-21T13:12:58Z</time>
      </trkpt>
      <trkpt lat="45.66054" lon="2.76806">
        <ele>989.81</ele>
        <time>2013-09-21T13:13:12Z</time>
      </trkpt>
      <trkpt lat="45.6602" lon="2.76821">
        <ele>990.78</ele>
        <time>2013-09-21T13:13:23Z</time>
      </trkpt>
      <trkpt lat="45.66017" lon="2.76823">
        <ele>990.3</ele>
        <time>2013-09-21T13:13:24Z</time>
      </trkpt>
      <trkpt lat="45.66014" lon="2.76824">
        <ele>989.81</ele>
        <time>2013-09-21T13:13:25Z</time>
      </trkpt>
      <trkpt lat="45.66012" lon="2.76827">
        <ele>990.78</ele>
        <time>2013-09-21T13:13:26Z</time>
      </trkpt>
      <trkpt lat="45.6601" lon="2.7683">
        <ele>990.78</ele>
        <time>2013-09-21T13:13:27Z</time>
      </trkpt>
      <trkpt lat="45.66007" lon="2.76831">
        <ele>990.3</ele>
        <time>2013-09-21T13:13:28Z</time>
      </trkpt>
      <trkpt lat="45.65966" lon="2.76862">
        <ele>991.26</ele>
        <time>2013-09-21T13:13:44Z</time>
      </trkpt>
      <trkpt lat="45.65935" lon="2.76905">
        <ele>992.22</ele>
        <time>2013-09-21T13:13:58Z</time>
      </trkpt>
      <trkpt lat="45.65895" lon="2.76943">
        <ele>994.62</ele>
        <time>2013-09-21T13:14:14Z</time>
      </trkpt>
      <trkpt lat="45.65875" lon="2.76985">
        <ele>996.06</ele>
        <time>2013-09-21T13:14:27Z</time>
      </trkpt>
      <trkpt lat="45.65862" lon="2.77018">
        <ele>998.95</ele>
        <time>2013-09-21T13:14:41Z</time>
      </trkpt>
      <trkpt lat="45.65852" lon="2.77039">
        <ele>1001.35</ele>
        <time>2013-09-21T13:14:54Z</time>
      </trkpt>
      <trkpt lat="45.65852" lon="2.77041">
        <ele>1001.35</ele>
        <time>2013-09-21T13:14:55Z</time>
      </trkpt>
      <trkpt lat="45.65851" lon="2.77043">
        <ele>1000.87</ele>
        <time>2013-09-21T13:14:56Z</time>
      </trkpt>
      <trkpt lat="45.6585" lon="2.77045">
        <ele>1001.35</ele>
        <time>2013-09-21T13:14:57Z</time>
      </trkpt>
      <trkpt lat="45.6585" lon="2.77047">
        <ele>1001.83</ele>
        <time>2013-09-21T13:14:58Z</time>
      </trkpt>
      <trkpt lat="45.6585" lon="2.77049">
        <ele>1002.79</ele>
        <time>2013-09-21T13:14:59Z</time>
      </trkpt>
      <trkpt lat="45.65851" lon="2.77055">
        <ele>1002.79</ele>
        <time>2013-09-21T13:15:02Z</time>
      </trkpt>
      <trkpt lat="45.65852" lon="2.77057">
        <ele>1003.27</ele>
        <time>2013-09-21T13:15:03Z</time>
      </trkpt>
      <trkpt lat="45.65852" lon="2.77059">
        <ele>1003.27</ele>
        <time>2013-09-21T13:15:04Z</time>
      </trkpt>
      <trkpt lat="45.65853" lon="2.77082">
        <ele>1006.64</ele>
        <time>2013-09-21T13:15:16Z</time>
      </trkpt>
      <trkpt lat="45.65854" lon="2.77083">
        <ele>1006.64</ele>
        <time>2013-09-21T13:15:17Z</time>
      </trkpt>
      <trkpt lat="45.65854" lon="2.77086">
        <ele>1007.12</ele>
        <time>2013-09-21T13:15:18Z</time>
      </trkpt>
      <trkpt lat="45.65854" lon="2.77098">
        <ele>1008.56</ele>
        <time>2013-09-21T13:15:24Z</time>
      </trkpt>
      <trkpt lat="45.65854" lon="2.77099">
        <ele>1008.56</ele>
        <time>2013-09-21T13:15:25Z</time>
      </trkpt>
      <trkpt lat="45.65855" lon="2.77101">
        <ele>1008.56</ele>
        <time>2013-09-21T13:15:26Z</time>
      </trkpt>
      <trkpt lat="45.65856" lon="2.77116">
        <ele>1010.48</ele>
        <time>2013-09-21T13:15:34Z</time>
      </trkpt>
      <trkpt lat="45.65856" lon="2.77118">
        <ele>1010</ele>
        <time>2013-09-21T13:15:35Z</time>
      </trkpt>
      <trkpt lat="45.65856" lon="2.7712">
        <ele>1010</ele>
        <time>2013-09-21T13:15:36Z</time>
      </trkpt>
      <trkpt lat="45.65859" lon="2.77144">
        <ele>1011.93</ele>
        <time>2013-09-21T13:15:49Z</time>
      </trkpt>
      <trkpt lat="45.65859" lon="2.77145">
        <ele>1011.93</ele>
        <time>2013-09-21T13:15:50Z</time>
      </trkpt>
      <trkpt lat="45.65859" lon="2.77147">
        <ele>1011.93</ele>
        <time>2013-09-21T13:15:51Z</time>
      </trkpt>
      <trkpt lat="45.65859" lon="2.77149">
        <ele>1011.93</ele>
        <time>2013-09-21T13:15:52Z</time>
      </trkpt>
      <trkpt lat="45.65859" lon="2.7715">
        <ele>1012.41</ele>
        <time>2013-09-21T13:15:53Z</time>
      </trkpt>
      <trkpt lat="45.65859" lon="2.77156">
        <ele>1011.93</ele>
        <time>2013-09-21T13:15:56Z</time>
      </trkpt>
      <trkpt lat="45.65859" lon="2.77157">
        <ele>1012.41</ele>
        <time>2013-09-21T13:15:57Z</time>
      </trkpt>
      <trkpt lat="45.65859" lon="2.77159">
        <ele>1012.41</ele>
        <time>2013-09-21T13:15:58Z</time>
      </trkpt>
      <trkpt lat="45.65859" lon="2.77161">
        <ele>1012.41</ele>
        <time>2013-09-21T13:15:59Z</time>
      </trkpt>
      <trkpt lat="45.65859" lon="2.77163">
        <ele>1012.89</ele>
        <time>2013-09-21T13:16:00Z</time>
      </trkpt>
      <trkpt lat="45.65859" lon="2.77165">
        <ele>1012.89</ele>
        <time>2013-09-21T13:16:01Z</time>
      </trkpt>
      <trkpt lat="45.6586" lon="2.77175">
        <ele>1013.37</ele>
        <time>2013-09-21T13:16:06Z</time>
      </trkpt>
      <trkpt lat="45.65859" lon="2.77177">
        <ele>1013.37</ele>
        <time>2013-09-21T13:16:07Z</time>
      </trkpt>
      <trkpt lat="45.65859" lon="2.77179">
        <ele>1013.85</ele>
        <time>2013-09-21T13:16:08Z</time>
      </trkpt>
      <trkpt lat="45.6586" lon="2.77181">
        <ele>1014.33</ele>
        <time>2013-09-21T13:16:09Z</time>
      </trkpt>
      <trkpt lat="45.6586" lon="2.77183">
        <ele>1013.85</ele>
        <time>2013-09-21T13:16:10Z</time>
      </trkpt>
      <trkpt lat="45.6586" lon="2.77185">
        <ele>1014.33</ele>
        <time>2013-09-21T13:16:11Z</time>
      </trkpt>
      <trkpt lat="45.6586" lon="2.77187">
        <ele>1014.33</ele>
        <time>2013-09-21T13:16:12Z</time>
      </trkpt>
      <trkpt lat="45.6586" lon="2.77188">
        <ele>1014.33</ele>
        <time>2013-09-21T13:16:13Z</time>
      </trkpt>
      <trkpt lat="45.6586" lon="2.7719">
        <ele>1014.81</ele>
        <time>2013-09-21T13:16:14Z</time>
      </trkpt>
      <trkpt lat="45.65861" lon="2.77192">
        <ele>1014.81</ele>
        <time>2013-09-21T13:16:15Z</time>
      </trkpt>
      <trkpt lat="45.65861" lon="2.77194">
        <ele>1015.29</ele>
        <time>2013-09-21T13:16:16Z</time>
      </trkpt>
      <trkpt lat="45.65861" lon="2.77196">
        <ele>1015.77</ele>
        <time>2013-09-21T13:16:17Z</time>
      </trkpt>
      <trkpt lat="45.65861" lon="2.77198">
        <ele>1015.29</ele>
        <time>2013-09-21T13:16:18Z</time>
      </trkpt>
      <trkpt lat="45.65862" lon="2.772">
        <ele>1015.29</ele>
        <time>2013-09-21T13:16:19Z</time>
      </trkpt>
      <trkpt lat="45.65861" lon="2.77202">
        <ele>1015.77</ele>
        <time>2013-09-21T13:16:20Z</time>
      </trkpt>
      <trkpt lat="45.65861" lon="2.77204">
        <ele>1015.29</ele>
        <time>2013-09-21T13:16:21Z</time>
      </trkpt>
      <trkpt lat="45.65861" lon="2.77205">
        <ele>1015.77</ele>
        <time>2013-09-21T13:16:22Z</time>
      </trkpt>
      <trkpt lat="45.65862" lon="2.77207">
        <ele>1016.25</ele>
        <time>2013-09-21T13:16:23Z</time>
      </trkpt>
      <trkpt lat="45.65862" lon="2.77209">
        <ele>1016.25</ele>
        <time>2013-09-21T13:16:24Z</time>
      </trkpt>
      <trkpt lat="45.65862" lon="2.77211">
        <ele>1016.73</ele>
        <time>2013-09-21T13:16:25Z</time>
      </trkpt>
      <trkpt lat="45.65862" lon="2.77213">
        <ele>1016.25</ele>
        <time>2013-09-21T13:16:26Z</time>
      </trkpt>
      <trkpt lat="45.65862" lon="2.77215">
        <ele>1016.25</ele>
        <time>2013-09-21T13:16:27Z</time>
      </trkpt>
      <trkpt lat="45.65863" lon="2.77228">
        <ele>1017.69</ele>
        <time>2013-09-21T13:16:34Z</time>
      </trkpt>
      <trkpt lat="45.65863" lon="2.77229">
        <ele>1017.69</ele>
        <time>2013-09-21T13:16:35Z</time>
      </trkpt>
      <trkpt lat="45.65863" lon="2.77231">
        <ele>1017.69</ele>
        <time>2013-09-21T13:16:36Z</time>
      </trkpt>
      <trkpt lat="45.65864" lon="2.77233">
        <ele>1018.65</ele>
        <time>2013-09-21T13:16:37Z</time>
      </trkpt>
      <trkpt lat="45.65864" lon="2.77235">
        <ele>1018.65</ele>
        <time>2013-09-21T13:16:38Z</time>
      </trkpt>
      <trkpt lat="45.65864" lon="2.77236">
        <ele>1018.65</ele>
        <time>2013-09-21T13:16:39Z</time>
      </trkpt>
      <trkpt lat="45.65866" lon="2.77257">
        <ele>1021.06</ele>
        <time>2013-09-21T13:16:52Z</time>
      </trkpt>
      <trkpt lat="45.65866" lon="2.77263">
        <ele>1021.54</ele>
        <time>2013-09-21T13:16:56Z</time>
      </trkpt>
      <trkpt lat="45.65867" lon="2.7727">
        <ele>1022.98</ele>
        <time>2013-09-21T13:17:01Z</time>
      </trkpt>
      <trkpt lat="45.6587" lon="2.77297">
        <ele>1025.86</ele>
        <time>2013-09-21T13:17:17Z</time>
      </trkpt>
      <trkpt lat="45.65871" lon="2.77324">
        <ele>1028.27</ele>
        <time>2013-09-21T13:17:33Z</time>
      </trkpt>
      <trkpt lat="45.65874" lon="2.77345">
        <ele>1029.23</ele>
        <time>2013-09-21T13:17:45Z</time>
      </trkpt>
      <trkpt lat="45.65874" lon="2.77347">
        <ele>1030.19</ele>
        <time>2013-09-21T13:17:46Z</time>
      </trkpt>
      <trkpt lat="45.65874" lon="2.7738">
        <ele>1030.67</ele>
        <time>2013-09-21T13:18:03Z</time>
      </trkpt>
      <trkpt lat="45.65873" lon="2.7739">
        <ele>1030.67</ele>
        <time>2013-09-21T13:18:08Z</time>
      </trkpt>
      <trkpt lat="45.65874" lon="2.77401">
        <ele>1030.67</ele>
        <time>2013-09-21T13:18:13Z</time>
      </trkpt>
      <trkpt lat="45.65873" lon="2.77403">
        <ele>1030.67</ele>
        <time>2013-09-21T13:18:14Z</time>
      </trkpt>
      <trkpt lat="45.65873" lon="2.77405">
        <ele>1030.67</ele>
        <time>2013-09-21T13:18:15Z</time>
      </trkpt>
      <trkpt lat="45.65872" lon="2.77408">
        <ele>1030.19</ele>
        <time>2013-09-21T13:18:16Z</time>
      </trkpt>
      <trkpt lat="45.65871" lon="2.7741">
        <ele>1030.67</ele>
        <time>2013-09-21T13:18:17Z</time>
      </trkpt>
      <trkpt lat="45.6587" lon="2.77411">
        <ele>1030.67</ele>
        <time>2013-09-21T13:18:18Z</time>
      </trkpt>
      <trkpt lat="45.65868" lon="2.77413">
        <ele>1031.63</ele>
        <time>2013-09-21T13:18:19Z</time>
      </trkpt>
      <trkpt lat="45.65867" lon="2.77413">
        <ele>1031.63</ele>
        <time>2013-09-21T13:18:20Z</time>
      </trkpt>
      <trkpt lat="45.65839" lon="2.7741">
        <ele>1032.11</ele>
        <time>2013-09-21T13:18:35Z</time>
      </trkpt>
      <trkpt lat="45.65807" lon="2.77411">
        <ele>1033.55</ele>
        <time>2013-09-21T13:18:52Z</time>
      </trkpt>
      <trkpt lat="45.65778" lon="2.77428">
        <ele>1035</ele>
        <time>2013-09-21T13:19:09Z</time>
      </trkpt>
      <trkpt lat="45.65758" lon="2.77458">
        <ele>1035.96</ele>
        <time>2013-09-21T13:19:24Z</time>
      </trkpt>
      <trkpt lat="45.65737" lon="2.77482">
        <ele>1036.92</ele>
        <time>2013-09-21T13:19:37Z</time>
      </trkpt>
      <trkpt lat="45.65736" lon="2.77483">
        <ele>1036.92</ele>
        <time>2013-09-21T13:19:38Z</time>
      </trkpt>
      <trkpt lat="45.65734" lon="2.77484">
        <ele>1037.4</ele>
        <time>2013-09-21T13:19:39Z</time>
      </trkpt>
      <trkpt lat="45.65733" lon="2.77485">
        <ele>1037.4</ele>
        <time>2013-09-21T13:19:40Z</time>
      </trkpt>
      <trkpt lat="45.65731" lon="2.77485">
        <ele>1037.4</ele>
        <time>2013-09-21T13:19:41Z</time>
      </trkpt>
      <trkpt lat="45.65729" lon="2.77485">
        <ele>1037.4</ele>
        <time>2013-09-21T13:19:42Z</time>
      </trkpt>
      <trkpt lat="45.65727" lon="2.77485">
        <ele>1037.4</ele>
        <time>2013-09-21T13:19:43Z</time>
      </trkpt>
      <trkpt lat="45.65703" lon="2.77488">
        <ele>1038.36</ele>
        <time>2013-09-21T13:19:54Z</time>
      </trkpt>
      <trkpt lat="45.65699" lon="2.7749">
        <ele>1039.32</ele>
        <time>2013-09-21T13:19:56Z</time>
      </trkpt>
      <trkpt lat="45.65673" lon="2.77496">
        <ele>1039.8</ele>
        <time>2013-09-21T13:20:09Z</time>
      </trkpt>
      <trkpt lat="45.65648" lon="2.77506">
        <ele>1040.76</ele>
        <time>2013-09-21T13:20:22Z</time>
      </trkpt>
      <trkpt lat="45.6562" lon="2.77527">
        <ele>1042.69</ele>
        <time>2013-09-21T13:20:36Z</time>
      </trkpt>
      <trkpt lat="45.6561" lon="2.77537">
        <ele>1043.65</ele>
        <time>2013-09-21T13:20:42Z</time>
      </trkpt>
      <trkpt lat="45.65599" lon="2.77573">
        <ele>1044.61</ele>
        <time>2013-09-21T13:20:55Z</time>
      </trkpt>
      <trkpt lat="45.65592" lon="2.77615">
        <ele>1045.57</ele>
        <time>2013-09-21T13:21:07Z</time>
      </trkpt>
      <trkpt lat="45.65582" lon="2.77652">
        <ele>1046.53</ele>
        <time>2013-09-21T13:21:17Z</time>
      </trkpt>
      <trkpt lat="45.65559" lon="2.77718">
        <ele>1047.97</ele>
        <time>2013-09-21T13:21:35Z</time>
      </trkpt>
      <trkpt lat="45.65528" lon="2.77752">
        <ele>1049.9</ele>
        <time>2013-09-21T13:21:49Z</time>
      </trkpt>
      <trkpt lat="45.65511" lon="2.77807">
        <ele>1049.9</ele>
        <time>2013-09-21T13:22:02Z</time>
      </trkpt>
      <trkpt lat="45.65497" lon="2.77881">
        <ele>1050.86</ele>
        <time>2013-09-21T13:22:18Z</time>
      </trkpt>
      <trkpt lat="45.65494" lon="2.77885">
        <ele>1051.82</ele>
        <time>2013-09-21T13:22:29Z</time>
      </trkpt>
      <trkpt lat="45.65494" lon="2.77885">
        <ele>1050.86</ele>
        <time>2013-09-21T13:22:54Z</time>
      </trkpt>
      <trkpt lat="45.65492" lon="2.77886">
        <ele>1051.82</ele>
        <time>2013-09-21T13:23:26Z</time>
      </trkpt>
      <trkpt lat="45.65494" lon="2.77885">
        <ele>1050.86</ele>
        <time>2013-09-21T13:23:50Z</time>
      </trkpt>
      <trkpt lat="45.65495" lon="2.77888">
        <ele>1051.34</ele>
        <time>2013-09-21T13:24:21Z</time>
      </trkpt>
      <trkpt lat="45.65494" lon="2.77886">
        <ele>1051.82</ele>
        <time>2013-09-21T13:24:47Z</time>
      </trkpt>
      <trkpt lat="45.65496" lon="2.77887">
        <ele>1051.82</ele>
        <time>2013-09-21T13:25:12Z</time>
      </trkpt>
      <trkpt lat="45.65496" lon="2.77886">
        <ele>1051.82</ele>
        <time>2013-09-21T13:25:27Z</time>
      </trkpt>
      <trkpt lat="45.65496" lon="2.77886">
        <ele>1051.82</ele>
        <time>2013-09-21T13:25:53Z</time>
      </trkpt>
      <trkpt lat="45.65496" lon="2.77886">
        <ele>1051.82</ele>
        <time>2013-09-21T13:26:19Z</time>
      </trkpt>
      <trkpt lat="45.65496" lon="2.77886">
        <ele>1051.82</ele>
        <time>2013-09-21T13:26:45Z</time>
      </trkpt>
      <trkpt lat="45.65495" lon="2.77888">
        <ele>1052.3</ele>
        <time>2013-09-21T13:27:17Z</time>
      </trkpt>
      <trkpt lat="45.65496" lon="2.77895">
        <ele>1052.3</ele>
        <time>2013-09-21T13:27:34Z</time>
      </trkpt>
      <trkpt lat="45.65495" lon="2.77898">
        <ele>1051.82</ele>
        <time>2013-09-21T13:27:35Z</time>
      </trkpt>
      <trkpt lat="45.65494" lon="2.77901">
        <ele>1051.82</ele>
        <time>2013-09-21T13:27:36Z</time>
      </trkpt>
      <trkpt lat="45.65476" lon="2.77946">
        <ele>1050.86</ele>
        <time>2013-09-21T13:27:48Z</time>
      </trkpt>
      <trkpt lat="45.65476" lon="2.77949">
        <ele>1050.86</ele>
        <time>2013-09-21T13:27:49Z</time>
      </trkpt>
      <trkpt lat="45.65475" lon="2.77951">
        <ele>1050.86</ele>
        <time>2013-09-21T13:27:50Z</time>
      </trkpt>
      <trkpt lat="45.65474" lon="2.77953">
        <ele>1051.34</ele>
        <time>2013-09-21T13:27:51Z</time>
      </trkpt>
      <trkpt lat="45.65473" lon="2.77955">
        <ele>1051.34</ele>
        <time>2013-09-21T13:27:52Z</time>
      </trkpt>
      <trkpt lat="45.65471" lon="2.77957">
        <ele>1050.86</ele>
        <time>2013-09-21T13:28:06Z</time>
      </trkpt>
      <trkpt lat="45.65471" lon="2.77959">
        <ele>1051.34</ele>
        <time>2013-09-21T13:28:07Z</time>
      </trkpt>
      <trkpt lat="45.65476" lon="2.77968">
        <ele>1049.9</ele>
        <time>2013-09-21T13:28:19Z</time>
      </trkpt>
      <trkpt lat="45.65477" lon="2.77973">
        <ele>1049.9</ele>
        <time>2013-09-21T13:28:20Z</time>
      </trkpt>
      <trkpt lat="45.65479" lon="2.77979">
        <ele>1049.42</ele>
        <time>2013-09-21T13:28:21Z</time>
      </trkpt>
      <trkpt lat="45.65487" lon="2.78003">
        <ele>1045.57</ele>
        <time>2013-09-21T13:28:24Z</time>
      </trkpt>
      <trkpt lat="45.65493" lon="2.78024">
        <ele>1043.65</ele>
        <time>2013-09-21T13:28:26Z</time>
      </trkpt>
      <trkpt lat="45.65494" lon="2.78036">
        <ele>1042.69</ele>
        <time>2013-09-21T13:28:27Z</time>
      </trkpt>
      <trkpt lat="45.65494" lon="2.78049">
        <ele>1041.25</ele>
        <time>2013-09-21T13:28:28Z</time>
      </trkpt>
      <trkpt lat="45.65492" lon="2.78063">
        <ele>1039.32</ele>
        <time>2013-09-21T13:28:29Z</time>
      </trkpt>
      <trkpt lat="45.6549" lon="2.78077">
        <ele>1037.88</ele>
        <time>2013-09-21T13:28:30Z</time>
      </trkpt>
      <trkpt lat="45.65485" lon="2.78106">
        <ele>1034.52</ele>
        <time>2013-09-21T13:28:32Z</time>
      </trkpt>
      <trkpt lat="45.65483" lon="2.78137">
        <ele>1031.63</ele>
        <time>2013-09-21T13:28:34Z</time>
      </trkpt>
      <trkpt lat="45.65483" lon="2.78152">
        <ele>1030.67</ele>
        <time>2013-09-21T13:28:35Z</time>
      </trkpt>
      <trkpt lat="45.65485" lon="2.78167">
        <ele>1030.19</ele>
        <time>2013-09-21T13:28:36Z</time>
      </trkpt>
      <trkpt lat="45.65487" lon="2.7819">
        <ele>1029.23</ele>
        <time>2013-09-21T13:28:38Z</time>
      </trkpt>
      <trkpt lat="45.65487" lon="2.78198">
        <ele>1030.19</ele>
        <time>2013-09-21T13:28:39Z</time>
      </trkpt>
      <trkpt lat="45.65485" lon="2.78203">
        <ele>1031.15</ele>
        <time>2013-09-21T13:28:40Z</time>
      </trkpt>
      <trkpt lat="45.65481" lon="2.78206">
        <ele>1030.67</ele>
        <time>2013-09-21T13:28:41Z</time>
      </trkpt>
      <trkpt lat="45.65477" lon="2.78209">
        <ele>1030.67</ele>
        <time>2013-09-21T13:28:42Z</time>
      </trkpt>
      <trkpt lat="45.65474" lon="2.78212">
        <ele>1031.63</ele>
        <time>2013-09-21T13:28:43Z</time>
      </trkpt>
      <trkpt lat="45.6547" lon="2.78215">
        <ele>1031.63</ele>
        <time>2013-09-21T13:28:44Z</time>
      </trkpt>
      <trkpt lat="45.65467" lon="2.78219">
        <ele>1031.63</ele>
        <time>2013-09-21T13:28:45Z</time>
      </trkpt>
      <trkpt lat="45.6546" lon="2.78226">
        <ele>1031.15</ele>
        <time>2013-09-21T13:28:47Z</time>
      </trkpt>
      <trkpt lat="45.65457" lon="2.78231">
        <ele>1032.11</ele>
        <time>2013-09-21T13:28:48Z</time>
      </trkpt>
      <trkpt lat="45.65455" lon="2.78236">
        <ele>1031.63</ele>
        <time>2013-09-21T13:28:49Z</time>
      </trkpt>
      <trkpt lat="45.65443" lon="2.78268">
        <ele>1029.71</ele>
        <time>2013-09-21T13:28:55Z</time>
      </trkpt>
      <trkpt lat="45.65439" lon="2.7827">
        <ele>1028.75</ele>
        <time>2013-09-21T13:28:56Z</time>
      </trkpt>
      <trkpt lat="45.65434" lon="2.78267">
        <ele>1028.27</ele>
        <time>2013-09-21T13:28:57Z</time>
      </trkpt>
      <trkpt lat="45.6543" lon="2.78262">
        <ele>1027.31</ele>
        <time>2013-09-21T13:28:58Z</time>
      </trkpt>
      <trkpt lat="45.65427" lon="2.78256">
        <ele>1026.34</ele>
        <time>2013-09-21T13:28:59Z</time>
      </trkpt>
      <trkpt lat="45.65424" lon="2.78251">
        <ele>1024.9</ele>
        <time>2013-09-21T13:29:00Z</time>
      </trkpt>
      <trkpt lat="45.65419" lon="2.78248">
        <ele>1023.46</ele>
        <time>2013-09-21T13:29:01Z</time>
      </trkpt>
      <trkpt lat="45.65412" lon="2.78247">
        <ele>1022.02</ele>
        <time>2013-09-21T13:29:02Z</time>
      </trkpt>
      <trkpt lat="45.65397" lon="2.78245">
        <ele>1017.21</ele>
        <time>2013-09-21T13:29:04Z</time>
      </trkpt>
      <trkpt lat="45.65391" lon="2.78243">
        <ele>1016.73</ele>
        <time>2013-09-21T13:29:05Z</time>
      </trkpt>
      <trkpt lat="45.65386" lon="2.78242">
        <ele>1016.25</ele>
        <time>2013-09-21T13:29:06Z</time>
      </trkpt>
      <trkpt lat="45.6537" lon="2.78241">
        <ele>1011.93</ele>
        <time>2013-09-21T13:29:09Z</time>
      </trkpt>
      <trkpt lat="45.65366" lon="2.78243">
        <ele>1011.44</ele>
        <time>2013-09-21T13:29:10Z</time>
      </trkpt>
      <trkpt lat="45.65363" lon="2.78248">
        <ele>1010.96</ele>
        <time>2013-09-21T13:29:11Z</time>
      </trkpt>
      <trkpt lat="45.65362" lon="2.78255">
        <ele>1009.04</ele>
        <time>2013-09-21T13:29:12Z</time>
      </trkpt>
      <trkpt lat="45.65363" lon="2.78264">
        <ele>1009.04</ele>
        <time>2013-09-21T13:29:13Z</time>
      </trkpt>
      <trkpt lat="45.65365" lon="2.78274">
        <ele>1007.6</ele>
        <time>2013-09-21T13:29:14Z</time>
      </trkpt>
      <trkpt lat="45.65365" lon="2.78285">
        <ele>1006.16</ele>
        <time>2013-09-21T13:29:15Z</time>
      </trkpt>
      <trkpt lat="45.65364" lon="2.78297">
        <ele>1005.2</ele>
        <time>2013-09-21T13:29:16Z</time>
      </trkpt>
      <trkpt lat="45.65363" lon="2.78308">
        <ele>1003.75</ele>
        <time>2013-09-21T13:29:17Z</time>
      </trkpt>
      <trkpt lat="45.6536" lon="2.78319">
        <ele>1002.79</ele>
        <time>2013-09-21T13:29:18Z</time>
      </trkpt>
      <trkpt lat="45.65359" lon="2.78331">
        <ele>1003.27</ele>
        <time>2013-09-21T13:29:19Z</time>
      </trkpt>
      <trkpt lat="45.65358" lon="2.78343">
        <ele>1002.31</ele>
        <time>2013-09-21T13:29:20Z</time>
      </trkpt>
      <trkpt lat="45.65355" lon="2.78366">
        <ele>1001.35</ele>
        <time>2013-09-21T13:29:22Z</time>
      </trkpt>
      <trkpt lat="45.65351" lon="2.78376">
        <ele>1000.87</ele>
        <time>2013-09-21T13:29:23Z</time>
      </trkpt>
      <trkpt lat="45.65346" lon="2.78384">
        <ele>1000.39</ele>
        <time>2013-09-21T13:29:24Z</time>
      </trkpt>
      <trkpt lat="45.65339" lon="2.78389">
        <ele>999.91</ele>
        <time>2013-09-21T13:29:25Z</time>
      </trkpt>
      <trkpt lat="45.65332" lon="2.78392">
        <ele>999.91</ele>
        <time>2013-09-21T13:29:26Z</time>
      </trkpt>
      <trkpt lat="45.65324" lon="2.78394">
        <ele>999.91</ele>
        <time>2013-09-21T13:29:27Z</time>
      </trkpt>
      <trkpt lat="45.65317" lon="2.78396">
        <ele>999.43</ele>
        <time>2013-09-21T13:29:28Z</time>
      </trkpt>
      <trkpt lat="45.65303" lon="2.78398">
        <ele>999.91</ele>
        <time>2013-09-21T13:29:30Z</time>
      </trkpt>
      <trkpt lat="45.65297" lon="2.78401">
        <ele>999.91</ele>
        <time>2013-09-21T13:29:31Z</time>
      </trkpt>
      <trkpt lat="45.65293" lon="2.78405">
        <ele>1000.39</ele>
        <time>2013-09-21T13:29:32Z</time>
      </trkpt>
      <trkpt lat="45.6529" lon="2.7841">
        <ele>1000.39</ele>
        <time>2013-09-21T13:29:33Z</time>
      </trkpt>
      <trkpt lat="45.65289" lon="2.78415">
        <ele>1000.39</ele>
        <time>2013-09-21T13:29:34Z</time>
      </trkpt>
      <trkpt lat="45.65288" lon="2.7842">
        <ele>1001.35</ele>
        <time>2013-09-21T13:29:35Z</time>
      </trkpt>
      <trkpt lat="45.65287" lon="2.78424">
        <ele>1002.31</ele>
        <time>2013-09-21T13:29:36Z</time>
      </trkpt>
      <trkpt lat="45.65287" lon="2.78428">
        <ele>1002.79</ele>
        <time>2013-09-21T13:29:37Z</time>
      </trkpt>
      <trkpt lat="45.65282" lon="2.78468">
        <ele>1006.16</ele>
        <time>2013-09-21T13:29:50Z</time>
      </trkpt>
      <trkpt lat="45.65273" lon="2.78501">
        <ele>1008.56</ele>
        <time>2013-09-21T13:30:03Z</time>
      </trkpt>
      <trkpt lat="45.65263" lon="2.78536">
        <ele>1011.44</ele>
        <time>2013-09-21T13:30:18Z</time>
      </trkpt>
      <trkpt lat="45.65263" lon="2.78549">
        <ele>1011.93</ele>
        <time>2013-09-21T13:30:30Z</time>
      </trkpt>
      <trkpt lat="45.65262" lon="2.78549">
        <ele>1011.93</ele>
        <time>2013-09-21T13:30:59Z</time>
      </trkpt>
      <trkpt lat="45.65262" lon="2.78549">
        <ele>1011.44</ele>
        <time>2013-09-21T13:31:31Z</time>
      </trkpt>
      <trkpt lat="45.65261" lon="2.7855">
        <ele>1011.93</ele>
        <time>2013-09-21T13:32:00Z</time>
      </trkpt>
      <trkpt lat="45.65259" lon="2.7855">
        <ele>1011.93</ele>
        <time>2013-09-21T13:32:14Z</time>
      </trkpt>
      <trkpt lat="45.65257" lon="2.78555">
        <ele>1011.44</ele>
        <time>2013-09-21T13:32:18Z</time>
      </trkpt>
      <trkpt lat="45.65257" lon="2.78557">
        <ele>1011.93</ele>
        <time>2013-09-21T13:32:19Z</time>
      </trkpt>
      <trkpt lat="45.65256" lon="2.78561">
        <ele>1011.44</ele>
        <time>2013-09-21T13:32:21Z</time>
      </trkpt>
      <trkpt lat="45.65256" lon="2.78563">
        <ele>1012.41</ele>
        <time>2013-09-21T13:32:22Z</time>
      </trkpt>
      <trkpt lat="45.65255" lon="2.78566">
        <ele>1011.93</ele>
        <time>2013-09-21T13:32:24Z</time>
      </trkpt>
      <trkpt lat="45.65255" lon="2.78567">
        <ele>1011.44</ele>
        <time>2013-09-21T13:32:25Z</time>
      </trkpt>
      <trkpt lat="45.65249" lon="2.78588">
        <ele>1012.41</ele>
        <time>2013-09-21T13:32:39Z</time>
      </trkpt>
      <trkpt lat="45.65248" lon="2.78587">
        <ele>1011.93</ele>
        <time>2013-09-21T13:33:12Z</time>
      </trkpt>
      <trkpt lat="45.65247" lon="2.78589">
        <ele>1012.41</ele>
        <time>2013-09-21T13:33:15Z</time>
      </trkpt>
      <trkpt lat="45.65246" lon="2.7859">
        <ele>1012.89</ele>
        <time>2013-09-21T13:33:16Z</time>
      </trkpt>
      <trkpt lat="45.65244" lon="2.78592">
        <ele>1012.89</ele>
        <time>2013-09-21T13:33:17Z</time>
      </trkpt>
      <trkpt lat="45.65243" lon="2.78594">
        <ele>1012.89</ele>
        <time>2013-09-21T13:33:18Z</time>
      </trkpt>
      <trkpt lat="45.65241" lon="2.78597">
        <ele>1011.93</ele>
        <time>2013-09-21T13:33:19Z</time>
      </trkpt>
      <trkpt lat="45.65215" lon="2.78639">
        <ele>1013.85</ele>
        <time>2013-09-21T13:33:34Z</time>
      </trkpt>
      <trkpt lat="45.65189" lon="2.78671">
        <ele>1015.29</ele>
        <time>2013-09-21T13:33:47Z</time>
      </trkpt>
      <trkpt lat="45.65174" lon="2.78716">
        <ele>1015.29</ele>
        <time>2013-09-21T13:33:59Z</time>
      </trkpt>
      <trkpt lat="45.6515" lon="2.78748">
        <ele>1015.77</ele>
        <time>2013-09-21T13:34:11Z</time>
      </trkpt>
      <trkpt lat="45.65123" lon="2.78775">
        <ele>1014.81</ele>
        <time>2013-09-21T13:34:21Z</time>
      </trkpt>
      <trkpt lat="45.65094" lon="2.78792">
        <ele>1013.85</ele>
        <time>2013-09-21T13:34:30Z</time>
      </trkpt>
      <trkpt lat="45.65074" lon="2.78801">
        <ele>1012.41</ele>
        <time>2013-09-21T13:34:36Z</time>
      </trkpt>
      <trkpt lat="45.65072" lon="2.78803">
        <ele>1011.93</ele>
        <time>2013-09-21T13:34:37Z</time>
      </trkpt>
      <trkpt lat="45.6507" lon="2.78805">
        <ele>1011.93</ele>
        <time>2013-09-21T13:34:38Z</time>
      </trkpt>
      <trkpt lat="45.65067" lon="2.78806">
        <ele>1011.93</ele>
        <time>2013-09-21T13:34:39Z</time>
      </trkpt>
      <trkpt lat="45.65065" lon="2.78807">
        <ele>1011.93</ele>
        <time>2013-09-21T13:34:40Z</time>
      </trkpt>
      <trkpt lat="45.65062" lon="2.7881">
        <ele>1011.44</ele>
        <time>2013-09-21T13:34:41Z</time>
      </trkpt>
      <trkpt lat="45.6506" lon="2.78814">
        <ele>1010.96</ele>
        <time>2013-09-21T13:34:42Z</time>
      </trkpt>
      <trkpt lat="45.65058" lon="2.78817">
        <ele>1010.96</ele>
        <time>2013-09-21T13:34:43Z</time>
      </trkpt>
      <trkpt lat="45.65056" lon="2.78818">
        <ele>1010.48</ele>
        <time>2013-09-21T13:34:44Z</time>
      </trkpt>
      <trkpt lat="45.65054" lon="2.78821">
        <ele>1010.48</ele>
        <time>2013-09-21T13:34:45Z</time>
      </trkpt>
      <trkpt lat="45.65052" lon="2.78824">
        <ele>1010.96</ele>
        <time>2013-09-21T13:34:46Z</time>
      </trkpt>
      <trkpt lat="45.65033" lon="2.78853">
        <ele>1010</ele>
        <time>2013-09-21T13:34:56Z</time>
      </trkpt>
      <trkpt lat="45.65031" lon="2.78857">
        <ele>1010</ele>
        <time>2013-09-21T13:34:59Z</time>
      </trkpt>
      <trkpt lat="45.65029" lon="2.78863">
        <ele>1009.52</ele>
        <time>2013-09-21T13:35:01Z</time>
      </trkpt>
      <trkpt lat="45.65029" lon="2.78866">
        <ele>1009.52</ele>
        <time>2013-09-21T13:35:02Z</time>
      </trkpt>
      <trkpt lat="45.65028" lon="2.7887">
        <ele>1009.04</ele>
        <time>2013-09-21T13:35:03Z</time>
      </trkpt>
      <trkpt lat="45.65027" lon="2.78876">
        <ele>1008.56</ele>
        <time>2013-09-21T13:35:04Z</time>
      </trkpt>
      <trkpt lat="45.65026" lon="2.78884">
        <ele>1008.56</ele>
        <time>2013-09-21T13:35:05Z</time>
      </trkpt>
      <trkpt lat="45.65025" lon="2.78892">
        <ele>1008.08</ele>
        <time>2013-09-21T13:35:06Z</time>
      </trkpt>
      <trkpt lat="45.65024" lon="2.78898">
        <ele>1008.08</ele>
        <time>2013-09-21T13:35:07Z</time>
      </trkpt>
      <trkpt lat="45.65024" lon="2.78904">
        <ele>1007.6</ele>
        <time>2013-09-21T13:35:08Z</time>
      </trkpt>
      <trkpt lat="45.65024" lon="2.78916">
        <ele>1006.64</ele>
        <time>2013-09-21T13:35:10Z</time>
      </trkpt>
      <trkpt lat="45.65024" lon="2.78964">
        <ele>1005.2</ele>
        <time>2013-09-21T13:35:17Z</time>
      </trkpt>
      <trkpt lat="45.65021" lon="2.78967">
        <ele>1005.2</ele>
        <time>2013-09-21T13:35:18Z</time>
      </trkpt>
      <trkpt lat="45.64993" lon="2.7899">
        <ele>1006.64</ele>
        <time>2013-09-21T13:35:26Z</time>
      </trkpt>
      <trkpt lat="45.64972" lon="2.79011">
        <ele>1008.56</ele>
        <time>2013-09-21T13:35:32Z</time>
      </trkpt>
      <trkpt lat="45.64968" lon="2.79015">
        <ele>1008.08</ele>
        <time>2013-09-21T13:35:33Z</time>
      </trkpt>
      <trkpt lat="45.64958" lon="2.79032">
        <ele>1007.12</ele>
        <time>2013-09-21T13:35:36Z</time>
      </trkpt>
      <trkpt lat="45.64948" lon="2.79051">
        <ele>1006.64</ele>
        <time>2013-09-21T13:35:39Z</time>
      </trkpt>
      <trkpt lat="45.64944" lon="2.79056">
        <ele>1005.68</ele>
        <time>2013-09-21T13:35:40Z</time>
      </trkpt>
      <trkpt lat="45.64934" lon="2.79065">
        <ele>1006.16</ele>
        <time>2013-09-21T13:35:42Z</time>
      </trkpt>
      <trkpt lat="45.64902" lon="2.79086">
        <ele>1003.75</ele>
        <time>2013-09-21T13:35:48Z</time>
      </trkpt>
      <trkpt lat="45.64896" lon="2.79088">
        <ele>1002.79</ele>
        <time>2013-09-21T13:35:49Z</time>
      </trkpt>
      <trkpt lat="45.6489" lon="2.79091">
        <ele>1003.27</ele>
        <time>2013-09-21T13:35:50Z</time>
      </trkpt>
      <trkpt lat="45.64863" lon="2.79095">
        <ele>1002.31</ele>
        <time>2013-09-21T13:35:54Z</time>
      </trkpt>
      <trkpt lat="45.64857" lon="2.79095">
        <ele>1002.31</ele>
        <time>2013-09-21T13:35:55Z</time>
      </trkpt>
      <trkpt lat="45.64821" lon="2.791">
        <ele>999.43</ele>
        <time>2013-09-21T13:36:00Z</time>
      </trkpt>
      <trkpt lat="45.64814" lon="2.79104">
        <ele>997.99</ele>
        <time>2013-09-21T13:36:01Z</time>
      </trkpt>
      <trkpt lat="45.64784" lon="2.79126">
        <ele>994.62</ele>
        <time>2013-09-21T13:36:05Z</time>
      </trkpt>
      <trkpt lat="45.64776" lon="2.79131">
        <ele>995.1</ele>
        <time>2013-09-21T13:36:06Z</time>
      </trkpt>
      <trkpt lat="45.64749" lon="2.79147">
        <ele>991.74</ele>
        <time>2013-09-21T13:36:09Z</time>
      </trkpt>
      <trkpt lat="45.64723" lon="2.79163">
        <ele>990.3</ele>
        <time>2013-09-21T13:36:12Z</time>
      </trkpt>
      <trkpt lat="45.64717" lon="2.79171">
        <ele>990.3</ele>
        <time>2013-09-21T13:36:13Z</time>
      </trkpt>
      <trkpt lat="45.64712" lon="2.7918">
        <ele>989.81</ele>
        <time>2013-09-21T13:36:14Z</time>
      </trkpt>
      <trkpt lat="45.64667" lon="2.79249">
        <ele>987.41</ele>
        <time>2013-09-21T13:36:22Z</time>
      </trkpt>
      <trkpt lat="45.64664" lon="2.79256">
        <ele>987.41</ele>
        <time>2013-09-21T13:36:23Z</time>
      </trkpt>
      <trkpt lat="45.64665" lon="2.79264">
        <ele>987.41</ele>
        <time>2013-09-21T13:36:24Z</time>
      </trkpt>
      <trkpt lat="45.64666" lon="2.79272">
        <ele>987.41</ele>
        <time>2013-09-21T13:36:25Z</time>
      </trkpt>
      <trkpt lat="45.6467" lon="2.7928">
        <ele>987.41</ele>
        <time>2013-09-21T13:36:26Z</time>
      </trkpt>
      <trkpt lat="45.64674" lon="2.79286">
        <ele>986.45</ele>
        <time>2013-09-21T13:36:27Z</time>
      </trkpt>
      <trkpt lat="45.64679" lon="2.79292">
        <ele>986.93</ele>
        <time>2013-09-21T13:36:28Z</time>
      </trkpt>
      <trkpt lat="45.64689" lon="2.79305">
        <ele>985.49</ele>
        <time>2013-09-21T13:36:30Z</time>
      </trkpt>
      <trkpt lat="45.64694" lon="2.79312">
        <ele>985.49</ele>
        <time>2013-09-21T13:36:31Z</time>
      </trkpt>
      <trkpt lat="45.64698" lon="2.79319">
        <ele>985.97</ele>
        <time>2013-09-21T13:36:32Z</time>
      </trkpt>
      <trkpt lat="45.64701" lon="2.79326">
        <ele>985.49</ele>
        <time>2013-09-21T13:36:33Z</time>
      </trkpt>
      <trkpt lat="45.64705" lon="2.79333">
        <ele>985.01</ele>
        <time>2013-09-21T13:36:34Z</time>
      </trkpt>
      <trkpt lat="45.64707" lon="2.79342">
        <ele>985.01</ele>
        <time>2013-09-21T13:36:35Z</time>
      </trkpt>
      <trkpt lat="45.64708" lon="2.7935">
        <ele>984.53</ele>
        <time>2013-09-21T13:36:36Z</time>
      </trkpt>
      <trkpt lat="45.64709" lon="2.79358">
        <ele>984.53</ele>
        <time>2013-09-21T13:36:37Z</time>
      </trkpt>
      <trkpt lat="45.6471" lon="2.79375">
        <ele>984.53</ele>
        <time>2013-09-21T13:36:39Z</time>
      </trkpt>
      <trkpt lat="45.64709" lon="2.79407">
        <ele>983.09</ele>
        <time>2013-09-21T13:36:43Z</time>
      </trkpt>
      <trkpt lat="45.64705" lon="2.7944">
        <ele>983.09</ele>
        <time>2013-09-21T13:36:47Z</time>
      </trkpt>
      <trkpt lat="45.64705" lon="2.79449">
        <ele>982.12</ele>
        <time>2013-09-21T13:36:48Z</time>
      </trkpt>
      <trkpt lat="45.64706" lon="2.79458">
        <ele>982.12</ele>
        <time>2013-09-21T13:36:49Z</time>
      </trkpt>
      <trkpt lat="45.64708" lon="2.79468">
        <ele>982.12</ele>
        <time>2013-09-21T13:36:50Z</time>
      </trkpt>
      <trkpt lat="45.6471" lon="2.79477">
        <ele>981.16</ele>
        <time>2013-09-21T13:36:51Z</time>
      </trkpt>
      <trkpt lat="45.64718" lon="2.79503">
        <ele>981.64</ele>
        <time>2013-09-21T13:36:54Z</time>
      </trkpt>
      <trkpt lat="45.6472" lon="2.79511">
        <ele>981.16</ele>
        <time>2013-09-21T13:36:55Z</time>
      </trkpt>
      <trkpt lat="45.64721" lon="2.7952">
        <ele>981.16</ele>
        <time>2013-09-21T13:36:56Z</time>
      </trkpt>
      <trkpt lat="45.64722" lon="2.79528">
        <ele>981.16</ele>
        <time>2013-09-21T13:36:57Z</time>
      </trkpt>
      <trkpt lat="45.64721" lon="2.79537">
        <ele>981.64</ele>
        <time>2013-09-21T13:36:58Z</time>
      </trkpt>
      <trkpt lat="45.6472" lon="2.79545">
        <ele>981.64</ele>
        <time>2013-09-21T13:36:59Z</time>
      </trkpt>
      <trkpt lat="45.64719" lon="2.79552">
        <ele>981.64</ele>
        <time>2013-09-21T13:37:00Z</time>
      </trkpt>
      <trkpt lat="45.64716" lon="2.79559">
        <ele>981.64</ele>
        <time>2013-09-21T13:37:01Z</time>
      </trkpt>
      <trkpt lat="45.64714" lon="2.79565">
        <ele>981.64</ele>
        <time>2013-09-21T13:37:02Z</time>
      </trkpt>
      <trkpt lat="45.64711" lon="2.79571">
        <ele>981.16</ele>
        <time>2013-09-21T13:37:03Z</time>
      </trkpt>
      <trkpt lat="45.64707" lon="2.79576">
        <ele>980.68</ele>
        <time>2013-09-21T13:37:04Z</time>
      </trkpt>
      <trkpt lat="45.64703" lon="2.79581">
        <ele>980.68</ele>
        <time>2013-09-21T13:37:05Z</time>
      </trkpt>
      <trkpt lat="45.647" lon="2.79586">
        <ele>980.2</ele>
        <time>2013-09-21T13:37:06Z</time>
      </trkpt>
      <trkpt lat="45.64697" lon="2.79593">
        <ele>981.16</ele>
        <time>2013-09-21T13:37:07Z</time>
      </trkpt>
      <trkpt lat="45.64696" lon="2.796">
        <ele>981.16</ele>
        <time>2013-09-21T13:37:08Z</time>
      </trkpt>
      <trkpt lat="45.64695" lon="2.79607">
        <ele>981.16</ele>
        <time>2013-09-21T13:37:09Z</time>
      </trkpt>
      <trkpt lat="45.64695" lon="2.79614">
        <ele>981.16</ele>
        <time>2013-09-21T13:37:10Z</time>
      </trkpt>
      <trkpt lat="45.64695" lon="2.79622">
        <ele>980.68</ele>
        <time>2013-09-21T13:37:11Z</time>
      </trkpt>
      <trkpt lat="45.64695" lon="2.79629">
        <ele>980.68</ele>
        <time>2013-09-21T13:37:12Z</time>
      </trkpt>
      <trkpt lat="45.64695" lon="2.79642">
        <ele>981.16</ele>
        <time>2013-09-21T13:37:14Z</time>
      </trkpt>
      <trkpt lat="45.64694" lon="2.79683">
        <ele>984.53</ele>
        <time>2013-09-21T13:37:23Z</time>
      </trkpt>
      <trkpt lat="45.64697" lon="2.79716">
        <ele>985.97</ele>
        <time>2013-09-21T13:37:32Z</time>
      </trkpt>
      <trkpt lat="45.64707" lon="2.79767">
        <ele>989.33</ele>
        <time>2013-09-21T13:37:48Z</time>
      </trkpt>
      <trkpt lat="45.64732" lon="2.79793">
        <ele>989.81</ele>
        <time>2013-09-21T13:38:01Z</time>
      </trkpt>
      <trkpt lat="45.64767" lon="2.79805">
        <ele>991.74</ele>
        <time>2013-09-21T13:38:16Z</time>
      </trkpt>
      <trkpt lat="45.64816" lon="2.79802">
        <ele>993.18</ele>
        <time>2013-09-21T13:38:33Z</time>
      </trkpt>
      <trkpt lat="45.64854" lon="2.79791">
        <ele>991.74</ele>
        <time>2013-09-21T13:38:43Z</time>
      </trkpt>
      <trkpt lat="45.64858" lon="2.79791">
        <ele>991.74</ele>
        <time>2013-09-21T13:38:44Z</time>
      </trkpt>
      <trkpt lat="45.64909" lon="2.79786">
        <ele>988.37</ele>
        <time>2013-09-21T13:38:54Z</time>
      </trkpt>
      <trkpt lat="45.64985" lon="2.79808">
        <ele>985.97</ele>
        <time>2013-09-21T13:39:07Z</time>
      </trkpt>
      <trkpt lat="45.6499" lon="2.79811">
        <ele>986.45</ele>
        <time>2013-09-21T13:39:08Z</time>
      </trkpt>
      <trkpt lat="45.64992" lon="2.79816">
        <ele>987.41</ele>
        <time>2013-09-21T13:39:09Z</time>
      </trkpt>
      <trkpt lat="45.64992" lon="2.7982">
        <ele>986.93</ele>
        <time>2013-09-21T13:39:10Z</time>
      </trkpt>
      <trkpt lat="45.6498" lon="2.79868">
        <ele>989.33</ele>
        <time>2013-09-21T13:39:25Z</time>
      </trkpt>
      <trkpt lat="45.64968" lon="2.79894">
        <ele>991.74</ele>
        <time>2013-09-21T13:39:40Z</time>
      </trkpt>
      <trkpt lat="45.64959" lon="2.79904">
        <ele>993.18</ele>
        <time>2013-09-21T13:39:48Z</time>
      </trkpt>
      <trkpt lat="45.64958" lon="2.79904">
        <ele>992.7</ele>
        <time>2013-09-21T13:39:49Z</time>
      </trkpt>
      <trkpt lat="45.64956" lon="2.79904">
        <ele>992.7</ele>
        <time>2013-09-21T13:39:50Z</time>
      </trkpt>
      <trkpt lat="45.64955" lon="2.79905">
        <ele>993.18</ele>
        <time>2013-09-21T13:39:51Z</time>
      </trkpt>
      <trkpt lat="45.64954" lon="2.79906">
        <ele>993.66</ele>
        <time>2013-09-21T13:39:52Z</time>
      </trkpt>
      <trkpt lat="45.64953" lon="2.79907">
        <ele>993.18</ele>
        <time>2013-09-21T13:39:53Z</time>
      </trkpt>
      <trkpt lat="45.64952" lon="2.79908">
        <ele>994.14</ele>
        <time>2013-09-21T13:39:54Z</time>
      </trkpt>
      <trkpt lat="45.64932" lon="2.79929">
        <ele>996.54</ele>
        <time>2013-09-21T13:40:13Z</time>
      </trkpt>
      <trkpt lat="45.64916" lon="2.79946">
        <ele>999.43</ele>
        <time>2013-09-21T13:40:29Z</time>
      </trkpt>
      <trkpt lat="45.64899" lon="2.79965">
        <ele>1002.31</ele>
        <time>2013-09-21T13:40:46Z</time>
      </trkpt>
      <trkpt lat="45.64885" lon="2.79982">
        <ele>1004.23</ele>
        <time>2013-09-21T13:41:01Z</time>
      </trkpt>
      <trkpt lat="45.64874" lon="2.79994">
        <ele>1005.2</ele>
        <time>2013-09-21T13:41:12Z</time>
      </trkpt>
      <trkpt lat="45.64855" lon="2.80017">
        <ele>1007.6</ele>
        <time>2013-09-21T13:41:31Z</time>
      </trkpt>
      <trkpt lat="45.64837" lon="2.80039">
        <ele>1010.96</ele>
        <time>2013-09-21T13:41:50Z</time>
      </trkpt>
      <trkpt lat="45.64832" lon="2.80044">
        <ele>1010.96</ele>
        <time>2013-09-21T13:41:55Z</time>
      </trkpt>
      <trkpt lat="45.64831" lon="2.80046">
        <ele>1010.96</ele>
        <time>2013-09-21T13:41:56Z</time>
      </trkpt>
      <trkpt lat="45.64828" lon="2.8005">
        <ele>1011.93</ele>
        <time>2013-09-21T13:42:00Z</time>
      </trkpt>
      <trkpt lat="45.64813" lon="2.80071">
        <ele>1014.81</ele>
        <time>2013-09-21T13:42:16Z</time>
      </trkpt>
      <trkpt lat="45.6481" lon="2.80077">
        <ele>1014.81</ele>
        <time>2013-09-21T13:42:29Z</time>
      </trkpt>
      <trkpt lat="45.64806" lon="2.80082">
        <ele>1015.29</ele>
        <time>2013-09-21T13:42:38Z</time>
      </trkpt>
      <trkpt lat="45.64799" lon="2.8009">
        <ele>1015.77</ele>
        <time>2013-09-21T13:42:45Z</time>
      </trkpt>
      <trkpt lat="45.64798" lon="2.80091">
        <ele>1016.25</ele>
        <time>2013-09-21T13:42:46Z</time>
      </trkpt>
      <trkpt lat="45.64796" lon="2.80092">
        <ele>1016.25</ele>
        <time>2013-09-21T13:42:47Z</time>
      </trkpt>
      <trkpt lat="45.64795" lon="2.80093">
        <ele>1016.25</ele>
        <time>2013-09-21T13:42:48Z</time>
      </trkpt>
      <trkpt lat="45.64794" lon="2.80095">
        <ele>1016.73</ele>
        <time>2013-09-21T13:42:49Z</time>
      </trkpt>
      <trkpt lat="45.64783" lon="2.80106">
        <ele>1019.62</ele>
        <time>2013-09-21T13:42:59Z</time>
      </trkpt>
      <trkpt lat="45.64767" lon="2.80113">
        <ele>1021.54</ele>
        <time>2013-09-21T13:43:11Z</time>
      </trkpt>
      <trkpt lat="45.64766" lon="2.80114">
        <ele>1021.54</ele>
        <time>2013-09-21T13:43:12Z</time>
      </trkpt>
      <trkpt lat="45.64765" lon="2.80115">
        <ele>1022.02</ele>
        <time>2013-09-21T13:43:13Z</time>
      </trkpt>
      <trkpt lat="45.64764" lon="2.80116">
        <ele>1021.54</ele>
        <time>2013-09-21T13:43:14Z</time>
      </trkpt>
      <trkpt lat="45.64762" lon="2.80117">
        <ele>1021.54</ele>
        <time>2013-09-21T13:43:15Z</time>
      </trkpt>
      <trkpt lat="45.64761" lon="2.80118">
        <ele>1022.5</ele>
        <time>2013-09-21T13:43:16Z</time>
      </trkpt>
      <trkpt lat="45.6476" lon="2.8012">
        <ele>1022.02</ele>
        <time>2013-09-21T13:43:17Z</time>
      </trkpt>
      <trkpt lat="45.64759" lon="2.80121">
        <ele>1022.5</ele>
        <time>2013-09-21T13:43:18Z</time>
      </trkpt>
      <trkpt lat="45.64759" lon="2.80123">
        <ele>1022.98</ele>
        <time>2013-09-21T13:43:19Z</time>
      </trkpt>
      <trkpt lat="45.64758" lon="2.80125">
        <ele>1022.02</ele>
        <time>2013-09-21T13:43:20Z</time>
      </trkpt>
      <trkpt lat="45.64757" lon="2.80127">
        <ele>1022.98</ele>
        <time>2013-09-21T13:43:22Z</time>
      </trkpt>
      <trkpt lat="45.64756" lon="2.80129">
        <ele>1022.5</ele>
        <time>2013-09-21T13:43:23Z</time>
      </trkpt>
      <trkpt lat="45.64756" lon="2.80133">
        <ele>1022.98</ele>
        <time>2013-09-21T13:43:26Z</time>
      </trkpt>
      <trkpt lat="45.64755" lon="2.80135">
        <ele>1022.98</ele>
        <time>2013-09-21T13:43:27Z</time>
      </trkpt>
      <trkpt lat="45.64756" lon="2.80149">
        <ele>1024.42</ele>
        <time>2013-09-21T13:43:35Z</time>
      </trkpt>
      <trkpt lat="45.64762" lon="2.80169">
        <ele>1025.86</ele>
        <time>2013-09-21T13:43:47Z</time>
      </trkpt>
      <trkpt lat="45.64762" lon="2.80172">
        <ele>1025.38</ele>
        <time>2013-09-21T13:43:48Z</time>
      </trkpt>
      <trkpt lat="45.64762" lon="2.80173">
        <ele>1025.86</ele>
        <time>2013-09-21T13:43:49Z</time>
      </trkpt>
      <trkpt lat="45.64766" lon="2.8019">
        <ele>1026.83</ele>
        <time>2013-09-21T13:43:58Z</time>
      </trkpt>
      <trkpt lat="45.64767" lon="2.80192">
        <ele>1026.83</ele>
        <time>2013-09-21T13:43:59Z</time>
      </trkpt>
      <trkpt lat="45.64769" lon="2.80201">
        <ele>1027.31</ele>
        <time>2013-09-21T13:44:03Z</time>
      </trkpt>
      <trkpt lat="45.6477" lon="2.80204">
        <ele>1028.27</ele>
        <time>2013-09-21T13:44:05Z</time>
      </trkpt>
      <trkpt lat="45.6477" lon="2.80206">
        <ele>1028.75</ele>
        <time>2013-09-21T13:44:06Z</time>
      </trkpt>
      <trkpt lat="45.64771" lon="2.80209">
        <ele>1028.75</ele>
        <time>2013-09-21T13:44:07Z</time>
      </trkpt>
      <trkpt lat="45.6477" lon="2.80225">
        <ele>1030.67</ele>
        <time>2013-09-21T13:44:19Z</time>
      </trkpt>
      <trkpt lat="45.64769" lon="2.80226">
        <ele>1031.15</ele>
        <time>2013-09-21T13:44:20Z</time>
      </trkpt>
      <trkpt lat="45.64768" lon="2.80228">
        <ele>1031.63</ele>
        <time>2013-09-21T13:44:21Z</time>
      </trkpt>
      <trkpt lat="45.64762" lon="2.80234">
        <ele>1031.63</ele>
        <time>2013-09-21T13:44:27Z</time>
      </trkpt>
      <trkpt lat="45.64762" lon="2.80236">
        <ele>1032.11</ele>
        <time>2013-09-21T13:44:28Z</time>
      </trkpt>
      <trkpt lat="45.6476" lon="2.80237">
        <ele>1032.11</ele>
        <time>2013-09-21T13:44:29Z</time>
      </trkpt>
      <trkpt lat="45.64759" lon="2.80238">
        <ele>1032.59</ele>
        <time>2013-09-21T13:44:30Z</time>
      </trkpt>
      <trkpt lat="45.64754" lon="2.8024">
        <ele>1033.55</ele>
        <time>2013-09-21T13:44:34Z</time>
      </trkpt>
      <trkpt lat="45.64753" lon="2.80241">
        <ele>1033.07</ele>
        <time>2013-09-21T13:44:35Z</time>
      </trkpt>
      <trkpt lat="45.64743" lon="2.80248">
        <ele>1034.04</ele>
        <time>2013-09-21T13:44:45Z</time>
      </trkpt>
      <trkpt lat="45.64729" lon="2.80258">
        <ele>1035</ele>
        <time>2013-09-21T13:44:56Z</time>
      </trkpt>
      <trkpt lat="45.64728" lon="2.80259">
        <ele>1035.48</ele>
        <time>2013-09-21T13:44:57Z</time>
      </trkpt>
      <trkpt lat="45.64727" lon="2.80259">
        <ele>1035.48</ele>
        <time>2013-09-21T13:44:58Z</time>
      </trkpt>
      <trkpt lat="45.64726" lon="2.8026">
        <ele>1036.44</ele>
        <time>2013-09-21T13:44:59Z</time>
      </trkpt>
      <trkpt lat="45.64725" lon="2.80261">
        <ele>1035.48</ele>
        <time>2013-09-21T13:45:00Z</time>
      </trkpt>
      <trkpt lat="45.64724" lon="2.80262">
        <ele>1035.96</ele>
        <time>2013-09-21T13:45:01Z</time>
      </trkpt>
      <trkpt lat="45.64723" lon="2.80263">
        <ele>1036.44</ele>
        <time>2013-09-21T13:45:02Z</time>
      </trkpt>
      <trkpt lat="45.64722" lon="2.80264">
        <ele>1036.44</ele>
        <time>2013-09-21T13:45:03Z</time>
      </trkpt>
      <trkpt lat="45.6471" lon="2.80274">
        <ele>1038.36</ele>
        <time>2013-09-21T13:45:15Z</time>
      </trkpt>
      <trkpt lat="45.64698" lon="2.80282">
        <ele>1040.28</ele>
        <time>2013-09-21T13:45:25Z</time>
      </trkpt>
      <trkpt lat="45.64687" lon="2.8029">
        <ele>1041.25</ele>
        <time>2013-09-21T13:45:34Z</time>
      </trkpt>
      <trkpt lat="45.6468" lon="2.80302">
        <ele>1043.65</ele>
        <time>2013-09-21T13:45:44Z</time>
      </trkpt>
      <trkpt lat="45.64679" lon="2.80304">
        <ele>1044.13</ele>
        <time>2013-09-21T13:45:45Z</time>
      </trkpt>
      <trkpt lat="45.64678" lon="2.80305">
        <ele>1044.13</ele>
        <time>2013-09-21T13:45:46Z</time>
      </trkpt>
      <trkpt lat="45.64673" lon="2.80309">
        <ele>1045.09</ele>
        <time>2013-09-21T13:45:50Z</time>
      </trkpt>
      <trkpt lat="45.64663" lon="2.8033">
        <ele>1047.49</ele>
        <time>2013-09-21T13:46:04Z</time>
      </trkpt>
      <trkpt lat="45.64662" lon="2.80331">
        <ele>1047.97</ele>
        <time>2013-09-21T13:46:05Z</time>
      </trkpt>
      <trkpt lat="45.64662" lon="2.80332">
        <ele>1047.97</ele>
        <time>2013-09-21T13:46:06Z</time>
      </trkpt>
      <trkpt lat="45.64661" lon="2.80333">
        <ele>1048.45</ele>
        <time>2013-09-21T13:46:07Z</time>
      </trkpt>
      <trkpt lat="45.6466" lon="2.80335">
        <ele>1048.94</ele>
        <time>2013-09-21T13:46:08Z</time>
      </trkpt>
      <trkpt lat="45.64659" lon="2.80336">
        <ele>1048.45</ele>
        <time>2013-09-21T13:46:09Z</time>
      </trkpt>
      <trkpt lat="45.64658" lon="2.80338">
        <ele>1048.45</ele>
        <time>2013-09-21T13:46:10Z</time>
      </trkpt>
      <trkpt lat="45.64651" lon="2.80349">
        <ele>1049.9</ele>
        <time>2013-09-21T13:46:18Z</time>
      </trkpt>
      <trkpt lat="45.6465" lon="2.80351">
        <ele>1049.42</ele>
        <time>2013-09-21T13:46:19Z</time>
      </trkpt>
      <trkpt lat="45.64646" lon="2.80356">
        <ele>1051.34</ele>
        <time>2013-09-21T13:46:23Z</time>
      </trkpt>
      <trkpt lat="45.64644" lon="2.80357">
        <ele>1051.34</ele>
        <time>2013-09-21T13:46:25Z</time>
      </trkpt>
      <trkpt lat="45.64643" lon="2.80358">
        <ele>1051.34</ele>
        <time>2013-09-21T13:46:26Z</time>
      </trkpt>
      <trkpt lat="45.64642" lon="2.80359">
        <ele>1050.86</ele>
        <time>2013-09-21T13:46:27Z</time>
      </trkpt>
      <trkpt lat="45.64641" lon="2.8036">
        <ele>1051.82</ele>
        <time>2013-09-21T13:46:28Z</time>
      </trkpt>
      <trkpt lat="45.6464" lon="2.80361">
        <ele>1051.82</ele>
        <time>2013-09-21T13:46:29Z</time>
      </trkpt>
      <trkpt lat="45.64629" lon="2.80366">
        <ele>1053.26</ele>
        <time>2013-09-21T13:46:39Z</time>
      </trkpt>
      <trkpt lat="45.64628" lon="2.80366">
        <ele>1053.26</ele>
        <time>2013-09-21T13:46:40Z</time>
      </trkpt>
      <trkpt lat="45.64605" lon="2.8038">
        <ele>1055.18</ele>
        <time>2013-09-21T13:46:58Z</time>
      </trkpt>
      <trkpt lat="45.64581" lon="2.80392">
        <ele>1058.07</ele>
        <time>2013-09-21T13:47:15Z</time>
      </trkpt>
      <trkpt lat="45.6456" lon="2.80401">
        <ele>1060.47</ele>
        <time>2013-09-21T13:47:31Z</time>
      </trkpt>
      <trkpt lat="45.64539" lon="2.80416">
        <ele>1061.43</ele>
        <time>2013-09-21T13:47:48Z</time>
      </trkpt>
      <trkpt lat="45.64538" lon="2.80417">
        <ele>1061.91</ele>
        <time>2013-09-21T13:47:49Z</time>
      </trkpt>
      <trkpt lat="45.64533" lon="2.80421">
        <ele>1061.91</ele>
        <time>2013-09-21T13:48:02Z</time>
      </trkpt>
      <trkpt lat="45.64533" lon="2.80423">
        <ele>1061.91</ele>
        <time>2013-09-21T13:48:29Z</time>
      </trkpt>
      <trkpt lat="45.64533" lon="2.80422">
        <ele>1061.91</ele>
        <time>2013-09-21T13:49:03Z</time>
      </trkpt>
      <trkpt lat="45.64532" lon="2.80421">
        <ele>1061.91</ele>
        <time>2013-09-21T13:49:29Z</time>
      </trkpt>
      <trkpt lat="45.64533" lon="2.80421">
        <ele>1061.43</ele>
        <time>2013-09-21T13:50:05Z</time>
      </trkpt>
      <trkpt lat="45.64533" lon="2.80421">
        <ele>1062.39</ele>
        <time>2013-09-21T13:50:32Z</time>
      </trkpt>
      <trkpt lat="45.64529" lon="2.8042">
        <ele>1062.39</ele>
        <time>2013-09-21T13:50:54Z</time>
      </trkpt>
      <trkpt lat="45.64509" lon="2.80425">
        <ele>1062.87</ele>
        <time>2013-09-21T13:51:07Z</time>
      </trkpt>
      <trkpt lat="45.64488" lon="2.80429">
        <ele>1063.84</ele>
        <time>2013-09-21T13:51:21Z</time>
      </trkpt>
      <trkpt lat="45.64465" lon="2.80428">
        <ele>1066.24</ele>
        <time>2013-09-21T13:51:37Z</time>
      </trkpt>
      <trkpt lat="45.6446" lon="2.80427">
        <ele>1066.24</ele>
        <time>2013-09-21T13:51:41Z</time>
      </trkpt>
      <trkpt lat="45.64445" lon="2.8042">
        <ele>1069.6</ele>
        <time>2013-09-21T13:51:53Z</time>
      </trkpt>
      <trkpt lat="45.64432" lon="2.80399">
        <ele>1070.57</ele>
        <time>2013-09-21T13:52:07Z</time>
      </trkpt>
      <trkpt lat="45.64414" lon="2.80383">
        <ele>1072.01</ele>
        <time>2013-09-21T13:52:19Z</time>
      </trkpt>
      <trkpt lat="45.64388" lon="2.80375">
        <ele>1072.97</ele>
        <time>2013-09-21T13:52:32Z</time>
      </trkpt>
      <trkpt lat="45.64363" lon="2.80365">
        <ele>1073.93</ele>
        <time>2013-09-21T13:52:46Z</time>
      </trkpt>
      <trkpt lat="45.64329" lon="2.80356">
        <ele>1075.85</ele>
        <time>2013-09-21T13:53:02Z</time>
      </trkpt>
      <trkpt lat="45.64322" lon="2.80355">
        <ele>1076.33</ele>
        <time>2013-09-21T13:53:05Z</time>
      </trkpt>
      <trkpt lat="45.6432" lon="2.80355">
        <ele>1076.33</ele>
        <time>2013-09-21T13:53:06Z</time>
      </trkpt>
      <trkpt lat="45.64318" lon="2.80355">
        <ele>1076.33</ele>
        <time>2013-09-21T13:53:07Z</time>
      </trkpt>
      <trkpt lat="45.64315" lon="2.80354">
        <ele>1076.81</ele>
        <time>2013-09-21T13:53:08Z</time>
      </trkpt>
      <trkpt lat="45.64313" lon="2.80353">
        <ele>1076.81</ele>
        <time>2013-09-21T13:53:09Z</time>
      </trkpt>
      <trkpt lat="45.64311" lon="2.80352">
        <ele>1076.81</ele>
        <time>2013-09-21T13:53:10Z</time>
      </trkpt>
      <trkpt lat="45.64288" lon="2.80345">
        <ele>1077.78</ele>
        <time>2013-09-21T13:53:21Z</time>
      </trkpt>
      <trkpt lat="45.64259" lon="2.80346">
        <ele>1079.7</ele>
        <time>2013-09-21T13:53:34Z</time>
      </trkpt>
      <trkpt lat="45.6423" lon="2.80348">
        <ele>1081.14</ele>
        <time>2013-09-21T13:53:47Z</time>
      </trkpt>
      <trkpt lat="45.64201" lon="2.8035">
        <ele>1082.58</ele>
        <time>2013-09-21T13:54:00Z</time>
      </trkpt>
      <trkpt lat="45.64192" lon="2.80352">
        <ele>1082.58</ele>
        <time>2013-09-21T13:54:04Z</time>
      </trkpt>
      <trkpt lat="45.6419" lon="2.80351">
        <ele>1083.06</ele>
        <time>2013-09-21T13:54:05Z</time>
      </trkpt>
      <trkpt lat="45.64188" lon="2.80351">
        <ele>1082.58</ele>
        <time>2013-09-21T13:54:06Z</time>
      </trkpt>
      <trkpt lat="45.64186" lon="2.80352">
        <ele>1082.58</ele>
        <time>2013-09-21T13:54:07Z</time>
      </trkpt>
      <trkpt lat="45.64184" lon="2.80354">
        <ele>1083.54</ele>
        <time>2013-09-21T13:54:08Z</time>
      </trkpt>
      <trkpt lat="45.64183" lon="2.80355">
        <ele>1084.02</ele>
        <time>2013-09-21T13:54:09Z</time>
      </trkpt>
      <trkpt lat="45.64181" lon="2.80354">
        <ele>1083.54</ele>
        <time>2013-09-21T13:54:10Z</time>
      </trkpt>
      <trkpt lat="45.64179" lon="2.80354">
        <ele>1083.54</ele>
        <time>2013-09-21T13:54:11Z</time>
      </trkpt>
      <trkpt lat="45.64176" lon="2.80354">
        <ele>1083.54</ele>
        <time>2013-09-21T13:54:12Z</time>
      </trkpt>
      <trkpt lat="45.64146" lon="2.80353">
        <ele>1084.99</ele>
        <time>2013-09-21T13:54:25Z</time>
      </trkpt>
      <trkpt lat="45.64109" lon="2.80356">
        <ele>1086.91</ele>
        <time>2013-09-21T13:54:42Z</time>
      </trkpt>
      <trkpt lat="45.64083" lon="2.8036">
        <ele>1088.83</ele>
        <time>2013-09-21T13:54:53Z</time>
      </trkpt>
      <trkpt lat="45.64054" lon="2.80369">
        <ele>1089.79</ele>
        <time>2013-09-21T13:55:05Z</time>
      </trkpt>
      <trkpt lat="45.64022" lon="2.80386">
        <ele>1091.23</ele>
        <time>2013-09-21T13:55:19Z</time>
      </trkpt>
      <trkpt lat="45.63992" lon="2.8041">
        <ele>1093.16</ele>
        <time>2013-09-21T13:55:33Z</time>
      </trkpt>
      <trkpt lat="45.6397" lon="2.80438">
        <ele>1094.6</ele>
        <time>2013-09-21T13:55:45Z</time>
      </trkpt>
      <trkpt lat="45.63951" lon="2.80465">
        <ele>1096.52</ele>
        <time>2013-09-21T13:55:56Z</time>
      </trkpt>
      <trkpt lat="45.6395" lon="2.80467">
        <ele>1096.04</ele>
        <time>2013-09-21T13:55:57Z</time>
      </trkpt>
      <trkpt lat="45.63949" lon="2.80471">
        <ele>1096.52</ele>
        <time>2013-09-21T13:55:58Z</time>
      </trkpt>
      <trkpt lat="45.63948" lon="2.80473">
        <ele>1096.52</ele>
        <time>2013-09-21T13:55:59Z</time>
      </trkpt>
      <trkpt lat="45.63946" lon="2.80476">
        <ele>1097</ele>
        <time>2013-09-21T13:56:00Z</time>
      </trkpt>
      <trkpt lat="45.63945" lon="2.80478">
        <ele>1097</ele>
        <time>2013-09-21T13:56:01Z</time>
      </trkpt>
      <trkpt lat="45.63944" lon="2.80481">
        <ele>1097</ele>
        <time>2013-09-21T13:56:02Z</time>
      </trkpt>
      <trkpt lat="45.63943" lon="2.80484">
        <ele>1096.52</ele>
        <time>2013-09-21T13:56:03Z</time>
      </trkpt>
      <trkpt lat="45.63942" lon="2.80487">
        <ele>1097</ele>
        <time>2013-09-21T13:56:04Z</time>
      </trkpt>
      <trkpt lat="45.6394" lon="2.80489">
        <ele>1097</ele>
        <time>2013-09-21T13:56:05Z</time>
      </trkpt>
      <trkpt lat="45.63916" lon="2.80509">
        <ele>1097.96</ele>
        <time>2013-09-21T13:56:16Z</time>
      </trkpt>
      <trkpt lat="45.6389" lon="2.80507">
        <ele>1099.4</ele>
        <time>2013-09-21T13:56:26Z</time>
      </trkpt>
      <trkpt lat="45.63888" lon="2.80507">
        <ele>1099.4</ele>
        <time>2013-09-21T13:56:27Z</time>
      </trkpt>
      <trkpt lat="45.63866" lon="2.80531">
        <ele>1100.85</ele>
        <time>2013-09-21T13:56:40Z</time>
      </trkpt>
      <trkpt lat="45.63846" lon="2.80554">
        <ele>1102.77</ele>
        <time>2013-09-21T13:56:52Z</time>
      </trkpt>
      <trkpt lat="45.6381" lon="2.80566">
        <ele>1104.69</ele>
        <time>2013-09-21T13:57:06Z</time>
      </trkpt>
      <trkpt lat="45.63774" lon="2.80569">
        <ele>1106.61</ele>
        <time>2013-09-21T13:57:21Z</time>
      </trkpt>
      <trkpt lat="45.63745" lon="2.80585">
        <ele>1108.54</ele>
        <time>2013-09-21T13:57:36Z</time>
      </trkpt>
      <trkpt lat="45.63734" lon="2.80611">
        <ele>1110.46</ele>
        <time>2013-09-21T13:57:48Z</time>
      </trkpt>
      <trkpt lat="45.63733" lon="2.80614">
        <ele>1109.98</ele>
        <time>2013-09-21T13:57:49Z</time>
      </trkpt>
      <trkpt lat="45.63733" lon="2.80617">
        <ele>1110.46</ele>
        <time>2013-09-21T13:57:50Z</time>
      </trkpt>
      <trkpt lat="45.63728" lon="2.80633">
        <ele>1110.94</ele>
        <time>2013-09-21T13:57:56Z</time>
      </trkpt>
      <trkpt lat="45.63727" lon="2.80635">
        <ele>1110.94</ele>
        <time>2013-09-21T13:57:57Z</time>
      </trkpt>
      <trkpt lat="45.63726" lon="2.80638">
        <ele>1110.94</ele>
        <time>2013-09-21T13:57:58Z</time>
      </trkpt>
      <trkpt lat="45.63726" lon="2.80641">
        <ele>1110.94</ele>
        <time>2013-09-21T13:57:59Z</time>
      </trkpt>
      <trkpt lat="45.63724" lon="2.80643">
        <ele>1110.94</ele>
        <time>2013-09-21T13:58:00Z</time>
      </trkpt>
      <trkpt lat="45.6372" lon="2.80652">
        <ele>1111.9</ele>
        <time>2013-09-21T13:58:04Z</time>
      </trkpt>
      <trkpt lat="45.63719" lon="2.80654">
        <ele>1111.9</ele>
        <time>2013-09-21T13:58:05Z</time>
      </trkpt>
      <trkpt lat="45.63718" lon="2.80656">
        <ele>1112.38</ele>
        <time>2013-09-21T13:58:06Z</time>
      </trkpt>
      <trkpt lat="45.63717" lon="2.80658">
        <ele>1112.38</ele>
        <time>2013-09-21T13:58:07Z</time>
      </trkpt>
      <trkpt lat="45.63715" lon="2.8066">
        <ele>1112.38</ele>
        <time>2013-09-21T13:58:08Z</time>
      </trkpt>
      <trkpt lat="45.63699" lon="2.80676">
        <ele>1113.82</ele>
        <time>2013-09-21T13:58:18Z</time>
      </trkpt>
      <trkpt lat="45.63697" lon="2.80677">
        <ele>1113.82</ele>
        <time>2013-09-21T13:58:19Z</time>
      </trkpt>
      <trkpt lat="45.63695" lon="2.80677">
        <ele>1113.34</ele>
        <time>2013-09-21T13:58:20Z</time>
      </trkpt>
      <trkpt lat="45.63694" lon="2.80678">
        <ele>1113.82</ele>
        <time>2013-09-21T13:58:21Z</time>
      </trkpt>
      <trkpt lat="45.63692" lon="2.80678">
        <ele>1114.31</ele>
        <time>2013-09-21T13:58:22Z</time>
      </trkpt>
      <trkpt lat="45.6369" lon="2.80678">
        <ele>1114.31</ele>
        <time>2013-09-21T13:58:23Z</time>
      </trkpt>
      <trkpt lat="45.63688" lon="2.80678">
        <ele>1114.79</ele>
        <time>2013-09-21T13:58:24Z</time>
      </trkpt>
      <trkpt lat="45.63686" lon="2.80679">
        <ele>1114.31</ele>
        <time>2013-09-21T13:58:25Z</time>
      </trkpt>
      <trkpt lat="45.63674" lon="2.80682">
        <ele>1114.79</ele>
        <time>2013-09-21T13:58:31Z</time>
      </trkpt>
      <trkpt lat="45.63672" lon="2.80683">
        <ele>1114.79</ele>
        <time>2013-09-21T13:58:32Z</time>
      </trkpt>
      <trkpt lat="45.63671" lon="2.80684">
        <ele>1114.79</ele>
        <time>2013-09-21T13:58:33Z</time>
      </trkpt>
      <trkpt lat="45.63665" lon="2.80687">
        <ele>1114.79</ele>
        <time>2013-09-21T13:58:37Z</time>
      </trkpt>
      <trkpt lat="45.63663" lon="2.80688">
        <ele>1115.75</ele>
        <time>2013-09-21T13:58:38Z</time>
      </trkpt>
      <trkpt lat="45.63656" lon="2.80692">
        <ele>1115.27</ele>
        <time>2013-09-21T13:58:44Z</time>
      </trkpt>
      <trkpt lat="45.63655" lon="2.80694">
        <ele>1115.75</ele>
        <time>2013-09-21T13:58:45Z</time>
      </trkpt>
      <trkpt lat="45.63652" lon="2.80697">
        <ele>1116.71</ele>
        <time>2013-09-21T13:58:48Z</time>
      </trkpt>
      <trkpt lat="45.63651" lon="2.80698">
        <ele>1116.71</ele>
        <time>2013-09-21T13:58:49Z</time>
      </trkpt>
      <trkpt lat="45.63647" lon="2.80702">
        <ele>1117.19</ele>
        <time>2013-09-21T13:58:52Z</time>
      </trkpt>
      <trkpt lat="45.63646" lon="2.80703">
        <ele>1117.67</ele>
        <time>2013-09-21T13:58:53Z</time>
      </trkpt>
      <trkpt lat="45.63644" lon="2.80704">
        <ele>1117.19</ele>
        <time>2013-09-21T13:58:54Z</time>
      </trkpt>
      <trkpt lat="45.63642" lon="2.80704">
        <ele>1117.67</ele>
        <time>2013-09-21T13:58:55Z</time>
      </trkpt>
      <trkpt lat="45.63641" lon="2.80705">
        <ele>1117.19</ele>
        <time>2013-09-21T13:58:56Z</time>
      </trkpt>
      <trkpt lat="45.63639" lon="2.80705">
        <ele>1117.67</ele>
        <time>2013-09-21T13:58:57Z</time>
      </trkpt>
      <trkpt lat="45.63636" lon="2.80704">
        <ele>1118.15</ele>
        <time>2013-09-21T13:58:58Z</time>
      </trkpt>
      <trkpt lat="45.63632" lon="2.80704">
        <ele>1118.15</ele>
        <time>2013-09-21T13:58:59Z</time>
      </trkpt>
      <trkpt lat="45.6363" lon="2.80704">
        <ele>1117.67</ele>
        <time>2013-09-21T13:59:00Z</time>
      </trkpt>
      <trkpt lat="45.63627" lon="2.80705">
        <ele>1118.15</ele>
        <time>2013-09-21T13:59:01Z</time>
      </trkpt>
      <trkpt lat="45.63613" lon="2.80708">
        <ele>1118.63</ele>
        <time>2013-09-21T13:59:08Z</time>
      </trkpt>
      <trkpt lat="45.63611" lon="2.80709">
        <ele>1118.63</ele>
        <time>2013-09-21T13:59:09Z</time>
      </trkpt>
      <trkpt lat="45.63609" lon="2.80709">
        <ele>1119.11</ele>
        <time>2013-09-21T13:59:10Z</time>
      </trkpt>
      <trkpt lat="45.63607" lon="2.8071">
        <ele>1119.11</ele>
        <time>2013-09-21T13:59:11Z</time>
      </trkpt>
      <trkpt lat="45.63605" lon="2.80711">
        <ele>1119.11</ele>
        <time>2013-09-21T13:59:12Z</time>
      </trkpt>
      <trkpt lat="45.63602" lon="2.80711">
        <ele>1118.15</ele>
        <time>2013-09-21T13:59:13Z</time>
      </trkpt>
      <trkpt lat="45.63579" lon="2.80719">
        <ele>1120.55</ele>
        <time>2013-09-21T13:59:24Z</time>
      </trkpt>
      <trkpt lat="45.6355" lon="2.80723">
        <ele>1122</ele>
        <time>2013-09-21T13:59:37Z</time>
      </trkpt>
      <trkpt lat="45.63521" lon="2.80734">
        <ele>1123.92</ele>
        <time>2013-09-21T13:59:51Z</time>
      </trkpt>
      <trkpt lat="45.63488" lon="2.80744">
        <ele>1124.88</ele>
        <time>2013-09-21T14:00:07Z</time>
      </trkpt>
      <trkpt lat="45.6345" lon="2.80759">
        <ele>1123.92</ele>
        <time>2013-09-21T14:00:21Z</time>
      </trkpt>
      <trkpt lat="45.63409" lon="2.80779">
        <ele>1122.48</ele>
        <time>2013-09-21T14:00:31Z</time>
      </trkpt>
      <trkpt lat="45.63404" lon="2.80782">
        <ele>1121.52</ele>
        <time>2013-09-21T14:00:32Z</time>
      </trkpt>
      <trkpt lat="45.63399" lon="2.80784">
        <ele>1121.03</ele>
        <time>2013-09-21T14:00:33Z</time>
      </trkpt>
      <trkpt lat="45.63394" lon="2.80787">
        <ele>1121.03</ele>
        <time>2013-09-21T14:00:34Z</time>
      </trkpt>
      <trkpt lat="45.63388" lon="2.80789">
        <ele>1121.03</ele>
        <time>2013-09-21T14:00:35Z</time>
      </trkpt>
      <trkpt lat="45.63341" lon="2.80809">
        <ele>1117.67</ele>
        <time>2013-09-21T14:00:43Z</time>
      </trkpt>
      <trkpt lat="45.63294" lon="2.80831">
        <ele>1115.27</ele>
        <time>2013-09-21T14:00:50Z</time>
      </trkpt>
      <trkpt lat="45.63243" lon="2.80855">
        <ele>1111.9</ele>
        <time>2013-09-21T14:00:57Z</time>
      </trkpt>
      <trkpt lat="45.63169" lon="2.80891">
        <ele>1111.42</ele>
        <time>2013-09-21T14:01:08Z</time>
      </trkpt>
      <trkpt lat="45.63124" lon="2.80912">
        <ele>1111.42</ele>
        <time>2013-09-21T14:01:16Z</time>
      </trkpt>
      <trkpt lat="45.6306" lon="2.80938">
        <ele>1110.94</ele>
        <time>2013-09-21T14:01:30Z</time>
      </trkpt>
      <trkpt lat="45.63021" lon="2.80957">
        <ele>1110.94</ele>
        <time>2013-09-21T14:01:40Z</time>
      </trkpt>
      <trkpt lat="45.63017" lon="2.80958">
        <ele>1110.46</ele>
        <time>2013-09-21T14:01:41Z</time>
      </trkpt>
      <trkpt lat="45.63008" lon="2.80959">
        <ele>1110.46</ele>
        <time>2013-09-21T14:01:43Z</time>
      </trkpt>
      <trkpt lat="45.62988" lon="2.80955">
        <ele>1112.86</ele>
        <time>2013-09-21T14:01:52Z</time>
      </trkpt>
      <trkpt lat="45.62975" lon="2.80948">
        <ele>1114.31</ele>
        <time>2013-09-21T14:02:04Z</time>
      </trkpt>
      <trkpt lat="45.62973" lon="2.80948">
        <ele>1114.79</ele>
        <time>2013-09-21T14:02:05Z</time>
      </trkpt>
      <trkpt lat="45.62971" lon="2.80948">
        <ele>1115.27</ele>
        <time>2013-09-21T14:02:07Z</time>
      </trkpt>
      <trkpt lat="45.6297" lon="2.80948">
        <ele>1114.79</ele>
        <time>2013-09-21T14:02:08Z</time>
      </trkpt>
      <trkpt lat="45.62968" lon="2.80948">
        <ele>1115.75</ele>
        <time>2013-09-21T14:02:09Z</time>
      </trkpt>
      <trkpt lat="45.62962" lon="2.80951">
        <ele>1116.71</ele>
        <time>2013-09-21T14:02:14Z</time>
      </trkpt>
      <trkpt lat="45.62956" lon="2.80954">
        <ele>1117.19</ele>
        <time>2013-09-21T14:02:19Z</time>
      </trkpt>
      <trkpt lat="45.62954" lon="2.80955">
        <ele>1117.67</ele>
        <time>2013-09-21T14:02:21Z</time>
      </trkpt>
      <trkpt lat="45.62935" lon="2.80969">
        <ele>1119.59</ele>
        <time>2013-09-21T14:02:34Z</time>
      </trkpt>
      <trkpt lat="45.62918" lon="2.80981">
        <ele>1120.55</ele>
        <time>2013-09-21T14:02:46Z</time>
      </trkpt>
      <trkpt lat="45.629" lon="2.80994">
        <ele>1121.52</ele>
        <time>2013-09-21T14:02:58Z</time>
      </trkpt>
      <trkpt lat="45.62894" lon="2.80997">
        <ele>1121.52</ele>
        <time>2013-09-21T14:03:02Z</time>
      </trkpt>
      <trkpt lat="45.62893" lon="2.80999">
        <ele>1121.52</ele>
        <time>2013-09-21T14:03:03Z</time>
      </trkpt>
      <trkpt lat="45.62891" lon="2.81001">
        <ele>1121.52</ele>
        <time>2013-09-21T14:03:04Z</time>
      </trkpt>
      <trkpt lat="45.6289" lon="2.81003">
        <ele>1121.52</ele>
        <time>2013-09-21T14:03:05Z</time>
      </trkpt>
      <trkpt lat="45.62889" lon="2.81005">
        <ele>1122</ele>
        <time>2013-09-21T14:03:06Z</time>
      </trkpt>
      <trkpt lat="45.62888" lon="2.81007">
        <ele>1122</ele>
        <time>2013-09-21T14:03:07Z</time>
      </trkpt>
      <trkpt lat="45.62886" lon="2.81009">
        <ele>1122</ele>
        <time>2013-09-21T14:03:08Z</time>
      </trkpt>
      <trkpt lat="45.62883" lon="2.81018">
        <ele>1122.48</ele>
        <time>2013-09-21T14:03:12Z</time>
      </trkpt>
      <trkpt lat="45.62882" lon="2.8102">
        <ele>1122</ele>
        <time>2013-09-21T14:03:13Z</time>
      </trkpt>
      <trkpt lat="45.62881" lon="2.81022">
        <ele>1121.52</ele>
        <time>2013-09-21T14:03:14Z</time>
      </trkpt>
      <trkpt lat="45.6288" lon="2.81024">
        <ele>1121.52</ele>
        <time>2013-09-21T14:03:15Z</time>
      </trkpt>
      <trkpt lat="45.62878" lon="2.81026">
        <ele>1122</ele>
        <time>2013-09-21T14:03:16Z</time>
      </trkpt>
      <trkpt lat="45.62878" lon="2.81029">
        <ele>1122</ele>
        <time>2013-09-21T14:03:17Z</time>
      </trkpt>
      <trkpt lat="45.62876" lon="2.81031">
        <ele>1122</ele>
        <time>2013-09-21T14:03:18Z</time>
      </trkpt>
      <trkpt lat="45.6287" lon="2.81043">
        <ele>1122</ele>
        <time>2013-09-21T14:03:23Z</time>
      </trkpt>
      <trkpt lat="45.62869" lon="2.81045">
        <ele>1122.48</ele>
        <time>2013-09-21T14:03:24Z</time>
      </trkpt>
      <trkpt lat="45.62859" lon="2.81067">
        <ele>1123.44</ele>
        <time>2013-09-21T14:03:34Z</time>
      </trkpt>
      <trkpt lat="45.62857" lon="2.81071">
        <ele>1124.4</ele>
        <time>2013-09-21T14:03:36Z</time>
      </trkpt>
      <trkpt lat="45.62856" lon="2.81073">
        <ele>1124.4</ele>
        <time>2013-09-21T14:03:37Z</time>
      </trkpt>
      <trkpt lat="45.62856" lon="2.81075">
        <ele>1124.88</ele>
        <time>2013-09-21T14:03:38Z</time>
      </trkpt>
      <trkpt lat="45.62855" lon="2.81078">
        <ele>1124.88</ele>
        <time>2013-09-21T14:03:39Z</time>
      </trkpt>
      <trkpt lat="45.62855" lon="2.8108">
        <ele>1125.36</ele>
        <time>2013-09-21T14:03:40Z</time>
      </trkpt>
      <trkpt lat="45.62848" lon="2.81094">
        <ele>1125.84</ele>
        <time>2013-09-21T14:03:47Z</time>
      </trkpt>
      <trkpt lat="45.62847" lon="2.81096">
        <ele>1126.8</ele>
        <time>2013-09-21T14:03:48Z</time>
      </trkpt>
      <trkpt lat="45.62846" lon="2.81099">
        <ele>1126.8</ele>
        <time>2013-09-21T14:03:49Z</time>
      </trkpt>
      <trkpt lat="45.62845" lon="2.81101">
        <ele>1126.8</ele>
        <time>2013-09-21T14:03:50Z</time>
      </trkpt>
      <trkpt lat="45.62844" lon="2.81102">
        <ele>1126.8</ele>
        <time>2013-09-21T14:03:51Z</time>
      </trkpt>
      <trkpt lat="45.62843" lon="2.81104">
        <ele>1127.28</ele>
        <time>2013-09-21T14:03:52Z</time>
      </trkpt>
      <trkpt lat="45.62842" lon="2.81105">
        <ele>1127.28</ele>
        <time>2013-09-21T14:03:53Z</time>
      </trkpt>
      <trkpt lat="45.6284" lon="2.81107">
        <ele>1127.76</ele>
        <time>2013-09-21T14:03:54Z</time>
      </trkpt>
      <trkpt lat="45.62839" lon="2.81109">
        <ele>1128.24</ele>
        <time>2013-09-21T14:03:55Z</time>
      </trkpt>
      <trkpt lat="45.62839" lon="2.8111">
        <ele>1127.76</ele>
        <time>2013-09-21T14:03:56Z</time>
      </trkpt>
      <trkpt lat="45.62838" lon="2.81112">
        <ele>1128.24</ele>
        <time>2013-09-21T14:03:57Z</time>
      </trkpt>
      <trkpt lat="45.62837" lon="2.81114">
        <ele>1128.73</ele>
        <time>2013-09-21T14:03:58Z</time>
      </trkpt>
      <trkpt lat="45.62835" lon="2.81115">
        <ele>1128.73</ele>
        <time>2013-09-21T14:03:59Z</time>
      </trkpt>
      <trkpt lat="45.62834" lon="2.81117">
        <ele>1128.73</ele>
        <time>2013-09-21T14:04:00Z</time>
      </trkpt>
      <trkpt lat="45.62833" lon="2.81119">
        <ele>1128.73</ele>
        <time>2013-09-21T14:04:01Z</time>
      </trkpt>
      <trkpt lat="45.62832" lon="2.8112">
        <ele>1128.73</ele>
        <time>2013-09-21T14:04:02Z</time>
      </trkpt>
      <trkpt lat="45.62831" lon="2.81121">
        <ele>1129.21</ele>
        <time>2013-09-21T14:04:03Z</time>
      </trkpt>
      <trkpt lat="45.6283" lon="2.81123">
        <ele>1128.73</ele>
        <time>2013-09-21T14:04:04Z</time>
      </trkpt>
      <trkpt lat="45.62829" lon="2.81124">
        <ele>1129.21</ele>
        <time>2013-09-21T14:04:05Z</time>
      </trkpt>
      <trkpt lat="45.62821" lon="2.81139">
        <ele>1131.13</ele>
        <time>2013-09-21T14:04:14Z</time>
      </trkpt>
      <trkpt lat="45.62821" lon="2.81141">
        <ele>1131.13</ele>
        <time>2013-09-21T14:04:15Z</time>
      </trkpt>
      <trkpt lat="45.6282" lon="2.81143">
        <ele>1131.13</ele>
        <time>2013-09-21T14:04:16Z</time>
      </trkpt>
      <trkpt lat="45.62816" lon="2.8116">
        <ele>1133.05</ele>
        <time>2013-09-21T14:04:26Z</time>
      </trkpt>
      <trkpt lat="45.62815" lon="2.81163">
        <ele>1133.53</ele>
        <time>2013-09-21T14:04:28Z</time>
      </trkpt>
      <trkpt lat="45.62815" lon="2.81165">
        <ele>1133.05</ele>
        <time>2013-09-21T14:04:29Z</time>
      </trkpt>
      <trkpt lat="45.62815" lon="2.81168">
        <ele>1133.53</ele>
        <time>2013-09-21T14:04:30Z</time>
      </trkpt>
      <trkpt lat="45.62814" lon="2.8117">
        <ele>1134.01</ele>
        <time>2013-09-21T14:04:31Z</time>
      </trkpt>
      <trkpt lat="45.62813" lon="2.81173">
        <ele>1134.01</ele>
        <time>2013-09-21T14:04:32Z</time>
      </trkpt>
      <trkpt lat="45.62813" lon="2.81175">
        <ele>1134.49</ele>
        <time>2013-09-21T14:04:33Z</time>
      </trkpt>
      <trkpt lat="45.62812" lon="2.81177">
        <ele>1135.45</ele>
        <time>2013-09-21T14:04:34Z</time>
      </trkpt>
      <trkpt lat="45.62813" lon="2.81179">
        <ele>1135.45</ele>
        <time>2013-09-21T14:04:35Z</time>
      </trkpt>
      <trkpt lat="45.62813" lon="2.81182">
        <ele>1135.45</ele>
        <time>2013-09-21T14:04:36Z</time>
      </trkpt>
      <trkpt lat="45.62813" lon="2.81184">
        <ele>1135.45</ele>
        <time>2013-09-21T14:04:37Z</time>
      </trkpt>
      <trkpt lat="45.62813" lon="2.81187">
        <ele>1135.94</ele>
        <time>2013-09-21T14:04:38Z</time>
      </trkpt>
      <trkpt lat="45.62811" lon="2.81195">
        <ele>1136.9</ele>
        <time>2013-09-21T14:04:43Z</time>
      </trkpt>
      <trkpt lat="45.62811" lon="2.81197">
        <ele>1137.86</ele>
        <time>2013-09-21T14:04:44Z</time>
      </trkpt>
      <trkpt lat="45.62811" lon="2.81199">
        <ele>1137.86</ele>
        <time>2013-09-21T14:04:45Z</time>
      </trkpt>
      <trkpt lat="45.62811" lon="2.81202">
        <ele>1138.34</ele>
        <time>2013-09-21T14:04:46Z</time>
      </trkpt>
      <trkpt lat="45.6281" lon="2.81204">
        <ele>1138.34</ele>
        <time>2013-09-21T14:04:47Z</time>
      </trkpt>
      <trkpt lat="45.62809" lon="2.81205">
        <ele>1138.34</ele>
        <time>2013-09-21T14:04:48Z</time>
      </trkpt>
      <trkpt lat="45.62809" lon="2.81207">
        <ele>1138.34</ele>
        <time>2013-09-21T14:04:49Z</time>
      </trkpt>
      <trkpt lat="45.62808" lon="2.81208">
        <ele>1138.34</ele>
        <time>2013-09-21T14:04:50Z</time>
      </trkpt>
      <trkpt lat="45.62807" lon="2.8121">
        <ele>1138.82</ele>
        <time>2013-09-21T14:04:51Z</time>
      </trkpt>
      <trkpt lat="45.62806" lon="2.81212">
        <ele>1138.82</ele>
        <time>2013-09-21T14:04:52Z</time>
      </trkpt>
      <trkpt lat="45.62806" lon="2.81214">
        <ele>1138.82</ele>
        <time>2013-09-21T14:04:53Z</time>
      </trkpt>
      <trkpt lat="45.62805" lon="2.8122">
        <ele>1139.78</ele>
        <time>2013-09-21T14:04:57Z</time>
      </trkpt>
      <trkpt lat="45.62804" lon="2.81222">
        <ele>1140.26</ele>
        <time>2013-09-21T14:04:58Z</time>
      </trkpt>
      <trkpt lat="45.62804" lon="2.81224">
        <ele>1140.26</ele>
        <time>2013-09-21T14:04:59Z</time>
      </trkpt>
      <trkpt lat="45.62804" lon="2.81226">
        <ele>1141.22</ele>
        <time>2013-09-21T14:05:00Z</time>
      </trkpt>
      <trkpt lat="45.62804" lon="2.81228">
        <ele>1140.74</ele>
        <time>2013-09-21T14:05:01Z</time>
      </trkpt>
      <trkpt lat="45.62803" lon="2.81229">
        <ele>1141.22</ele>
        <time>2013-09-21T14:05:02Z</time>
      </trkpt>
      <trkpt lat="45.62802" lon="2.81235">
        <ele>1141.22</ele>
        <time>2013-09-21T14:05:06Z</time>
      </trkpt>
      <trkpt lat="45.62801" lon="2.81236">
        <ele>1141.7</ele>
        <time>2013-09-21T14:05:07Z</time>
      </trkpt>
      <trkpt lat="45.62801" lon="2.81238">
        <ele>1141.7</ele>
        <time>2013-09-21T14:05:08Z</time>
      </trkpt>
      <trkpt lat="45.628" lon="2.81239">
        <ele>1142.18</ele>
        <time>2013-09-21T14:05:09Z</time>
      </trkpt>
      <trkpt lat="45.628" lon="2.8124">
        <ele>1142.18</ele>
        <time>2013-09-21T14:05:10Z</time>
      </trkpt>
      <trkpt lat="45.62799" lon="2.81242">
        <ele>1142.18</ele>
        <time>2013-09-21T14:05:11Z</time>
      </trkpt>
      <trkpt lat="45.62798" lon="2.81243">
        <ele>1142.66</ele>
        <time>2013-09-21T14:05:12Z</time>
      </trkpt>
      <trkpt lat="45.62796" lon="2.81252">
        <ele>1142.66</ele>
        <time>2013-09-21T14:05:19Z</time>
      </trkpt>
      <trkpt lat="45.62795" lon="2.81254">
        <ele>1143.14</ele>
        <time>2013-09-21T14:05:20Z</time>
      </trkpt>
      <trkpt lat="45.62794" lon="2.81256">
        <ele>1142.66</ele>
        <time>2013-09-21T14:05:21Z</time>
      </trkpt>
      <trkpt lat="45.62793" lon="2.81258">
        <ele>1143.14</ele>
        <time>2013-09-21T14:05:22Z</time>
      </trkpt>
      <trkpt lat="45.62792" lon="2.8126">
        <ele>1143.14</ele>
        <time>2013-09-21T14:05:23Z</time>
      </trkpt>
      <trkpt lat="45.62791" lon="2.81262">
        <ele>1142.66</ele>
        <time>2013-09-21T14:05:24Z</time>
      </trkpt>
      <trkpt lat="45.6279" lon="2.81264">
        <ele>1143.14</ele>
        <time>2013-09-21T14:05:25Z</time>
      </trkpt>
      <trkpt lat="45.62789" lon="2.81266">
        <ele>1143.63</ele>
        <time>2013-09-21T14:05:26Z</time>
      </trkpt>
      <trkpt lat="45.62788" lon="2.81268">
        <ele>1143.14</ele>
        <time>2013-09-21T14:05:27Z</time>
      </trkpt>
      <trkpt lat="45.62788" lon="2.8127">
        <ele>1143.63</ele>
        <time>2013-09-21T14:05:28Z</time>
      </trkpt>
      <trkpt lat="45.62786" lon="2.81272">
        <ele>1143.63</ele>
        <time>2013-09-21T14:05:29Z</time>
      </trkpt>
      <trkpt lat="45.62773" lon="2.81286">
        <ele>1144.59</ele>
        <time>2013-09-21T14:05:40Z</time>
      </trkpt>
      <trkpt lat="45.62771" lon="2.81287">
        <ele>1144.11</ele>
        <time>2013-09-21T14:05:41Z</time>
      </trkpt>
      <trkpt lat="45.62763" lon="2.81302">
        <ele>1146.51</ele>
        <time>2013-09-21T14:05:55Z</time>
      </trkpt>
      <trkpt lat="45.62767" lon="2.81308">
        <ele>1148.43</ele>
        <time>2013-09-21T14:06:03Z</time>
      </trkpt>
      <trkpt lat="45.62768" lon="2.81309">
        <ele>1148.91</ele>
        <time>2013-09-21T14:06:04Z</time>
      </trkpt>
      <trkpt lat="45.6277" lon="2.8131">
        <ele>1148.91</ele>
        <time>2013-09-21T14:06:05Z</time>
      </trkpt>
      <trkpt lat="45.62775" lon="2.81313">
        <ele>1149.87</ele>
        <time>2013-09-21T14:06:10Z</time>
      </trkpt>
      <trkpt lat="45.62776" lon="2.81314">
        <ele>1149.87</ele>
        <time>2013-09-21T14:06:11Z</time>
      </trkpt>
      <trkpt lat="45.62785" lon="2.8132">
        <ele>1152.28</ele>
        <time>2013-09-21T14:06:20Z</time>
      </trkpt>
      <trkpt lat="45.62794" lon="2.81327">
        <ele>1153.24</ele>
        <time>2013-09-21T14:06:30Z</time>
      </trkpt>
      <trkpt lat="45.62804" lon="2.81344">
        <ele>1154.68</ele>
        <time>2013-09-21T14:06:41Z</time>
      </trkpt>
      <trkpt lat="45.62807" lon="2.81355">
        <ele>1155.64</ele>
        <time>2013-09-21T14:06:51Z</time>
      </trkpt>
      <trkpt lat="45.62801" lon="2.81358">
        <ele>1156.12</ele>
        <time>2013-09-21T14:07:01Z</time>
      </trkpt>
      <trkpt lat="45.62794" lon="2.81356">
        <ele>1156.12</ele>
        <time>2013-09-21T14:07:39Z</time>
      </trkpt>
      <trkpt lat="45.62797" lon="2.81357">
        <ele>1155.64</ele>
        <time>2013-09-21T14:08:11Z</time>
      </trkpt>
      <trkpt lat="45.62798" lon="2.81359">
        <ele>1155.64</ele>
        <time>2013-09-21T14:08:30Z</time>
      </trkpt>
      <trkpt lat="45.62795" lon="2.81361">
        <ele>1155.64</ele>
        <time>2013-09-21T14:08:33Z</time>
      </trkpt>
      <trkpt lat="45.6279" lon="2.8137">
        <ele>1158.05</ele>
        <time>2013-09-21T14:08:44Z</time>
      </trkpt>
      <trkpt lat="45.62789" lon="2.81372">
        <ele>1158.53</ele>
        <time>2013-09-21T14:08:46Z</time>
      </trkpt>
      <trkpt lat="45.62782" lon="2.81377">
        <ele>1160.45</ele>
        <time>2013-09-21T14:08:53Z</time>
      </trkpt>
      <trkpt lat="45.6278" lon="2.81378">
        <ele>1160.93</ele>
        <time>2013-09-21T14:08:55Z</time>
      </trkpt>
      <trkpt lat="45.62777" lon="2.81379">
        <ele>1161.89</ele>
        <time>2013-09-21T14:08:57Z</time>
      </trkpt>
      <trkpt lat="45.62775" lon="2.81379">
        <ele>1161.41</ele>
        <time>2013-09-21T14:08:58Z</time>
      </trkpt>
      <trkpt lat="45.62773" lon="2.81379">
        <ele>1161.89</ele>
        <time>2013-09-21T14:08:59Z</time>
      </trkpt>
      <trkpt lat="45.62771" lon="2.81379">
        <ele>1162.37</ele>
        <time>2013-09-21T14:09:00Z</time>
      </trkpt>
      <trkpt lat="45.6277" lon="2.8138">
        <ele>1162.37</ele>
        <time>2013-09-21T14:09:01Z</time>
      </trkpt>
      <trkpt lat="45.62768" lon="2.8138">
        <ele>1162.85</ele>
        <time>2013-09-21T14:09:02Z</time>
      </trkpt>
      <trkpt lat="45.62767" lon="2.8138">
        <ele>1162.85</ele>
        <time>2013-09-21T14:09:03Z</time>
      </trkpt>
      <trkpt lat="45.62757" lon="2.81381">
        <ele>1164.77</ele>
        <time>2013-09-21T14:09:12Z</time>
      </trkpt>
      <trkpt lat="45.62754" lon="2.8138">
        <ele>1165.74</ele>
        <time>2013-09-21T14:09:15Z</time>
      </trkpt>
      <trkpt lat="45.62753" lon="2.81379">
        <ele>1166.22</ele>
        <time>2013-09-21T14:09:16Z</time>
      </trkpt>
      <trkpt lat="45.62751" lon="2.81379">
        <ele>1166.22</ele>
        <time>2013-09-21T14:09:17Z</time>
      </trkpt>
      <trkpt lat="45.6275" lon="2.81378">
        <ele>1166.7</ele>
        <time>2013-09-21T14:09:18Z</time>
      </trkpt>
      <trkpt lat="45.62749" lon="2.81377">
        <ele>1167.18</ele>
        <time>2013-09-21T14:09:19Z</time>
      </trkpt>
      <trkpt lat="45.62742" lon="2.81376">
        <ele>1168.14</ele>
        <time>2013-09-21T14:09:23Z</time>
      </trkpt>
      <trkpt lat="45.62739" lon="2.81377">
        <ele>1168.14</ele>
        <time>2013-09-21T14:09:26Z</time>
      </trkpt>
      <trkpt lat="45.62729" lon="2.81376">
        <ele>1169.58</ele>
        <time>2013-09-21T14:09:41Z</time>
      </trkpt>
      <trkpt lat="45.62725" lon="2.81376">
        <ele>1171.02</ele>
        <time>2013-09-21T14:09:53Z</time>
      </trkpt>
      <trkpt lat="45.62717" lon="2.81375">
        <ele>1171.5</ele>
        <time>2013-09-21T14:10:14Z</time>
      </trkpt>
      <trkpt lat="45.62716" lon="2.81374">
        <ele>1171.98</ele>
        <time>2013-09-21T14:10:17Z</time>
      </trkpt>
      <trkpt lat="45.62708" lon="2.81377">
        <ele>1173.43</ele>
        <time>2013-09-21T14:10:28Z</time>
      </trkpt>
      <trkpt lat="45.62698" lon="2.81375">
        <ele>1174.87</ele>
        <time>2013-09-21T14:10:41Z</time>
      </trkpt>
      <trkpt lat="45.6269" lon="2.81377">
        <ele>1176.79</ele>
        <time>2013-09-21T14:10:51Z</time>
      </trkpt>
      <trkpt lat="45.6268" lon="2.81372">
        <ele>1178.23</ele>
        <time>2013-09-21T14:11:04Z</time>
      </trkpt>
      <trkpt lat="45.62669" lon="2.81371">
        <ele>1180.16</ele>
        <time>2013-09-21T14:11:18Z</time>
      </trkpt>
      <trkpt lat="45.62661" lon="2.81369">
        <ele>1182.08</ele>
        <time>2013-09-21T14:11:29Z</time>
      </trkpt>
      <trkpt lat="45.62651" lon="2.81365">
        <ele>1184</ele>
        <time>2013-09-21T14:11:43Z</time>
      </trkpt>
      <trkpt lat="45.62642" lon="2.81364">
        <ele>1184.96</ele>
        <time>2013-09-21T14:11:55Z</time>
      </trkpt>
      <trkpt lat="45.62638" lon="2.81364">
        <ele>1185.92</ele>
        <time>2013-09-21T14:12:08Z</time>
      </trkpt>
      <trkpt lat="45.62637" lon="2.81358">
        <ele>1184.96</ele>
        <time>2013-09-21T14:12:32Z</time>
      </trkpt>
      <trkpt lat="45.62636" lon="2.81349">
        <ele>1185.44</ele>
        <time>2013-09-21T14:12:48Z</time>
      </trkpt>
      <trkpt lat="45.62641" lon="2.81346">
        <ele>1185.44</ele>
        <time>2013-09-21T14:13:05Z</time>
      </trkpt>
      <trkpt lat="45.62637" lon="2.81348">
        <ele>1185.44</ele>
        <time>2013-09-21T14:13:09Z</time>
      </trkpt>
      <trkpt lat="45.62636" lon="2.81348">
        <ele>1185.44</ele>
        <time>2013-09-21T14:13:10Z</time>
      </trkpt>
      <trkpt lat="45.62634" lon="2.81349">
        <ele>1185.92</ele>
        <time>2013-09-21T14:13:11Z</time>
      </trkpt>
      <trkpt lat="45.62632" lon="2.81351">
        <ele>1185.92</ele>
        <time>2013-09-21T14:13:13Z</time>
      </trkpt>
      <trkpt lat="45.62631" lon="2.81352">
        <ele>1186.4</ele>
        <time>2013-09-21T14:13:14Z</time>
      </trkpt>
      <trkpt lat="45.6262" lon="2.81358">
        <ele>1187.85</ele>
        <time>2013-09-21T14:13:23Z</time>
      </trkpt>
      <trkpt lat="45.62619" lon="2.81358">
        <ele>1187.85</ele>
        <time>2013-09-21T14:13:24Z</time>
      </trkpt>
      <trkpt lat="45.62609" lon="2.8136">
        <ele>1189.29</ele>
        <time>2013-09-21T14:13:31Z</time>
      </trkpt>
      <trkpt lat="45.62604" lon="2.81361">
        <ele>1190.25</ele>
        <time>2013-09-21T14:13:35Z</time>
      </trkpt>
      <trkpt lat="45.62602" lon="2.81363">
        <ele>1190.25</ele>
        <time>2013-09-21T14:13:37Z</time>
      </trkpt>
      <trkpt lat="45.62591" lon="2.81378">
        <ele>1192.17</ele>
        <time>2013-09-21T14:13:50Z</time>
      </trkpt>
      <trkpt lat="45.62588" lon="2.8139">
        <ele>1193.61</ele>
        <time>2013-09-21T14:13:58Z</time>
      </trkpt>
      <trkpt lat="45.62588" lon="2.81393">
        <ele>1193.61</ele>
        <time>2013-09-21T14:14:00Z</time>
      </trkpt>
      <trkpt lat="45.62588" lon="2.81395">
        <ele>1193.61</ele>
        <time>2013-09-21T14:14:01Z</time>
      </trkpt>
      <trkpt lat="45.62589" lon="2.81405">
        <ele>1194.09</ele>
        <time>2013-09-21T14:14:06Z</time>
      </trkpt>
      <trkpt lat="45.62589" lon="2.81406">
        <ele>1194.58</ele>
        <time>2013-09-21T14:14:07Z</time>
      </trkpt>
      <trkpt lat="45.62589" lon="2.81408">
        <ele>1194.58</ele>
        <time>2013-09-21T14:14:08Z</time>
      </trkpt>
      <trkpt lat="45.6259" lon="2.81409">
        <ele>1195.06</ele>
        <time>2013-09-21T14:14:09Z</time>
      </trkpt>
      <trkpt lat="45.62591" lon="2.81411">
        <ele>1195.06</ele>
        <time>2013-09-21T14:14:10Z</time>
      </trkpt>
      <trkpt lat="45.62592" lon="2.81422">
        <ele>1196.5</ele>
        <time>2013-09-21T14:14:18Z</time>
      </trkpt>
      <trkpt lat="45.62594" lon="2.81428">
        <ele>1197.46</ele>
        <time>2013-09-21T14:14:23Z</time>
      </trkpt>
      <trkpt lat="45.626" lon="2.81444">
        <ele>1199.38</ele>
        <time>2013-09-21T14:14:34Z</time>
      </trkpt>
      <trkpt lat="45.62603" lon="2.81458">
        <ele>1200.82</ele>
        <time>2013-09-21T14:14:47Z</time>
      </trkpt>
      <trkpt lat="45.62616" lon="2.81475">
        <ele>1203.23</ele>
        <time>2013-09-21T14:14:58Z</time>
      </trkpt>
      <trkpt lat="45.62627" lon="2.81493">
        <ele>1204.67</ele>
        <time>2013-09-21T14:15:12Z</time>
      </trkpt>
      <trkpt lat="45.6262" lon="2.81501">
        <ele>1206.59</ele>
        <time>2013-09-21T14:15:23Z</time>
      </trkpt>
      <trkpt lat="45.62606" lon="2.81498">
        <ele>1209.96</ele>
        <time>2013-09-21T14:15:36Z</time>
      </trkpt>
      <trkpt lat="45.62597" lon="2.81497">
        <ele>1212.84</ele>
        <time>2013-09-21T14:15:48Z</time>
      </trkpt>
      <trkpt lat="45.62596" lon="2.81497">
        <ele>1213.32</ele>
        <time>2013-09-21T14:15:49Z</time>
      </trkpt>
      <trkpt lat="45.62592" lon="2.81496">
        <ele>1214.28</ele>
        <time>2013-09-21T14:15:54Z</time>
      </trkpt>
      <trkpt lat="45.62587" lon="2.81493">
        <ele>1216.21</ele>
        <time>2013-09-21T14:16:04Z</time>
      </trkpt>
      <trkpt lat="45.6258" lon="2.8149">
        <ele>1217.17</ele>
        <time>2013-09-21T14:16:16Z</time>
      </trkpt>
      <trkpt lat="45.6257" lon="2.81488">
        <ele>1219.09</ele>
        <time>2013-09-21T14:16:28Z</time>
      </trkpt>
      <trkpt lat="45.62559" lon="2.81484">
        <ele>1221.01</ele>
        <time>2013-09-21T14:16:41Z</time>
      </trkpt>
      <trkpt lat="45.6255" lon="2.81478">
        <ele>1221.97</ele>
        <time>2013-09-21T14:16:54Z</time>
      </trkpt>
      <trkpt lat="45.6254" lon="2.81473">
        <ele>1224.38</ele>
        <time>2013-09-21T14:17:09Z</time>
      </trkpt>
      <trkpt lat="45.62533" lon="2.81476">
        <ele>1225.82</ele>
        <time>2013-09-21T14:17:22Z</time>
      </trkpt>
      <trkpt lat="45.62527" lon="2.81478">
        <ele>1227.74</ele>
        <time>2013-09-21T14:17:35Z</time>
      </trkpt>
      <trkpt lat="45.62521" lon="2.81478">
        <ele>1228.22</ele>
        <time>2013-09-21T14:17:49Z</time>
      </trkpt>
      <trkpt lat="45.62513" lon="2.81482">
        <ele>1231.11</ele>
        <time>2013-09-21T14:18:04Z</time>
      </trkpt>
      <trkpt lat="45.62504" lon="2.81484">
        <ele>1233.03</ele>
        <time>2013-09-21T14:18:19Z</time>
      </trkpt>
      <trkpt lat="45.62497" lon="2.81489">
        <ele>1233.99</ele>
        <time>2013-09-21T14:18:31Z</time>
      </trkpt>
      <trkpt lat="45.62487" lon="2.81495">
        <ele>1236.87</ele>
        <time>2013-09-21T14:18:46Z</time>
      </trkpt>
      <trkpt lat="45.62478" lon="2.81496">
        <ele>1237.35</ele>
        <time>2013-09-21T14:18:59Z</time>
      </trkpt>
      <trkpt lat="45.62472" lon="2.815">
        <ele>1240.24</ele>
        <time>2013-09-21T14:19:12Z</time>
      </trkpt>
      <trkpt lat="45.62461" lon="2.81501">
        <ele>1241.68</ele>
        <time>2013-09-21T14:19:25Z</time>
      </trkpt>
      <trkpt lat="45.6245" lon="2.81505">
        <ele>1243.6</ele>
        <time>2013-09-21T14:19:39Z</time>
      </trkpt>
      <trkpt lat="45.62448" lon="2.81507">
        <ele>1244.08</ele>
        <time>2013-09-21T14:19:42Z</time>
      </trkpt>
      <trkpt lat="45.62436" lon="2.81523">
        <ele>1246.01</ele>
        <time>2013-09-21T14:19:58Z</time>
      </trkpt>
      <trkpt lat="45.62433" lon="2.81534">
        <ele>1247.45</ele>
        <time>2013-09-21T14:20:07Z</time>
      </trkpt>
      <trkpt lat="45.62429" lon="2.81549">
        <ele>1248.89</ele>
        <time>2013-09-21T14:20:21Z</time>
      </trkpt>
      <trkpt lat="45.62424" lon="2.81562">
        <ele>1251.29</ele>
        <time>2013-09-21T14:20:33Z</time>
      </trkpt>
      <trkpt lat="45.62422" lon="2.81566">
        <ele>1251.29</ele>
        <time>2013-09-21T14:20:38Z</time>
      </trkpt>
      <trkpt lat="45.62415" lon="2.81572">
        <ele>1251.77</ele>
        <time>2013-09-21T14:20:46Z</time>
      </trkpt>
      <trkpt lat="45.62407" lon="2.81585">
        <ele>1252.25</ele>
        <time>2013-09-21T14:21:00Z</time>
      </trkpt>
      <trkpt lat="45.62406" lon="2.81586">
        <ele>1252.74</ele>
        <time>2013-09-21T14:21:12Z</time>
      </trkpt>
      <trkpt lat="45.62405" lon="2.81587">
        <ele>1252.74</ele>
        <time>2013-09-21T14:21:14Z</time>
      </trkpt>
      <trkpt lat="45.624" lon="2.81594">
        <ele>1253.7</ele>
        <time>2013-09-21T14:21:28Z</time>
      </trkpt>
      <trkpt lat="45.62399" lon="2.81594">
        <ele>1253.7</ele>
        <time>2013-09-21T14:21:45Z</time>
      </trkpt>
      <trkpt lat="45.62397" lon="2.81592">
        <ele>1253.22</ele>
        <time>2013-09-21T14:22:02Z</time>
      </trkpt>
      <trkpt lat="45.62395" lon="2.81591">
        <ele>1253.22</ele>
        <time>2013-09-21T14:22:14Z</time>
      </trkpt>
      <trkpt lat="45.6239" lon="2.81595">
        <ele>1253.7</ele>
        <time>2013-09-21T14:22:19Z</time>
      </trkpt>
      <trkpt lat="45.62387" lon="2.81598">
        <ele>1253.7</ele>
        <time>2013-09-21T14:22:22Z</time>
      </trkpt>
      <trkpt lat="45.62371" lon="2.81605">
        <ele>1254.66</ele>
        <time>2013-09-21T14:22:35Z</time>
      </trkpt>
      <trkpt lat="45.62366" lon="2.81603">
        <ele>1255.14</ele>
        <time>2013-09-21T14:22:41Z</time>
      </trkpt>
      <trkpt lat="45.62356" lon="2.81597">
        <ele>1256.1</ele>
        <time>2013-09-21T14:22:50Z</time>
      </trkpt>
      <trkpt lat="45.62354" lon="2.81595">
        <ele>1257.06</ele>
        <time>2013-09-21T14:22:52Z</time>
      </trkpt>
      <trkpt lat="45.62353" lon="2.81593">
        <ele>1257.06</ele>
        <time>2013-09-21T14:22:53Z</time>
      </trkpt>
      <trkpt lat="45.62349" lon="2.81591">
        <ele>1257.06</ele>
        <time>2013-09-21T14:22:56Z</time>
      </trkpt>
      <trkpt lat="45.62347" lon="2.8159">
        <ele>1257.54</ele>
        <time>2013-09-21T14:22:57Z</time>
      </trkpt>
      <trkpt lat="45.62346" lon="2.8159">
        <ele>1257.54</ele>
        <time>2013-09-21T14:22:58Z</time>
      </trkpt>
      <trkpt lat="45.62345" lon="2.81589">
        <ele>1257.54</ele>
        <time>2013-09-21T14:22:59Z</time>
      </trkpt>
      <trkpt lat="45.62343" lon="2.81588">
        <ele>1258.02</ele>
        <time>2013-09-21T14:23:00Z</time>
      </trkpt>
      <trkpt lat="45.62341" lon="2.81587">
        <ele>1258.02</ele>
        <time>2013-09-21T14:23:01Z</time>
      </trkpt>
      <trkpt lat="45.62309" lon="2.81564">
        <ele>1258.5</ele>
        <time>2013-09-21T14:23:16Z</time>
      </trkpt>
      <trkpt lat="45.62303" lon="2.81555">
        <ele>1258.98</ele>
        <time>2013-09-21T14:23:20Z</time>
      </trkpt>
      <trkpt lat="45.62301" lon="2.81554">
        <ele>1259.46</ele>
        <time>2013-09-21T14:23:21Z</time>
      </trkpt>
      <trkpt lat="45.623" lon="2.81552">
        <ele>1259.46</ele>
        <time>2013-09-21T14:23:22Z</time>
      </trkpt>
      <trkpt lat="45.6228" lon="2.81527">
        <ele>1261.39</ele>
        <time>2013-09-21T14:23:34Z</time>
      </trkpt>
      <trkpt lat="45.62262" lon="2.81503">
        <ele>1263.31</ele>
        <time>2013-09-21T14:23:46Z</time>
      </trkpt>
      <trkpt lat="45.6226" lon="2.815">
        <ele>1263.31</ele>
        <time>2013-09-21T14:23:47Z</time>
      </trkpt>
      <trkpt lat="45.62259" lon="2.81498">
        <ele>1263.31</ele>
        <time>2013-09-21T14:23:48Z</time>
      </trkpt>
      <trkpt lat="45.62257" lon="2.81497">
        <ele>1263.31</ele>
        <time>2013-09-21T14:23:49Z</time>
      </trkpt>
      <trkpt lat="45.62256" lon="2.81495">
        <ele>1263.31</ele>
        <time>2013-09-21T14:23:50Z</time>
      </trkpt>
      <trkpt lat="45.62254" lon="2.81493">
        <ele>1263.31</ele>
        <time>2013-09-21T14:23:51Z</time>
      </trkpt>
      <trkpt lat="45.62252" lon="2.81491">
        <ele>1263.31</ele>
        <time>2013-09-21T14:23:52Z</time>
      </trkpt>
      <trkpt lat="45.62251" lon="2.81489">
        <ele>1263.31</ele>
        <time>2013-09-21T14:23:53Z</time>
      </trkpt>
      <trkpt lat="45.6225" lon="2.81487">
        <ele>1263.31</ele>
        <time>2013-09-21T14:23:54Z</time>
      </trkpt>
      <trkpt lat="45.62248" lon="2.81486">
        <ele>1263.31</ele>
        <time>2013-09-21T14:23:55Z</time>
      </trkpt>
      <trkpt lat="45.62247" lon="2.81484">
        <ele>1263.79</ele>
        <time>2013-09-21T14:23:56Z</time>
      </trkpt>
      <trkpt lat="45.62232" lon="2.8147">
        <ele>1266.19</ele>
        <time>2013-09-21T14:24:09Z</time>
      </trkpt>
      <trkpt lat="45.62213" lon="2.81473">
        <ele>1267.64</ele>
        <time>2013-09-21T14:24:24Z</time>
      </trkpt>
      <trkpt lat="45.62202" lon="2.81492">
        <ele>1269.56</ele>
        <time>2013-09-21T14:24:37Z</time>
      </trkpt>
      <trkpt lat="45.62198" lon="2.81524">
        <ele>1271.96</ele>
        <time>2013-09-21T14:24:53Z</time>
      </trkpt>
      <trkpt lat="45.62199" lon="2.81535">
        <ele>1272.44</ele>
        <time>2013-09-21T14:24:58Z</time>
      </trkpt>
      <trkpt lat="45.622" lon="2.81537">
        <ele>1272.44</ele>
        <time>2013-09-21T14:24:59Z</time>
      </trkpt>
      <trkpt lat="45.62203" lon="2.81579">
        <ele>1275.33</ele>
        <time>2013-09-21T14:25:18Z</time>
      </trkpt>
      <trkpt lat="45.62187" lon="2.81602">
        <ele>1276.77</ele>
        <time>2013-09-21T14:25:32Z</time>
      </trkpt>
      <trkpt lat="45.62175" lon="2.81616">
        <ele>1278.69</ele>
        <time>2013-09-21T14:25:43Z</time>
      </trkpt>
      <trkpt lat="45.62153" lon="2.81625">
        <ele>1280.61</ele>
        <time>2013-09-21T14:25:56Z</time>
      </trkpt>
      <trkpt lat="45.62131" lon="2.81634">
        <ele>1281.57</ele>
        <time>2013-09-21T14:26:08Z</time>
      </trkpt>
      <trkpt lat="45.62129" lon="2.81634">
        <ele>1280.61</ele>
        <time>2013-09-21T14:26:09Z</time>
      </trkpt>
      <trkpt lat="45.62127" lon="2.81635">
        <ele>1281.09</ele>
        <time>2013-09-21T14:26:10Z</time>
      </trkpt>
      <trkpt lat="45.62125" lon="2.81636">
        <ele>1281.57</ele>
        <time>2013-09-21T14:26:11Z</time>
      </trkpt>
      <trkpt lat="45.62123" lon="2.81637">
        <ele>1281.09</ele>
        <time>2013-09-21T14:26:12Z</time>
      </trkpt>
      <trkpt lat="45.62121" lon="2.81638">
        <ele>1281.57</ele>
        <time>2013-09-21T14:26:13Z</time>
      </trkpt>
      <trkpt lat="45.62119" lon="2.8164">
        <ele>1281.57</ele>
        <time>2013-09-21T14:26:14Z</time>
      </trkpt>
      <trkpt lat="45.62107" lon="2.81656">
        <ele>1281.57</ele>
        <time>2013-09-21T14:26:22Z</time>
      </trkpt>
      <trkpt lat="45.62105" lon="2.81658">
        <ele>1282.06</ele>
        <time>2013-09-21T14:26:23Z</time>
      </trkpt>
      <trkpt lat="45.62104" lon="2.8166">
        <ele>1282.06</ele>
        <time>2013-09-21T14:26:24Z</time>
      </trkpt>
      <trkpt lat="45.62081" lon="2.81679">
        <ele>1283.02</ele>
        <time>2013-09-21T14:26:38Z</time>
      </trkpt>
      <trkpt lat="45.62076" lon="2.8168">
        <ele>1283.02</ele>
        <time>2013-09-21T14:26:41Z</time>
      </trkpt>
      <trkpt lat="45.62074" lon="2.8168">
        <ele>1283.02</ele>
        <time>2013-09-21T14:26:42Z</time>
      </trkpt>
      <trkpt lat="45.62073" lon="2.81681">
        <ele>1283.02</ele>
        <time>2013-09-21T14:26:43Z</time>
      </trkpt>
      <trkpt lat="45.62071" lon="2.81682">
        <ele>1283.02</ele>
        <time>2013-09-21T14:26:44Z</time>
      </trkpt>
      <trkpt lat="45.62069" lon="2.81683">
        <ele>1283.02</ele>
        <time>2013-09-21T14:26:45Z</time>
      </trkpt>
      <trkpt lat="45.62067" lon="2.81684">
        <ele>1283.02</ele>
        <time>2013-09-21T14:26:46Z</time>
      </trkpt>
      <trkpt lat="45.62064" lon="2.81686">
        <ele>1283.02</ele>
        <time>2013-09-21T14:26:47Z</time>
      </trkpt>
      <trkpt lat="45.62062" lon="2.81687">
        <ele>1282.54</ele>
        <time>2013-09-21T14:26:48Z</time>
      </trkpt>
      <trkpt lat="45.6206" lon="2.81689">
        <ele>1282.54</ele>
        <time>2013-09-21T14:26:49Z</time>
      </trkpt>
      <trkpt lat="45.62058" lon="2.8169">
        <ele>1282.54</ele>
        <time>2013-09-21T14:26:50Z</time>
      </trkpt>
      <trkpt lat="45.62056" lon="2.81691">
        <ele>1282.54</ele>
        <time>2013-09-21T14:26:51Z</time>
      </trkpt>
      <trkpt lat="45.62054" lon="2.81692">
        <ele>1283.02</ele>
        <time>2013-09-21T14:26:52Z</time>
      </trkpt>
      <trkpt lat="45.62052" lon="2.81693">
        <ele>1283.02</ele>
        <time>2013-09-21T14:26:53Z</time>
      </trkpt>
      <trkpt lat="45.6205" lon="2.81694">
        <ele>1282.54</ele>
        <time>2013-09-21T14:26:54Z</time>
      </trkpt>
      <trkpt lat="45.62048" lon="2.81696">
        <ele>1282.54</ele>
        <time>2013-09-21T14:26:55Z</time>
      </trkpt>
      <trkpt lat="45.62046" lon="2.81697">
        <ele>1282.06</ele>
        <time>2013-09-21T14:26:56Z</time>
      </trkpt>
      <trkpt lat="45.62021" lon="2.81717">
        <ele>1281.09</ele>
        <time>2013-09-21T14:27:05Z</time>
      </trkpt>
      <trkpt lat="45.62016" lon="2.81719">
        <ele>1280.61</ele>
        <time>2013-09-21T14:27:06Z</time>
      </trkpt>
      <trkpt lat="45.62011" lon="2.81721">
        <ele>1279.65</ele>
        <time>2013-09-21T14:27:07Z</time>
      </trkpt>
      <trkpt lat="45.61988" lon="2.81725">
        <ele>1278.21</ele>
        <time>2013-09-21T14:27:16Z</time>
      </trkpt>
      <trkpt lat="45.61981" lon="2.81727">
        <ele>1278.21</ele>
        <time>2013-09-21T14:27:29Z</time>
      </trkpt>
      <trkpt lat="45.61979" lon="2.81726">
        <ele>1278.69</ele>
        <time>2013-09-21T14:27:30Z</time>
      </trkpt>
      <trkpt lat="45.61977" lon="2.81724">
        <ele>1278.21</ele>
        <time>2013-09-21T14:27:31Z</time>
      </trkpt>
      <trkpt lat="45.61977" lon="2.81721">
        <ele>1277.73</ele>
        <time>2013-09-21T14:27:32Z</time>
      </trkpt>
      <trkpt lat="45.61976" lon="2.81718">
        <ele>1277.73</ele>
        <time>2013-09-21T14:27:33Z</time>
      </trkpt>
      <trkpt lat="45.61976" lon="2.81715">
        <ele>1278.21</ele>
        <time>2013-09-21T14:27:34Z</time>
      </trkpt>
      <trkpt lat="45.61968" lon="2.81689">
        <ele>1280.13</ele>
        <time>2013-09-21T14:27:46Z</time>
      </trkpt>
      <trkpt lat="45.6195" lon="2.81665">
        <ele>1283.5</ele>
        <time>2013-09-21T14:28:01Z</time>
      </trkpt>
      <trkpt lat="45.61948" lon="2.81664">
        <ele>1283.98</ele>
        <time>2013-09-21T14:28:02Z</time>
      </trkpt>
      <trkpt lat="45.61947" lon="2.81663">
        <ele>1283.5</ele>
        <time>2013-09-21T14:28:03Z</time>
      </trkpt>
      <trkpt lat="45.61946" lon="2.81661">
        <ele>1283.02</ele>
        <time>2013-09-21T14:28:04Z</time>
      </trkpt>
      <trkpt lat="45.61945" lon="2.8166">
        <ele>1283.98</ele>
        <time>2013-09-21T14:28:05Z</time>
      </trkpt>
      <trkpt lat="45.61944" lon="2.81658">
        <ele>1283.5</ele>
        <time>2013-09-21T14:28:06Z</time>
      </trkpt>
      <trkpt lat="45.61943" lon="2.81657">
        <ele>1283.5</ele>
        <time>2013-09-21T14:28:07Z</time>
      </trkpt>
      <trkpt lat="45.61942" lon="2.81656">
        <ele>1283.98</ele>
        <time>2013-09-21T14:28:08Z</time>
      </trkpt>
      <trkpt lat="45.6193" lon="2.81641">
        <ele>1286.38</ele>
        <time>2013-09-21T14:28:22Z</time>
      </trkpt>
      <trkpt lat="45.61907" lon="2.81625">
        <ele>1288.3</ele>
        <time>2013-09-21T14:28:39Z</time>
      </trkpt>
      <trkpt lat="45.61892" lon="2.81607">
        <ele>1291.19</ele>
        <time>2013-09-21T14:28:53Z</time>
      </trkpt>
      <trkpt lat="45.61883" lon="2.81587">
        <ele>1293.59</ele>
        <time>2013-09-21T14:29:06Z</time>
      </trkpt>
      <trkpt lat="45.61877" lon="2.81563">
        <ele>1295.99</ele>
        <time>2013-09-21T14:29:20Z</time>
      </trkpt>
      <trkpt lat="45.61876" lon="2.81561">
        <ele>1296.48</ele>
        <time>2013-09-21T14:29:21Z</time>
      </trkpt>
      <trkpt lat="45.61876" lon="2.81559">
        <ele>1295.99</ele>
        <time>2013-09-21T14:29:22Z</time>
      </trkpt>
      <trkpt lat="45.61876" lon="2.81558">
        <ele>1296.96</ele>
        <time>2013-09-21T14:29:23Z</time>
      </trkpt>
      <trkpt lat="45.61869" lon="2.81532">
        <ele>1298.88</ele>
        <time>2013-09-21T14:29:37Z</time>
      </trkpt>
      <trkpt lat="45.61869" lon="2.81529">
        <ele>1299.36</ele>
        <time>2013-09-21T14:29:39Z</time>
      </trkpt>
      <trkpt lat="45.61868" lon="2.81528">
        <ele>1299.36</ele>
        <time>2013-09-21T14:29:40Z</time>
      </trkpt>
      <trkpt lat="45.61868" lon="2.81526">
        <ele>1299.84</ele>
        <time>2013-09-21T14:29:41Z</time>
      </trkpt>
      <trkpt lat="45.61868" lon="2.81524">
        <ele>1299.36</ele>
        <time>2013-09-21T14:29:42Z</time>
      </trkpt>
      <trkpt lat="45.61868" lon="2.81523">
        <ele>1299.84</ele>
        <time>2013-09-21T14:29:43Z</time>
      </trkpt>
      <trkpt lat="45.61866" lon="2.81493">
        <ele>1302.72</ele>
        <time>2013-09-21T14:30:00Z</time>
      </trkpt>
      <trkpt lat="45.61868" lon="2.81486">
        <ele>1302.72</ele>
        <time>2013-09-21T14:30:04Z</time>
      </trkpt>
      <trkpt lat="45.61868" lon="2.81484">
        <ele>1302.24</ele>
        <time>2013-09-21T14:30:05Z</time>
      </trkpt>
      <trkpt lat="45.61869" lon="2.81483">
        <ele>1302.72</ele>
        <time>2013-09-21T14:30:06Z</time>
      </trkpt>
      <trkpt lat="45.61874" lon="2.81469">
        <ele>1303.69</ele>
        <time>2013-09-21T14:30:14Z</time>
      </trkpt>
      <trkpt lat="45.61875" lon="2.81467">
        <ele>1304.17</ele>
        <time>2013-09-21T14:30:15Z</time>
      </trkpt>
      <trkpt lat="45.61879" lon="2.81457">
        <ele>1305.13</ele>
        <time>2013-09-21T14:30:21Z</time>
      </trkpt>
      <trkpt lat="45.6188" lon="2.81456">
        <ele>1305.13</ele>
        <time>2013-09-21T14:30:22Z</time>
      </trkpt>
      <trkpt lat="45.61889" lon="2.81426">
        <ele>1306.09</ele>
        <time>2013-09-21T14:30:39Z</time>
      </trkpt>
      <trkpt lat="45.61887" lon="2.81412">
        <ele>1307.05</ele>
        <time>2013-09-21T14:30:47Z</time>
      </trkpt>
      <trkpt lat="45.61887" lon="2.8141">
        <ele>1307.05</ele>
        <time>2013-09-21T14:30:48Z</time>
      </trkpt>
      <trkpt lat="45.61886" lon="2.81409">
        <ele>1306.57</ele>
        <time>2013-09-21T14:30:49Z</time>
      </trkpt>
      <trkpt lat="45.61886" lon="2.81407">
        <ele>1307.05</ele>
        <time>2013-09-21T14:30:50Z</time>
      </trkpt>
      <trkpt lat="45.61885" lon="2.81406">
        <ele>1307.53</ele>
        <time>2013-09-21T14:30:51Z</time>
      </trkpt>
      <trkpt lat="45.61882" lon="2.81397">
        <ele>1307.53</ele>
        <time>2013-09-21T14:30:57Z</time>
      </trkpt>
      <trkpt lat="45.61881" lon="2.81395">
        <ele>1308.01</ele>
        <time>2013-09-21T14:30:58Z</time>
      </trkpt>
      <trkpt lat="45.6188" lon="2.81394">
        <ele>1308.49</ele>
        <time>2013-09-21T14:30:59Z</time>
      </trkpt>
      <trkpt lat="45.6188" lon="2.81392">
        <ele>1308.01</ele>
        <time>2013-09-21T14:31:00Z</time>
      </trkpt>
      <trkpt lat="45.61879" lon="2.81391">
        <ele>1308.01</ele>
        <time>2013-09-21T14:31:01Z</time>
      </trkpt>
      <trkpt lat="45.61878" lon="2.81389">
        <ele>1308.01</ele>
        <time>2013-09-21T14:31:02Z</time>
      </trkpt>
      <trkpt lat="45.61877" lon="2.81388">
        <ele>1309.45</ele>
        <time>2013-09-21T14:31:03Z</time>
      </trkpt>
      <trkpt lat="45.61866" lon="2.8136">
        <ele>1309.93</ele>
        <time>2013-09-21T14:31:20Z</time>
      </trkpt>
      <trkpt lat="45.61854" lon="2.81334">
        <ele>1310.9</ele>
        <time>2013-09-21T14:31:35Z</time>
      </trkpt>
      <trkpt lat="45.61853" lon="2.81333">
        <ele>1310.9</ele>
        <time>2013-09-21T14:31:36Z</time>
      </trkpt>
      <trkpt lat="45.61846" lon="2.81315">
        <ele>1311.38</ele>
        <time>2013-09-21T14:31:50Z</time>
      </trkpt>
      <trkpt lat="45.61845" lon="2.81316">
        <ele>1311.38</ele>
        <time>2013-09-21T14:31:52Z</time>
      </trkpt>
      <trkpt lat="45.61844" lon="2.81318">
        <ele>1310.41</ele>
        <time>2013-09-21T14:32:08Z</time>
      </trkpt>
      <trkpt lat="45.61849" lon="2.81318">
        <ele>1311.86</ele>
        <time>2013-09-21T14:32:20Z</time>
      </trkpt>
      <trkpt lat="45.61848" lon="2.81311">
        <ele>1311.86</ele>
        <time>2013-09-21T14:32:36Z</time>
      </trkpt>
      <trkpt lat="45.61847" lon="2.8131">
        <ele>1311.86</ele>
        <time>2013-09-21T14:32:37Z</time>
      </trkpt>
      <trkpt lat="45.61846" lon="2.81308">
        <ele>1311.38</ele>
        <time>2013-09-21T14:32:38Z</time>
      </trkpt>
      <trkpt lat="45.61845" lon="2.81306">
        <ele>1311.86</ele>
        <time>2013-09-21T14:32:39Z</time>
      </trkpt>
      <trkpt lat="45.61843" lon="2.81304">
        <ele>1311.38</ele>
        <time>2013-09-21T14:32:40Z</time>
      </trkpt>
      <trkpt lat="45.61842" lon="2.81301">
        <ele>1311.86</ele>
        <time>2013-09-21T14:32:41Z</time>
      </trkpt>
      <trkpt lat="45.6184" lon="2.81297">
        <ele>1311.86</ele>
        <time>2013-09-21T14:32:42Z</time>
      </trkpt>
      <trkpt lat="45.61839" lon="2.81294">
        <ele>1312.34</ele>
        <time>2013-09-21T14:32:43Z</time>
      </trkpt>
      <trkpt lat="45.61832" lon="2.81278">
        <ele>1312.34</ele>
        <time>2013-09-21T14:32:52Z</time>
      </trkpt>
      <trkpt lat="45.61828" lon="2.81273">
        <ele>1313.3</ele>
        <time>2013-09-21T14:33:14Z</time>
      </trkpt>
      <trkpt lat="45.61815" lon="2.81241">
        <ele>1315.22</ele>
        <time>2013-09-21T14:33:30Z</time>
      </trkpt>
      <trkpt lat="45.61804" lon="2.81206">
        <ele>1316.18</ele>
        <time>2013-09-21T14:33:44Z</time>
      </trkpt>
      <trkpt lat="45.61807" lon="2.81179">
        <ele>1317.62</ele>
        <time>2013-09-21T14:33:56Z</time>
      </trkpt>
      <trkpt lat="45.61807" lon="2.81177">
        <ele>1317.14</ele>
        <time>2013-09-21T14:33:57Z</time>
      </trkpt>
      <trkpt lat="45.61808" lon="2.81175">
        <ele>1317.62</ele>
        <time>2013-09-21T14:33:58Z</time>
      </trkpt>
      <trkpt lat="45.61809" lon="2.81173">
        <ele>1318.1</ele>
        <time>2013-09-21T14:33:59Z</time>
      </trkpt>
      <trkpt lat="45.61809" lon="2.8117">
        <ele>1318.59</ele>
        <time>2013-09-21T14:34:00Z</time>
      </trkpt>
      <trkpt lat="45.6181" lon="2.81168">
        <ele>1318.1</ele>
        <time>2013-09-21T14:34:01Z</time>
      </trkpt>
      <trkpt lat="45.6181" lon="2.81166">
        <ele>1318.1</ele>
        <time>2013-09-21T14:34:02Z</time>
      </trkpt>
      <trkpt lat="45.61811" lon="2.81164">
        <ele>1318.59</ele>
        <time>2013-09-21T14:34:03Z</time>
      </trkpt>
      <trkpt lat="45.61812" lon="2.81162">
        <ele>1319.07</ele>
        <time>2013-09-21T14:34:04Z</time>
      </trkpt>
      <trkpt lat="45.61822" lon="2.81131">
        <ele>1320.99</ele>
        <time>2013-09-21T14:34:19Z</time>
      </trkpt>
      <trkpt lat="45.6183" lon="2.81113">
        <ele>1321.95</ele>
        <time>2013-09-21T14:34:29Z</time>
      </trkpt>
      <trkpt lat="45.61831" lon="2.81112">
        <ele>1321.95</ele>
        <time>2013-09-21T14:34:30Z</time>
      </trkpt>
      <trkpt lat="45.61832" lon="2.8111">
        <ele>1321.95</ele>
        <time>2013-09-21T14:34:31Z</time>
      </trkpt>
      <trkpt lat="45.61832" lon="2.81108">
        <ele>1322.91</ele>
        <time>2013-09-21T14:34:32Z</time>
      </trkpt>
      <trkpt lat="45.61833" lon="2.81106">
        <ele>1322.43</ele>
        <time>2013-09-21T14:34:33Z</time>
      </trkpt>
      <trkpt lat="45.61833" lon="2.81104">
        <ele>1322.43</ele>
        <time>2013-09-21T14:34:34Z</time>
      </trkpt>
      <trkpt lat="45.61841" lon="2.81069">
        <ele>1324.83</ele>
        <time>2013-09-21T14:34:51Z</time>
      </trkpt>
      <trkpt lat="45.61841" lon="2.81037">
        <ele>1326.28</ele>
        <time>2013-09-21T14:35:05Z</time>
      </trkpt>
      <trkpt lat="45.61844" lon="2.81007">
        <ele>1328.2</ele>
        <time>2013-09-21T14:35:18Z</time>
      </trkpt>
      <trkpt lat="45.61848" lon="2.80985">
        <ele>1328.68</ele>
        <time>2013-09-21T14:35:29Z</time>
      </trkpt>
      <trkpt lat="45.61845" lon="2.80944">
        <ele>1331.56</ele>
        <time>2013-09-21T14:35:48Z</time>
      </trkpt>
      <trkpt lat="45.61835" lon="2.80906">
        <ele>1334.93</ele>
        <time>2013-09-21T14:36:06Z</time>
      </trkpt>
      <trkpt lat="45.61828" lon="2.80882">
        <ele>1336.37</ele>
        <time>2013-09-21T14:36:18Z</time>
      </trkpt>
      <trkpt lat="45.61828" lon="2.8088">
        <ele>1336.85</ele>
        <time>2013-09-21T14:36:19Z</time>
      </trkpt>
      <trkpt lat="45.61828" lon="2.80878">
        <ele>1336.85</ele>
        <time>2013-09-21T14:36:20Z</time>
      </trkpt>
      <trkpt lat="45.6181" lon="2.8084">
        <ele>1338.29</ele>
        <time>2013-09-21T14:36:39Z</time>
      </trkpt>
      <trkpt lat="45.61806" lon="2.80834">
        <ele>1339.25</ele>
        <time>2013-09-21T14:36:43Z</time>
      </trkpt>
      <trkpt lat="45.61805" lon="2.80833">
        <ele>1338.77</ele>
        <time>2013-09-21T14:36:44Z</time>
      </trkpt>
      <trkpt lat="45.61804" lon="2.80832">
        <ele>1338.77</ele>
        <time>2013-09-21T14:36:45Z</time>
      </trkpt>
      <trkpt lat="45.61804" lon="2.8083">
        <ele>1339.25</ele>
        <time>2013-09-21T14:36:46Z</time>
      </trkpt>
      <trkpt lat="45.61804" lon="2.80828">
        <ele>1339.25</ele>
        <time>2013-09-21T14:36:58Z</time>
      </trkpt>
      <trkpt lat="45.61804" lon="2.80828">
        <ele>1339.73</ele>
        <time>2013-09-21T14:37:28Z</time>
      </trkpt>
      <trkpt lat="45.61803" lon="2.80828">
        <ele>1338.29</ele>
        <time>2013-09-21T14:37:46Z</time>
      </trkpt>
      <trkpt lat="45.61803" lon="2.80828">
        <ele>1338.77</ele>
        <time>2013-09-21T14:38:12Z</time>
      </trkpt>
      <trkpt lat="45.61803" lon="2.80828">
        <ele>1338.77</ele>
        <time>2013-09-21T14:38:42Z</time>
      </trkpt>
      <trkpt lat="45.61803" lon="2.80828">
        <ele>1338.77</ele>
        <time>2013-09-21T14:39:12Z</time>
      </trkpt>
      <trkpt lat="45.61803" lon="2.80827">
        <ele>1338.77</ele>
        <time>2013-09-21T14:39:37Z</time>
      </trkpt>
      <trkpt lat="45.61803" lon="2.80827">
        <ele>1338.29</ele>
        <time>2013-09-21T14:40:06Z</time>
      </trkpt>
      <trkpt lat="45.61804" lon="2.80827">
        <ele>1339.73</ele>
        <time>2013-09-21T14:40:30Z</time>
      </trkpt>
      <trkpt lat="45.61805" lon="2.80827">
        <ele>1339.25</ele>
        <time>2013-09-21T14:40:44Z</time>
      </trkpt>
      <trkpt lat="45.61805" lon="2.80825">
        <ele>1339.25</ele>
        <time>2013-09-21T14:41:25Z</time>
      </trkpt>
      <trkpt lat="45.61804" lon="2.80827">
        <ele>1339.73</ele>
        <time>2013-09-21T14:41:57Z</time>
      </trkpt>
      <trkpt lat="45.61802" lon="2.80825">
        <ele>1338.77</ele>
        <time>2013-09-21T14:42:24Z</time>
      </trkpt>
      <trkpt lat="45.61801" lon="2.80824">
        <ele>1339.73</ele>
        <time>2013-09-21T14:42:25Z</time>
      </trkpt>
      <trkpt lat="45.618" lon="2.80822">
        <ele>1339.73</ele>
        <time>2013-09-21T14:42:26Z</time>
      </trkpt>
      <trkpt lat="45.61799" lon="2.8082">
        <ele>1339.73</ele>
        <time>2013-09-21T14:42:27Z</time>
      </trkpt>
      <trkpt lat="45.61798" lon="2.80818">
        <ele>1339.73</ele>
        <time>2013-09-21T14:42:28Z</time>
      </trkpt>
      <trkpt lat="45.61797" lon="2.80816">
        <ele>1340.22</ele>
        <time>2013-09-21T14:42:29Z</time>
      </trkpt>
      <trkpt lat="45.61795" lon="2.80814">
        <ele>1340.7</ele>
        <time>2013-09-21T14:42:30Z</time>
      </trkpt>
      <trkpt lat="45.61794" lon="2.80812">
        <ele>1340.7</ele>
        <time>2013-09-21T14:42:31Z</time>
      </trkpt>
      <trkpt lat="45.61792" lon="2.8081">
        <ele>1341.18</ele>
        <time>2013-09-21T14:42:32Z</time>
      </trkpt>
      <trkpt lat="45.61791" lon="2.80808">
        <ele>1340.7</ele>
        <time>2013-09-21T14:42:33Z</time>
      </trkpt>
      <trkpt lat="45.61775" lon="2.80771">
        <ele>1342.62</ele>
        <time>2013-09-21T14:42:49Z</time>
      </trkpt>
      <trkpt lat="45.61776" lon="2.80717">
        <ele>1344.54</ele>
        <time>2013-09-21T14:43:08Z</time>
      </trkpt>
      <trkpt lat="45.61779" lon="2.80664">
        <ele>1343.1</ele>
        <time>2013-09-21T14:43:21Z</time>
      </trkpt>
      <trkpt lat="45.6178" lon="2.80642">
        <ele>1342.62</ele>
        <time>2013-09-21T14:43:25Z</time>
      </trkpt>
      <trkpt lat="45.61787" lon="2.80564">
        <ele>1345.02</ele>
        <time>2013-09-21T14:43:40Z</time>
      </trkpt>
      <trkpt lat="45.61791" lon="2.80488">
        <ele>1347.43</ele>
        <time>2013-09-21T14:43:57Z</time>
      </trkpt>
      <trkpt lat="45.61789" lon="2.80425">
        <ele>1346.94</ele>
        <time>2013-09-21T14:44:11Z</time>
      </trkpt>
      <trkpt lat="45.61791" lon="2.80343">
        <ele>1346.94</ele>
        <time>2013-09-21T14:44:27Z</time>
      </trkpt>
      <trkpt lat="45.61789" lon="2.80268">
        <ele>1347.43</ele>
        <time>2013-09-21T14:44:43Z</time>
      </trkpt>
      <trkpt lat="45.61788" lon="2.80206">
        <ele>1349.83</ele>
        <time>2013-09-21T14:44:58Z</time>
      </trkpt>
      <trkpt lat="45.61787" lon="2.8014">
        <ele>1350.31</ele>
        <time>2013-09-21T14:45:13Z</time>
      </trkpt>
      <trkpt lat="45.61782" lon="2.80074">
        <ele>1351.27</ele>
        <time>2013-09-21T14:45:28Z</time>
      </trkpt>
      <trkpt lat="45.6178" lon="2.80026">
        <ele>1351.75</ele>
        <time>2013-09-21T14:45:40Z</time>
      </trkpt>
      <trkpt lat="45.61773" lon="2.79961">
        <ele>1352.71</ele>
        <time>2013-09-21T14:45:55Z</time>
      </trkpt>
      <trkpt lat="45.61769" lon="2.79886">
        <ele>1353.67</ele>
        <time>2013-09-21T14:46:12Z</time>
      </trkpt>
      <trkpt lat="45.61763" lon="2.79827">
        <ele>1354.63</ele>
        <time>2013-09-21T14:46:26Z</time>
      </trkpt>
      <trkpt lat="45.61758" lon="2.79754">
        <ele>1356.56</ele>
        <time>2013-09-21T14:46:43Z</time>
      </trkpt>
      <trkpt lat="45.61753" lon="2.7967">
        <ele>1359.44</ele>
        <time>2013-09-21T14:47:03Z</time>
      </trkpt>
      <trkpt lat="45.61749" lon="2.79606">
        <ele>1360.4</ele>
        <time>2013-09-21T14:47:19Z</time>
      </trkpt>
      <trkpt lat="45.61744" lon="2.79532">
        <ele>1362.81</ele>
        <time>2013-09-21T14:47:37Z</time>
      </trkpt>
      <trkpt lat="45.61744" lon="2.79456">
        <ele>1366.17</ele>
        <time>2013-09-21T14:47:57Z</time>
      </trkpt>
      <trkpt lat="45.61745" lon="2.79397">
        <ele>1369.54</ele>
        <time>2013-09-21T14:48:14Z</time>
      </trkpt>
      <trkpt lat="45.61746" lon="2.79333">
        <ele>1370.98</ele>
        <time>2013-09-21T14:48:34Z</time>
      </trkpt>
      <trkpt lat="45.61746" lon="2.79264">
        <ele>1373.38</ele>
        <time>2013-09-21T14:48:56Z</time>
      </trkpt>
      <trkpt lat="45.61738" lon="2.79216">
        <ele>1376.26</ele>
        <time>2013-09-21T14:49:13Z</time>
      </trkpt>
      <trkpt lat="45.61726" lon="2.7917">
        <ele>1379.15</ele>
        <time>2013-09-21T14:49:30Z</time>
      </trkpt>
      <trkpt lat="45.61713" lon="2.79122">
        <ele>1381.55</ele>
        <time>2013-09-21T14:49:48Z</time>
      </trkpt>
      <trkpt lat="45.61703" lon="2.79067">
        <ele>1383.47</ele>
        <time>2013-09-21T14:50:08Z</time>
      </trkpt>
      <trkpt lat="45.61698" lon="2.79022">
        <ele>1385.88</ele>
        <time>2013-09-21T14:50:24Z</time>
      </trkpt>
      <trkpt lat="45.61693" lon="2.7898">
        <ele>1389.24</ele>
        <time>2013-09-21T14:50:40Z</time>
      </trkpt>
      <trkpt lat="45.61678" lon="2.78937">
        <ele>1390.68</ele>
        <time>2013-09-21T14:50:57Z</time>
      </trkpt>
      <trkpt lat="45.61657" lon="2.78901">
        <ele>1392.13</ele>
        <time>2013-09-21T14:51:12Z</time>
      </trkpt>
      <trkpt lat="45.61641" lon="2.78877">
        <ele>1392.13</ele>
        <time>2013-09-21T14:51:25Z</time>
      </trkpt>
      <trkpt lat="45.61613" lon="2.78846">
        <ele>1392.61</ele>
        <time>2013-09-21T14:51:39Z</time>
      </trkpt>
      <trkpt lat="45.61589" lon="2.78803">
        <ele>1392.61</ele>
        <time>2013-09-21T14:51:54Z</time>
      </trkpt>
      <trkpt lat="45.61577" lon="2.78775">
        <ele>1394.53</ele>
        <time>2013-09-21T14:52:06Z</time>
      </trkpt>
      <trkpt lat="45.61571" lon="2.7875">
        <ele>1397.41</ele>
        <time>2013-09-21T14:52:19Z</time>
      </trkpt>
      <trkpt lat="45.61571" lon="2.78742">
        <ele>1396.93</ele>
        <time>2013-09-21T14:52:23Z</time>
      </trkpt>
      <trkpt lat="45.6157" lon="2.7874">
        <ele>1397.41</ele>
        <time>2013-09-21T14:52:24Z</time>
      </trkpt>
      <trkpt lat="45.6157" lon="2.78738">
        <ele>1397.89</ele>
        <time>2013-09-21T14:52:25Z</time>
      </trkpt>
      <trkpt lat="45.6157" lon="2.78736">
        <ele>1397.41</ele>
        <time>2013-09-21T14:52:26Z</time>
      </trkpt>
      <trkpt lat="45.61569" lon="2.78734">
        <ele>1397.89</ele>
        <time>2013-09-21T14:52:27Z</time>
      </trkpt>
      <trkpt lat="45.61569" lon="2.78733">
        <ele>1397.89</ele>
        <time>2013-09-21T14:52:28Z</time>
      </trkpt>
      <trkpt lat="45.61569" lon="2.78731">
        <ele>1397.89</ele>
        <time>2013-09-21T14:52:29Z</time>
      </trkpt>
      <trkpt lat="45.61562" lon="2.787">
        <ele>1399.82</ele>
        <time>2013-09-21T14:52:45Z</time>
      </trkpt>
      <trkpt lat="45.6156" lon="2.78693">
        <ele>1400.3</ele>
        <time>2013-09-21T14:52:49Z</time>
      </trkpt>
      <trkpt lat="45.6156" lon="2.78691">
        <ele>1400.3</ele>
        <time>2013-09-21T14:52:50Z</time>
      </trkpt>
      <trkpt lat="45.61554" lon="2.78673">
        <ele>1402.22</ele>
        <time>2013-09-21T14:53:00Z</time>
      </trkpt>
      <trkpt lat="45.61553" lon="2.78671">
        <ele>1402.7</ele>
        <time>2013-09-21T14:53:01Z</time>
      </trkpt>
      <trkpt lat="45.61531" lon="2.78635">
        <ele>1403.66</ele>
        <time>2013-09-21T14:53:18Z</time>
      </trkpt>
      <trkpt lat="45.61505" lon="2.78616">
        <ele>1404.14</ele>
        <time>2013-09-21T14:53:33Z</time>
      </trkpt>
      <trkpt lat="45.61468" lon="2.78596">
        <ele>1404.62</ele>
        <time>2013-09-21T14:53:49Z</time>
      </trkpt>
      <trkpt lat="45.6144" lon="2.7858">
        <ele>1407.51</ele>
        <time>2013-09-21T14:54:01Z</time>
      </trkpt>
      <trkpt lat="45.61407" lon="2.78569">
        <ele>1409.91</ele>
        <time>2013-09-21T14:54:15Z</time>
      </trkpt>
      <trkpt lat="45.61378" lon="2.78544">
        <ele>1411.35</ele>
        <time>2013-09-21T14:54:30Z</time>
      </trkpt>
      <trkpt lat="45.61339" lon="2.78512">
        <ele>1410.87</ele>
        <time>2013-09-21T14:54:45Z</time>
      </trkpt>
      <trkpt lat="45.61305" lon="2.78474">
        <ele>1411.83</ele>
        <time>2013-09-21T14:55:01Z</time>
      </trkpt>
      <trkpt lat="45.61278" lon="2.78432">
        <ele>1413.76</ele>
        <time>2013-09-21T14:55:18Z</time>
      </trkpt>
      <trkpt lat="45.61243" lon="2.78377">
        <ele>1415.68</ele>
        <time>2013-09-21T14:55:39Z</time>
      </trkpt>
      <trkpt lat="45.6123" lon="2.78341">
        <ele>1418.56</ele>
        <time>2013-09-21T14:55:56Z</time>
      </trkpt>
      <trkpt lat="45.61219" lon="2.78307">
        <ele>1420.97</ele>
        <time>2013-09-21T14:56:14Z</time>
      </trkpt>
      <trkpt lat="45.61209" lon="2.78277">
        <ele>1423.37</ele>
        <time>2013-09-21T14:56:29Z</time>
      </trkpt>
      <trkpt lat="45.61205" lon="2.78272">
        <ele>1423.37</ele>
        <time>2013-09-21T14:56:32Z</time>
      </trkpt>
      <trkpt lat="45.61192" lon="2.78234">
        <ele>1426.25</ele>
        <time>2013-09-21T14:56:49Z</time>
      </trkpt>
      <trkpt lat="45.61182" lon="2.78199">
        <ele>1429.14</ele>
        <time>2013-09-21T14:57:06Z</time>
      </trkpt>
      <trkpt lat="45.61174" lon="2.78166">
        <ele>1431.06</ele>
        <time>2013-09-21T14:57:22Z</time>
      </trkpt>
      <trkpt lat="45.61166" lon="2.78131">
        <ele>1433.46</ele>
        <time>2013-09-21T14:57:38Z</time>
      </trkpt>
      <trkpt lat="45.61163" lon="2.78122">
        <ele>1433.46</ele>
        <time>2013-09-21T14:57:42Z</time>
      </trkpt>
      <trkpt lat="45.61163" lon="2.7812">
        <ele>1433.94</ele>
        <time>2013-09-21T14:57:43Z</time>
      </trkpt>
      <trkpt lat="45.61159" lon="2.78077">
        <ele>1434.91</ele>
        <time>2013-09-21T14:58:00Z</time>
      </trkpt>
      <trkpt lat="45.61169" lon="2.78042">
        <ele>1435.87</ele>
        <time>2013-09-21T14:58:14Z</time>
      </trkpt>
      <trkpt lat="45.6118" lon="2.78004">
        <ele>1437.79</ele>
        <time>2013-09-21T14:58:30Z</time>
      </trkpt>
      <trkpt lat="45.61191" lon="2.77963">
        <ele>1437.79</ele>
        <time>2013-09-21T14:58:44Z</time>
      </trkpt>
      <trkpt lat="45.61211" lon="2.77912">
        <ele>1439.71</ele>
        <time>2013-09-21T14:59:00Z</time>
      </trkpt>
      <trkpt lat="45.61223" lon="2.77881">
        <ele>1441.15</ele>
        <time>2013-09-21T14:59:11Z</time>
      </trkpt>
      <trkpt lat="45.61224" lon="2.77879">
        <ele>1441.15</ele>
        <time>2013-09-21T14:59:12Z</time>
      </trkpt>
      <trkpt lat="45.61226" lon="2.77876">
        <ele>1441.63</ele>
        <time>2013-09-21T14:59:13Z</time>
      </trkpt>
      <trkpt lat="45.61227" lon="2.77873">
        <ele>1441.63</ele>
        <time>2013-09-21T14:59:14Z</time>
      </trkpt>
      <trkpt lat="45.61228" lon="2.7787">
        <ele>1441.63</ele>
        <time>2013-09-21T14:59:15Z</time>
      </trkpt>
      <trkpt lat="45.61248" lon="2.77823">
        <ele>1443.56</ele>
        <time>2013-09-21T14:59:31Z</time>
      </trkpt>
      <trkpt lat="45.6127" lon="2.7777">
        <ele>1443.08</ele>
        <time>2013-09-21T14:59:46Z</time>
      </trkpt>
      <trkpt lat="45.613" lon="2.77722">
        <ele>1443.08</ele>
        <time>2013-09-21T15:00:01Z</time>
      </trkpt>
      <trkpt lat="45.61324" lon="2.77715">
        <ele>1444.52</ele>
        <time>2013-09-21T15:00:14Z</time>
      </trkpt>
      <trkpt lat="45.61325" lon="2.77713">
        <ele>1445</ele>
        <time>2013-09-21T15:00:23Z</time>
      </trkpt>
      <trkpt lat="45.61326" lon="2.77712">
        <ele>1444.04</ele>
        <time>2013-09-21T15:00:24Z</time>
      </trkpt>
      <trkpt lat="45.61328" lon="2.7771">
        <ele>1443.56</ele>
        <time>2013-09-21T15:00:25Z</time>
      </trkpt>
      <trkpt lat="45.61357" lon="2.77696">
        <ele>1439.23</ele>
        <time>2013-09-21T15:00:33Z</time>
      </trkpt>
      <trkpt lat="45.61378" lon="2.77688">
        <ele>1435.39</ele>
        <time>2013-09-21T15:00:36Z</time>
      </trkpt>
      <trkpt lat="45.6141" lon="2.77674">
        <ele>1430.58</ele>
        <time>2013-09-21T15:00:40Z</time>
      </trkpt>
      <trkpt lat="45.61434" lon="2.77661">
        <ele>1424.81</ele>
        <time>2013-09-21T15:00:43Z</time>
      </trkpt>
      <trkpt lat="45.61449" lon="2.77651">
        <ele>1423.85</ele>
        <time>2013-09-21T15:00:45Z</time>
      </trkpt>
      <trkpt lat="45.61464" lon="2.7764">
        <ele>1420</ele>
        <time>2013-09-21T15:00:47Z</time>
      </trkpt>
      <trkpt lat="45.61487" lon="2.77625">
        <ele>1414.72</ele>
        <time>2013-09-21T15:00:50Z</time>
      </trkpt>
      <trkpt lat="45.61498" lon="2.77618">
        <ele>1412.31</ele>
        <time>2013-09-21T15:00:52Z</time>
      </trkpt>
      <trkpt lat="45.61501" lon="2.77614">
        <ele>1412.31</ele>
        <time>2013-09-21T15:00:53Z</time>
      </trkpt>
      <trkpt lat="45.61502" lon="2.7761">
        <ele>1413.28</ele>
        <time>2013-09-21T15:00:54Z</time>
      </trkpt>
      <trkpt lat="45.61502" lon="2.77606">
        <ele>1413.76</ele>
        <time>2013-09-21T15:00:55Z</time>
      </trkpt>
      <trkpt lat="45.615" lon="2.77601">
        <ele>1413.76</ele>
        <time>2013-09-21T15:00:56Z</time>
      </trkpt>
      <trkpt lat="45.61498" lon="2.77595">
        <ele>1413.28</ele>
        <time>2013-09-21T15:00:57Z</time>
      </trkpt>
      <trkpt lat="45.61496" lon="2.77588">
        <ele>1412.31</ele>
        <time>2013-09-21T15:00:58Z</time>
      </trkpt>
      <trkpt lat="45.61494" lon="2.77579">
        <ele>1410.87</ele>
        <time>2013-09-21T15:00:59Z</time>
      </trkpt>
      <trkpt lat="45.61491" lon="2.77569">
        <ele>1410.87</ele>
        <time>2013-09-21T15:01:00Z</time>
      </trkpt>
      <trkpt lat="45.61486" lon="2.77548">
        <ele>1407.03</ele>
        <time>2013-09-21T15:01:02Z</time>
      </trkpt>
      <trkpt lat="45.61476" lon="2.77511">
        <ele>1403.66</ele>
        <time>2013-09-21T15:01:05Z</time>
      </trkpt>
      <trkpt lat="45.61467" lon="2.77471">
        <ele>1398.86</ele>
        <time>2013-09-21T15:01:08Z</time>
      </trkpt>
      <trkpt lat="45.61465" lon="2.7746">
        <ele>1398.37</ele>
        <time>2013-09-21T15:01:09Z</time>
      </trkpt>
      <trkpt lat="45.61464" lon="2.7745">
        <ele>1398.37</ele>
        <time>2013-09-21T15:01:10Z</time>
      </trkpt>
      <trkpt lat="45.61466" lon="2.7744">
        <ele>1397.89</ele>
        <time>2013-09-21T15:01:11Z</time>
      </trkpt>
      <trkpt lat="45.6147" lon="2.77429">
        <ele>1395.97</ele>
        <time>2013-09-21T15:01:12Z</time>
      </trkpt>
      <trkpt lat="45.61481" lon="2.77404">
        <ele>1390.2</ele>
        <time>2013-09-21T15:01:14Z</time>
      </trkpt>
      <trkpt lat="45.61486" lon="2.7739">
        <ele>1387.32</ele>
        <time>2013-09-21T15:01:15Z</time>
      </trkpt>
      <trkpt lat="45.61497" lon="2.77362">
        <ele>1382.03</ele>
        <time>2013-09-21T15:01:17Z</time>
      </trkpt>
      <trkpt lat="45.61513" lon="2.77323">
        <ele>1378.67</ele>
        <time>2013-09-21T15:01:20Z</time>
      </trkpt>
      <trkpt lat="45.61518" lon="2.7731">
        <ele>1378.67</ele>
        <time>2013-09-21T15:01:21Z</time>
      </trkpt>
      <trkpt lat="45.61529" lon="2.77283">
        <ele>1374.82</ele>
        <time>2013-09-21T15:01:23Z</time>
      </trkpt>
      <trkpt lat="45.61539" lon="2.77254">
        <ele>1370.98</ele>
        <time>2013-09-21T15:01:25Z</time>
      </trkpt>
      <trkpt lat="45.61551" lon="2.77225">
        <ele>1367.61</ele>
        <time>2013-09-21T15:01:27Z</time>
      </trkpt>
      <trkpt lat="45.61563" lon="2.77194">
        <ele>1363.77</ele>
        <time>2013-09-21T15:01:29Z</time>
      </trkpt>
      <trkpt lat="45.61576" lon="2.77162">
        <ele>1359.92</ele>
        <time>2013-09-21T15:01:31Z</time>
      </trkpt>
      <trkpt lat="45.61599" lon="2.77106">
        <ele>1357.52</ele>
        <time>2013-09-21T15:01:35Z</time>
      </trkpt>
      <trkpt lat="45.61606" lon="2.77095">
        <ele>1356.08</ele>
        <time>2013-09-21T15:01:36Z</time>
      </trkpt>
      <trkpt lat="45.61615" lon="2.77085">
        <ele>1354.15</ele>
        <time>2013-09-21T15:01:37Z</time>
      </trkpt>
      <trkpt lat="45.61634" lon="2.77065">
        <ele>1348.39</ele>
        <time>2013-09-21T15:01:39Z</time>
      </trkpt>
      <trkpt lat="45.61655" lon="2.77042">
        <ele>1343.58</ele>
        <time>2013-09-21T15:01:41Z</time>
      </trkpt>
      <trkpt lat="45.61678" lon="2.77018">
        <ele>1337.81</ele>
        <time>2013-09-21T15:01:43Z</time>
      </trkpt>
      <trkpt lat="45.6169" lon="2.77006">
        <ele>1333.97</ele>
        <time>2013-09-21T15:01:44Z</time>
      </trkpt>
      <trkpt lat="45.61712" lon="2.76981">
        <ele>1328.68</ele>
        <time>2013-09-21T15:01:46Z</time>
      </trkpt>
      <trkpt lat="45.61741" lon="2.7695">
        <ele>1326.76</ele>
        <time>2013-09-21T15:01:49Z</time>
      </trkpt>
      <trkpt lat="45.61753" lon="2.76936">
        <ele>1326.28</ele>
        <time>2013-09-21T15:01:51Z</time>
      </trkpt>
      <trkpt lat="45.61758" lon="2.76928">
        <ele>1326.76</ele>
        <time>2013-09-21T15:01:52Z</time>
      </trkpt>
      <trkpt lat="45.6176" lon="2.76918">
        <ele>1326.76</ele>
        <time>2013-09-21T15:01:53Z</time>
      </trkpt>
      <trkpt lat="45.61761" lon="2.76907">
        <ele>1325.8</ele>
        <time>2013-09-21T15:01:54Z</time>
      </trkpt>
      <trkpt lat="45.61762" lon="2.76895">
        <ele>1325.8</ele>
        <time>2013-09-21T15:01:55Z</time>
      </trkpt>
      <trkpt lat="45.61762" lon="2.76884">
        <ele>1325.8</ele>
        <time>2013-09-21T15:01:56Z</time>
      </trkpt>
      <trkpt lat="45.61764" lon="2.76865">
        <ele>1324.83</ele>
        <time>2013-09-21T15:01:58Z</time>
      </trkpt>
      <trkpt lat="45.61768" lon="2.76858">
        <ele>1324.83</ele>
        <time>2013-09-21T15:01:59Z</time>
      </trkpt>
      <trkpt lat="45.61773" lon="2.7685">
        <ele>1322.91</ele>
        <time>2013-09-21T15:02:00Z</time>
      </trkpt>
      <trkpt lat="45.61775" lon="2.7684">
        <ele>1321.95</ele>
        <time>2013-09-21T15:02:01Z</time>
      </trkpt>
      <trkpt lat="45.61775" lon="2.76829">
        <ele>1322.43</ele>
        <time>2013-09-21T15:02:02Z</time>
      </trkpt>
      <trkpt lat="45.61774" lon="2.76819">
        <ele>1322.43</ele>
        <time>2013-09-21T15:02:03Z</time>
      </trkpt>
      <trkpt lat="45.6177" lon="2.76809">
        <ele>1321.95</ele>
        <time>2013-09-21T15:02:04Z</time>
      </trkpt>
      <trkpt lat="45.61767" lon="2.76798">
        <ele>1321.95</ele>
        <time>2013-09-21T15:02:05Z</time>
      </trkpt>
      <trkpt lat="45.61764" lon="2.76788">
        <ele>1321.47</ele>
        <time>2013-09-21T15:02:06Z</time>
      </trkpt>
      <trkpt lat="45.61762" lon="2.76776">
        <ele>1320.51</ele>
        <time>2013-09-21T15:02:07Z</time>
      </trkpt>
      <trkpt lat="45.61759" lon="2.76765">
        <ele>1320.03</ele>
        <time>2013-09-21T15:02:08Z</time>
      </trkpt>
      <trkpt lat="45.61754" lon="2.76756">
        <ele>1320.51</ele>
        <time>2013-09-21T15:02:09Z</time>
      </trkpt>
      <trkpt lat="45.61749" lon="2.76749">
        <ele>1320.99</ele>
        <time>2013-09-21T15:02:10Z</time>
      </trkpt>
      <trkpt lat="45.61738" lon="2.76734">
        <ele>1321.95</ele>
        <time>2013-09-21T15:02:12Z</time>
      </trkpt>
      <trkpt lat="45.61728" lon="2.76722">
        <ele>1321.95</ele>
        <time>2013-09-21T15:02:14Z</time>
      </trkpt>
      <trkpt lat="45.61724" lon="2.76716">
        <ele>1321.95</ele>
        <time>2013-09-21T15:02:15Z</time>
      </trkpt>
      <trkpt lat="45.61719" lon="2.76711">
        <ele>1322.43</ele>
        <time>2013-09-21T15:02:16Z</time>
      </trkpt>
      <trkpt lat="45.61712" lon="2.76699">
        <ele>1323.39</ele>
        <time>2013-09-21T15:02:18Z</time>
      </trkpt>
      <trkpt lat="45.61709" lon="2.76694">
        <ele>1323.87</ele>
        <time>2013-09-21T15:02:19Z</time>
      </trkpt>
      <trkpt lat="45.61658" lon="2.76628">
        <ele>1326.28</ele>
        <time>2013-09-21T15:02:33Z</time>
      </trkpt>
      <trkpt lat="45.61621" lon="2.7658">
        <ele>1327.72</ele>
        <time>2013-09-21T15:02:44Z</time>
      </trkpt>
      <trkpt lat="45.61574" lon="2.76516">
        <ele>1327.72</ele>
        <time>2013-09-21T15:02:59Z</time>
      </trkpt>
      <trkpt lat="45.6154" lon="2.76469">
        <ele>1325.8</ele>
        <time>2013-09-21T15:03:09Z</time>
      </trkpt>
      <trkpt lat="45.61485" lon="2.76367">
        <ele>1323.87</ele>
        <time>2013-09-21T15:03:25Z</time>
      </trkpt>
      <trkpt lat="45.61467" lon="2.76336">
        <ele>1324.83</ele>
        <time>2013-09-21T15:03:31Z</time>
      </trkpt>
      <trkpt lat="45.61463" lon="2.76331">
        <ele>1324.83</ele>
        <time>2013-09-21T15:03:32Z</time>
      </trkpt>
      <trkpt lat="45.61433" lon="2.76274">
        <ele>1325.31</ele>
        <time>2013-09-21T15:03:43Z</time>
      </trkpt>
      <trkpt lat="45.61404" lon="2.76221">
        <ele>1323.87</ele>
        <time>2013-09-21T15:03:52Z</time>
      </trkpt>
      <trkpt lat="45.61401" lon="2.76214">
        <ele>1323.39</ele>
        <time>2013-09-21T15:03:53Z</time>
      </trkpt>
      <trkpt lat="45.61344" lon="2.76115">
        <ele>1320.03</ele>
        <time>2013-09-21T15:04:08Z</time>
      </trkpt>
      <trkpt lat="45.61313" lon="2.7606">
        <ele>1319.55</ele>
        <time>2013-09-21T15:04:15Z</time>
      </trkpt>
      <trkpt lat="45.61255" lon="2.75972">
        <ele>1316.18</ele>
        <time>2013-09-21T15:04:26Z</time>
      </trkpt>
      <trkpt lat="45.61236" lon="2.75951">
        <ele>1314.74</ele>
        <time>2013-09-21T15:04:29Z</time>
      </trkpt>
      <trkpt lat="45.61229" lon="2.75945">
        <ele>1314.26</ele>
        <time>2013-09-21T15:04:30Z</time>
      </trkpt>
      <trkpt lat="45.61148" lon="2.75889">
        <ele>1311.38</ele>
        <time>2013-09-21T15:04:41Z</time>
      </trkpt>
      <trkpt lat="45.61039" lon="2.7582">
        <ele>1310.9</ele>
        <time>2013-09-21T15:04:57Z</time>
      </trkpt>
      <trkpt lat="45.60965" lon="2.75773">
        <ele>1310.9</ele>
        <time>2013-09-21T15:05:10Z</time>
      </trkpt>
      <trkpt lat="45.60853" lon="2.75701">
        <ele>1311.38</ele>
        <time>2013-09-21T15:05:27Z</time>
      </trkpt>
      <trkpt lat="45.60799" lon="2.75679">
        <ele>1315.22</ele>
        <time>2013-09-21T15:05:37Z</time>
      </trkpt>
      <trkpt lat="45.60795" lon="2.75679">
        <ele>1314.74</ele>
        <time>2013-09-21T15:05:38Z</time>
      </trkpt>
      <trkpt lat="45.60791" lon="2.7568">
        <ele>1315.22</ele>
        <time>2013-09-21T15:05:39Z</time>
      </trkpt>
      <trkpt lat="45.60782" lon="2.75682">
        <ele>1316.18</ele>
        <time>2013-09-21T15:05:41Z</time>
      </trkpt>
      <trkpt lat="45.60749" lon="2.75715">
        <ele>1319.55</ele>
        <time>2013-09-21T15:05:53Z</time>
      </trkpt>
      <trkpt lat="45.60736" lon="2.75769">
        <ele>1320.99</ele>
        <time>2013-09-21T15:06:06Z</time>
      </trkpt>
      <trkpt lat="45.60734" lon="2.75845">
        <ele>1320.99</ele>
        <time>2013-09-21T15:06:23Z</time>
      </trkpt>
      <trkpt lat="45.60735" lon="2.75884">
        <ele>1317.62</ele>
        <time>2013-09-21T15:06:28Z</time>
      </trkpt>
      <trkpt lat="45.60734" lon="2.75893">
        <ele>1316.18</ele>
        <time>2013-09-21T15:06:29Z</time>
      </trkpt>
      <trkpt lat="45.60734" lon="2.75903">
        <ele>1315.7</ele>
        <time>2013-09-21T15:06:30Z</time>
      </trkpt>
      <trkpt lat="45.60732" lon="2.75936">
        <ele>1312.34</ele>
        <time>2013-09-21T15:06:33Z</time>
      </trkpt>
      <trkpt lat="45.60728" lon="2.75975">
        <ele>1308.49</ele>
        <time>2013-09-21T15:06:36Z</time>
      </trkpt>
      <trkpt lat="45.60724" lon="2.76019">
        <ele>1304.65</ele>
        <time>2013-09-21T15:06:39Z</time>
      </trkpt>
      <trkpt lat="45.60718" lon="2.76067">
        <ele>1300.8</ele>
        <time>2013-09-21T15:06:42Z</time>
      </trkpt>
      <trkpt lat="45.60713" lon="2.761">
        <ele>1296.96</ele>
        <time>2013-09-21T15:06:44Z</time>
      </trkpt>
      <trkpt lat="45.60709" lon="2.76116">
        <ele>1295.99</ele>
        <time>2013-09-21T15:06:45Z</time>
      </trkpt>
      <trkpt lat="45.60703" lon="2.76133">
        <ele>1294.55</ele>
        <time>2013-09-21T15:06:46Z</time>
      </trkpt>
      <trkpt lat="45.60697" lon="2.76148">
        <ele>1294.07</ele>
        <time>2013-09-21T15:06:47Z</time>
      </trkpt>
      <trkpt lat="45.60679" lon="2.76197">
        <ele>1290.71</ele>
        <time>2013-09-21T15:06:50Z</time>
      </trkpt>
      <trkpt lat="45.6067" lon="2.76232">
        <ele>1287.34</ele>
        <time>2013-09-21T15:06:52Z</time>
      </trkpt>
      <trkpt lat="45.60667" lon="2.76251">
        <ele>1284.94</ele>
        <time>2013-09-21T15:06:53Z</time>
      </trkpt>
      <trkpt lat="45.60661" lon="2.76291">
        <ele>1281.57</ele>
        <time>2013-09-21T15:06:55Z</time>
      </trkpt>
      <trkpt lat="45.60653" lon="2.76329">
        <ele>1277.25</ele>
        <time>2013-09-21T15:06:57Z</time>
      </trkpt>
      <trkpt lat="45.60639" lon="2.76389">
        <ele>1272.44</ele>
        <time>2013-09-21T15:07:00Z</time>
      </trkpt>
      <trkpt lat="45.60626" lon="2.76428">
        <ele>1268.12</ele>
        <time>2013-09-21T15:07:02Z</time>
      </trkpt>
      <trkpt lat="45.60618" lon="2.76446">
        <ele>1267.16</ele>
        <time>2013-09-21T15:07:03Z</time>
      </trkpt>
      <trkpt lat="45.60607" lon="2.76462">
        <ele>1266.67</ele>
        <time>2013-09-21T15:07:04Z</time>
      </trkpt>
      <trkpt lat="45.60596" lon="2.76478">
        <ele>1263.79</ele>
        <time>2013-09-21T15:07:05Z</time>
      </trkpt>
      <trkpt lat="45.60586" lon="2.76492">
        <ele>1263.31</ele>
        <time>2013-09-21T15:07:06Z</time>
      </trkpt>
      <trkpt lat="45.6057" lon="2.76512">
        <ele>1262.83</ele>
        <time>2013-09-21T15:07:08Z</time>
      </trkpt>
      <trkpt lat="45.60563" lon="2.76518">
        <ele>1262.83</ele>
        <time>2013-09-21T15:07:09Z</time>
      </trkpt>
      <trkpt lat="45.60552" lon="2.76529">
        <ele>1263.31</ele>
        <time>2013-09-21T15:07:12Z</time>
      </trkpt>
      <trkpt lat="45.60551" lon="2.76534">
        <ele>1263.31</ele>
        <time>2013-09-21T15:07:13Z</time>
      </trkpt>
      <trkpt lat="45.60553" lon="2.76539">
        <ele>1262.83</ele>
        <time>2013-09-21T15:07:14Z</time>
      </trkpt>
      <trkpt lat="45.60556" lon="2.76545">
        <ele>1262.35</ele>
        <time>2013-09-21T15:07:15Z</time>
      </trkpt>
      <trkpt lat="45.6056" lon="2.76548">
        <ele>1261.87</ele>
        <time>2013-09-21T15:07:16Z</time>
      </trkpt>
      <trkpt lat="45.60564" lon="2.76551">
        <ele>1262.35</ele>
        <time>2013-09-21T15:07:17Z</time>
      </trkpt>
      <trkpt lat="45.60569" lon="2.76554">
        <ele>1261.87</ele>
        <time>2013-09-21T15:07:18Z</time>
      </trkpt>
      <trkpt lat="45.60588" lon="2.76568">
        <ele>1260.43</ele>
        <time>2013-09-21T15:07:22Z</time>
      </trkpt>
      <trkpt lat="45.60618" lon="2.76584">
        <ele>1258.98</ele>
        <time>2013-09-21T15:07:27Z</time>
      </trkpt>
      <trkpt lat="45.60625" lon="2.76585">
        <ele>1258.98</ele>
        <time>2013-09-21T15:07:28Z</time>
      </trkpt>
      <trkpt lat="45.60632" lon="2.76585">
        <ele>1258.5</ele>
        <time>2013-09-21T15:07:29Z</time>
      </trkpt>
      <trkpt lat="45.6064" lon="2.76585">
        <ele>1258.5</ele>
        <time>2013-09-21T15:07:30Z</time>
      </trkpt>
      <trkpt lat="45.60647" lon="2.76584">
        <ele>1257.54</ele>
        <time>2013-09-21T15:07:31Z</time>
      </trkpt>
      <trkpt lat="45.60679" lon="2.76583">
        <ele>1253.22</ele>
        <time>2013-09-21T15:07:35Z</time>
      </trkpt>
      <trkpt lat="45.60688" lon="2.76584">
        <ele>1252.74</ele>
        <time>2013-09-21T15:07:36Z</time>
      </trkpt>
      <trkpt lat="45.60721" lon="2.76591">
        <ele>1250.81</ele>
        <time>2013-09-21T15:07:40Z</time>
      </trkpt>
      <trkpt lat="45.60737" lon="2.76597">
        <ele>1250.33</ele>
        <time>2013-09-21T15:07:42Z</time>
      </trkpt>
      <trkpt lat="45.60745" lon="2.76601">
        <ele>1249.85</ele>
        <time>2013-09-21T15:07:43Z</time>
      </trkpt>
      <trkpt lat="45.60766" lon="2.7661">
        <ele>1250.33</ele>
        <time>2013-09-21T15:07:46Z</time>
      </trkpt>
      <trkpt lat="45.60772" lon="2.76614">
        <ele>1249.85</ele>
        <time>2013-09-21T15:07:47Z</time>
      </trkpt>
      <trkpt lat="45.60783" lon="2.76624">
        <ele>1249.85</ele>
        <time>2013-09-21T15:07:49Z</time>
      </trkpt>
      <trkpt lat="45.60787" lon="2.7663">
        <ele>1250.81</ele>
        <time>2013-09-21T15:07:50Z</time>
      </trkpt>
      <trkpt lat="45.60791" lon="2.76636">
        <ele>1250.81</ele>
        <time>2013-09-21T15:07:51Z</time>
      </trkpt>
      <trkpt lat="45.60799" lon="2.76647">
        <ele>1251.29</ele>
        <time>2013-09-21T15:07:53Z</time>
      </trkpt>
      <trkpt lat="45.60806" lon="2.7666">
        <ele>1251.77</ele>
        <time>2013-09-21T15:07:55Z</time>
      </trkpt>
      <trkpt lat="45.60809" lon="2.76668">
        <ele>1251.77</ele>
        <time>2013-09-21T15:07:56Z</time>
      </trkpt>
      <trkpt lat="45.6081" lon="2.76676">
        <ele>1252.25</ele>
        <time>2013-09-21T15:07:57Z</time>
      </trkpt>
      <trkpt lat="45.60812" lon="2.76691">
        <ele>1252.74</ele>
        <time>2013-09-21T15:07:59Z</time>
      </trkpt>
      <trkpt lat="45.60811" lon="2.76698">
        <ele>1253.7</ele>
        <time>2013-09-21T15:08:00Z</time>
      </trkpt>
      <trkpt lat="45.60812" lon="2.76717">
        <ele>1253.7</ele>
        <time>2013-09-21T15:08:03Z</time>
      </trkpt>
      <trkpt lat="45.60817" lon="2.76764">
        <ele>1255.62</ele>
        <time>2013-09-21T15:08:14Z</time>
      </trkpt>
      <trkpt lat="45.60816" lon="2.76808">
        <ele>1257.06</ele>
        <time>2013-09-21T15:08:30Z</time>
      </trkpt>
      <trkpt lat="45.60817" lon="2.76812">
        <ele>1258.02</ele>
        <time>2013-09-21T15:08:32Z</time>
      </trkpt>
      <trkpt lat="45.60817" lon="2.76815">
        <ele>1258.5</ele>
        <time>2013-09-21T15:08:33Z</time>
      </trkpt>
      <trkpt lat="45.60821" lon="2.76839">
        <ele>1260.43</ele>
        <time>2013-09-21T15:08:43Z</time>
      </trkpt>
      <trkpt lat="45.60821" lon="2.76841">
        <ele>1260.91</ele>
        <time>2013-09-21T15:08:44Z</time>
      </trkpt>
      <trkpt lat="45.60821" lon="2.76843">
        <ele>1260.91</ele>
        <time>2013-09-21T15:08:45Z</time>
      </trkpt>
      <trkpt lat="45.60821" lon="2.76846">
        <ele>1260.91</ele>
        <time>2013-09-21T15:08:46Z</time>
      </trkpt>
      <trkpt lat="45.60821" lon="2.76849">
        <ele>1261.39</ele>
        <time>2013-09-21T15:08:47Z</time>
      </trkpt>
      <trkpt lat="45.60821" lon="2.76852">
        <ele>1261.39</ele>
        <time>2013-09-21T15:08:48Z</time>
      </trkpt>
      <trkpt lat="45.60821" lon="2.76855">
        <ele>1260.91</ele>
        <time>2013-09-21T15:08:49Z</time>
      </trkpt>
      <trkpt lat="45.6082" lon="2.76858">
        <ele>1260.91</ele>
        <time>2013-09-21T15:08:50Z</time>
      </trkpt>
      <trkpt lat="45.60819" lon="2.76861">
        <ele>1260.91</ele>
        <time>2013-09-21T15:08:51Z</time>
      </trkpt>
      <trkpt lat="45.60817" lon="2.76864">
        <ele>1260.91</ele>
        <time>2013-09-21T15:08:52Z</time>
      </trkpt>
      <trkpt lat="45.60816" lon="2.76867">
        <ele>1261.39</ele>
        <time>2013-09-21T15:08:53Z</time>
      </trkpt>
      <trkpt lat="45.60815" lon="2.76871">
        <ele>1260.91</ele>
        <time>2013-09-21T15:08:54Z</time>
      </trkpt>
      <trkpt lat="45.60815" lon="2.76874">
        <ele>1261.39</ele>
        <time>2013-09-21T15:08:55Z</time>
      </trkpt>
      <trkpt lat="45.60811" lon="2.76916">
        <ele>1261.39</ele>
        <time>2013-09-21T15:09:07Z</time>
      </trkpt>
      <trkpt lat="45.60785" lon="2.76964">
        <ele>1260.91</ele>
        <time>2013-09-21T15:09:18Z</time>
      </trkpt>
      <trkpt lat="45.60782" lon="2.77011">
        <ele>1259.94</ele>
        <time>2013-09-21T15:09:26Z</time>
      </trkpt>
      <trkpt lat="45.60782" lon="2.77017">
        <ele>1259.46</ele>
        <time>2013-09-21T15:09:27Z</time>
      </trkpt>
      <trkpt lat="45.60782" lon="2.77024">
        <ele>1259.46</ele>
        <time>2013-09-21T15:09:28Z</time>
      </trkpt>
      <trkpt lat="45.60779" lon="2.77057">
        <ele>1258.5</ele>
        <time>2013-09-21T15:09:33Z</time>
      </trkpt>
      <trkpt lat="45.60779" lon="2.77064">
        <ele>1259.46</ele>
        <time>2013-09-21T15:09:34Z</time>
      </trkpt>
      <trkpt lat="45.60779" lon="2.77128">
        <ele>1260.91</ele>
        <time>2013-09-21T15:09:45Z</time>
      </trkpt>
      <trkpt lat="45.60779" lon="2.77166">
        <ele>1264.75</ele>
        <time>2013-09-21T15:09:55Z</time>
      </trkpt>
      <trkpt lat="45.60784" lon="2.77207">
        <ele>1265.23</ele>
        <time>2013-09-21T15:10:06Z</time>
      </trkpt>
      <trkpt lat="45.60782" lon="2.77225">
        <ele>1265.71</ele>
        <time>2013-09-21T15:10:12Z</time>
      </trkpt>
      <trkpt lat="45.60781" lon="2.77228">
        <ele>1266.19</ele>
        <time>2013-09-21T15:10:13Z</time>
      </trkpt>
      <trkpt lat="45.6078" lon="2.77231">
        <ele>1266.19</ele>
        <time>2013-09-21T15:10:14Z</time>
      </trkpt>
      <trkpt lat="45.6078" lon="2.77233">
        <ele>1266.19</ele>
        <time>2013-09-21T15:10:15Z</time>
      </trkpt>
      <trkpt lat="45.6078" lon="2.77235">
        <ele>1266.67</ele>
        <time>2013-09-21T15:10:16Z</time>
      </trkpt>
      <trkpt lat="45.60779" lon="2.77237">
        <ele>1266.67</ele>
        <time>2013-09-21T15:10:17Z</time>
      </trkpt>
      <trkpt lat="45.60775" lon="2.77247">
        <ele>1267.16</ele>
        <time>2013-09-21T15:10:21Z</time>
      </trkpt>
      <trkpt lat="45.60773" lon="2.77249">
        <ele>1267.16</ele>
        <time>2013-09-21T15:10:22Z</time>
      </trkpt>
      <trkpt lat="45.60772" lon="2.77251">
        <ele>1267.64</ele>
        <time>2013-09-21T15:10:23Z</time>
      </trkpt>
      <trkpt lat="45.60771" lon="2.77254">
        <ele>1268.12</ele>
        <time>2013-09-21T15:10:24Z</time>
      </trkpt>
      <trkpt lat="45.6077" lon="2.77257">
        <ele>1268.12</ele>
        <time>2013-09-21T15:10:25Z</time>
      </trkpt>
      <trkpt lat="45.60765" lon="2.77291">
        <ele>1270.04</ele>
        <time>2013-09-21T15:10:37Z</time>
      </trkpt>
      <trkpt lat="45.6077" lon="2.77343">
        <ele>1271</ele>
        <time>2013-09-21T15:10:52Z</time>
      </trkpt>
      <trkpt lat="45.60765" lon="2.77387">
        <ele>1270.04</ele>
        <time>2013-09-21T15:11:02Z</time>
      </trkpt>
      <trkpt lat="45.60763" lon="2.77405">
        <ele>1269.56</ele>
        <time>2013-09-21T15:11:06Z</time>
      </trkpt>
      <trkpt lat="45.60764" lon="2.7741">
        <ele>1269.56</ele>
        <time>2013-09-21T15:11:07Z</time>
      </trkpt>
      <trkpt lat="45.60762" lon="2.77415">
        <ele>1269.08</ele>
        <time>2013-09-21T15:11:08Z</time>
      </trkpt>
      <trkpt lat="45.60761" lon="2.7742">
        <ele>1269.08</ele>
        <time>2013-09-21T15:11:09Z</time>
      </trkpt>
      <trkpt lat="45.60761" lon="2.77426">
        <ele>1268.6</ele>
        <time>2013-09-21T15:11:10Z</time>
      </trkpt>
      <trkpt lat="45.60753" lon="2.77486">
        <ele>1266.67</ele>
        <time>2013-09-21T15:11:19Z</time>
      </trkpt>
      <trkpt lat="45.60751" lon="2.77493">
        <ele>1266.19</ele>
        <time>2013-09-21T15:11:20Z</time>
      </trkpt>
      <trkpt lat="45.60748" lon="2.77498">
        <ele>1265.71</ele>
        <time>2013-09-21T15:11:21Z</time>
      </trkpt>
      <trkpt lat="45.60744" lon="2.77502">
        <ele>1265.71</ele>
        <time>2013-09-21T15:11:22Z</time>
      </trkpt>
      <trkpt lat="45.60739" lon="2.77505">
        <ele>1266.19</ele>
        <time>2013-09-21T15:11:23Z</time>
      </trkpt>
      <trkpt lat="45.60735" lon="2.77507">
        <ele>1265.71</ele>
        <time>2013-09-21T15:11:24Z</time>
      </trkpt>
      <trkpt lat="45.60731" lon="2.77507">
        <ele>1266.19</ele>
        <time>2013-09-21T15:11:25Z</time>
      </trkpt>
      <trkpt lat="45.60728" lon="2.77506">
        <ele>1265.71</ele>
        <time>2013-09-21T15:11:26Z</time>
      </trkpt>
      <trkpt lat="45.60699" lon="2.77481">
        <ele>1268.12</ele>
        <time>2013-09-21T15:11:36Z</time>
      </trkpt>
      <trkpt lat="45.60665" lon="2.77429">
        <ele>1266.19</ele>
        <time>2013-09-21T15:11:48Z</time>
      </trkpt>
      <trkpt lat="45.60638" lon="2.77383">
        <ele>1262.35</ele>
        <time>2013-09-21T15:11:54Z</time>
      </trkpt>
      <trkpt lat="45.60617" lon="2.77349">
        <ele>1259.46</ele>
        <time>2013-09-21T15:11:58Z</time>
      </trkpt>
      <trkpt lat="45.60598" lon="2.77323">
        <ele>1256.1</ele>
        <time>2013-09-21T15:12:01Z</time>
      </trkpt>
      <trkpt lat="45.60591" lon="2.77315">
        <ele>1255.62</ele>
        <time>2013-09-21T15:12:02Z</time>
      </trkpt>
      <trkpt lat="45.60568" lon="2.77287">
        <ele>1250.33</ele>
        <time>2013-09-21T15:12:05Z</time>
      </trkpt>
      <trkpt lat="45.60561" lon="2.77277">
        <ele>1250.33</ele>
        <time>2013-09-21T15:12:06Z</time>
      </trkpt>
      <trkpt lat="45.60531" lon="2.77241">
        <ele>1247.45</ele>
        <time>2013-09-21T15:12:10Z</time>
      </trkpt>
      <trkpt lat="45.60505" lon="2.77223">
        <ele>1244.56</ele>
        <time>2013-09-21T15:12:13Z</time>
      </trkpt>
      <trkpt lat="45.60497" lon="2.77217">
        <ele>1243.6</ele>
        <time>2013-09-21T15:12:14Z</time>
      </trkpt>
      <trkpt lat="45.6049" lon="2.77209">
        <ele>1243.6</ele>
        <time>2013-09-21T15:12:15Z</time>
      </trkpt>
      <trkpt lat="45.60484" lon="2.772">
        <ele>1242.64</ele>
        <time>2013-09-21T15:12:16Z</time>
      </trkpt>
      <trkpt lat="45.60477" lon="2.7719">
        <ele>1243.12</ele>
        <time>2013-09-21T15:12:17Z</time>
      </trkpt>
      <trkpt lat="45.6047" lon="2.7718">
        <ele>1243.6</ele>
        <time>2013-09-21T15:12:18Z</time>
      </trkpt>
      <trkpt lat="45.60449" lon="2.7715">
        <ele>1240.72</ele>
        <time>2013-09-21T15:12:21Z</time>
      </trkpt>
      <trkpt lat="45.60441" lon="2.77142">
        <ele>1239.76</ele>
        <time>2013-09-21T15:12:22Z</time>
      </trkpt>
      <trkpt lat="45.60432" lon="2.77135">
        <ele>1237.35</ele>
        <time>2013-09-21T15:12:23Z</time>
      </trkpt>
      <trkpt lat="45.60423" lon="2.77129">
        <ele>1236.87</ele>
        <time>2013-09-21T15:12:24Z</time>
      </trkpt>
      <trkpt lat="45.60414" lon="2.77125">
        <ele>1236.39</ele>
        <time>2013-09-21T15:12:25Z</time>
      </trkpt>
      <trkpt lat="45.60404" lon="2.77123">
        <ele>1235.91</ele>
        <time>2013-09-21T15:12:26Z</time>
      </trkpt>
      <trkpt lat="45.60394" lon="2.77122">
        <ele>1234.47</ele>
        <time>2013-09-21T15:12:27Z</time>
      </trkpt>
      <trkpt lat="45.60385" lon="2.77121">
        <ele>1233.99</ele>
        <time>2013-09-21T15:12:28Z</time>
      </trkpt>
      <trkpt lat="45.60375" lon="2.77121">
        <ele>1233.99</ele>
        <time>2013-09-21T15:12:29Z</time>
      </trkpt>
      <trkpt lat="45.60366" lon="2.77123">
        <ele>1233.51</ele>
        <time>2013-09-21T15:12:30Z</time>
      </trkpt>
      <trkpt lat="45.60356" lon="2.77126">
        <ele>1232.55</ele>
        <time>2013-09-21T15:12:31Z</time>
      </trkpt>
      <trkpt lat="45.60328" lon="2.77139">
        <ele>1230.62</ele>
        <time>2013-09-21T15:12:34Z</time>
      </trkpt>
      <trkpt lat="45.60319" lon="2.77145">
        <ele>1230.62</ele>
        <time>2013-09-21T15:12:35Z</time>
      </trkpt>
      <trkpt lat="45.60311" lon="2.77152">
        <ele>1231.11</ele>
        <time>2013-09-21T15:12:36Z</time>
      </trkpt>
      <trkpt lat="45.60303" lon="2.77156">
        <ele>1230.14</ele>
        <time>2013-09-21T15:12:37Z</time>
      </trkpt>
      <trkpt lat="45.60295" lon="2.77157">
        <ele>1228.7</ele>
        <time>2013-09-21T15:12:38Z</time>
      </trkpt>
      <trkpt lat="45.60286" lon="2.77155">
        <ele>1228.7</ele>
        <time>2013-09-21T15:12:39Z</time>
      </trkpt>
      <trkpt lat="45.60277" lon="2.77152">
        <ele>1227.26</ele>
        <time>2013-09-21T15:12:40Z</time>
      </trkpt>
      <trkpt lat="45.60268" lon="2.77148">
        <ele>1225.82</ele>
        <time>2013-09-21T15:12:41Z</time>
      </trkpt>
      <trkpt lat="45.6025" lon="2.77139">
        <ele>1223.42</ele>
        <time>2013-09-21T15:12:43Z</time>
      </trkpt>
      <trkpt lat="45.60241" lon="2.77136">
        <ele>1222.45</ele>
        <time>2013-09-21T15:12:44Z</time>
      </trkpt>
      <trkpt lat="45.60232" lon="2.77134">
        <ele>1221.01</ele>
        <time>2013-09-21T15:12:45Z</time>
      </trkpt>
      <trkpt lat="45.60222" lon="2.77134">
        <ele>1219.09</ele>
        <time>2013-09-21T15:12:46Z</time>
      </trkpt>
      <trkpt lat="45.60212" lon="2.77135">
        <ele>1218.13</ele>
        <time>2013-09-21T15:12:47Z</time>
      </trkpt>
      <trkpt lat="45.60202" lon="2.77139">
        <ele>1217.65</ele>
        <time>2013-09-21T15:12:48Z</time>
      </trkpt>
      <trkpt lat="45.60193" lon="2.77145">
        <ele>1216.21</ele>
        <time>2013-09-21T15:12:49Z</time>
      </trkpt>
      <trkpt lat="45.60184" lon="2.77151">
        <ele>1214.76</ele>
        <time>2013-09-21T15:12:50Z</time>
      </trkpt>
      <trkpt lat="45.60175" lon="2.77156">
        <ele>1214.76</ele>
        <time>2013-09-21T15:12:51Z</time>
      </trkpt>
      <trkpt lat="45.60165" lon="2.77161">
        <ele>1213.8</ele>
        <time>2013-09-21T15:12:52Z</time>
      </trkpt>
      <trkpt lat="45.60147" lon="2.77169">
        <ele>1213.8</ele>
        <time>2013-09-21T15:12:54Z</time>
      </trkpt>
      <trkpt lat="45.60138" lon="2.77175">
        <ele>1212.84</ele>
        <time>2013-09-21T15:12:55Z</time>
      </trkpt>
      <trkpt lat="45.6013" lon="2.77182">
        <ele>1212.36</ele>
        <time>2013-09-21T15:12:56Z</time>
      </trkpt>
      <trkpt lat="45.60122" lon="2.7719">
        <ele>1210.44</ele>
        <time>2013-09-21T15:12:57Z</time>
      </trkpt>
      <trkpt lat="45.60115" lon="2.772">
        <ele>1209.48</ele>
        <time>2013-09-21T15:12:58Z</time>
      </trkpt>
      <trkpt lat="45.60108" lon="2.77212">
        <ele>1208.51</ele>
        <time>2013-09-21T15:12:59Z</time>
      </trkpt>
      <trkpt lat="45.60103" lon="2.77224">
        <ele>1208.03</ele>
        <time>2013-09-21T15:13:00Z</time>
      </trkpt>
      <trkpt lat="45.60099" lon="2.77236">
        <ele>1206.59</ele>
        <time>2013-09-21T15:13:01Z</time>
      </trkpt>
      <trkpt lat="45.60095" lon="2.77248">
        <ele>1207.55</ele>
        <time>2013-09-21T15:13:02Z</time>
      </trkpt>
      <trkpt lat="45.60092" lon="2.77261">
        <ele>1207.07</ele>
        <time>2013-09-21T15:13:03Z</time>
      </trkpt>
      <trkpt lat="45.60092" lon="2.77272">
        <ele>1207.07</ele>
        <time>2013-09-21T15:13:04Z</time>
      </trkpt>
      <trkpt lat="45.60093" lon="2.77281">
        <ele>1207.55</ele>
        <time>2013-09-21T15:13:05Z</time>
      </trkpt>
      <trkpt lat="45.60094" lon="2.77291">
        <ele>1208.03</ele>
        <time>2013-09-21T15:13:06Z</time>
      </trkpt>
      <trkpt lat="45.60096" lon="2.773">
        <ele>1208.03</ele>
        <time>2013-09-21T15:13:07Z</time>
      </trkpt>
      <trkpt lat="45.60099" lon="2.77308">
        <ele>1206.59</ele>
        <time>2013-09-21T15:13:08Z</time>
      </trkpt>
      <trkpt lat="45.60103" lon="2.77317">
        <ele>1206.59</ele>
        <time>2013-09-21T15:13:09Z</time>
      </trkpt>
      <trkpt lat="45.6011" lon="2.77334">
        <ele>1207.07</ele>
        <time>2013-09-21T15:13:11Z</time>
      </trkpt>
      <trkpt lat="45.60115" lon="2.77349">
        <ele>1206.11</ele>
        <time>2013-09-21T15:13:13Z</time>
      </trkpt>
      <trkpt lat="45.60115" lon="2.77355">
        <ele>1207.07</ele>
        <time>2013-09-21T15:13:14Z</time>
      </trkpt>
      <trkpt lat="45.60114" lon="2.77361">
        <ele>1206.59</ele>
        <time>2013-09-21T15:13:15Z</time>
      </trkpt>
      <trkpt lat="45.60111" lon="2.77382">
        <ele>1205.15</ele>
        <time>2013-09-21T15:13:18Z</time>
      </trkpt>
      <trkpt lat="45.60095" lon="2.77431">
        <ele>1205.63</ele>
        <time>2013-09-21T15:13:25Z</time>
      </trkpt>
      <trkpt lat="45.60093" lon="2.77437">
        <ele>1205.15</ele>
        <time>2013-09-21T15:13:26Z</time>
      </trkpt>
      <trkpt lat="45.60092" lon="2.77445">
        <ele>1205.15</ele>
        <time>2013-09-21T15:13:27Z</time>
      </trkpt>
      <trkpt lat="45.60092" lon="2.77453">
        <ele>1206.11</ele>
        <time>2013-09-21T15:13:28Z</time>
      </trkpt>
      <trkpt lat="45.60092" lon="2.7746">
        <ele>1206.11</ele>
        <time>2013-09-21T15:13:29Z</time>
      </trkpt>
      <trkpt lat="45.60092" lon="2.77469">
        <ele>1205.63</ele>
        <time>2013-09-21T15:13:30Z</time>
      </trkpt>
      <trkpt lat="45.60087" lon="2.7752">
        <ele>1206.11</ele>
        <time>2013-09-21T15:13:36Z</time>
      </trkpt>
      <trkpt lat="45.60086" lon="2.77528">
        <ele>1207.07</ele>
        <time>2013-09-21T15:13:37Z</time>
      </trkpt>
      <trkpt lat="45.60085" lon="2.77542">
        <ele>1206.11</ele>
        <time>2013-09-21T15:13:39Z</time>
      </trkpt>
      <trkpt lat="45.60086" lon="2.7755">
        <ele>1206.59</ele>
        <time>2013-09-21T15:13:40Z</time>
      </trkpt>
      <trkpt lat="45.60086" lon="2.77566">
        <ele>1206.59</ele>
        <time>2013-09-21T15:13:42Z</time>
      </trkpt>
      <trkpt lat="45.60085" lon="2.7758">
        <ele>1206.59</ele>
        <time>2013-09-21T15:13:44Z</time>
      </trkpt>
      <trkpt lat="45.60087" lon="2.77636">
        <ele>1207.55</ele>
        <time>2013-09-21T15:13:52Z</time>
      </trkpt>
      <trkpt lat="45.60087" lon="2.77642">
        <ele>1207.55</ele>
        <time>2013-09-21T15:13:53Z</time>
      </trkpt>
      <trkpt lat="45.60088" lon="2.77657">
        <ele>1207.55</ele>
        <time>2013-09-21T15:13:55Z</time>
      </trkpt>
      <trkpt lat="45.60094" lon="2.77715">
        <ele>1206.59</ele>
        <time>2013-09-21T15:14:03Z</time>
      </trkpt>
      <trkpt lat="45.60096" lon="2.77722">
        <ele>1206.11</ele>
        <time>2013-09-21T15:14:04Z</time>
      </trkpt>
      <trkpt lat="45.60098" lon="2.77729">
        <ele>1206.11</ele>
        <time>2013-09-21T15:14:05Z</time>
      </trkpt>
      <trkpt lat="45.60101" lon="2.77735">
        <ele>1205.63</ele>
        <time>2013-09-21T15:14:06Z</time>
      </trkpt>
      <trkpt lat="45.60105" lon="2.77747">
        <ele>1205.63</ele>
        <time>2013-09-21T15:14:12Z</time>
      </trkpt>
      <trkpt lat="45.60097" lon="2.77738">
        <ele>1202.75</ele>
        <time>2013-09-21T15:14:15Z</time>
      </trkpt>
      <trkpt lat="45.60093" lon="2.77731">
        <ele>1201.3</ele>
        <time>2013-09-21T15:14:17Z</time>
      </trkpt>
      <trkpt lat="45.60091" lon="2.77729">
        <ele>1199.38</ele>
        <time>2013-09-21T15:14:18Z</time>
      </trkpt>
      <trkpt lat="45.6009" lon="2.77728">
        <ele>1199.38</ele>
        <time>2013-09-21T15:14:19Z</time>
      </trkpt>
      <trkpt lat="45.60089" lon="2.77724">
        <ele>1198.42</ele>
        <time>2013-09-21T15:14:28Z</time>
      </trkpt>
      <trkpt lat="45.60088" lon="2.77723">
        <ele>1197.94</ele>
        <time>2013-09-21T15:14:29Z</time>
      </trkpt>
      <trkpt lat="45.60087" lon="2.77724">
        <ele>1197.94</ele>
        <time>2013-09-21T15:14:30Z</time>
      </trkpt>
      <trkpt lat="45.60087" lon="2.77726">
        <ele>1196.98</ele>
        <time>2013-09-21T15:14:31Z</time>
      </trkpt>
      <trkpt lat="45.60087" lon="2.77728">
        <ele>1196.5</ele>
        <time>2013-09-21T15:14:32Z</time>
      </trkpt>
      <trkpt lat="45.60089" lon="2.77732">
        <ele>1196.98</ele>
        <time>2013-09-21T15:14:33Z</time>
      </trkpt>
      <trkpt lat="45.6009" lon="2.77736">
        <ele>1195.54</ele>
        <time>2013-09-21T15:14:34Z</time>
      </trkpt>
      <trkpt lat="45.60092" lon="2.7774">
        <ele>1195.54</ele>
        <time>2013-09-21T15:14:35Z</time>
      </trkpt>
      <trkpt lat="45.60093" lon="2.77743">
        <ele>1195.06</ele>
        <time>2013-09-21T15:14:36Z</time>
      </trkpt>
      <trkpt lat="45.60095" lon="2.77746">
        <ele>1195.54</ele>
        <time>2013-09-21T15:14:37Z</time>
      </trkpt>
      <trkpt lat="45.60095" lon="2.77755">
        <ele>1196.02</ele>
        <time>2013-09-21T15:14:45Z</time>
      </trkpt>
      <trkpt lat="45.60082" lon="2.77764">
        <ele>1196.5</ele>
        <time>2013-09-21T15:14:55Z</time>
      </trkpt>
      <trkpt lat="45.60058" lon="2.77784">
        <ele>1195.54</ele>
        <time>2013-09-21T15:15:06Z</time>
      </trkpt>
      <trkpt lat="45.60052" lon="2.77796">
        <ele>1193.61</ele>
        <time>2013-09-21T15:15:08Z</time>
      </trkpt>
      <trkpt lat="45.60051" lon="2.77805">
        <ele>1192.17</ele>
        <time>2013-09-21T15:15:09Z</time>
      </trkpt>
      <trkpt lat="45.6005" lon="2.77821">
        <ele>1192.17</ele>
        <time>2013-09-21T15:15:11Z</time>
      </trkpt>
      <trkpt lat="45.60049" lon="2.77833">
        <ele>1193.13</ele>
        <time>2013-09-21T15:15:13Z</time>
      </trkpt>
      <trkpt lat="45.60048" lon="2.7784">
        <ele>1191.69</ele>
        <time>2013-09-21T15:15:15Z</time>
      </trkpt>
      <trkpt lat="45.60043" lon="2.77846">
        <ele>1190.73</ele>
        <time>2013-09-21T15:15:19Z</time>
      </trkpt>
      <trkpt lat="45.60035" lon="2.7784">
        <ele>1189.77</ele>
        <time>2013-09-21T15:15:23Z</time>
      </trkpt>
      <trkpt lat="45.60025" lon="2.7783">
        <ele>1188.81</ele>
        <time>2013-09-21T15:15:26Z</time>
      </trkpt>
      <trkpt lat="45.60014" lon="2.77829">
        <ele>1189.77</ele>
        <time>2013-09-21T15:15:30Z</time>
      </trkpt>
      <trkpt lat="45.60012" lon="2.77832">
        <ele>1189.77</ele>
        <time>2013-09-21T15:15:31Z</time>
      </trkpt>
      <trkpt lat="45.59993" lon="2.77838">
        <ele>1188.81</ele>
        <time>2013-09-21T15:15:39Z</time>
      </trkpt>
      <trkpt lat="45.5999" lon="2.77837">
        <ele>1188.33</ele>
        <time>2013-09-21T15:15:40Z</time>
      </trkpt>
      <trkpt lat="45.59988" lon="2.77836">
        <ele>1188.33</ele>
        <time>2013-09-21T15:15:41Z</time>
      </trkpt>
      <trkpt lat="45.59979" lon="2.77837">
        <ele>1189.29</ele>
        <time>2013-09-21T15:15:51Z</time>
      </trkpt>
      <trkpt lat="45.5996" lon="2.77826">
        <ele>1189.77</ele>
        <time>2013-09-21T15:16:02Z</time>
      </trkpt>
      <trkpt lat="45.59949" lon="2.77821">
        <ele>1191.69</ele>
        <time>2013-09-21T15:16:11Z</time>
      </trkpt>
      <trkpt lat="45.59947" lon="2.7782">
        <ele>1193.13</ele>
        <time>2013-09-21T15:16:15Z</time>
      </trkpt>
      <trkpt lat="45.59938" lon="2.77816">
        <ele>1195.06</ele>
        <time>2013-09-21T15:16:29Z</time>
      </trkpt>
      <trkpt lat="45.59932" lon="2.77819">
        <ele>1196.98</ele>
        <time>2013-09-21T15:16:40Z</time>
      </trkpt>
      <trkpt lat="45.5993" lon="2.77819">
        <ele>1196.5</ele>
        <time>2013-09-21T15:16:41Z</time>
      </trkpt>
      <trkpt lat="45.5992" lon="2.7782">
        <ele>1194.58</ele>
        <time>2013-09-21T15:16:44Z</time>
      </trkpt>
      <trkpt lat="45.59915" lon="2.77822">
        <ele>1193.61</ele>
        <time>2013-09-21T15:16:45Z</time>
      </trkpt>
      <trkpt lat="45.59904" lon="2.77827">
        <ele>1191.69</ele>
        <time>2013-09-21T15:16:47Z</time>
      </trkpt>
      <trkpt lat="45.59899" lon="2.77832">
        <ele>1190.25</ele>
        <time>2013-09-21T15:16:48Z</time>
      </trkpt>
      <trkpt lat="45.59893" lon="2.77836">
        <ele>1189.29</ele>
        <time>2013-09-21T15:16:49Z</time>
      </trkpt>
      <trkpt lat="45.59883" lon="2.77841">
        <ele>1186.88</ele>
        <time>2013-09-21T15:16:51Z</time>
      </trkpt>
      <trkpt lat="45.59877" lon="2.77841">
        <ele>1186.4</ele>
        <time>2013-09-21T15:16:52Z</time>
      </trkpt>
      <trkpt lat="45.59872" lon="2.77839">
        <ele>1186.4</ele>
        <time>2013-09-21T15:16:53Z</time>
      </trkpt>
      <trkpt lat="45.5986" lon="2.77834">
        <ele>1184.48</ele>
        <time>2013-09-21T15:16:55Z</time>
      </trkpt>
      <trkpt lat="45.59854" lon="2.77832">
        <ele>1184.48</ele>
        <time>2013-09-21T15:16:56Z</time>
      </trkpt>
      <trkpt lat="45.59849" lon="2.7783">
        <ele>1184</ele>
        <time>2013-09-21T15:16:57Z</time>
      </trkpt>
      <trkpt lat="45.59844" lon="2.7783">
        <ele>1183.04</ele>
        <time>2013-09-21T15:16:58Z</time>
      </trkpt>
      <trkpt lat="45.59839" lon="2.77831">
        <ele>1182.56</ele>
        <time>2013-09-21T15:16:59Z</time>
      </trkpt>
      <trkpt lat="45.59832" lon="2.77833">
        <ele>1182.08</ele>
        <time>2013-09-21T15:17:00Z</time>
      </trkpt>
      <trkpt lat="45.59825" lon="2.77836">
        <ele>1181.12</ele>
        <time>2013-09-21T15:17:01Z</time>
      </trkpt>
      <trkpt lat="45.59818" lon="2.77838">
        <ele>1179.67</ele>
        <time>2013-09-21T15:17:02Z</time>
      </trkpt>
      <trkpt lat="45.59796" lon="2.77846">
        <ele>1175.35</ele>
        <time>2013-09-21T15:17:05Z</time>
      </trkpt>
      <trkpt lat="45.59788" lon="2.77848">
        <ele>1173.91</ele>
        <time>2013-09-21T15:17:06Z</time>
      </trkpt>
      <trkpt lat="45.59776" lon="2.77849">
        <ele>1172.95</ele>
        <time>2013-09-21T15:17:08Z</time>
      </trkpt>
      <trkpt lat="45.59764" lon="2.77846">
        <ele>1171.98</ele>
        <time>2013-09-21T15:17:11Z</time>
      </trkpt>
      <trkpt lat="45.59745" lon="2.77843">
        <ele>1168.14</ele>
        <time>2013-09-21T15:17:14Z</time>
      </trkpt>
      <trkpt lat="45.59736" lon="2.7784">
        <ele>1166.7</ele>
        <time>2013-09-21T15:17:15Z</time>
      </trkpt>
      <trkpt lat="45.5972" lon="2.77833">
        <ele>1162.37</ele>
        <time>2013-09-21T15:17:17Z</time>
      </trkpt>
      <trkpt lat="45.59704" lon="2.77826">
        <ele>1159.01</ele>
        <time>2013-09-21T15:17:19Z</time>
      </trkpt>
      <trkpt lat="45.5969" lon="2.77819">
        <ele>1155.16</ele>
        <time>2013-09-21T15:17:21Z</time>
      </trkpt>
      <trkpt lat="45.59672" lon="2.77809">
        <ele>1150.84</ele>
        <time>2013-09-21T15:17:24Z</time>
      </trkpt>
      <trkpt lat="45.59667" lon="2.77807">
        <ele>1149.87</ele>
        <time>2013-09-21T15:17:25Z</time>
      </trkpt>
      <trkpt lat="45.59664" lon="2.77804">
        <ele>1148.91</ele>
        <time>2013-09-21T15:17:26Z</time>
      </trkpt>
      <trkpt lat="45.5966" lon="2.77803">
        <ele>1147.47</ele>
        <time>2013-09-21T15:17:27Z</time>
      </trkpt>
      <trkpt lat="45.59642" lon="2.77797">
        <ele>1142.66</ele>
        <time>2013-09-21T15:17:30Z</time>
      </trkpt>
      <trkpt lat="45.59636" lon="2.77795">
        <ele>1140.74</ele>
        <time>2013-09-21T15:17:31Z</time>
      </trkpt>
      <trkpt lat="45.59632" lon="2.77795">
        <ele>1139.3</ele>
        <time>2013-09-21T15:17:32Z</time>
      </trkpt>
      <trkpt lat="45.59629" lon="2.77795">
        <ele>1139.3</ele>
        <time>2013-09-21T15:17:33Z</time>
      </trkpt>
      <trkpt lat="45.59627" lon="2.77796">
        <ele>1138.82</ele>
        <time>2013-09-21T15:17:34Z</time>
      </trkpt>
      <trkpt lat="45.59626" lon="2.77797">
        <ele>1138.34</ele>
        <time>2013-09-21T15:17:35Z</time>
      </trkpt>
      <trkpt lat="45.59625" lon="2.778">
        <ele>1137.86</ele>
        <time>2013-09-21T15:17:36Z</time>
      </trkpt>
      <trkpt lat="45.59624" lon="2.77802">
        <ele>1138.82</ele>
        <time>2013-09-21T15:17:37Z</time>
      </trkpt>
      <trkpt lat="45.59623" lon="2.77804">
        <ele>1139.3</ele>
        <time>2013-09-21T15:17:38Z</time>
      </trkpt>
      <trkpt lat="45.59623" lon="2.77806">
        <ele>1139.3</ele>
        <time>2013-09-21T15:17:39Z</time>
      </trkpt>
      <trkpt lat="45.59622" lon="2.77807">
        <ele>1139.78</ele>
        <time>2013-09-21T15:17:40Z</time>
      </trkpt>
      <trkpt lat="45.59621" lon="2.77809">
        <ele>1139.78</ele>
        <time>2013-09-21T15:17:41Z</time>
      </trkpt>
      <trkpt lat="45.5962" lon="2.77811">
        <ele>1139.78</ele>
        <time>2013-09-21T15:17:42Z</time>
      </trkpt>
      <trkpt lat="45.59614" lon="2.77829">
        <ele>1143.14</ele>
        <time>2013-09-21T15:17:54Z</time>
      </trkpt>
      <trkpt lat="45.59613" lon="2.7783">
        <ele>1142.66</ele>
        <time>2013-09-21T15:17:55Z</time>
      </trkpt>
      <trkpt lat="45.59613" lon="2.77832">
        <ele>1142.66</ele>
        <time>2013-09-21T15:17:56Z</time>
      </trkpt>
      <trkpt lat="45.59612" lon="2.77834">
        <ele>1143.14</ele>
        <time>2013-09-21T15:17:57Z</time>
      </trkpt>
      <trkpt lat="45.59604" lon="2.77858">
        <ele>1145.55</ele>
        <time>2013-09-21T15:18:13Z</time>
      </trkpt>
      <trkpt lat="45.59598" lon="2.77874">
        <ele>1148.43</ele>
        <time>2013-09-21T15:18:26Z</time>
      </trkpt>
      <trkpt lat="45.59594" lon="2.77896">
        <ele>1149.87</ele>
        <time>2013-09-21T15:18:40Z</time>
      </trkpt>
      <trkpt lat="45.5959" lon="2.77914">
        <ele>1152.28</ele>
        <time>2013-09-21T15:18:53Z</time>
      </trkpt>
      <trkpt lat="45.59587" lon="2.77931">
        <ele>1153.72</ele>
        <time>2013-09-21T15:19:06Z</time>
      </trkpt>
      <trkpt lat="45.59586" lon="2.77933">
        <ele>1153.24</ele>
        <time>2013-09-21T15:19:07Z</time>
      </trkpt>
      <trkpt lat="45.59586" lon="2.77935">
        <ele>1153.72</ele>
        <time>2013-09-21T15:19:08Z</time>
      </trkpt>
      <trkpt lat="45.59585" lon="2.77938">
        <ele>1154.68</ele>
        <time>2013-09-21T15:19:10Z</time>
      </trkpt>
      <trkpt lat="45.59584" lon="2.77944">
        <ele>1155.16</ele>
        <time>2013-09-21T15:19:24Z</time>
      </trkpt>
      <trkpt lat="45.59587" lon="2.77948">
        <ele>1154.68</ele>
        <time>2013-09-21T15:19:51Z</time>
      </trkpt>
      <trkpt lat="45.59591" lon="2.77946">
        <ele>1154.68</ele>
        <time>2013-09-21T15:20:16Z</time>
      </trkpt>
      <trkpt lat="45.59592" lon="2.77943">
        <ele>1154.2</ele>
        <time>2013-09-21T15:20:48Z</time>
      </trkpt>
      <trkpt lat="45.59589" lon="2.77944">
        <ele>1154.68</ele>
        <time>2013-09-21T15:21:13Z</time>
      </trkpt>
      <trkpt lat="45.5959" lon="2.77944">
        <ele>1154.68</ele>
        <time>2013-09-21T15:21:40Z</time>
      </trkpt>
      <trkpt lat="45.59586" lon="2.77943">
        <ele>1155.16</ele>
        <time>2013-09-21T15:22:10Z</time>
      </trkpt>
      <trkpt lat="45.59583" lon="2.77944">
        <ele>1154.68</ele>
        <time>2013-09-21T15:22:44Z</time>
      </trkpt>
      <trkpt lat="45.59584" lon="2.77944">
        <ele>1154.68</ele>
        <time>2013-09-21T15:23:17Z</time>
      </trkpt>
      <trkpt lat="45.59579" lon="2.77958">
        <ele>1155.64</ele>
        <time>2013-09-21T15:23:27Z</time>
      </trkpt>
      <trkpt lat="45.59574" lon="2.77972">
        <ele>1158.53</ele>
        <time>2013-09-21T15:23:38Z</time>
      </trkpt>
      <trkpt lat="45.59572" lon="2.77975">
        <ele>1158.53</ele>
        <time>2013-09-21T15:23:41Z</time>
      </trkpt>
      <trkpt lat="45.59564" lon="2.77993">
        <ele>1161.89</ele>
        <time>2013-09-21T15:23:54Z</time>
      </trkpt>
      <trkpt lat="45.59558" lon="2.78005">
        <ele>1163.33</ele>
        <time>2013-09-21T15:24:07Z</time>
      </trkpt>
      <trkpt lat="45.59554" lon="2.78024">
        <ele>1165.74</ele>
        <time>2013-09-21T15:24:20Z</time>
      </trkpt>
      <trkpt lat="45.59552" lon="2.78042">
        <ele>1166.7</ele>
        <time>2013-09-21T15:24:33Z</time>
      </trkpt>
      <trkpt lat="45.59553" lon="2.78045">
        <ele>1167.18</ele>
        <time>2013-09-21T15:24:35Z</time>
      </trkpt>
      <trkpt lat="45.59551" lon="2.78051">
        <ele>1167.18</ele>
        <time>2013-09-21T15:24:39Z</time>
      </trkpt>
      <trkpt lat="45.5955" lon="2.78069">
        <ele>1168.62</ele>
        <time>2013-09-21T15:24:50Z</time>
      </trkpt>
      <trkpt lat="45.59548" lon="2.78085">
        <ele>1170.06</ele>
        <time>2013-09-21T15:25:01Z</time>
      </trkpt>
      <trkpt lat="45.59549" lon="2.78095">
        <ele>1173.43</ele>
        <time>2013-09-21T15:25:10Z</time>
      </trkpt>
      <trkpt lat="45.59549" lon="2.78104">
        <ele>1173.91</ele>
        <time>2013-09-21T15:25:22Z</time>
      </trkpt>
      <trkpt lat="45.59549" lon="2.7812">
        <ele>1175.83</ele>
        <time>2013-09-21T15:25:36Z</time>
      </trkpt>
      <trkpt lat="45.59552" lon="2.78128">
        <ele>1177.27</ele>
        <time>2013-09-21T15:25:47Z</time>
      </trkpt>
      <trkpt lat="45.59559" lon="2.78139">
        <ele>1178.71</ele>
        <time>2013-09-21T15:25:58Z</time>
      </trkpt>
      <trkpt lat="45.5957" lon="2.78157">
        <ele>1179.67</ele>
        <time>2013-09-21T15:26:11Z</time>
      </trkpt>
      <trkpt lat="45.59571" lon="2.78163">
        <ele>1180.16</ele>
        <time>2013-09-21T15:26:16Z</time>
      </trkpt>
      <trkpt lat="45.59571" lon="2.78167">
        <ele>1181.12</ele>
        <time>2013-09-21T15:26:20Z</time>
      </trkpt>
      <trkpt lat="45.5957" lon="2.78169">
        <ele>1181.12</ele>
        <time>2013-09-21T15:26:21Z</time>
      </trkpt>
      <trkpt lat="45.5957" lon="2.78172">
        <ele>1181.12</ele>
        <time>2013-09-21T15:26:22Z</time>
      </trkpt>
      <trkpt lat="45.59568" lon="2.78174">
        <ele>1181.12</ele>
        <time>2013-09-21T15:26:23Z</time>
      </trkpt>
      <trkpt lat="45.59567" lon="2.78176">
        <ele>1181.12</ele>
        <time>2013-09-21T15:26:24Z</time>
      </trkpt>
      <trkpt lat="45.59561" lon="2.782">
        <ele>1179.19</ele>
        <time>2013-09-21T15:26:32Z</time>
      </trkpt>
      <trkpt lat="45.5956" lon="2.78217">
        <ele>1178.71</ele>
        <time>2013-09-21T15:26:43Z</time>
      </trkpt>
      <trkpt lat="45.59564" lon="2.78231">
        <ele>1179.67</ele>
        <time>2013-09-21T15:26:55Z</time>
      </trkpt>
      <trkpt lat="45.59567" lon="2.78244">
        <ele>1181.12</ele>
        <time>2013-09-21T15:27:09Z</time>
      </trkpt>
      <trkpt lat="45.59568" lon="2.78257">
        <ele>1181.6</ele>
        <time>2013-09-21T15:27:21Z</time>
      </trkpt>
      <trkpt lat="45.59564" lon="2.78274">
        <ele>1182.08</ele>
        <time>2013-09-21T15:27:33Z</time>
      </trkpt>
      <trkpt lat="45.59565" lon="2.78289">
        <ele>1183.52</ele>
        <time>2013-09-21T15:27:43Z</time>
      </trkpt>
      <trkpt lat="45.59558" lon="2.7831">
        <ele>1183.04</ele>
        <time>2013-09-21T15:27:53Z</time>
      </trkpt>
      <trkpt lat="45.59549" lon="2.78332">
        <ele>1184</ele>
        <time>2013-09-21T15:28:05Z</time>
      </trkpt>
      <trkpt lat="45.59548" lon="2.78336">
        <ele>1184</ele>
        <time>2013-09-21T15:28:07Z</time>
      </trkpt>
      <trkpt lat="45.59541" lon="2.78376">
        <ele>1180.16</ele>
        <time>2013-09-21T15:28:16Z</time>
      </trkpt>
      <trkpt lat="45.59537" lon="2.78381">
        <ele>1180.16</ele>
        <time>2013-09-21T15:28:17Z</time>
      </trkpt>
      <trkpt lat="45.59527" lon="2.78389">
        <ele>1180.16</ele>
        <time>2013-09-21T15:28:20Z</time>
      </trkpt>
      <trkpt lat="45.59508" lon="2.78424">
        <ele>1178.23</ele>
        <time>2013-09-21T15:28:31Z</time>
      </trkpt>
      <trkpt lat="45.59505" lon="2.78427">
        <ele>1176.79</ele>
        <time>2013-09-21T15:28:33Z</time>
      </trkpt>
      <trkpt lat="45.59494" lon="2.78446">
        <ele>1173.91</ele>
        <time>2013-09-21T15:28:41Z</time>
      </trkpt>
      <trkpt lat="45.59491" lon="2.78447">
        <ele>1174.39</ele>
        <time>2013-09-21T15:28:43Z</time>
      </trkpt>
      <trkpt lat="45.59458" lon="2.78457">
        <ele>1170.54</ele>
        <time>2013-09-21T15:28:55Z</time>
      </trkpt>
      <trkpt lat="45.59441" lon="2.78472">
        <ele>1168.14</ele>
        <time>2013-09-21T15:29:01Z</time>
      </trkpt>
      <trkpt lat="45.59434" lon="2.78477">
        <ele>1167.66</ele>
        <time>2013-09-21T15:29:03Z</time>
      </trkpt>
      <trkpt lat="45.59431" lon="2.78479">
        <ele>1166.7</ele>
        <time>2013-09-21T15:29:04Z</time>
      </trkpt>
      <trkpt lat="45.59427" lon="2.78482">
        <ele>1166.22</ele>
        <time>2013-09-21T15:29:05Z</time>
      </trkpt>
      <trkpt lat="45.59422" lon="2.78483">
        <ele>1165.74</ele>
        <time>2013-09-21T15:29:06Z</time>
      </trkpt>
      <trkpt lat="45.59417" lon="2.78484">
        <ele>1164.77</ele>
        <time>2013-09-21T15:29:07Z</time>
      </trkpt>
      <trkpt lat="45.59411" lon="2.78487">
        <ele>1163.81</ele>
        <time>2013-09-21T15:29:08Z</time>
      </trkpt>
      <trkpt lat="45.59407" lon="2.7849">
        <ele>1164.77</ele>
        <time>2013-09-21T15:29:09Z</time>
      </trkpt>
      <trkpt lat="45.59402" lon="2.78493">
        <ele>1164.77</ele>
        <time>2013-09-21T15:29:10Z</time>
      </trkpt>
      <trkpt lat="45.59398" lon="2.78496">
        <ele>1165.26</ele>
        <time>2013-09-21T15:29:11Z</time>
      </trkpt>
      <trkpt lat="45.59394" lon="2.78499">
        <ele>1164.29</ele>
        <time>2013-09-21T15:29:12Z</time>
      </trkpt>
      <trkpt lat="45.59391" lon="2.78501">
        <ele>1164.77</ele>
        <time>2013-09-21T15:29:13Z</time>
      </trkpt>
      <trkpt lat="45.59351" lon="2.78506">
        <ele>1164.29</ele>
        <time>2013-09-21T15:29:25Z</time>
      </trkpt>
      <trkpt lat="45.59329" lon="2.78507">
        <ele>1163.33</ele>
        <time>2013-09-21T15:29:31Z</time>
      </trkpt>
      <trkpt lat="45.59325" lon="2.78506">
        <ele>1162.37</ele>
        <time>2013-09-21T15:29:32Z</time>
      </trkpt>
      <trkpt lat="45.5932" lon="2.78504">
        <ele>1161.89</ele>
        <time>2013-09-21T15:29:33Z</time>
      </trkpt>
      <trkpt lat="45.59315" lon="2.78502">
        <ele>1161.41</ele>
        <time>2013-09-21T15:29:34Z</time>
      </trkpt>
      <trkpt lat="45.5931" lon="2.78499">
        <ele>1161.89</ele>
        <time>2013-09-21T15:29:35Z</time>
      </trkpt>
      <trkpt lat="45.59306" lon="2.78495">
        <ele>1161.41</ele>
        <time>2013-09-21T15:29:36Z</time>
      </trkpt>
      <trkpt lat="45.59302" lon="2.78491">
        <ele>1160.45</ele>
        <time>2013-09-21T15:29:37Z</time>
      </trkpt>
      <trkpt lat="45.59298" lon="2.78487">
        <ele>1159.49</ele>
        <time>2013-09-21T15:29:38Z</time>
      </trkpt>
      <trkpt lat="45.59295" lon="2.78483">
        <ele>1159.49</ele>
        <time>2013-09-21T15:29:39Z</time>
      </trkpt>
      <trkpt lat="45.59292" lon="2.7848">
        <ele>1159.49</ele>
        <time>2013-09-21T15:29:40Z</time>
      </trkpt>
      <trkpt lat="45.59289" lon="2.7848">
        <ele>1159.49</ele>
        <time>2013-09-21T15:29:41Z</time>
      </trkpt>
      <trkpt lat="45.59286" lon="2.78481">
        <ele>1160.45</ele>
        <time>2013-09-21T15:29:42Z</time>
      </trkpt>
      <trkpt lat="45.59283" lon="2.78482">
        <ele>1160.45</ele>
        <time>2013-09-21T15:29:43Z</time>
      </trkpt>
      <trkpt lat="45.59257" lon="2.78505">
        <ele>1159.97</ele>
        <time>2013-09-21T15:29:52Z</time>
      </trkpt>
      <trkpt lat="45.59253" lon="2.78509">
        <ele>1159.49</ele>
        <time>2013-09-21T15:29:53Z</time>
      </trkpt>
      <trkpt lat="45.59211" lon="2.78575">
        <ele>1156.6</ele>
        <time>2013-09-21T15:30:06Z</time>
      </trkpt>
      <trkpt lat="45.59209" lon="2.78583">
        <ele>1156.6</ele>
        <time>2013-09-21T15:30:07Z</time>
      </trkpt>
      <trkpt lat="45.59207" lon="2.78591">
        <ele>1155.16</ele>
        <time>2013-09-21T15:30:08Z</time>
      </trkpt>
      <trkpt lat="45.592" lon="2.78628">
        <ele>1151.8</ele>
        <time>2013-09-21T15:30:12Z</time>
      </trkpt>
      <trkpt lat="45.592" lon="2.78638">
        <ele>1150.84</ele>
        <time>2013-09-21T15:30:13Z</time>
      </trkpt>
      <trkpt lat="45.59201" lon="2.78649">
        <ele>1150.35</ele>
        <time>2013-09-21T15:30:14Z</time>
      </trkpt>
      <trkpt lat="45.59205" lon="2.78668">
        <ele>1149.39</ele>
        <time>2013-09-21T15:30:16Z</time>
      </trkpt>
      <trkpt lat="45.59219" lon="2.78746">
        <ele>1145.55</ele>
        <time>2013-09-21T15:30:23Z</time>
      </trkpt>
      <trkpt lat="45.59223" lon="2.78756">
        <ele>1144.59</ele>
        <time>2013-09-21T15:30:24Z</time>
      </trkpt>
      <trkpt lat="45.59231" lon="2.78778">
        <ele>1142.66</ele>
        <time>2013-09-21T15:30:27Z</time>
      </trkpt>
      <trkpt lat="45.59231" lon="2.78785">
        <ele>1142.18</ele>
        <time>2013-09-21T15:30:28Z</time>
      </trkpt>
      <trkpt lat="45.59232" lon="2.78793">
        <ele>1140.74</ele>
        <time>2013-09-21T15:30:29Z</time>
      </trkpt>
      <trkpt lat="45.59235" lon="2.78802">
        <ele>1139.3</ele>
        <time>2013-09-21T15:30:30Z</time>
      </trkpt>
      <trkpt lat="45.59238" lon="2.78814">
        <ele>1137.86</ele>
        <time>2013-09-21T15:30:31Z</time>
      </trkpt>
      <trkpt lat="45.5924" lon="2.78825">
        <ele>1137.86</ele>
        <time>2013-09-21T15:30:32Z</time>
      </trkpt>
      <trkpt lat="45.59242" lon="2.78835">
        <ele>1137.86</ele>
        <time>2013-09-21T15:30:33Z</time>
      </trkpt>
      <trkpt lat="45.59243" lon="2.78844">
        <ele>1135.94</ele>
        <time>2013-09-21T15:30:34Z</time>
      </trkpt>
      <trkpt lat="45.59243" lon="2.78852">
        <ele>1135.45</ele>
        <time>2013-09-21T15:30:35Z</time>
      </trkpt>
      <trkpt lat="45.5924" lon="2.7886">
        <ele>1135.45</ele>
        <time>2013-09-21T15:30:36Z</time>
      </trkpt>
      <trkpt lat="45.59236" lon="2.78867">
        <ele>1133.53</ele>
        <time>2013-09-21T15:30:37Z</time>
      </trkpt>
      <trkpt lat="45.59231" lon="2.78873">
        <ele>1133.05</ele>
        <time>2013-09-21T15:30:38Z</time>
      </trkpt>
      <trkpt lat="45.59227" lon="2.7888">
        <ele>1133.05</ele>
        <time>2013-09-21T15:30:39Z</time>
      </trkpt>
      <trkpt lat="45.59225" lon="2.78889">
        <ele>1132.09</ele>
        <time>2013-09-21T15:30:40Z</time>
      </trkpt>
      <trkpt lat="45.59223" lon="2.789">
        <ele>1131.13</ele>
        <time>2013-09-21T15:30:41Z</time>
      </trkpt>
      <trkpt lat="45.59222" lon="2.78911">
        <ele>1130.65</ele>
        <time>2013-09-21T15:30:42Z</time>
      </trkpt>
      <trkpt lat="45.59221" lon="2.78923">
        <ele>1129.69</ele>
        <time>2013-09-21T15:30:43Z</time>
      </trkpt>
      <trkpt lat="45.59221" lon="2.78935">
        <ele>1128.24</ele>
        <time>2013-09-21T15:30:44Z</time>
      </trkpt>
      <trkpt lat="45.59221" lon="2.78947">
        <ele>1128.24</ele>
        <time>2013-09-21T15:30:45Z</time>
      </trkpt>
      <trkpt lat="45.59224" lon="2.78968">
        <ele>1125.84</ele>
        <time>2013-09-21T15:30:47Z</time>
      </trkpt>
      <trkpt lat="45.59223" lon="2.78977">
        <ele>1124.88</ele>
        <time>2013-09-21T15:30:48Z</time>
      </trkpt>
      <trkpt lat="45.59222" lon="2.78986">
        <ele>1122.96</ele>
        <time>2013-09-21T15:30:49Z</time>
      </trkpt>
      <trkpt lat="45.59218" lon="2.78993">
        <ele>1124.4</ele>
        <time>2013-09-21T15:30:50Z</time>
      </trkpt>
      <trkpt lat="45.59215" lon="2.78999">
        <ele>1124.88</ele>
        <time>2013-09-21T15:30:51Z</time>
      </trkpt>
      <trkpt lat="45.59199" lon="2.79024">
        <ele>1124.4</ele>
        <time>2013-09-21T15:30:55Z</time>
      </trkpt>
      <trkpt lat="45.59193" lon="2.79029">
        <ele>1123.92</ele>
        <time>2013-09-21T15:30:56Z</time>
      </trkpt>
      <trkpt lat="45.59187" lon="2.79032">
        <ele>1122.96</ele>
        <time>2013-09-21T15:30:57Z</time>
      </trkpt>
      <trkpt lat="45.59181" lon="2.79033">
        <ele>1122</ele>
        <time>2013-09-21T15:30:58Z</time>
      </trkpt>
      <trkpt lat="45.59174" lon="2.79034">
        <ele>1121.03</ele>
        <time>2013-09-21T15:30:59Z</time>
      </trkpt>
      <trkpt lat="45.59167" lon="2.79033">
        <ele>1120.55</ele>
        <time>2013-09-21T15:31:00Z</time>
      </trkpt>
      <trkpt lat="45.59155" lon="2.79031">
        <ele>1120.07</ele>
        <time>2013-09-21T15:31:02Z</time>
      </trkpt>
      <trkpt lat="45.59149" lon="2.79032">
        <ele>1119.11</ele>
        <time>2013-09-21T15:31:03Z</time>
      </trkpt>
      <trkpt lat="45.59143" lon="2.79034">
        <ele>1117.67</ele>
        <time>2013-09-21T15:31:04Z</time>
      </trkpt>
      <trkpt lat="45.59138" lon="2.79037">
        <ele>1117.19</ele>
        <time>2013-09-21T15:31:05Z</time>
      </trkpt>
      <trkpt lat="45.59134" lon="2.79042">
        <ele>1116.23</ele>
        <time>2013-09-21T15:31:06Z</time>
      </trkpt>
      <trkpt lat="45.5913" lon="2.79048">
        <ele>1114.31</ele>
        <time>2013-09-21T15:31:07Z</time>
      </trkpt>
      <trkpt lat="45.59126" lon="2.79056">
        <ele>1113.82</ele>
        <time>2013-09-21T15:31:08Z</time>
      </trkpt>
      <trkpt lat="45.59123" lon="2.79066">
        <ele>1110.94</ele>
        <time>2013-09-21T15:31:09Z</time>
      </trkpt>
      <trkpt lat="45.5912" lon="2.79077">
        <ele>1109.02</ele>
        <time>2013-09-21T15:31:10Z</time>
      </trkpt>
      <trkpt lat="45.59118" lon="2.79087">
        <ele>1107.1</ele>
        <time>2013-09-21T15:31:11Z</time>
      </trkpt>
      <trkpt lat="45.59116" lon="2.791">
        <ele>1105.17</ele>
        <time>2013-09-21T15:31:12Z</time>
      </trkpt>
      <trkpt lat="45.59114" lon="2.79127">
        <ele>1101.33</ele>
        <time>2013-09-21T15:31:14Z</time>
      </trkpt>
      <trkpt lat="45.59113" lon="2.79157">
        <ele>1097</ele>
        <time>2013-09-21T15:31:16Z</time>
      </trkpt>
      <trkpt lat="45.59112" lon="2.79174">
        <ele>1093.16</ele>
        <time>2013-09-21T15:31:17Z</time>
      </trkpt>
      <trkpt lat="45.59111" lon="2.79193">
        <ele>1088.35</ele>
        <time>2013-09-21T15:31:18Z</time>
      </trkpt>
      <trkpt lat="45.59112" lon="2.79231">
        <ele>1084.5</ele>
        <time>2013-09-21T15:31:20Z</time>
      </trkpt>
      <trkpt lat="45.5911" lon="2.79277">
        <ele>1081.14</ele>
        <time>2013-09-21T15:31:23Z</time>
      </trkpt>
      <trkpt lat="45.59108" lon="2.79296">
        <ele>1080.66</ele>
        <time>2013-09-21T15:31:25Z</time>
      </trkpt>
      <trkpt lat="45.59106" lon="2.79302">
        <ele>1080.18</ele>
        <time>2013-09-21T15:31:26Z</time>
      </trkpt>
      <trkpt lat="45.59101" lon="2.79305">
        <ele>1078.74</ele>
        <time>2013-09-21T15:31:27Z</time>
      </trkpt>
      <trkpt lat="45.59096" lon="2.79302">
        <ele>1077.29</ele>
        <time>2013-09-21T15:31:28Z</time>
      </trkpt>
      <trkpt lat="45.5909" lon="2.79294">
        <ele>1075.37</ele>
        <time>2013-09-21T15:31:29Z</time>
      </trkpt>
      <trkpt lat="45.59085" lon="2.79284">
        <ele>1074.41</ele>
        <time>2013-09-21T15:31:30Z</time>
      </trkpt>
      <trkpt lat="45.59072" lon="2.79264">
        <ele>1070.08</ele>
        <time>2013-09-21T15:31:32Z</time>
      </trkpt>
      <trkpt lat="45.59055" lon="2.79242">
        <ele>1065.76</ele>
        <time>2013-09-21T15:31:34Z</time>
      </trkpt>
      <trkpt lat="45.59032" lon="2.79212">
        <ele>1062.39</ele>
        <time>2013-09-21T15:31:37Z</time>
      </trkpt>
      <trkpt lat="45.59019" lon="2.79194">
        <ele>1058.07</ele>
        <time>2013-09-21T15:31:39Z</time>
      </trkpt>
      <trkpt lat="45.59011" lon="2.79187">
        <ele>1056.63</ele>
        <time>2013-09-21T15:31:40Z</time>
      </trkpt>
      <trkpt lat="45.58995" lon="2.79176">
        <ele>1053.26</ele>
        <time>2013-09-21T15:31:42Z</time>
      </trkpt>
      <trkpt lat="45.58988" lon="2.79168">
        <ele>1051.82</ele>
        <time>2013-09-21T15:31:43Z</time>
      </trkpt>
      <trkpt lat="45.58983" lon="2.79159">
        <ele>1050.38</ele>
        <time>2013-09-21T15:31:44Z</time>
      </trkpt>
      <trkpt lat="45.58979" lon="2.79147">
        <ele>1047.49</ele>
        <time>2013-09-21T15:31:45Z</time>
      </trkpt>
      <trkpt lat="45.58977" lon="2.79133">
        <ele>1046.05</ele>
        <time>2013-09-21T15:31:46Z</time>
      </trkpt>
      <trkpt lat="45.58976" lon="2.79119">
        <ele>1043.65</ele>
        <time>2013-09-21T15:31:47Z</time>
      </trkpt>
      <trkpt lat="45.58974" lon="2.7908">
        <ele>1040.28</ele>
        <time>2013-09-21T15:31:50Z</time>
      </trkpt>
      <trkpt lat="45.58972" lon="2.79069">
        <ele>1039.8</ele>
        <time>2013-09-21T15:31:51Z</time>
      </trkpt>
      <trkpt lat="45.58969" lon="2.79059">
        <ele>1038.36</ele>
        <time>2013-09-21T15:31:52Z</time>
      </trkpt>
      <trkpt lat="45.58964" lon="2.7905">
        <ele>1035.48</ele>
        <time>2013-09-21T15:31:53Z</time>
      </trkpt>
      <trkpt lat="45.58957" lon="2.79044">
        <ele>1033.55</ele>
        <time>2013-09-21T15:31:54Z</time>
      </trkpt>
      <trkpt lat="45.5895" lon="2.79041">
        <ele>1032.11</ele>
        <time>2013-09-21T15:31:55Z</time>
      </trkpt>
      <trkpt lat="45.58943" lon="2.79041">
        <ele>1032.11</ele>
        <time>2013-09-21T15:31:56Z</time>
      </trkpt>
      <trkpt lat="45.58938" lon="2.79045">
        <ele>1032.59</ele>
        <time>2013-09-21T15:31:57Z</time>
      </trkpt>
      <trkpt lat="45.58935" lon="2.79052">
        <ele>1032.11</ele>
        <time>2013-09-21T15:31:58Z</time>
      </trkpt>
      <trkpt lat="45.58935" lon="2.7906">
        <ele>1032.11</ele>
        <time>2013-09-21T15:31:59Z</time>
      </trkpt>
      <trkpt lat="45.58934" lon="2.79068">
        <ele>1031.63</ele>
        <time>2013-09-21T15:32:00Z</time>
      </trkpt>
      <trkpt lat="45.5893" lon="2.79075">
        <ele>1030.67</ele>
        <time>2013-09-21T15:32:01Z</time>
      </trkpt>
      <trkpt lat="45.58925" lon="2.79081">
        <ele>1030.67</ele>
        <time>2013-09-21T15:32:02Z</time>
      </trkpt>
      <trkpt lat="45.58921" lon="2.7909">
        <ele>1029.23</ele>
        <time>2013-09-21T15:32:03Z</time>
      </trkpt>
      <trkpt lat="45.58918" lon="2.79101">
        <ele>1026.83</ele>
        <time>2013-09-21T15:32:04Z</time>
      </trkpt>
      <trkpt lat="45.58916" lon="2.79113">
        <ele>1024.9</ele>
        <time>2013-09-21T15:32:05Z</time>
      </trkpt>
      <trkpt lat="45.58916" lon="2.79126">
        <ele>1022.98</ele>
        <time>2013-09-21T15:32:06Z</time>
      </trkpt>
      <trkpt lat="45.58917" lon="2.79141">
        <ele>1020.58</ele>
        <time>2013-09-21T15:32:07Z</time>
      </trkpt>
      <trkpt lat="45.58921" lon="2.79156">
        <ele>1017.21</ele>
        <time>2013-09-21T15:32:08Z</time>
      </trkpt>
      <trkpt lat="45.58924" lon="2.7917">
        <ele>1014.81</ele>
        <time>2013-09-21T15:32:09Z</time>
      </trkpt>
      <trkpt lat="45.58927" lon="2.79185">
        <ele>1014.33</ele>
        <time>2013-09-21T15:32:10Z</time>
      </trkpt>
      <trkpt lat="45.58929" lon="2.79198">
        <ele>1012.41</ele>
        <time>2013-09-21T15:32:11Z</time>
      </trkpt>
      <trkpt lat="45.5893" lon="2.79212">
        <ele>1012.41</ele>
        <time>2013-09-21T15:32:12Z</time>
      </trkpt>
      <trkpt lat="45.58929" lon="2.79225">
        <ele>1011.44</ele>
        <time>2013-09-21T15:32:13Z</time>
      </trkpt>
      <trkpt lat="45.58928" lon="2.79239">
        <ele>1010.96</ele>
        <time>2013-09-21T15:32:14Z</time>
      </trkpt>
      <trkpt lat="45.58927" lon="2.79251">
        <ele>1010.96</ele>
        <time>2013-09-21T15:32:15Z</time>
      </trkpt>
      <trkpt lat="45.58929" lon="2.79285">
        <ele>1010.96</ele>
        <time>2013-09-21T15:32:21Z</time>
      </trkpt>
      <trkpt lat="45.58929" lon="2.79285">
        <ele>1010.48</ele>
        <time>2013-09-21T15:32:33Z</time>
      </trkpt>
      <trkpt lat="45.5893" lon="2.79284">
        <ele>1010.48</ele>
        <time>2013-09-21T15:32:56Z</time>
      </trkpt>
      <trkpt lat="45.5893" lon="2.79284">
        <ele>1010.48</ele>
        <time>2013-09-21T15:33:19Z</time>
      </trkpt>
      <trkpt lat="45.58929" lon="2.79286">
        <ele>1010</ele>
        <time>2013-09-21T15:33:28Z</time>
      </trkpt>
      <trkpt lat="45.58928" lon="2.79289">
        <ele>1009.52</ele>
        <time>2013-09-21T15:33:29Z</time>
      </trkpt>
      <trkpt lat="45.58928" lon="2.79291">
        <ele>1010</ele>
        <time>2013-09-21T15:33:30Z</time>
      </trkpt>
      <trkpt lat="45.58928" lon="2.79293">
        <ele>1010.48</ele>
        <time>2013-09-21T15:33:31Z</time>
      </trkpt>
      <trkpt lat="45.58928" lon="2.79295">
        <ele>1010</ele>
        <time>2013-09-21T15:33:32Z</time>
      </trkpt>
      <trkpt lat="45.58928" lon="2.79297">
        <ele>1010.96</ele>
        <time>2013-09-21T15:33:33Z</time>
      </trkpt>
      <trkpt lat="45.5893" lon="2.79303">
        <ele>1011.44</ele>
        <time>2013-09-21T15:33:46Z</time>
      </trkpt>
      <trkpt lat="45.58931" lon="2.79305">
        <ele>1010.48</ele>
        <time>2013-09-21T15:34:06Z</time>
      </trkpt>
      <trkpt lat="45.58933" lon="2.79306">
        <ele>1010.48</ele>
        <time>2013-09-21T15:34:34Z</time>
      </trkpt>
      <trkpt lat="45.58944" lon="2.79323">
        <ele>1010</ele>
        <time>2013-09-21T15:34:43Z</time>
      </trkpt>
      <trkpt lat="45.58958" lon="2.79338">
        <ele>1012.89</ele>
        <time>2013-09-21T15:34:54Z</time>
      </trkpt>
      <trkpt lat="45.58963" lon="2.79345">
        <ele>1014.33</ele>
        <time>2013-09-21T15:34:59Z</time>
      </trkpt>
      <trkpt lat="45.58964" lon="2.79347">
        <ele>1014.33</ele>
        <time>2013-09-21T15:35:00Z</time>
      </trkpt>
      <trkpt lat="45.58964" lon="2.79348">
        <ele>1013.85</ele>
        <time>2013-09-21T15:35:01Z</time>
      </trkpt>
      <trkpt lat="45.58957" lon="2.79368">
        <ele>1015.29</ele>
        <time>2013-09-21T15:35:12Z</time>
      </trkpt>
      <trkpt lat="45.58956" lon="2.7937">
        <ele>1014.33</ele>
        <time>2013-09-21T15:35:13Z</time>
      </trkpt>
      <trkpt lat="45.58961" lon="2.79397">
        <ele>1016.25</ele>
        <time>2013-09-21T15:35:26Z</time>
      </trkpt>
      <trkpt lat="45.58962" lon="2.79401">
        <ele>1016.25</ele>
        <time>2013-09-21T15:35:28Z</time>
      </trkpt>
      <trkpt lat="45.58962" lon="2.79403">
        <ele>1016.73</ele>
        <time>2013-09-21T15:35:29Z</time>
      </trkpt>
      <trkpt lat="45.58966" lon="2.79414">
        <ele>1017.69</ele>
        <time>2013-09-21T15:35:35Z</time>
      </trkpt>
      <trkpt lat="45.58966" lon="2.79418">
        <ele>1017.69</ele>
        <time>2013-09-21T15:35:37Z</time>
      </trkpt>
      <trkpt lat="45.58972" lon="2.79447">
        <ele>1020.1</ele>
        <time>2013-09-21T15:35:50Z</time>
      </trkpt>
      <trkpt lat="45.58975" lon="2.79464">
        <ele>1022.5</ele>
        <time>2013-09-21T15:36:03Z</time>
      </trkpt>
      <trkpt lat="45.58982" lon="2.79483">
        <ele>1024.42</ele>
        <time>2013-09-21T15:36:15Z</time>
      </trkpt>
      <trkpt lat="45.58986" lon="2.79498">
        <ele>1025.86</ele>
        <time>2013-09-21T15:36:27Z</time>
      </trkpt>
      <trkpt lat="45.58991" lon="2.79514">
        <ele>1027.31</ele>
        <time>2013-09-21T15:36:37Z</time>
      </trkpt>
      <trkpt lat="45.58991" lon="2.79516">
        <ele>1027.31</ele>
        <time>2013-09-21T15:36:38Z</time>
      </trkpt>
      <trkpt lat="45.58992" lon="2.7952">
        <ele>1027.31</ele>
        <time>2013-09-21T15:36:40Z</time>
      </trkpt>
      <trkpt lat="45.58994" lon="2.79525">
        <ele>1027.31</ele>
        <time>2013-09-21T15:36:44Z</time>
      </trkpt>
      <trkpt lat="45.58996" lon="2.79533">
        <ele>1027.79</ele>
        <time>2013-09-21T15:36:47Z</time>
      </trkpt>
      <trkpt lat="45.58997" lon="2.79541">
        <ele>1028.27</ele>
        <time>2013-09-21T15:36:51Z</time>
      </trkpt>
      <trkpt lat="45.58998" lon="2.79564">
        <ele>1030.67</ele>
        <time>2013-09-21T15:37:03Z</time>
      </trkpt>
      <trkpt lat="45.58998" lon="2.79571">
        <ele>1031.63</ele>
        <time>2013-09-21T15:37:06Z</time>
      </trkpt>
      <trkpt lat="45.59003" lon="2.79598">
        <ele>1029.71</ele>
        <time>2013-09-21T15:37:14Z</time>
      </trkpt>
      <trkpt lat="45.59004" lon="2.79604">
        <ele>1029.23</ele>
        <time>2013-09-21T15:37:15Z</time>
      </trkpt>
      <trkpt lat="45.59014" lon="2.79641">
        <ele>1031.15</ele>
        <time>2013-09-21T15:37:26Z</time>
      </trkpt>
      <trkpt lat="45.59014" lon="2.7966">
        <ele>1031.63</ele>
        <time>2013-09-21T15:37:35Z</time>
      </trkpt>
      <trkpt lat="45.59013" lon="2.79662">
        <ele>1032.11</ele>
        <time>2013-09-21T15:37:36Z</time>
      </trkpt>
      <trkpt lat="45.59013" lon="2.79665">
        <ele>1031.63</ele>
        <time>2013-09-21T15:37:37Z</time>
      </trkpt>
      <trkpt lat="45.59013" lon="2.79667">
        <ele>1032.11</ele>
        <time>2013-09-21T15:37:38Z</time>
      </trkpt>
      <trkpt lat="45.59013" lon="2.79669">
        <ele>1033.07</ele>
        <time>2013-09-21T15:37:39Z</time>
      </trkpt>
      <trkpt lat="45.59013" lon="2.7967">
        <ele>1033.55</ele>
        <time>2013-09-21T15:37:40Z</time>
      </trkpt>
      <trkpt lat="45.59007" lon="2.79702">
        <ele>1032.11</ele>
        <time>2013-09-21T15:37:50Z</time>
      </trkpt>
      <trkpt lat="45.58998" lon="2.79758">
        <ele>1032.11</ele>
        <time>2013-09-21T15:38:03Z</time>
      </trkpt>
      <trkpt lat="45.59" lon="2.79795">
        <ele>1033.55</ele>
        <time>2013-09-21T15:38:14Z</time>
      </trkpt>
      <trkpt lat="45.59015" lon="2.79844">
        <ele>1033.55</ele>
        <time>2013-09-21T15:38:28Z</time>
      </trkpt>
      <trkpt lat="45.59016" lon="2.79851">
        <ele>1035</ele>
        <time>2013-09-21T15:38:31Z</time>
      </trkpt>
      <trkpt lat="45.59013" lon="2.79856">
        <ele>1035.48</ele>
        <time>2013-09-21T15:38:35Z</time>
      </trkpt>
      <trkpt lat="45.59012" lon="2.79859">
        <ele>1035.48</ele>
        <time>2013-09-21T15:38:37Z</time>
      </trkpt>
      <trkpt lat="45.59012" lon="2.79863">
        <ele>1035.48</ele>
        <time>2013-09-21T15:38:50Z</time>
      </trkpt>
      <trkpt lat="45.59013" lon="2.79863">
        <ele>1035.48</ele>
        <time>2013-09-21T15:39:10Z</time>
      </trkpt>
      <trkpt lat="45.59014" lon="2.79869">
        <ele>1035.48</ele>
        <time>2013-09-21T15:39:36Z</time>
      </trkpt>
      <trkpt lat="45.59016" lon="2.79874">
        <ele>1035.48</ele>
        <time>2013-09-21T15:39:40Z</time>
      </trkpt>
      <trkpt lat="45.59017" lon="2.79875">
        <ele>1035.48</ele>
        <time>2013-09-21T15:39:41Z</time>
      </trkpt>
      <trkpt lat="45.59018" lon="2.79881">
        <ele>1036.44</ele>
        <time>2013-09-21T15:39:45Z</time>
      </trkpt>
      <trkpt lat="45.59023" lon="2.79886">
        <ele>1037.4</ele>
        <time>2013-09-21T15:39:51Z</time>
      </trkpt>
      <trkpt lat="45.59024" lon="2.79887">
        <ele>1036.92</ele>
        <time>2013-09-21T15:39:52Z</time>
      </trkpt>
      <trkpt lat="45.59025" lon="2.79889">
        <ele>1036.44</ele>
        <time>2013-09-21T15:39:53Z</time>
      </trkpt>
      <trkpt lat="45.59025" lon="2.7989">
        <ele>1036.44</ele>
        <time>2013-09-21T15:39:54Z</time>
      </trkpt>
      <trkpt lat="45.59025" lon="2.79893">
        <ele>1036.44</ele>
        <time>2013-09-21T15:40:08Z</time>
      </trkpt>
      <trkpt lat="45.59027" lon="2.79894">
        <ele>1036.92</ele>
        <time>2013-09-21T15:40:33Z</time>
      </trkpt>
      <trkpt lat="45.59024" lon="2.79896">
        <ele>1036.92</ele>
        <time>2013-09-21T15:41:09Z</time>
      </trkpt>
      <trkpt lat="45.59026" lon="2.79894">
        <ele>1036.92</ele>
        <time>2013-09-21T15:41:44Z</time>
      </trkpt>
      <trkpt lat="45.59026" lon="2.79895">
        <ele>1036.92</ele>
        <time>2013-09-21T15:42:18Z</time>
      </trkpt>
      <trkpt lat="45.59025" lon="2.79898">
        <ele>1036.92</ele>
        <time>2013-09-21T15:42:29Z</time>
      </trkpt>
      <trkpt lat="45.59026" lon="2.799">
        <ele>1036.92</ele>
        <time>2013-09-21T15:42:30Z</time>
      </trkpt>
      <trkpt lat="45.59026" lon="2.79902">
        <ele>1036.92</ele>
        <time>2013-09-21T15:42:31Z</time>
      </trkpt>
      <trkpt lat="45.59027" lon="2.79903">
        <ele>1037.4</ele>
        <time>2013-09-21T15:42:32Z</time>
      </trkpt>
      <trkpt lat="45.59027" lon="2.79905">
        <ele>1036.92</ele>
        <time>2013-09-21T15:42:33Z</time>
      </trkpt>
      <trkpt lat="45.59027" lon="2.79908">
        <ele>1037.88</ele>
        <time>2013-09-21T15:42:34Z</time>
      </trkpt>
      <trkpt lat="45.59027" lon="2.7991">
        <ele>1037.88</ele>
        <time>2013-09-21T15:42:35Z</time>
      </trkpt>
      <trkpt lat="45.59027" lon="2.79912">
        <ele>1037.4</ele>
        <time>2013-09-21T15:42:36Z</time>
      </trkpt>
      <trkpt lat="45.59027" lon="2.79914">
        <ele>1037.88</ele>
        <time>2013-09-21T15:42:37Z</time>
      </trkpt>
      <trkpt lat="45.59027" lon="2.79917">
        <ele>1037.88</ele>
        <time>2013-09-21T15:42:38Z</time>
      </trkpt>
      <trkpt lat="45.59021" lon="2.7996">
        <ele>1035.96</ele>
        <time>2013-09-21T15:42:48Z</time>
      </trkpt>
      <trkpt lat="45.59017" lon="2.79971">
        <ele>1037.4</ele>
        <time>2013-09-21T15:42:54Z</time>
      </trkpt>
      <trkpt lat="45.5901" lon="2.79992">
        <ele>1037.88</ele>
        <time>2013-09-21T15:43:06Z</time>
      </trkpt>
      <trkpt lat="45.59012" lon="2.79995">
        <ele>1038.36</ele>
        <time>2013-09-21T15:43:08Z</time>
      </trkpt>
      <trkpt lat="45.59016" lon="2.79995">
        <ele>1038.84</ele>
        <time>2013-09-21T15:43:12Z</time>
      </trkpt>
      <trkpt lat="45.59018" lon="2.79994">
        <ele>1038.36</ele>
        <time>2013-09-21T15:43:13Z</time>
      </trkpt>
      <trkpt lat="45.59023" lon="2.79991">
        <ele>1038.84</ele>
        <time>2013-09-21T15:43:17Z</time>
      </trkpt>
      <trkpt lat="45.59024" lon="2.79992">
        <ele>1039.8</ele>
        <time>2013-09-21T15:43:18Z</time>
      </trkpt>
      <trkpt lat="45.59033" lon="2.80019">
        <ele>1041.73</ele>
        <time>2013-09-21T15:43:31Z</time>
      </trkpt>
      <trkpt lat="45.59034" lon="2.80021">
        <ele>1042.21</ele>
        <time>2013-09-21T15:43:32Z</time>
      </trkpt>
      <trkpt lat="45.59034" lon="2.80023">
        <ele>1041.73</ele>
        <time>2013-09-21T15:43:33Z</time>
      </trkpt>
      <trkpt lat="45.59035" lon="2.80025">
        <ele>1041.25</ele>
        <time>2013-09-21T15:43:34Z</time>
      </trkpt>
      <trkpt lat="45.59036" lon="2.80026">
        <ele>1042.21</ele>
        <time>2013-09-21T15:43:35Z</time>
      </trkpt>
      <trkpt lat="45.59037" lon="2.80028">
        <ele>1042.69</ele>
        <time>2013-09-21T15:43:36Z</time>
      </trkpt>
      <trkpt lat="45.59038" lon="2.8003">
        <ele>1042.21</ele>
        <time>2013-09-21T15:43:37Z</time>
      </trkpt>
      <trkpt lat="45.59039" lon="2.80033">
        <ele>1042.21</ele>
        <time>2013-09-21T15:43:38Z</time>
      </trkpt>
      <trkpt lat="45.59039" lon="2.80035">
        <ele>1042.69</ele>
        <time>2013-09-21T15:43:39Z</time>
      </trkpt>
      <trkpt lat="45.59039" lon="2.80037">
        <ele>1043.17</ele>
        <time>2013-09-21T15:43:40Z</time>
      </trkpt>
      <trkpt lat="45.59039" lon="2.80041">
        <ele>1043.17</ele>
        <time>2013-09-21T15:43:42Z</time>
      </trkpt>
      <trkpt lat="45.59039" lon="2.80043">
        <ele>1043.17</ele>
        <time>2013-09-21T15:43:43Z</time>
      </trkpt>
      <trkpt lat="45.59039" lon="2.80045">
        <ele>1043.65</ele>
        <time>2013-09-21T15:43:44Z</time>
      </trkpt>
      <trkpt lat="45.59039" lon="2.80047">
        <ele>1043.65</ele>
        <time>2013-09-21T15:43:45Z</time>
      </trkpt>
      <trkpt lat="45.59039" lon="2.80049">
        <ele>1043.65</ele>
        <time>2013-09-21T15:43:46Z</time>
      </trkpt>
      <trkpt lat="45.59045" lon="2.80085">
        <ele>1044.61</ele>
        <time>2013-09-21T15:43:59Z</time>
      </trkpt>
      <trkpt lat="45.59051" lon="2.80113">
        <ele>1045.57</ele>
        <time>2013-09-21T15:44:11Z</time>
      </trkpt>
      <trkpt lat="45.59054" lon="2.80132">
        <ele>1047.01</ele>
        <time>2013-09-21T15:44:18Z</time>
      </trkpt>
      <trkpt lat="45.59057" lon="2.80162">
        <ele>1048.45</ele>
        <time>2013-09-21T15:44:28Z</time>
      </trkpt>
      <trkpt lat="45.59057" lon="2.80167">
        <ele>1048.45</ele>
        <time>2013-09-21T15:44:30Z</time>
      </trkpt>
      <trkpt lat="45.59057" lon="2.80169">
        <ele>1048.45</ele>
        <time>2013-09-21T15:44:31Z</time>
      </trkpt>
      <trkpt lat="45.59057" lon="2.80172">
        <ele>1048.94</ele>
        <time>2013-09-21T15:44:32Z</time>
      </trkpt>
      <trkpt lat="45.59058" lon="2.80177">
        <ele>1049.42</ele>
        <time>2013-09-21T15:44:35Z</time>
      </trkpt>
      <trkpt lat="45.59061" lon="2.80197">
        <ele>1049.42</ele>
        <time>2013-09-21T15:44:43Z</time>
      </trkpt>
      <trkpt lat="45.59062" lon="2.80201">
        <ele>1049.42</ele>
        <time>2013-09-21T15:44:44Z</time>
      </trkpt>
      <trkpt lat="45.59062" lon="2.80205">
        <ele>1048.94</ele>
        <time>2013-09-21T15:44:45Z</time>
      </trkpt>
      <trkpt lat="45.59066" lon="2.80253">
        <ele>1047.49</ele>
        <time>2013-09-21T15:44:55Z</time>
      </trkpt>
      <trkpt lat="45.59066" lon="2.80283">
        <ele>1049.42</ele>
        <time>2013-09-21T15:45:05Z</time>
      </trkpt>
      <trkpt lat="45.59066" lon="2.8029">
        <ele>1049.9</ele>
        <time>2013-09-21T15:45:08Z</time>
      </trkpt>
      <trkpt lat="45.59066" lon="2.80293">
        <ele>1050.86</ele>
        <time>2013-09-21T15:45:09Z</time>
      </trkpt>
      <trkpt lat="45.59066" lon="2.80295">
        <ele>1050.38</ele>
        <time>2013-09-21T15:45:10Z</time>
      </trkpt>
      <trkpt lat="45.59066" lon="2.80298">
        <ele>1050.86</ele>
        <time>2013-09-21T15:45:11Z</time>
      </trkpt>
      <trkpt lat="45.59066" lon="2.80301">
        <ele>1050.38</ele>
        <time>2013-09-21T15:45:12Z</time>
      </trkpt>
      <trkpt lat="45.59068" lon="2.80342">
        <ele>1052.3</ele>
        <time>2013-09-21T15:45:24Z</time>
      </trkpt>
      <trkpt lat="45.59071" lon="2.80377">
        <ele>1053.26</ele>
        <time>2013-09-21T15:45:35Z</time>
      </trkpt>
      <trkpt lat="45.59081" lon="2.8041">
        <ele>1053.74</ele>
        <time>2013-09-21T15:45:46Z</time>
      </trkpt>
      <trkpt lat="45.59087" lon="2.80458">
        <ele>1054.22</ele>
        <time>2013-09-21T15:45:58Z</time>
      </trkpt>
      <trkpt lat="45.59086" lon="2.80484">
        <ele>1054.7</ele>
        <time>2013-09-21T15:46:07Z</time>
      </trkpt>
      <trkpt lat="45.59091" lon="2.8049">
        <ele>1056.15</ele>
        <time>2013-09-21T15:46:11Z</time>
      </trkpt>
      <trkpt lat="45.59092" lon="2.8049">
        <ele>1056.15</ele>
        <time>2013-09-21T15:46:12Z</time>
      </trkpt>
      <trkpt lat="45.59097" lon="2.80492">
        <ele>1056.63</ele>
        <time>2013-09-21T15:46:15Z</time>
      </trkpt>
      <trkpt lat="45.59104" lon="2.80524">
        <ele>1058.07</ele>
        <time>2013-09-21T15:46:23Z</time>
      </trkpt>
      <trkpt lat="45.59105" lon="2.80527">
        <ele>1058.07</ele>
        <time>2013-09-21T15:46:24Z</time>
      </trkpt>
      <trkpt lat="45.59112" lon="2.8054">
        <ele>1059.51</ele>
        <time>2013-09-21T15:46:37Z</time>
      </trkpt>
      <trkpt lat="45.59116" lon="2.80554">
        <ele>1060.47</ele>
        <time>2013-09-21T15:46:51Z</time>
      </trkpt>
      <trkpt lat="45.59119" lon="2.80573">
        <ele>1061.43</ele>
        <time>2013-09-21T15:47:05Z</time>
      </trkpt>
      <trkpt lat="45.59119" lon="2.80582">
        <ele>1061.91</ele>
        <time>2013-09-21T15:47:19Z</time>
      </trkpt>
      <trkpt lat="45.59117" lon="2.80583">
        <ele>1060.95</ele>
        <time>2013-09-21T15:47:41Z</time>
      </trkpt>
      <trkpt lat="45.59118" lon="2.80585">
        <ele>1061.43</ele>
        <time>2013-09-21T15:47:59Z</time>
      </trkpt>
      <trkpt lat="45.59118" lon="2.80587">
        <ele>1061.43</ele>
        <time>2013-09-21T15:48:00Z</time>
      </trkpt>
      <trkpt lat="45.59121" lon="2.80601">
        <ele>1062.39</ele>
        <time>2013-09-21T15:48:08Z</time>
      </trkpt>
      <trkpt lat="45.59125" lon="2.80614">
        <ele>1063.36</ele>
        <time>2013-09-21T15:48:16Z</time>
      </trkpt>
      <trkpt lat="45.59125" lon="2.80616">
        <ele>1063.84</ele>
        <time>2013-09-21T15:48:17Z</time>
      </trkpt>
      <trkpt lat="45.59126" lon="2.80617">
        <ele>1063.36</ele>
        <time>2013-09-21T15:48:18Z</time>
      </trkpt>
      <trkpt lat="45.59126" lon="2.80619">
        <ele>1063.36</ele>
        <time>2013-09-21T15:48:19Z</time>
      </trkpt>
      <trkpt lat="45.59127" lon="2.80621">
        <ele>1063.84</ele>
        <time>2013-09-21T15:48:20Z</time>
      </trkpt>
      <trkpt lat="45.59128" lon="2.80622">
        <ele>1064.32</ele>
        <time>2013-09-21T15:48:21Z</time>
      </trkpt>
      <trkpt lat="45.59129" lon="2.80624">
        <ele>1064.32</ele>
        <time>2013-09-21T15:48:22Z</time>
      </trkpt>
      <trkpt lat="45.59137" lon="2.80651">
        <ele>1066.24</ele>
        <time>2013-09-21T15:48:38Z</time>
      </trkpt>
      <trkpt lat="45.5914" lon="2.80654">
        <ele>1066.72</ele>
        <time>2013-09-21T15:48:41Z</time>
      </trkpt>
      <trkpt lat="45.59141" lon="2.80655">
        <ele>1066.24</ele>
        <time>2013-09-21T15:48:42Z</time>
      </trkpt>
      <trkpt lat="45.5915" lon="2.80668">
        <ele>1065.76</ele>
        <time>2013-09-21T15:48:49Z</time>
      </trkpt>
      <trkpt lat="45.59151" lon="2.8067">
        <ele>1065.28</ele>
        <time>2013-09-21T15:48:50Z</time>
      </trkpt>
      <trkpt lat="45.59151" lon="2.80672">
        <ele>1065.28</ele>
        <time>2013-09-21T15:48:51Z</time>
      </trkpt>
      <trkpt lat="45.59152" lon="2.80675">
        <ele>1065.76</ele>
        <time>2013-09-21T15:48:52Z</time>
      </trkpt>
      <trkpt lat="45.59152" lon="2.80677">
        <ele>1065.76</ele>
        <time>2013-09-21T15:48:53Z</time>
      </trkpt>
      <trkpt lat="45.59152" lon="2.8068">
        <ele>1065.76</ele>
        <time>2013-09-21T15:48:54Z</time>
      </trkpt>
      <trkpt lat="45.59152" lon="2.80682">
        <ele>1065.76</ele>
        <time>2013-09-21T15:48:55Z</time>
      </trkpt>
      <trkpt lat="45.59151" lon="2.80685">
        <ele>1066.24</ele>
        <time>2013-09-21T15:48:56Z</time>
      </trkpt>
      <trkpt lat="45.59151" lon="2.80689">
        <ele>1066.24</ele>
        <time>2013-09-21T15:48:57Z</time>
      </trkpt>
      <trkpt lat="45.59151" lon="2.80693">
        <ele>1066.72</ele>
        <time>2013-09-21T15:48:58Z</time>
      </trkpt>
      <trkpt lat="45.59156" lon="2.80721">
        <ele>1068.16</ele>
        <time>2013-09-21T15:49:06Z</time>
      </trkpt>
      <trkpt lat="45.59158" lon="2.80731">
        <ele>1069.12</ele>
        <time>2013-09-21T15:49:10Z</time>
      </trkpt>
      <trkpt lat="45.59159" lon="2.80736">
        <ele>1069.12</ele>
        <time>2013-09-21T15:49:12Z</time>
      </trkpt>
      <trkpt lat="45.59169" lon="2.80776">
        <ele>1066.72</ele>
        <time>2013-09-21T15:49:23Z</time>
      </trkpt>
      <trkpt lat="45.59166" lon="2.80791">
        <ele>1065.76</ele>
        <time>2013-09-21T15:49:26Z</time>
      </trkpt>
      <trkpt lat="45.59164" lon="2.80795">
        <ele>1066.24</ele>
        <time>2013-09-21T15:49:27Z</time>
      </trkpt>
      <trkpt lat="45.59161" lon="2.80799">
        <ele>1066.24</ele>
        <time>2013-09-21T15:49:28Z</time>
      </trkpt>
      <trkpt lat="45.59142" lon="2.80829">
        <ele>1067.68</ele>
        <time>2013-09-21T15:49:39Z</time>
      </trkpt>
      <trkpt lat="45.59138" lon="2.80846">
        <ele>1068.16</ele>
        <time>2013-09-21T15:49:44Z</time>
      </trkpt>
      <trkpt lat="45.59138" lon="2.80852">
        <ele>1068.16</ele>
        <time>2013-09-21T15:49:45Z</time>
      </trkpt>
      <trkpt lat="45.59135" lon="2.80887">
        <ele>1071.05</ele>
        <time>2013-09-21T15:49:59Z</time>
      </trkpt>
      <trkpt lat="45.59136" lon="2.8089">
        <ele>1071.53</ele>
        <time>2013-09-21T15:50:00Z</time>
      </trkpt>
      <trkpt lat="45.59139" lon="2.80914">
        <ele>1074.41</ele>
        <time>2013-09-21T15:50:12Z</time>
      </trkpt>
      <trkpt lat="45.5914" lon="2.80931">
        <ele>1075.37</ele>
        <time>2013-09-21T15:50:19Z</time>
      </trkpt>
      <trkpt lat="45.59141" lon="2.80933">
        <ele>1075.37</ele>
        <time>2013-09-21T15:50:20Z</time>
      </trkpt>
      <trkpt lat="45.59141" lon="2.80935">
        <ele>1075.37</ele>
        <time>2013-09-21T15:50:21Z</time>
      </trkpt>
      <trkpt lat="45.59149" lon="2.80967">
        <ele>1075.85</ele>
        <time>2013-09-21T15:50:34Z</time>
      </trkpt>
      <trkpt lat="45.59168" lon="2.81007">
        <ele>1074.41</ele>
        <time>2013-09-21T15:50:48Z</time>
      </trkpt>
      <trkpt lat="45.5919" lon="2.81042">
        <ele>1073.45</ele>
        <time>2013-09-21T15:51:00Z</time>
      </trkpt>
      <trkpt lat="45.59191" lon="2.81049">
        <ele>1072.97</ele>
        <time>2013-09-21T15:51:01Z</time>
      </trkpt>
      <trkpt lat="45.59192" lon="2.81056">
        <ele>1072.97</ele>
        <time>2013-09-21T15:51:02Z</time>
      </trkpt>
      <trkpt lat="45.59193" lon="2.81064">
        <ele>1071.53</ele>
        <time>2013-09-21T15:51:03Z</time>
      </trkpt>
      <trkpt lat="45.59195" lon="2.81072">
        <ele>1070.08</ele>
        <time>2013-09-21T15:51:04Z</time>
      </trkpt>
      <trkpt lat="45.59196" lon="2.8108">
        <ele>1068.64</ele>
        <time>2013-09-21T15:51:05Z</time>
      </trkpt>
      <trkpt lat="45.59195" lon="2.81089">
        <ele>1068.16</ele>
        <time>2013-09-21T15:51:06Z</time>
      </trkpt>
      <trkpt lat="45.59191" lon="2.81097">
        <ele>1066.24</ele>
        <time>2013-09-21T15:51:07Z</time>
      </trkpt>
      <trkpt lat="45.59185" lon="2.81104">
        <ele>1065.76</ele>
        <time>2013-09-21T15:51:08Z</time>
      </trkpt>
      <trkpt lat="45.59178" lon="2.8111">
        <ele>1064.32</ele>
        <time>2013-09-21T15:51:09Z</time>
      </trkpt>
      <trkpt lat="45.59169" lon="2.81116">
        <ele>1062.39</ele>
        <time>2013-09-21T15:51:10Z</time>
      </trkpt>
      <trkpt lat="45.59161" lon="2.81121">
        <ele>1060.95</ele>
        <time>2013-09-21T15:51:11Z</time>
      </trkpt>
      <trkpt lat="45.59152" lon="2.81124">
        <ele>1059.99</ele>
        <time>2013-09-21T15:51:12Z</time>
      </trkpt>
      <trkpt lat="45.59143" lon="2.81122">
        <ele>1059.51</ele>
        <time>2013-09-21T15:51:13Z</time>
      </trkpt>
      <trkpt lat="45.59135" lon="2.81117">
        <ele>1059.03</ele>
        <time>2013-09-21T15:51:14Z</time>
      </trkpt>
      <trkpt lat="45.59127" lon="2.8111">
        <ele>1058.07</ele>
        <time>2013-09-21T15:51:15Z</time>
      </trkpt>
      <trkpt lat="45.59119" lon="2.81101">
        <ele>1057.11</ele>
        <time>2013-09-21T15:51:16Z</time>
      </trkpt>
      <trkpt lat="45.59111" lon="2.81091">
        <ele>1054.7</ele>
        <time>2013-09-21T15:51:17Z</time>
      </trkpt>
      <trkpt lat="45.59104" lon="2.8108">
        <ele>1053.26</ele>
        <time>2013-09-21T15:51:18Z</time>
      </trkpt>
      <trkpt lat="45.59089" lon="2.81055">
        <ele>1050.86</ele>
        <time>2013-09-21T15:51:20Z</time>
      </trkpt>
      <trkpt lat="45.59083" lon="2.81041">
        <ele>1048.94</ele>
        <time>2013-09-21T15:51:21Z</time>
      </trkpt>
      <trkpt lat="45.59078" lon="2.81025">
        <ele>1048.45</ele>
        <time>2013-09-21T15:51:22Z</time>
      </trkpt>
      <trkpt lat="45.59073" lon="2.81009">
        <ele>1046.53</ele>
        <time>2013-09-21T15:51:23Z</time>
      </trkpt>
      <trkpt lat="45.5907" lon="2.80992">
        <ele>1046.05</ele>
        <time>2013-09-21T15:51:24Z</time>
      </trkpt>
      <trkpt lat="45.59069" lon="2.80975">
        <ele>1045.09</ele>
        <time>2013-09-21T15:51:25Z</time>
      </trkpt>
      <trkpt lat="45.5907" lon="2.80957">
        <ele>1043.17</ele>
        <time>2013-09-21T15:51:26Z</time>
      </trkpt>
      <trkpt lat="45.59071" lon="2.80938">
        <ele>1042.21</ele>
        <time>2013-09-21T15:51:27Z</time>
      </trkpt>
      <trkpt lat="45.59072" lon="2.80901">
        <ele>1038.36</ele>
        <time>2013-09-21T15:51:29Z</time>
      </trkpt>
      <trkpt lat="45.59072" lon="2.80883">
        <ele>1036.44</ele>
        <time>2013-09-21T15:51:30Z</time>
      </trkpt>
      <trkpt lat="45.5907" lon="2.80867">
        <ele>1035.96</ele>
        <time>2013-09-21T15:51:31Z</time>
      </trkpt>
      <trkpt lat="45.59066" lon="2.80852">
        <ele>1034.04</ele>
        <time>2013-09-21T15:51:32Z</time>
      </trkpt>
      <trkpt lat="45.59058" lon="2.80822">
        <ele>1028.75</ele>
        <time>2013-09-21T15:51:34Z</time>
      </trkpt>
      <trkpt lat="45.59054" lon="2.80789">
        <ele>1026.83</ele>
        <time>2013-09-21T15:51:36Z</time>
      </trkpt>
      <trkpt lat="45.59049" lon="2.80754">
        <ele>1021.06</ele>
        <time>2013-09-21T15:51:38Z</time>
      </trkpt>
      <trkpt lat="45.59047" lon="2.80737">
        <ele>1019.13</ele>
        <time>2013-09-21T15:51:39Z</time>
      </trkpt>
      <trkpt lat="45.59044" lon="2.8072">
        <ele>1017.21</ele>
        <time>2013-09-21T15:51:40Z</time>
      </trkpt>
      <trkpt lat="45.5904" lon="2.80704">
        <ele>1015.77</ele>
        <time>2013-09-21T15:51:41Z</time>
      </trkpt>
      <trkpt lat="45.59035" lon="2.80691">
        <ele>1015.77</ele>
        <time>2013-09-21T15:51:42Z</time>
      </trkpt>
      <trkpt lat="45.59029" lon="2.80678">
        <ele>1014.33</ele>
        <time>2013-09-21T15:51:43Z</time>
      </trkpt>
      <trkpt lat="45.59021" lon="2.80666">
        <ele>1012.41</ele>
        <time>2013-09-21T15:51:44Z</time>
      </trkpt>
      <trkpt lat="45.59" lon="2.80635">
        <ele>1008.56</ele>
        <time>2013-09-21T15:51:47Z</time>
      </trkpt>
      <trkpt lat="45.58996" lon="2.80623">
        <ele>1008.08</ele>
        <time>2013-09-21T15:51:48Z</time>
      </trkpt>
      <trkpt lat="45.58992" lon="2.8061">
        <ele>1006.64</ele>
        <time>2013-09-21T15:51:49Z</time>
      </trkpt>
      <trkpt lat="45.58989" lon="2.80596">
        <ele>1005.68</ele>
        <time>2013-09-21T15:51:50Z</time>
      </trkpt>
      <trkpt lat="45.58988" lon="2.80582">
        <ele>1005.68</ele>
        <time>2013-09-21T15:51:51Z</time>
      </trkpt>
      <trkpt lat="45.5899" lon="2.8057">
        <ele>1003.75</ele>
        <time>2013-09-21T15:51:52Z</time>
      </trkpt>
      <trkpt lat="45.58991" lon="2.80559">
        <ele>1004.23</ele>
        <time>2013-09-21T15:51:53Z</time>
      </trkpt>
      <trkpt lat="45.5899" lon="2.80549">
        <ele>1005.68</ele>
        <time>2013-09-21T15:51:54Z</time>
      </trkpt>
      <trkpt lat="45.58987" lon="2.80541">
        <ele>1005.68</ele>
        <time>2013-09-21T15:51:55Z</time>
      </trkpt>
      <trkpt lat="45.58984" lon="2.80534">
        <ele>1006.16</ele>
        <time>2013-09-21T15:51:56Z</time>
      </trkpt>
      <trkpt lat="45.58979" lon="2.80527">
        <ele>1006.64</ele>
        <time>2013-09-21T15:51:57Z</time>
      </trkpt>
      <trkpt lat="45.58975" lon="2.80522">
        <ele>1006.16</ele>
        <time>2013-09-21T15:51:58Z</time>
      </trkpt>
      <trkpt lat="45.58969" lon="2.80517">
        <ele>1005.68</ele>
        <time>2013-09-21T15:51:59Z</time>
      </trkpt>
      <trkpt lat="45.58964" lon="2.80513">
        <ele>1006.16</ele>
        <time>2013-09-21T15:52:00Z</time>
      </trkpt>
      <trkpt lat="45.58929" lon="2.80491">
        <ele>1008.08</ele>
        <time>2013-09-21T15:52:09Z</time>
      </trkpt>
      <trkpt lat="45.58903" lon="2.8047">
        <ele>1010</ele>
        <time>2013-09-21T15:52:22Z</time>
      </trkpt>
      <trkpt lat="45.58888" lon="2.80445">
        <ele>1012.41</ele>
        <time>2013-09-21T15:52:32Z</time>
      </trkpt>
      <trkpt lat="45.58879" lon="2.80425">
        <ele>1014.33</ele>
        <time>2013-09-21T15:52:44Z</time>
      </trkpt>
      <trkpt lat="45.58873" lon="2.80415">
        <ele>1016.25</ele>
        <time>2013-09-21T15:52:50Z</time>
      </trkpt>
      <trkpt lat="45.58862" lon="2.80392">
        <ele>1018.65</ele>
        <time>2013-09-21T15:53:03Z</time>
      </trkpt>
      <trkpt lat="45.5886" lon="2.80386">
        <ele>1019.62</ele>
        <time>2013-09-21T15:53:06Z</time>
      </trkpt>
      <trkpt lat="45.58859" lon="2.80377">
        <ele>1020.58</ele>
        <time>2013-09-21T15:53:11Z</time>
      </trkpt>
      <trkpt lat="45.58858" lon="2.80376">
        <ele>1020.1</ele>
        <time>2013-09-21T15:53:12Z</time>
      </trkpt>
      <trkpt lat="45.58855" lon="2.80371">
        <ele>1021.06</ele>
        <time>2013-09-21T15:53:15Z</time>
      </trkpt>
      <trkpt lat="45.58855" lon="2.8037">
        <ele>1020.58</ele>
        <time>2013-09-21T15:53:16Z</time>
      </trkpt>
      <trkpt lat="45.58854" lon="2.80368">
        <ele>1020.1</ele>
        <time>2013-09-21T15:53:17Z</time>
      </trkpt>
      <trkpt lat="45.58854" lon="2.80366">
        <ele>1020.58</ele>
        <time>2013-09-21T15:53:18Z</time>
      </trkpt>
      <trkpt lat="45.58853" lon="2.80364">
        <ele>1020.58</ele>
        <time>2013-09-21T15:53:19Z</time>
      </trkpt>
      <trkpt lat="45.58852" lon="2.80362">
        <ele>1020.58</ele>
        <time>2013-09-21T15:53:20Z</time>
      </trkpt>
      <trkpt lat="45.5885" lon="2.8036">
        <ele>1020.58</ele>
        <time>2013-09-21T15:53:21Z</time>
      </trkpt>
      <trkpt lat="45.5885" lon="2.80358">
        <ele>1020.58</ele>
        <time>2013-09-21T15:53:22Z</time>
      </trkpt>
      <trkpt lat="45.58849" lon="2.80355">
        <ele>1020.58</ele>
        <time>2013-09-21T15:53:23Z</time>
      </trkpt>
      <trkpt lat="45.58848" lon="2.80353">
        <ele>1021.06</ele>
        <time>2013-09-21T15:53:24Z</time>
      </trkpt>
      <trkpt lat="45.58834" lon="2.80319">
        <ele>1021.06</ele>
        <time>2013-09-21T15:53:40Z</time>
      </trkpt>
      <trkpt lat="45.5883" lon="2.80313">
        <ele>1021.06</ele>
        <time>2013-09-21T15:53:43Z</time>
      </trkpt>
      <trkpt lat="45.58829" lon="2.8031">
        <ele>1021.54</ele>
        <time>2013-09-21T15:53:44Z</time>
      </trkpt>
      <trkpt lat="45.58826" lon="2.803">
        <ele>1020.58</ele>
        <time>2013-09-21T15:53:55Z</time>
      </trkpt>
      <trkpt lat="45.58825" lon="2.80301">
        <ele>1021.06</ele>
        <time>2013-09-21T15:54:33Z</time>
      </trkpt>
      <trkpt lat="45.58827" lon="2.803">
        <ele>1021.06</ele>
        <time>2013-09-21T15:55:15Z</time>
      </trkpt>
      <trkpt lat="45.58829" lon="2.80303">
        <ele>1020.58</ele>
        <time>2013-09-21T15:55:51Z</time>
      </trkpt>
      <trkpt lat="45.5882" lon="2.80279">
        <ele>1019.62</ele>
        <time>2013-09-21T15:56:05Z</time>
      </trkpt>
      <trkpt lat="45.58793" lon="2.80228">
        <ele>1019.62</ele>
        <time>2013-09-21T15:56:19Z</time>
      </trkpt>
      <trkpt lat="45.58774" lon="2.80203">
        <ele>1017.69</ele>
        <time>2013-09-21T15:56:25Z</time>
      </trkpt>
      <trkpt lat="45.5877" lon="2.80197">
        <ele>1017.21</ele>
        <time>2013-09-21T15:56:26Z</time>
      </trkpt>
      <trkpt lat="45.58765" lon="2.8019">
        <ele>1016.73</ele>
        <time>2013-09-21T15:56:27Z</time>
      </trkpt>
      <trkpt lat="45.58754" lon="2.80176">
        <ele>1015.29</ele>
        <time>2013-09-21T15:56:29Z</time>
      </trkpt>
      <trkpt lat="45.58748" lon="2.8017">
        <ele>1014.33</ele>
        <time>2013-09-21T15:56:30Z</time>
      </trkpt>
      <trkpt lat="45.58741" lon="2.80165">
        <ele>1013.37</ele>
        <time>2013-09-21T15:56:31Z</time>
      </trkpt>
      <trkpt lat="45.58734" lon="2.80162">
        <ele>1013.37</ele>
        <time>2013-09-21T15:56:32Z</time>
      </trkpt>
      <trkpt lat="45.58726" lon="2.80159">
        <ele>1012.89</ele>
        <time>2013-09-21T15:56:33Z</time>
      </trkpt>
      <trkpt lat="45.58719" lon="2.80158">
        <ele>1013.37</ele>
        <time>2013-09-21T15:56:34Z</time>
      </trkpt>
      <trkpt lat="45.58712" lon="2.80158">
        <ele>1013.37</ele>
        <time>2013-09-21T15:56:35Z</time>
      </trkpt>
      <trkpt lat="45.58705" lon="2.80159">
        <ele>1012.89</ele>
        <time>2013-09-21T15:56:36Z</time>
      </trkpt>
      <trkpt lat="45.58635" lon="2.80171">
        <ele>1013.85</ele>
        <time>2013-09-21T15:56:48Z</time>
      </trkpt>
      <trkpt lat="45.58619" lon="2.80176">
        <ele>1013.37</ele>
        <time>2013-09-21T15:56:51Z</time>
      </trkpt>
      <trkpt lat="45.58595" lon="2.80184">
        <ele>1011.93</ele>
        <time>2013-09-21T15:56:55Z</time>
      </trkpt>
      <trkpt lat="45.5859" lon="2.80189">
        <ele>1011.93</ele>
        <time>2013-09-21T15:56:56Z</time>
      </trkpt>
      <trkpt lat="45.58579" lon="2.802">
        <ele>1010</ele>
        <time>2013-09-21T15:56:58Z</time>
      </trkpt>
      <trkpt lat="45.58573" lon="2.80207">
        <ele>1009.04</ele>
        <time>2013-09-21T15:56:59Z</time>
      </trkpt>
      <trkpt lat="45.58512" lon="2.80257">
        <ele>1005.68</ele>
        <time>2013-09-21T15:57:09Z</time>
      </trkpt>
      <trkpt lat="45.58432" lon="2.80313">
        <ele>1002.31</ele>
        <time>2013-09-21T15:57:21Z</time>
      </trkpt>
      <trkpt lat="45.58402" lon="2.80333">
        <ele>998.95</ele>
        <time>2013-09-21T15:57:25Z</time>
      </trkpt>
      <trkpt lat="45.58386" lon="2.80342">
        <ele>998.47</ele>
        <time>2013-09-21T15:57:27Z</time>
      </trkpt>
      <trkpt lat="45.58378" lon="2.80346">
        <ele>997.99</ele>
        <time>2013-09-21T15:57:28Z</time>
      </trkpt>
      <trkpt lat="45.58353" lon="2.80356">
        <ele>997.51</ele>
        <time>2013-09-21T15:57:31Z</time>
      </trkpt>
      <trkpt lat="45.58322" lon="2.80374">
        <ele>995.58</ele>
        <time>2013-09-21T15:57:35Z</time>
      </trkpt>
      <trkpt lat="45.58314" lon="2.80377">
        <ele>996.06</ele>
        <time>2013-09-21T15:57:36Z</time>
      </trkpt>
      <trkpt lat="45.58299" lon="2.80381">
        <ele>995.58</ele>
        <time>2013-09-21T15:57:38Z</time>
      </trkpt>
      <trkpt lat="45.58293" lon="2.80384">
        <ele>997.02</ele>
        <time>2013-09-21T15:57:39Z</time>
      </trkpt>
      <trkpt lat="45.58288" lon="2.80389">
        <ele>997.99</ele>
        <time>2013-09-21T15:57:40Z</time>
      </trkpt>
      <trkpt lat="45.58284" lon="2.80394">
        <ele>998.47</ele>
        <time>2013-09-21T15:57:41Z</time>
      </trkpt>
      <trkpt lat="45.58281" lon="2.80398">
        <ele>998.47</ele>
        <time>2013-09-21T15:57:42Z</time>
      </trkpt>
      <trkpt lat="45.5827" lon="2.8041">
        <ele>1001.35</ele>
        <time>2013-09-21T15:57:46Z</time>
      </trkpt>
      <trkpt lat="45.58238" lon="2.80457">
        <ele>1002.31</ele>
        <time>2013-09-21T15:58:03Z</time>
      </trkpt>
      <trkpt lat="45.58211" lon="2.80495">
        <ele>1004.23</ele>
        <time>2013-09-21T15:58:18Z</time>
      </trkpt>
      <trkpt lat="45.58208" lon="2.805">
        <ele>1004.23</ele>
        <time>2013-09-21T15:58:20Z</time>
      </trkpt>
      <trkpt lat="45.58206" lon="2.80502">
        <ele>1004.23</ele>
        <time>2013-09-21T15:58:21Z</time>
      </trkpt>
      <trkpt lat="45.58181" lon="2.80528">
        <ele>1005.68</ele>
        <time>2013-09-21T15:58:35Z</time>
      </trkpt>
      <trkpt lat="45.58156" lon="2.8056">
        <ele>1007.6</ele>
        <time>2013-09-21T15:58:50Z</time>
      </trkpt>
      <trkpt lat="45.58122" lon="2.80584">
        <ele>1009.04</ele>
        <time>2013-09-21T15:59:06Z</time>
      </trkpt>
      <trkpt lat="45.58098" lon="2.80604">
        <ele>1010.48</ele>
        <time>2013-09-21T15:59:18Z</time>
      </trkpt>
      <trkpt lat="45.58069" lon="2.80629">
        <ele>1011.44</ele>
        <time>2013-09-21T15:59:32Z</time>
      </trkpt>
      <trkpt lat="45.58032" lon="2.80654">
        <ele>1013.37</ele>
        <time>2013-09-21T15:59:49Z</time>
      </trkpt>
      <trkpt lat="45.57993" lon="2.80671">
        <ele>1015.29</ele>
        <time>2013-09-21T16:00:06Z</time>
      </trkpt>
      <trkpt lat="45.57951" lon="2.80687">
        <ele>1016.73</ele>
        <time>2013-09-21T16:00:24Z</time>
      </trkpt>
      <trkpt lat="45.57911" lon="2.80708">
        <ele>1018.17</ele>
        <time>2013-09-21T16:00:41Z</time>
      </trkpt>
      <trkpt lat="45.57875" lon="2.80731">
        <ele>1019.13</ele>
        <time>2013-09-21T16:00:57Z</time>
      </trkpt>
      <trkpt lat="45.57839" lon="2.80765">
        <ele>1022.02</ele>
        <time>2013-09-21T16:01:14Z</time>
      </trkpt>
      <trkpt lat="45.57811" lon="2.80795">
        <ele>1022.98</ele>
        <time>2013-09-21T16:01:29Z</time>
      </trkpt>
      <trkpt lat="45.57776" lon="2.8083">
        <ele>1024.42</ele>
        <time>2013-09-21T16:01:46Z</time>
      </trkpt>
      <trkpt lat="45.57751" lon="2.80856">
        <ele>1025.38</ele>
        <time>2013-09-21T16:01:59Z</time>
      </trkpt>
      <trkpt lat="45.57747" lon="2.80861">
        <ele>1025.86</ele>
        <time>2013-09-21T16:02:01Z</time>
      </trkpt>
      <trkpt lat="45.57746" lon="2.80864">
        <ele>1026.34</ele>
        <time>2013-09-21T16:02:02Z</time>
      </trkpt>
      <trkpt lat="45.57744" lon="2.80867">
        <ele>1025.86</ele>
        <time>2013-09-21T16:02:03Z</time>
      </trkpt>
      <trkpt lat="45.57742" lon="2.80869">
        <ele>1025.86</ele>
        <time>2013-09-21T16:02:04Z</time>
      </trkpt>
      <trkpt lat="45.57739" lon="2.80871">
        <ele>1025.86</ele>
        <time>2013-09-21T16:02:05Z</time>
      </trkpt>
      <trkpt lat="45.57717" lon="2.80902">
        <ele>1027.31</ele>
        <time>2013-09-21T16:02:18Z</time>
      </trkpt>
      <trkpt lat="45.57691" lon="2.80931">
        <ele>1029.23</ele>
        <time>2013-09-21T16:02:32Z</time>
      </trkpt>
      <trkpt lat="45.57674" lon="2.80938">
        <ele>1029.23</ele>
        <time>2013-09-21T16:02:40Z</time>
      </trkpt>
      <trkpt lat="45.57672" lon="2.80936">
        <ele>1029.23</ele>
        <time>2013-09-21T16:02:41Z</time>
      </trkpt>
      <trkpt lat="45.57667" lon="2.80905">
        <ele>1028.27</ele>
        <time>2013-09-21T16:02:48Z</time>
      </trkpt>
      <trkpt lat="45.57667" lon="2.80898">
        <ele>1027.79</ele>
        <time>2013-09-21T16:02:49Z</time>
      </trkpt>
      <trkpt lat="45.57666" lon="2.80891">
        <ele>1027.79</ele>
        <time>2013-09-21T16:02:50Z</time>
      </trkpt>
      <trkpt lat="45.5766" lon="2.80825">
        <ele>1024.42</ele>
        <time>2013-09-21T16:02:58Z</time>
      </trkpt>
      <trkpt lat="45.57653" lon="2.80781">
        <ele>1024.42</ele>
        <time>2013-09-21T16:03:06Z</time>
      </trkpt>
      <trkpt lat="45.5765" lon="2.80778">
        <ele>1024.42</ele>
        <time>2013-09-21T16:03:07Z</time>
      </trkpt>
      <trkpt lat="45.57646" lon="2.80777">
        <ele>1024.42</ele>
        <time>2013-09-21T16:03:08Z</time>
      </trkpt>
      <trkpt lat="45.57642" lon="2.80777">
        <ele>1024.9</ele>
        <time>2013-09-21T16:03:09Z</time>
      </trkpt>
      <trkpt lat="45.57639" lon="2.80777">
        <ele>1024.9</ele>
        <time>2013-09-21T16:03:10Z</time>
      </trkpt>
      <trkpt lat="45.57636" lon="2.80778">
        <ele>1024.42</ele>
        <time>2013-09-21T16:03:11Z</time>
      </trkpt>
      <trkpt lat="45.57634" lon="2.8078">
        <ele>1025.38</ele>
        <time>2013-09-21T16:03:12Z</time>
      </trkpt>
      <trkpt lat="45.57631" lon="2.80782">
        <ele>1025.38</ele>
        <time>2013-09-21T16:03:13Z</time>
      </trkpt>
      <trkpt lat="45.5763" lon="2.80784">
        <ele>1025.38</ele>
        <time>2013-09-21T16:03:14Z</time>
      </trkpt>
      <trkpt lat="45.57628" lon="2.80786">
        <ele>1025.86</ele>
        <time>2013-09-21T16:03:15Z</time>
      </trkpt>
      <trkpt lat="45.57625" lon="2.80788">
        <ele>1025.38</ele>
        <time>2013-09-21T16:03:16Z</time>
      </trkpt>
      <trkpt lat="45.57623" lon="2.8079">
        <ele>1025.86</ele>
        <time>2013-09-21T16:03:17Z</time>
      </trkpt>
      <trkpt lat="45.57621" lon="2.80792">
        <ele>1025.86</ele>
        <time>2013-09-21T16:03:18Z</time>
      </trkpt>
      <trkpt lat="45.57593" lon="2.80824">
        <ele>1027.79</ele>
        <time>2013-09-21T16:03:32Z</time>
      </trkpt>
      <trkpt lat="45.5756" lon="2.8086">
        <ele>1029.71</ele>
        <time>2013-09-21T16:03:48Z</time>
      </trkpt>
      <trkpt lat="45.57525" lon="2.8088">
        <ele>1031.63</ele>
        <time>2013-09-21T16:04:04Z</time>
      </trkpt>
      <trkpt lat="45.57486" lon="2.80897">
        <ele>1033.55</ele>
        <time>2013-09-21T16:04:23Z</time>
      </trkpt>
      <trkpt lat="45.57467" lon="2.80908">
        <ele>1035</ele>
        <time>2013-09-21T16:04:33Z</time>
      </trkpt>
      <trkpt lat="45.57465" lon="2.8091">
        <ele>1035</ele>
        <time>2013-09-21T16:04:34Z</time>
      </trkpt>
      <trkpt lat="45.57463" lon="2.80911">
        <ele>1035</ele>
        <time>2013-09-21T16:04:35Z</time>
      </trkpt>
      <trkpt lat="45.57461" lon="2.80912">
        <ele>1035.48</ele>
        <time>2013-09-21T16:04:36Z</time>
      </trkpt>
      <trkpt lat="45.57458" lon="2.80913">
        <ele>1035</ele>
        <time>2013-09-21T16:04:37Z</time>
      </trkpt>
      <trkpt lat="45.57427" lon="2.80933">
        <ele>1036.92</ele>
        <time>2013-09-21T16:04:53Z</time>
      </trkpt>
      <trkpt lat="45.57395" lon="2.80953">
        <ele>1038.84</ele>
        <time>2013-09-21T16:05:09Z</time>
      </trkpt>
      <trkpt lat="45.57375" lon="2.80965">
        <ele>1039.32</ele>
        <time>2013-09-21T16:05:19Z</time>
      </trkpt>
      <trkpt lat="45.57373" lon="2.80966">
        <ele>1039.32</ele>
        <time>2013-09-21T16:05:20Z</time>
      </trkpt>
      <trkpt lat="45.57371" lon="2.80967">
        <ele>1039.8</ele>
        <time>2013-09-21T16:05:21Z</time>
      </trkpt>
      <trkpt lat="45.57369" lon="2.80968">
        <ele>1040.28</ele>
        <time>2013-09-21T16:05:22Z</time>
      </trkpt>
      <trkpt lat="45.57368" lon="2.8097">
        <ele>1039.8</ele>
        <time>2013-09-21T16:05:23Z</time>
      </trkpt>
      <trkpt lat="45.57367" lon="2.80971">
        <ele>1040.28</ele>
        <time>2013-09-21T16:05:24Z</time>
      </trkpt>
      <trkpt lat="45.57365" lon="2.8097">
        <ele>1040.28</ele>
        <time>2013-09-21T16:05:25Z</time>
      </trkpt>
      <trkpt lat="45.57364" lon="2.80969">
        <ele>1040.28</ele>
        <time>2013-09-21T16:05:26Z</time>
      </trkpt>
      <trkpt lat="45.57362" lon="2.80966">
        <ele>1040.28</ele>
        <time>2013-09-21T16:05:27Z</time>
      </trkpt>
      <trkpt lat="45.57361" lon="2.80964">
        <ele>1040.28</ele>
        <time>2013-09-21T16:05:28Z</time>
      </trkpt>
      <trkpt lat="45.57357" lon="2.80958">
        <ele>1040.28</ele>
        <time>2013-09-21T16:05:31Z</time>
      </trkpt>
      <trkpt lat="45.57355" lon="2.80943">
        <ele>1040.76</ele>
        <time>2013-09-21T16:05:45Z</time>
      </trkpt>
      <trkpt lat="45.57349" lon="2.80944">
        <ele>1040.28</ele>
        <time>2013-09-21T16:05:58Z</time>
      </trkpt>
      <trkpt lat="45.5735" lon="2.80946">
        <ele>1040.28</ele>
        <time>2013-09-21T16:06:14Z</time>
      </trkpt>
      <trkpt lat="45.5735" lon="2.80948">
        <ele>1039.32</ele>
        <time>2013-09-21T16:06:42Z</time>
      </trkpt>
      <trkpt lat="45.57351" lon="2.80948">
        <ele>1040.76</ele>
        <time>2013-09-21T16:06:44Z</time>
      </trkpt>
      <trkpt lat="45.57349" lon="2.80947">
        <ele>1040.28</ele>
        <time>2013-09-21T16:07:17Z</time>
      </trkpt>
    </trkseg>
  </trk>
</gpx>